<?xml version="1.0" encoding="UTF-8" standalone="no" ?>
<gpx xmlns="http://www.topografix.com/GPX/1/1" xmlns:xsi="http://www.w3.org/2001/XMLSchema-instance" xsi:schemaLocation="http://www.topografix.com/GPX/1/1 http://www.topografix.com/GPX/1/1/gpx.xsd" version="1.1" creator="VisuGPX - https://www.visugpx.com">
  <metadata>
    <name>La rando de Carole aller Essalois 2025</name>
  </metadata>
  <trk>
    <name><![CDATA[Aller essalois 12/10]]></name>
    <extensions>
      <line xmlns="http://www.topografix.com/GPX/gpx_style/0/2">
        <color>0000FF</color>
        <width>4</width>
      </line>
    </extensions>
    <trkseg>
      <trkpt lat="45.47637" lon="4.1774">
        <ele>489</ele>
        <time>2025-09-16T12:12:58Z</time>
      </trkpt>
      <trkpt lat="45.47635" lon="4.17739">
        <ele>490</ele>
        <time>2025-09-16T12:13:00Z</time>
      </trkpt>
      <trkpt lat="45.47632" lon="4.17737">
        <ele>492</ele>
        <time>2025-09-16T12:13:01Z</time>
      </trkpt>
      <trkpt lat="45.47629" lon="4.17736">
        <ele>491</ele>
        <time>2025-09-16T12:13:02Z</time>
      </trkpt>
      <trkpt lat="45.47626" lon="4.17736">
        <ele>491</ele>
        <time>2025-09-16T12:13:03Z</time>
      </trkpt>
      <trkpt lat="45.47622" lon="4.17735">
        <ele>484</ele>
        <time>2025-09-16T12:13:05Z</time>
      </trkpt>
      <trkpt lat="45.47618" lon="4.17734">
        <ele>480</ele>
        <time>2025-09-16T12:13:06Z</time>
      </trkpt>
      <trkpt lat="45.47614" lon="4.17734">
        <ele>485</ele>
        <time>2025-09-16T12:13:07Z</time>
      </trkpt>
      <trkpt lat="45.4761" lon="4.17734">
        <ele>488</ele>
        <time>2025-09-16T12:13:08Z</time>
      </trkpt>
      <trkpt lat="45.47606" lon="4.17734">
        <ele>488</ele>
        <time>2025-09-16T12:13:09Z</time>
      </trkpt>
      <trkpt lat="45.47602" lon="4.17735">
        <ele>491</ele>
        <time>2025-09-16T12:13:10Z</time>
      </trkpt>
      <trkpt lat="45.47599" lon="4.17735">
        <ele>495</ele>
        <time>2025-09-16T12:13:11Z</time>
      </trkpt>
      <trkpt lat="45.47595" lon="4.17735">
        <ele>492</ele>
        <time>2025-09-16T12:13:12Z</time>
      </trkpt>
      <trkpt lat="45.47592" lon="4.17735">
        <ele>489</ele>
        <time>2025-09-16T12:13:13Z</time>
      </trkpt>
      <trkpt lat="45.47588" lon="4.17735">
        <ele>489</ele>
        <time>2025-09-16T12:13:14Z</time>
      </trkpt>
      <trkpt lat="45.47585" lon="4.17735">
        <ele>485</ele>
        <time>2025-09-16T12:13:15Z</time>
      </trkpt>
      <trkpt lat="45.47581" lon="4.17735">
        <ele>489</ele>
        <time>2025-09-16T12:13:16Z</time>
      </trkpt>
      <trkpt lat="45.47578" lon="4.17735">
        <ele>489</ele>
        <time>2025-09-16T12:13:17Z</time>
      </trkpt>
      <trkpt lat="45.47575" lon="4.17735">
        <ele>491</ele>
        <time>2025-09-16T12:13:18Z</time>
      </trkpt>
      <trkpt lat="45.47571" lon="4.17736">
        <ele>488</ele>
        <time>2025-09-16T12:13:19Z</time>
      </trkpt>
      <trkpt lat="45.47568" lon="4.17737">
        <ele>488</ele>
        <time>2025-09-16T12:13:20Z</time>
      </trkpt>
      <trkpt lat="45.47565" lon="4.17737">
        <ele>491</ele>
        <time>2025-09-16T12:13:21Z</time>
      </trkpt>
      <trkpt lat="45.47561" lon="4.17738">
        <ele>488</ele>
        <time>2025-09-16T12:13:22Z</time>
      </trkpt>
      <trkpt lat="45.47557" lon="4.17739">
        <ele>489</ele>
        <time>2025-09-16T12:13:23Z</time>
      </trkpt>
      <trkpt lat="45.47553" lon="4.17739">
        <ele>488</ele>
        <time>2025-09-16T12:13:24Z</time>
      </trkpt>
      <trkpt lat="45.47549" lon="4.1774">
        <ele>486</ele>
        <time>2025-09-16T12:13:25Z</time>
      </trkpt>
      <trkpt lat="45.47544" lon="4.1774">
        <ele>491</ele>
        <time>2025-09-16T12:13:26Z</time>
      </trkpt>
      <trkpt lat="45.4754" lon="4.1774">
        <ele>491</ele>
        <time>2025-09-16T12:13:27Z</time>
      </trkpt>
      <trkpt lat="45.47535" lon="4.17741">
        <ele>487</ele>
        <time>2025-09-16T12:13:28Z</time>
      </trkpt>
      <trkpt lat="45.47531" lon="4.17742">
        <ele>483</ele>
        <time>2025-09-16T12:13:29Z</time>
      </trkpt>
      <trkpt lat="45.47526" lon="4.17742">
        <ele>487</ele>
        <time>2025-09-16T12:13:30Z</time>
      </trkpt>
      <trkpt lat="45.47522" lon="4.17743">
        <ele>495</ele>
        <time>2025-09-16T12:13:31Z</time>
      </trkpt>
      <trkpt lat="45.47517" lon="4.17744">
        <ele>489</ele>
        <time>2025-09-16T12:13:32Z</time>
      </trkpt>
      <trkpt lat="45.47512" lon="4.17745">
        <ele>488</ele>
        <time>2025-09-16T12:13:33Z</time>
      </trkpt>
      <trkpt lat="45.47508" lon="4.17745">
        <ele>486</ele>
        <time>2025-09-16T12:13:34Z</time>
      </trkpt>
      <trkpt lat="45.47503" lon="4.17746">
        <ele>488</ele>
        <time>2025-09-16T12:13:35Z</time>
      </trkpt>
      <trkpt lat="45.47498" lon="4.17746">
        <ele>482</ele>
        <time>2025-09-16T12:13:36Z</time>
      </trkpt>
      <trkpt lat="45.47493" lon="4.17747">
        <ele>485</ele>
        <time>2025-09-16T12:13:37Z</time>
      </trkpt>
      <trkpt lat="45.47488" lon="4.17747">
        <ele>488</ele>
        <time>2025-09-16T12:13:38Z</time>
      </trkpt>
      <trkpt lat="45.47483" lon="4.17748">
        <ele>487</ele>
        <time>2025-09-16T12:13:39Z</time>
      </trkpt>
      <trkpt lat="45.47478" lon="4.17749">
        <ele>480</ele>
        <time>2025-09-16T12:13:40Z</time>
      </trkpt>
      <trkpt lat="45.47473" lon="4.1775">
        <ele>484</ele>
        <time>2025-09-16T12:13:41Z</time>
      </trkpt>
      <trkpt lat="45.47468" lon="4.17751">
        <ele>484</ele>
        <time>2025-09-16T12:13:42Z</time>
      </trkpt>
      <trkpt lat="45.47462" lon="4.17751">
        <ele>480</ele>
        <time>2025-09-16T12:13:43Z</time>
      </trkpt>
      <trkpt lat="45.47457" lon="4.17751">
        <ele>483</ele>
        <time>2025-09-16T12:13:44Z</time>
      </trkpt>
      <trkpt lat="45.47452" lon="4.17751">
        <ele>478</ele>
        <time>2025-09-16T12:13:45Z</time>
      </trkpt>
      <trkpt lat="45.47446" lon="4.1775">
        <ele>483</ele>
        <time>2025-09-16T12:13:46Z</time>
      </trkpt>
      <trkpt lat="45.4744" lon="4.17749">
        <ele>486</ele>
        <time>2025-09-16T12:13:47Z</time>
      </trkpt>
      <trkpt lat="45.47434" lon="4.17747">
        <ele>483</ele>
        <time>2025-09-16T12:13:48Z</time>
      </trkpt>
      <trkpt lat="45.47428" lon="4.17746">
        <ele>482</ele>
        <time>2025-09-16T12:13:49Z</time>
      </trkpt>
      <trkpt lat="45.47421" lon="4.17744">
        <ele>487</ele>
        <time>2025-09-16T12:13:50Z</time>
      </trkpt>
      <trkpt lat="45.47414" lon="4.17743">
        <ele>486</ele>
        <time>2025-09-16T12:13:51Z</time>
      </trkpt>
      <trkpt lat="45.47408" lon="4.17742">
        <ele>488</ele>
        <time>2025-09-16T12:13:52Z</time>
      </trkpt>
      <trkpt lat="45.47402" lon="4.17741">
        <ele>481</ele>
        <time>2025-09-16T12:13:53Z</time>
      </trkpt>
      <trkpt lat="45.47396" lon="4.17739">
        <ele>477</ele>
        <time>2025-09-16T12:13:54Z</time>
      </trkpt>
      <trkpt lat="45.4739" lon="4.17738">
        <ele>479</ele>
        <time>2025-09-16T12:13:55Z</time>
      </trkpt>
      <trkpt lat="45.47384" lon="4.17737">
        <ele>479</ele>
        <time>2025-09-16T12:13:56Z</time>
      </trkpt>
      <trkpt lat="45.47379" lon="4.17736">
        <ele>481</ele>
        <time>2025-09-16T12:13:57Z</time>
      </trkpt>
      <trkpt lat="45.47375" lon="4.17734">
        <ele>476</ele>
        <time>2025-09-16T12:13:58Z</time>
      </trkpt>
      <trkpt lat="45.47371" lon="4.17733">
        <ele>477</ele>
        <time>2025-09-16T12:13:59Z</time>
      </trkpt>
      <trkpt lat="45.47368" lon="4.17732">
        <ele>481</ele>
        <time>2025-09-16T12:14:01Z</time>
      </trkpt>
      <trkpt lat="45.47367" lon="4.17734">
        <ele>476</ele>
        <time>2025-09-16T12:14:04Z</time>
      </trkpt>
      <trkpt lat="45.47368" lon="4.17737">
        <ele>477</ele>
        <time>2025-09-16T12:14:05Z</time>
      </trkpt>
      <trkpt lat="45.47369" lon="4.1774">
        <ele>474</ele>
        <time>2025-09-16T12:14:06Z</time>
      </trkpt>
      <trkpt lat="45.47372" lon="4.17744">
        <ele>483</ele>
        <time>2025-09-16T12:14:07Z</time>
      </trkpt>
      <trkpt lat="45.47375" lon="4.17749">
        <ele>476</ele>
        <time>2025-09-16T12:14:08Z</time>
      </trkpt>
      <trkpt lat="45.47377" lon="4.17753">
        <ele>478</ele>
        <time>2025-09-16T12:14:09Z</time>
      </trkpt>
      <trkpt lat="45.47379" lon="4.17757">
        <ele>477</ele>
        <time>2025-09-16T12:14:10Z</time>
      </trkpt>
      <trkpt lat="45.47382" lon="4.17761">
        <ele>476</ele>
        <time>2025-09-16T12:14:11Z</time>
      </trkpt>
      <trkpt lat="45.47384" lon="4.17765">
        <ele>477</ele>
        <time>2025-09-16T12:14:12Z</time>
      </trkpt>
      <trkpt lat="45.47387" lon="4.1777">
        <ele>474</ele>
        <time>2025-09-16T12:14:13Z</time>
      </trkpt>
      <trkpt lat="45.47389" lon="4.17774">
        <ele>476</ele>
        <time>2025-09-16T12:14:14Z</time>
      </trkpt>
      <trkpt lat="45.47391" lon="4.17778">
        <ele>477</ele>
        <time>2025-09-16T12:14:15Z</time>
      </trkpt>
      <trkpt lat="45.47393" lon="4.17783">
        <ele>475</ele>
        <time>2025-09-16T12:14:16Z</time>
      </trkpt>
      <trkpt lat="45.47396" lon="4.17788">
        <ele>473</ele>
        <time>2025-09-16T12:14:17Z</time>
      </trkpt>
      <trkpt lat="45.47398" lon="4.17793">
        <ele>477</ele>
        <time>2025-09-16T12:14:18Z</time>
      </trkpt>
      <trkpt lat="45.47401" lon="4.17799">
        <ele>479</ele>
        <time>2025-09-16T12:14:19Z</time>
      </trkpt>
      <trkpt lat="45.47403" lon="4.17805">
        <ele>483</ele>
        <time>2025-09-16T12:14:20Z</time>
      </trkpt>
      <trkpt lat="45.47406" lon="4.1781">
        <ele>482</ele>
        <time>2025-09-16T12:14:21Z</time>
      </trkpt>
      <trkpt lat="45.47409" lon="4.17816">
        <ele>482</ele>
        <time>2025-09-16T12:14:22Z</time>
      </trkpt>
      <trkpt lat="45.47411" lon="4.17822">
        <ele>467</ele>
        <time>2025-09-16T12:14:23Z</time>
      </trkpt>
      <trkpt lat="45.47414" lon="4.17827">
        <ele>473</ele>
        <time>2025-09-16T12:14:24Z</time>
      </trkpt>
      <trkpt lat="45.47416" lon="4.17832">
        <ele>470</ele>
        <time>2025-09-16T12:14:25Z</time>
      </trkpt>
      <trkpt lat="45.47419" lon="4.17838">
        <ele>470</ele>
        <time>2025-09-16T12:14:26Z</time>
      </trkpt>
      <trkpt lat="45.47421" lon="4.17844">
        <ele>478</ele>
        <time>2025-09-16T12:14:27Z</time>
      </trkpt>
      <trkpt lat="45.47423" lon="4.1785">
        <ele>480</ele>
        <time>2025-09-16T12:14:28Z</time>
      </trkpt>
      <trkpt lat="45.47425" lon="4.17855">
        <ele>481</ele>
        <time>2025-09-16T12:14:29Z</time>
      </trkpt>
      <trkpt lat="45.47427" lon="4.17862">
        <ele>484</ele>
        <time>2025-09-16T12:14:30Z</time>
      </trkpt>
      <trkpt lat="45.47429" lon="4.17868">
        <ele>478</ele>
        <time>2025-09-16T12:14:31Z</time>
      </trkpt>
      <trkpt lat="45.47432" lon="4.17875">
        <ele>469</ele>
        <time>2025-09-16T12:14:32Z</time>
      </trkpt>
      <trkpt lat="45.47434" lon="4.17881">
        <ele>468</ele>
        <time>2025-09-16T12:14:33Z</time>
      </trkpt>
      <trkpt lat="45.47436" lon="4.17888">
        <ele>476</ele>
        <time>2025-09-16T12:14:34Z</time>
      </trkpt>
      <trkpt lat="45.47439" lon="4.17894">
        <ele>477</ele>
        <time>2025-09-16T12:14:35Z</time>
      </trkpt>
      <trkpt lat="45.47441" lon="4.179">
        <ele>471</ele>
        <time>2025-09-16T12:14:36Z</time>
      </trkpt>
      <trkpt lat="45.47443" lon="4.17905">
        <ele>471</ele>
        <time>2025-09-16T12:14:37Z</time>
      </trkpt>
      <trkpt lat="45.47446" lon="4.17911">
        <ele>472</ele>
        <time>2025-09-16T12:14:38Z</time>
      </trkpt>
      <trkpt lat="45.47448" lon="4.17917">
        <ele>462</ele>
        <time>2025-09-16T12:14:39Z</time>
      </trkpt>
      <trkpt lat="45.47451" lon="4.17922">
        <ele>464</ele>
        <time>2025-09-16T12:14:40Z</time>
      </trkpt>
      <trkpt lat="45.47453" lon="4.17928">
        <ele>473</ele>
        <time>2025-09-16T12:14:41Z</time>
      </trkpt>
      <trkpt lat="45.47455" lon="4.17933">
        <ele>468</ele>
        <time>2025-09-16T12:14:43Z</time>
      </trkpt>
      <trkpt lat="45.47457" lon="4.17939">
        <ele>477</ele>
        <time>2025-09-16T12:14:44Z</time>
      </trkpt>
      <trkpt lat="45.47459" lon="4.17944">
        <ele>469</ele>
        <time>2025-09-16T12:14:45Z</time>
      </trkpt>
      <trkpt lat="45.47462" lon="4.17949">
        <ele>468</ele>
        <time>2025-09-16T12:14:46Z</time>
      </trkpt>
      <trkpt lat="45.47464" lon="4.17955">
        <ele>475</ele>
        <time>2025-09-16T12:14:47Z</time>
      </trkpt>
      <trkpt lat="45.47466" lon="4.17961">
        <ele>475</ele>
        <time>2025-09-16T12:14:48Z</time>
      </trkpt>
      <trkpt lat="45.47469" lon="4.17967">
        <ele>475</ele>
        <time>2025-09-16T12:14:49Z</time>
      </trkpt>
      <trkpt lat="45.47471" lon="4.17973">
        <ele>474</ele>
        <time>2025-09-16T12:14:50Z</time>
      </trkpt>
      <trkpt lat="45.47474" lon="4.17978">
        <ele>469</ele>
        <time>2025-09-16T12:14:51Z</time>
      </trkpt>
      <trkpt lat="45.47476" lon="4.17984">
        <ele>474</ele>
        <time>2025-09-16T12:14:52Z</time>
      </trkpt>
      <trkpt lat="45.47479" lon="4.17988">
        <ele>469</ele>
        <time>2025-09-16T12:14:53Z</time>
      </trkpt>
      <trkpt lat="45.47481" lon="4.17992">
        <ele>464</ele>
        <time>2025-09-16T12:14:54Z</time>
      </trkpt>
      <trkpt lat="45.47484" lon="4.17996">
        <ele>466</ele>
        <time>2025-09-16T12:14:55Z</time>
      </trkpt>
      <trkpt lat="45.47486" lon="4.18">
        <ele>477</ele>
        <time>2025-09-16T12:14:56Z</time>
      </trkpt>
      <trkpt lat="45.47489" lon="4.18005">
        <ele>473</ele>
        <time>2025-09-16T12:14:57Z</time>
      </trkpt>
      <trkpt lat="45.47491" lon="4.18009">
        <ele>473</ele>
        <time>2025-09-16T12:14:58Z</time>
      </trkpt>
      <trkpt lat="45.47494" lon="4.18013">
        <ele>477</ele>
        <time>2025-09-16T12:14:59Z</time>
      </trkpt>
      <trkpt lat="45.47496" lon="4.18018">
        <ele>478</ele>
        <time>2025-09-16T12:15:00Z</time>
      </trkpt>
      <trkpt lat="45.47499" lon="4.18022">
        <ele>474</ele>
        <time>2025-09-16T12:15:01Z</time>
      </trkpt>
      <trkpt lat="45.47502" lon="4.18026">
        <ele>466</ele>
        <time>2025-09-16T12:15:02Z</time>
      </trkpt>
      <trkpt lat="45.47505" lon="4.1803">
        <ele>464</ele>
        <time>2025-09-16T12:15:03Z</time>
      </trkpt>
      <trkpt lat="45.47508" lon="4.18033">
        <ele>473</ele>
        <time>2025-09-16T12:15:04Z</time>
      </trkpt>
      <trkpt lat="45.47511" lon="4.18037">
        <ele>471</ele>
        <time>2025-09-16T12:15:05Z</time>
      </trkpt>
      <trkpt lat="45.47513" lon="4.18041">
        <ele>473</ele>
        <time>2025-09-16T12:15:06Z</time>
      </trkpt>
      <trkpt lat="45.47516" lon="4.18046">
        <ele>466</ele>
        <time>2025-09-16T12:15:07Z</time>
      </trkpt>
      <trkpt lat="45.47519" lon="4.18051">
        <ele>473</ele>
        <time>2025-09-16T12:15:08Z</time>
      </trkpt>
      <trkpt lat="45.47523" lon="4.18055">
        <ele>472</ele>
        <time>2025-09-16T12:15:09Z</time>
      </trkpt>
      <trkpt lat="45.47526" lon="4.1806">
        <ele>467</ele>
        <time>2025-09-16T12:15:10Z</time>
      </trkpt>
      <trkpt lat="45.4753" lon="4.18064">
        <ele>466</ele>
        <time>2025-09-16T12:15:11Z</time>
      </trkpt>
      <trkpt lat="45.47533" lon="4.18069">
        <ele>465</ele>
        <time>2025-09-16T12:15:12Z</time>
      </trkpt>
      <trkpt lat="45.47537" lon="4.18074">
        <ele>464</ele>
        <time>2025-09-16T12:15:13Z</time>
      </trkpt>
      <trkpt lat="45.47541" lon="4.18078">
        <ele>462</ele>
        <time>2025-09-16T12:15:14Z</time>
      </trkpt>
      <trkpt lat="45.47544" lon="4.18082">
        <ele>469</ele>
        <time>2025-09-16T12:15:15Z</time>
      </trkpt>
      <trkpt lat="45.47548" lon="4.18086">
        <ele>474</ele>
        <time>2025-09-16T12:15:16Z</time>
      </trkpt>
      <trkpt lat="45.47552" lon="4.18091">
        <ele>469</ele>
        <time>2025-09-16T12:15:17Z</time>
      </trkpt>
      <trkpt lat="45.47555" lon="4.18096">
        <ele>472</ele>
        <time>2025-09-16T12:15:18Z</time>
      </trkpt>
      <trkpt lat="45.47559" lon="4.18102">
        <ele>470</ele>
        <time>2025-09-16T12:15:19Z</time>
      </trkpt>
      <trkpt lat="45.47563" lon="4.18108">
        <ele>468</ele>
        <time>2025-09-16T12:15:20Z</time>
      </trkpt>
      <trkpt lat="45.47567" lon="4.18113">
        <ele>472</ele>
        <time>2025-09-16T12:15:21Z</time>
      </trkpt>
      <trkpt lat="45.47571" lon="4.18118">
        <ele>469</ele>
        <time>2025-09-16T12:15:22Z</time>
      </trkpt>
      <trkpt lat="45.47575" lon="4.18124">
        <ele>467</ele>
        <time>2025-09-16T12:15:23Z</time>
      </trkpt>
      <trkpt lat="45.4758" lon="4.18129">
        <ele>468</ele>
        <time>2025-09-16T12:15:24Z</time>
      </trkpt>
      <trkpt lat="45.47584" lon="4.18135">
        <ele>463</ele>
        <time>2025-09-16T12:15:25Z</time>
      </trkpt>
      <trkpt lat="45.47588" lon="4.1814">
        <ele>467</ele>
        <time>2025-09-16T12:15:26Z</time>
      </trkpt>
      <trkpt lat="45.47592" lon="4.18145">
        <ele>470</ele>
        <time>2025-09-16T12:15:27Z</time>
      </trkpt>
      <trkpt lat="45.47596" lon="4.18149">
        <ele>464</ele>
        <time>2025-09-16T12:15:28Z</time>
      </trkpt>
      <trkpt lat="45.476" lon="4.18154">
        <ele>467</ele>
        <time>2025-09-16T12:15:29Z</time>
      </trkpt>
      <trkpt lat="45.47604" lon="4.18158">
        <ele>462</ele>
        <time>2025-09-16T12:15:30Z</time>
      </trkpt>
      <trkpt lat="45.47609" lon="4.18163">
        <ele>465</ele>
        <time>2025-09-16T12:15:31Z</time>
      </trkpt>
      <trkpt lat="45.47613" lon="4.18168">
        <ele>466</ele>
        <time>2025-09-16T12:15:32Z</time>
      </trkpt>
      <trkpt lat="45.47617" lon="4.18173">
        <ele>467</ele>
        <time>2025-09-16T12:15:33Z</time>
      </trkpt>
      <trkpt lat="45.47621" lon="4.18178">
        <ele>469</ele>
        <time>2025-09-16T12:15:34Z</time>
      </trkpt>
      <trkpt lat="45.47625" lon="4.18183">
        <ele>466</ele>
        <time>2025-09-16T12:15:35Z</time>
      </trkpt>
      <trkpt lat="45.47629" lon="4.18187">
        <ele>465</ele>
        <time>2025-09-16T12:15:36Z</time>
      </trkpt>
      <trkpt lat="45.47633" lon="4.18192">
        <ele>468</ele>
        <time>2025-09-16T12:15:37Z</time>
      </trkpt>
      <trkpt lat="45.47637" lon="4.18196">
        <ele>465</ele>
        <time>2025-09-16T12:15:38Z</time>
      </trkpt>
      <trkpt lat="45.47641" lon="4.18201">
        <ele>464</ele>
        <time>2025-09-16T12:15:39Z</time>
      </trkpt>
      <trkpt lat="45.47645" lon="4.18205">
        <ele>460</ele>
        <time>2025-09-16T12:15:40Z</time>
      </trkpt>
      <trkpt lat="45.47648" lon="4.1821">
        <ele>459</ele>
        <time>2025-09-16T12:15:41Z</time>
      </trkpt>
      <trkpt lat="45.47651" lon="4.18214">
        <ele>465</ele>
        <time>2025-09-16T12:15:42Z</time>
      </trkpt>
      <trkpt lat="45.47654" lon="4.18218">
        <ele>459</ele>
        <time>2025-09-16T12:15:43Z</time>
      </trkpt>
      <trkpt lat="45.47657" lon="4.18222">
        <ele>464</ele>
        <time>2025-09-16T12:15:44Z</time>
      </trkpt>
      <trkpt lat="45.4766" lon="4.18226">
        <ele>460</ele>
        <time>2025-09-16T12:15:45Z</time>
      </trkpt>
      <trkpt lat="45.47663" lon="4.1823">
        <ele>459</ele>
        <time>2025-09-16T12:15:46Z</time>
      </trkpt>
      <trkpt lat="45.47667" lon="4.18234">
        <ele>462</ele>
        <time>2025-09-16T12:15:47Z</time>
      </trkpt>
      <trkpt lat="45.4767" lon="4.18238">
        <ele>458</ele>
        <time>2025-09-16T12:15:48Z</time>
      </trkpt>
      <trkpt lat="45.47673" lon="4.18242">
        <ele>461</ele>
        <time>2025-09-16T12:15:49Z</time>
      </trkpt>
      <trkpt lat="45.47676" lon="4.18246">
        <ele>461</ele>
        <time>2025-09-16T12:15:50Z</time>
      </trkpt>
      <trkpt lat="45.47679" lon="4.1825">
        <ele>460</ele>
        <time>2025-09-16T12:15:51Z</time>
      </trkpt>
      <trkpt lat="45.47683" lon="4.18254">
        <ele>465</ele>
        <time>2025-09-16T12:15:52Z</time>
      </trkpt>
      <trkpt lat="45.47686" lon="4.18259">
        <ele>460</ele>
        <time>2025-09-16T12:15:53Z</time>
      </trkpt>
      <trkpt lat="45.4769" lon="4.18264">
        <ele>462</ele>
        <time>2025-09-16T12:15:54Z</time>
      </trkpt>
      <trkpt lat="45.47694" lon="4.18269">
        <ele>463</ele>
        <time>2025-09-16T12:15:55Z</time>
      </trkpt>
      <trkpt lat="45.47698" lon="4.18273">
        <ele>462</ele>
        <time>2025-09-16T12:15:56Z</time>
      </trkpt>
      <trkpt lat="45.47701" lon="4.18277">
        <ele>460</ele>
        <time>2025-09-16T12:15:57Z</time>
      </trkpt>
      <trkpt lat="45.47704" lon="4.18281">
        <ele>462</ele>
        <time>2025-09-16T12:15:58Z</time>
      </trkpt>
      <trkpt lat="45.47707" lon="4.18285">
        <ele>462</ele>
        <time>2025-09-16T12:15:59Z</time>
      </trkpt>
      <trkpt lat="45.4771" lon="4.18289">
        <ele>463</ele>
        <time>2025-09-16T12:16:00Z</time>
      </trkpt>
      <trkpt lat="45.47713" lon="4.18294">
        <ele>463</ele>
        <time>2025-09-16T12:16:01Z</time>
      </trkpt>
      <trkpt lat="45.47716" lon="4.18298">
        <ele>463</ele>
        <time>2025-09-16T12:16:02Z</time>
      </trkpt>
      <trkpt lat="45.47719" lon="4.18302">
        <ele>458</ele>
        <time>2025-09-16T12:16:03Z</time>
      </trkpt>
      <trkpt lat="45.47721" lon="4.18306">
        <ele>459</ele>
        <time>2025-09-16T12:16:04Z</time>
      </trkpt>
      <trkpt lat="45.47724" lon="4.1831">
        <ele>456</ele>
        <time>2025-09-16T12:16:05Z</time>
      </trkpt>
      <trkpt lat="45.47727" lon="4.18315">
        <ele>459</ele>
        <time>2025-09-16T12:16:06Z</time>
      </trkpt>
      <trkpt lat="45.47731" lon="4.1832">
        <ele>462</ele>
        <time>2025-09-16T12:16:07Z</time>
      </trkpt>
      <trkpt lat="45.47734" lon="4.18325">
        <ele>461</ele>
        <time>2025-09-16T12:16:08Z</time>
      </trkpt>
      <trkpt lat="45.47738" lon="4.18331">
        <ele>461</ele>
        <time>2025-09-16T12:16:09Z</time>
      </trkpt>
      <trkpt lat="45.47742" lon="4.18336">
        <ele>457</ele>
        <time>2025-09-16T12:16:10Z</time>
      </trkpt>
      <trkpt lat="45.47746" lon="4.18342">
        <ele>462</ele>
        <time>2025-09-16T12:16:11Z</time>
      </trkpt>
      <trkpt lat="45.47749" lon="4.18348">
        <ele>458</ele>
        <time>2025-09-16T12:16:12Z</time>
      </trkpt>
      <trkpt lat="45.47751" lon="4.18352">
        <ele>461</ele>
        <time>2025-09-16T12:16:13Z</time>
      </trkpt>
      <trkpt lat="45.47752" lon="4.18357">
        <ele>459</ele>
        <time>2025-09-16T12:16:14Z</time>
      </trkpt>
      <trkpt lat="45.47754" lon="4.18361">
        <ele>458</ele>
        <time>2025-09-16T12:16:15Z</time>
      </trkpt>
      <trkpt lat="45.47756" lon="4.18365">
        <ele>453</ele>
        <time>2025-09-16T12:16:16Z</time>
      </trkpt>
      <trkpt lat="45.47758" lon="4.18369">
        <ele>454</ele>
        <time>2025-09-16T12:16:17Z</time>
      </trkpt>
      <trkpt lat="45.4776" lon="4.18373">
        <ele>455</ele>
        <time>2025-09-16T12:16:18Z</time>
      </trkpt>
      <trkpt lat="45.47762" lon="4.18377">
        <ele>454</ele>
        <time>2025-09-16T12:16:19Z</time>
      </trkpt>
      <trkpt lat="45.47767" lon="4.18384">
        <ele>455</ele>
        <time>2025-09-16T12:16:21Z</time>
      </trkpt>
      <trkpt lat="45.47771" lon="4.1839">
        <ele>458</ele>
        <time>2025-09-16T12:16:22Z</time>
      </trkpt>
      <trkpt lat="45.47774" lon="4.18396">
        <ele>460</ele>
        <time>2025-09-16T12:16:23Z</time>
      </trkpt>
      <trkpt lat="45.47777" lon="4.18401">
        <ele>459</ele>
        <time>2025-09-16T12:16:24Z</time>
      </trkpt>
      <trkpt lat="45.4778" lon="4.18406">
        <ele>459</ele>
        <time>2025-09-16T12:16:25Z</time>
      </trkpt>
      <trkpt lat="45.47783" lon="4.18412">
        <ele>456</ele>
        <time>2025-09-16T12:16:26Z</time>
      </trkpt>
      <trkpt lat="45.47786" lon="4.18417">
        <ele>454</ele>
        <time>2025-09-16T12:16:27Z</time>
      </trkpt>
      <trkpt lat="45.47788" lon="4.18423">
        <ele>453</ele>
        <time>2025-09-16T12:16:28Z</time>
      </trkpt>
      <trkpt lat="45.4779" lon="4.18428">
        <ele>455</ele>
        <time>2025-09-16T12:16:29Z</time>
      </trkpt>
      <trkpt lat="45.47792" lon="4.18434">
        <ele>455</ele>
        <time>2025-09-16T12:16:30Z</time>
      </trkpt>
      <trkpt lat="45.47794" lon="4.18439">
        <ele>461</ele>
        <time>2025-09-16T12:16:31Z</time>
      </trkpt>
      <trkpt lat="45.47796" lon="4.18444">
        <ele>461</ele>
        <time>2025-09-16T12:16:32Z</time>
      </trkpt>
      <trkpt lat="45.47798" lon="4.1845">
        <ele>449</ele>
        <time>2025-09-16T12:16:33Z</time>
      </trkpt>
      <trkpt lat="45.478" lon="4.18454">
        <ele>454</ele>
        <time>2025-09-16T12:16:34Z</time>
      </trkpt>
      <trkpt lat="45.47801" lon="4.18459">
        <ele>460</ele>
        <time>2025-09-16T12:16:35Z</time>
      </trkpt>
      <trkpt lat="45.47802" lon="4.18465">
        <ele>455</ele>
        <time>2025-09-16T12:16:36Z</time>
      </trkpt>
      <trkpt lat="45.47804" lon="4.18471">
        <ele>456</ele>
        <time>2025-09-16T12:16:37Z</time>
      </trkpt>
      <trkpt lat="45.47805" lon="4.18477">
        <ele>451</ele>
        <time>2025-09-16T12:16:38Z</time>
      </trkpt>
      <trkpt lat="45.47807" lon="4.18483">
        <ele>455</ele>
        <time>2025-09-16T12:16:39Z</time>
      </trkpt>
      <trkpt lat="45.47808" lon="4.18489">
        <ele>453</ele>
        <time>2025-09-16T12:16:40Z</time>
      </trkpt>
      <trkpt lat="45.4781" lon="4.18496">
        <ele>453</ele>
        <time>2025-09-16T12:16:41Z</time>
      </trkpt>
      <trkpt lat="45.47812" lon="4.18502">
        <ele>457</ele>
        <time>2025-09-16T12:16:42Z</time>
      </trkpt>
      <trkpt lat="45.47814" lon="4.18508">
        <ele>458</ele>
        <time>2025-09-16T12:16:43Z</time>
      </trkpt>
      <trkpt lat="45.47817" lon="4.18514">
        <ele>457</ele>
        <time>2025-09-16T12:16:44Z</time>
      </trkpt>
      <trkpt lat="45.47819" lon="4.18519">
        <ele>458</ele>
        <time>2025-09-16T12:16:45Z</time>
      </trkpt>
      <trkpt lat="45.47821" lon="4.18524">
        <ele>457</ele>
        <time>2025-09-16T12:16:46Z</time>
      </trkpt>
      <trkpt lat="45.47823" lon="4.1853">
        <ele>446</ele>
        <time>2025-09-16T12:16:47Z</time>
      </trkpt>
      <trkpt lat="45.47825" lon="4.18536">
        <ele>444</ele>
        <time>2025-09-16T12:16:48Z</time>
      </trkpt>
      <trkpt lat="45.47827" lon="4.18542">
        <ele>457</ele>
        <time>2025-09-16T12:16:49Z</time>
      </trkpt>
      <trkpt lat="45.47829" lon="4.18548">
        <ele>456</ele>
        <time>2025-09-16T12:16:50Z</time>
      </trkpt>
      <trkpt lat="45.47831" lon="4.18553">
        <ele>450</ele>
        <time>2025-09-16T12:16:51Z</time>
      </trkpt>
      <trkpt lat="45.47832" lon="4.18558">
        <ele>453</ele>
        <time>2025-09-16T12:16:52Z</time>
      </trkpt>
      <trkpt lat="45.47834" lon="4.18563">
        <ele>452</ele>
        <time>2025-09-16T12:16:53Z</time>
      </trkpt>
      <trkpt lat="45.47836" lon="4.18567">
        <ele>449</ele>
        <time>2025-09-16T12:16:54Z</time>
      </trkpt>
      <trkpt lat="45.47838" lon="4.18571">
        <ele>455</ele>
        <time>2025-09-16T12:16:55Z</time>
      </trkpt>
      <trkpt lat="45.4784" lon="4.18575">
        <ele>454</ele>
        <time>2025-09-16T12:16:56Z</time>
      </trkpt>
      <trkpt lat="45.47842" lon="4.18579">
        <ele>453</ele>
        <time>2025-09-16T12:16:57Z</time>
      </trkpt>
      <trkpt lat="45.47844" lon="4.18584">
        <ele>456</ele>
        <time>2025-09-16T12:16:58Z</time>
      </trkpt>
      <trkpt lat="45.47847" lon="4.18588">
        <ele>455</ele>
        <time>2025-09-16T12:16:59Z</time>
      </trkpt>
      <trkpt lat="45.47849" lon="4.18593">
        <ele>455</ele>
        <time>2025-09-16T12:17:00Z</time>
      </trkpt>
      <trkpt lat="45.47851" lon="4.18597">
        <ele>453</ele>
        <time>2025-09-16T12:17:01Z</time>
      </trkpt>
      <trkpt lat="45.47854" lon="4.18601">
        <ele>448</ele>
        <time>2025-09-16T12:17:02Z</time>
      </trkpt>
      <trkpt lat="45.47857" lon="4.18605">
        <ele>452</ele>
        <time>2025-09-16T12:17:03Z</time>
      </trkpt>
      <trkpt lat="45.4786" lon="4.18609">
        <ele>457</ele>
        <time>2025-09-16T12:17:04Z</time>
      </trkpt>
      <trkpt lat="45.47863" lon="4.18612">
        <ele>462</ele>
        <time>2025-09-16T12:17:05Z</time>
      </trkpt>
      <trkpt lat="45.47865" lon="4.18616">
        <ele>458</ele>
        <time>2025-09-16T12:17:06Z</time>
      </trkpt>
      <trkpt lat="45.47868" lon="4.18619">
        <ele>459</ele>
        <time>2025-09-16T12:17:07Z</time>
      </trkpt>
      <trkpt lat="45.4787" lon="4.18622">
        <ele>455</ele>
        <time>2025-09-16T12:17:08Z</time>
      </trkpt>
      <trkpt lat="45.47874" lon="4.18627">
        <ele>455</ele>
        <time>2025-09-16T12:17:10Z</time>
      </trkpt>
      <trkpt lat="45.47877" lon="4.18631">
        <ele>459</ele>
        <time>2025-09-16T12:17:11Z</time>
      </trkpt>
      <trkpt lat="45.4788" lon="4.18635">
        <ele>461</ele>
        <time>2025-09-16T12:17:12Z</time>
      </trkpt>
      <trkpt lat="45.47883" lon="4.1864">
        <ele>451</ele>
        <time>2025-09-16T12:17:13Z</time>
      </trkpt>
      <trkpt lat="45.47887" lon="4.18644">
        <ele>451</ele>
        <time>2025-09-16T12:17:14Z</time>
      </trkpt>
      <trkpt lat="45.4789" lon="4.18649">
        <ele>453</ele>
        <time>2025-09-16T12:17:15Z</time>
      </trkpt>
      <trkpt lat="45.47893" lon="4.18653">
        <ele>453</ele>
        <time>2025-09-16T12:17:16Z</time>
      </trkpt>
      <trkpt lat="45.47897" lon="4.18657">
        <ele>456</ele>
        <time>2025-09-16T12:17:17Z</time>
      </trkpt>
      <trkpt lat="45.479" lon="4.18661">
        <ele>455</ele>
        <time>2025-09-16T12:17:18Z</time>
      </trkpt>
      <trkpt lat="45.47905" lon="4.18667">
        <ele>454</ele>
        <time>2025-09-16T12:17:20Z</time>
      </trkpt>
      <trkpt lat="45.47909" lon="4.18672">
        <ele>457</ele>
        <time>2025-09-16T12:17:21Z</time>
      </trkpt>
      <trkpt lat="45.47912" lon="4.18676">
        <ele>460</ele>
        <time>2025-09-16T12:17:22Z</time>
      </trkpt>
      <trkpt lat="45.47915" lon="4.1868">
        <ele>448</ele>
        <time>2025-09-16T12:17:23Z</time>
      </trkpt>
      <trkpt lat="45.47918" lon="4.18684">
        <ele>453</ele>
        <time>2025-09-16T12:17:24Z</time>
      </trkpt>
      <trkpt lat="45.47922" lon="4.18687">
        <ele>451</ele>
        <time>2025-09-16T12:17:25Z</time>
      </trkpt>
      <trkpt lat="45.47925" lon="4.1869">
        <ele>447</ele>
        <time>2025-09-16T12:17:26Z</time>
      </trkpt>
      <trkpt lat="45.47929" lon="4.18694">
        <ele>449</ele>
        <time>2025-09-16T12:17:27Z</time>
      </trkpt>
      <trkpt lat="45.47933" lon="4.18697">
        <ele>448</ele>
        <time>2025-09-16T12:17:28Z</time>
      </trkpt>
      <trkpt lat="45.47937" lon="4.187">
        <ele>450</ele>
        <time>2025-09-16T12:17:29Z</time>
      </trkpt>
      <trkpt lat="45.4794" lon="4.18703">
        <ele>446</ele>
        <time>2025-09-16T12:17:29Z</time>
      </trkpt>
      <trkpt lat="45.47944" lon="4.18706">
        <ele>448</ele>
        <time>2025-09-16T12:17:30Z</time>
      </trkpt>
      <trkpt lat="45.47948" lon="4.18709">
        <ele>452</ele>
        <time>2025-09-16T12:17:31Z</time>
      </trkpt>
      <trkpt lat="45.47953" lon="4.18712">
        <ele>451</ele>
        <time>2025-09-16T12:17:32Z</time>
      </trkpt>
      <trkpt lat="45.47956" lon="4.18713">
        <ele>447</ele>
        <time>2025-09-16T12:17:33Z</time>
      </trkpt>
      <trkpt lat="45.4796" lon="4.18715">
        <ele>452</ele>
        <time>2025-09-16T12:17:34Z</time>
      </trkpt>
      <trkpt lat="45.47963" lon="4.18716">
        <ele>452</ele>
        <time>2025-09-16T12:17:35Z</time>
      </trkpt>
      <trkpt lat="45.47966" lon="4.18718">
        <ele>451</ele>
        <time>2025-09-16T12:17:36Z</time>
      </trkpt>
      <trkpt lat="45.47972" lon="4.18719">
        <ele>449</ele>
        <time>2025-09-16T12:17:38Z</time>
      </trkpt>
      <trkpt lat="45.47976" lon="4.18721">
        <ele>446</ele>
        <time>2025-09-16T12:17:39Z</time>
      </trkpt>
      <trkpt lat="45.4798" lon="4.18722">
        <ele>443</ele>
        <time>2025-09-16T12:17:40Z</time>
      </trkpt>
      <trkpt lat="45.47983" lon="4.18723">
        <ele>450</ele>
        <time>2025-09-16T12:17:41Z</time>
      </trkpt>
      <trkpt lat="45.47987" lon="4.18725">
        <ele>448</ele>
        <time>2025-09-16T12:17:42Z</time>
      </trkpt>
      <trkpt lat="45.4799" lon="4.18727">
        <ele>448</ele>
        <time>2025-09-16T12:17:43Z</time>
      </trkpt>
      <trkpt lat="45.47994" lon="4.18728">
        <ele>448</ele>
        <time>2025-09-16T12:17:44Z</time>
      </trkpt>
      <trkpt lat="45.47998" lon="4.1873">
        <ele>441</ele>
        <time>2025-09-16T12:17:45Z</time>
      </trkpt>
      <trkpt lat="45.48003" lon="4.18732">
        <ele>450</ele>
        <time>2025-09-16T12:17:46Z</time>
      </trkpt>
      <trkpt lat="45.48007" lon="4.18735">
        <ele>443</ele>
        <time>2025-09-16T12:17:47Z</time>
      </trkpt>
      <trkpt lat="45.48011" lon="4.18736">
        <ele>446</ele>
        <time>2025-09-16T12:17:48Z</time>
      </trkpt>
      <trkpt lat="45.48014" lon="4.18738">
        <ele>444</ele>
        <time>2025-09-16T12:17:49Z</time>
      </trkpt>
      <trkpt lat="45.48018" lon="4.1874">
        <ele>442</ele>
        <time>2025-09-16T12:17:50Z</time>
      </trkpt>
      <trkpt lat="45.48021" lon="4.18741">
        <ele>451</ele>
        <time>2025-09-16T12:17:51Z</time>
      </trkpt>
      <trkpt lat="45.48024" lon="4.18742">
        <ele>445</ele>
        <time>2025-09-16T12:17:52Z</time>
      </trkpt>
      <trkpt lat="45.48028" lon="4.18743">
        <ele>447</ele>
        <time>2025-09-16T12:17:53Z</time>
      </trkpt>
      <trkpt lat="45.48031" lon="4.18744">
        <ele>448</ele>
        <time>2025-09-16T12:17:54Z</time>
      </trkpt>
      <trkpt lat="45.48035" lon="4.18745">
        <ele>444</ele>
        <time>2025-09-16T12:17:55Z</time>
      </trkpt>
      <trkpt lat="45.4804" lon="4.18746">
        <ele>448</ele>
        <time>2025-09-16T12:17:56Z</time>
      </trkpt>
      <trkpt lat="45.48044" lon="4.18747">
        <ele>445</ele>
        <time>2025-09-16T12:17:57Z</time>
      </trkpt>
      <trkpt lat="45.48049" lon="4.18748">
        <ele>448</ele>
        <time>2025-09-16T12:17:58Z</time>
      </trkpt>
      <trkpt lat="45.48054" lon="4.1875">
        <ele>448</ele>
        <time>2025-09-16T12:17:59Z</time>
      </trkpt>
      <trkpt lat="45.48058" lon="4.18751">
        <ele>451</ele>
        <time>2025-09-16T12:18:00Z</time>
      </trkpt>
      <trkpt lat="45.48063" lon="4.18751">
        <ele>445</ele>
        <time>2025-09-16T12:18:01Z</time>
      </trkpt>
      <trkpt lat="45.48067" lon="4.18752">
        <ele>445</ele>
        <time>2025-09-16T12:18:02Z</time>
      </trkpt>
      <trkpt lat="45.48071" lon="4.18753">
        <ele>447</ele>
        <time>2025-09-16T12:18:03Z</time>
      </trkpt>
      <trkpt lat="45.48076" lon="4.18754">
        <ele>448</ele>
        <time>2025-09-16T12:18:04Z</time>
      </trkpt>
      <trkpt lat="45.48081" lon="4.18754">
        <ele>449</ele>
        <time>2025-09-16T12:18:05Z</time>
      </trkpt>
      <trkpt lat="45.48085" lon="4.18754">
        <ele>447</ele>
        <time>2025-09-16T12:18:06Z</time>
      </trkpt>
      <trkpt lat="45.48089" lon="4.18755">
        <ele>436</ele>
        <time>2025-09-16T12:18:07Z</time>
      </trkpt>
      <trkpt lat="45.48094" lon="4.18755">
        <ele>443</ele>
        <time>2025-09-16T12:18:08Z</time>
      </trkpt>
      <trkpt lat="45.48099" lon="4.18755">
        <ele>446</ele>
        <time>2025-09-16T12:18:09Z</time>
      </trkpt>
      <trkpt lat="45.48103" lon="4.18756">
        <ele>448</ele>
        <time>2025-09-16T12:18:10Z</time>
      </trkpt>
      <trkpt lat="45.48108" lon="4.18756">
        <ele>441</ele>
        <time>2025-09-16T12:18:11Z</time>
      </trkpt>
      <trkpt lat="45.48112" lon="4.18755">
        <ele>445</ele>
        <time>2025-09-16T12:18:12Z</time>
      </trkpt>
      <trkpt lat="45.48117" lon="4.18754">
        <ele>446</ele>
        <time>2025-09-16T12:18:13Z</time>
      </trkpt>
      <trkpt lat="45.48124" lon="4.18754">
        <ele>447</ele>
        <time>2025-09-16T12:18:14Z</time>
      </trkpt>
      <trkpt lat="45.4813" lon="4.18753">
        <ele>446</ele>
        <time>2025-09-16T12:18:15Z</time>
      </trkpt>
      <trkpt lat="45.48135" lon="4.18752">
        <ele>442</ele>
        <time>2025-09-16T12:18:16Z</time>
      </trkpt>
      <trkpt lat="45.48141" lon="4.18751">
        <ele>443</ele>
        <time>2025-09-16T12:18:17Z</time>
      </trkpt>
      <trkpt lat="45.48148" lon="4.1875">
        <ele>441</ele>
        <time>2025-09-16T12:18:18Z</time>
      </trkpt>
      <trkpt lat="45.48155" lon="4.18748">
        <ele>441</ele>
        <time>2025-09-16T12:18:19Z</time>
      </trkpt>
      <trkpt lat="45.48162" lon="4.18747">
        <ele>445</ele>
        <time>2025-09-16T12:18:20Z</time>
      </trkpt>
      <trkpt lat="45.48167" lon="4.18746">
        <ele>444</ele>
        <time>2025-09-16T12:18:21Z</time>
      </trkpt>
      <trkpt lat="45.48172" lon="4.18745">
        <ele>445</ele>
        <time>2025-09-16T12:18:22Z</time>
      </trkpt>
      <trkpt lat="45.48177" lon="4.18745">
        <ele>445</ele>
        <time>2025-09-16T12:18:23Z</time>
      </trkpt>
      <trkpt lat="45.48183" lon="4.18744">
        <ele>444</ele>
        <time>2025-09-16T12:18:24Z</time>
      </trkpt>
      <trkpt lat="45.48188" lon="4.18743">
        <ele>439</ele>
        <time>2025-09-16T12:18:25Z</time>
      </trkpt>
      <trkpt lat="45.48193" lon="4.18743">
        <ele>440</ele>
        <time>2025-09-16T12:18:26Z</time>
      </trkpt>
      <trkpt lat="45.48199" lon="4.18742">
        <ele>436</ele>
        <time>2025-09-16T12:18:27Z</time>
      </trkpt>
      <trkpt lat="45.48205" lon="4.18742">
        <ele>438</ele>
        <time>2025-09-16T12:18:28Z</time>
      </trkpt>
      <trkpt lat="45.4821" lon="4.18741">
        <ele>443</ele>
        <time>2025-09-16T12:18:29Z</time>
      </trkpt>
      <trkpt lat="45.48215" lon="4.18741">
        <ele>441</ele>
        <time>2025-09-16T12:18:30Z</time>
      </trkpt>
      <trkpt lat="45.48219" lon="4.18739">
        <ele>440</ele>
        <time>2025-09-16T12:18:31Z</time>
      </trkpt>
      <trkpt lat="45.48224" lon="4.18738">
        <ele>442</ele>
        <time>2025-09-16T12:18:32Z</time>
      </trkpt>
      <trkpt lat="45.48228" lon="4.18737">
        <ele>443</ele>
        <time>2025-09-16T12:18:33Z</time>
      </trkpt>
      <trkpt lat="45.48233" lon="4.18736">
        <ele>443</ele>
        <time>2025-09-16T12:18:34Z</time>
      </trkpt>
      <trkpt lat="45.48237" lon="4.18735">
        <ele>438</ele>
        <time>2025-09-16T12:18:35Z</time>
      </trkpt>
      <trkpt lat="45.48241" lon="4.18733">
        <ele>443</ele>
        <time>2025-09-16T12:18:36Z</time>
      </trkpt>
      <trkpt lat="45.48245" lon="4.18731">
        <ele>443</ele>
        <time>2025-09-16T12:18:37Z</time>
      </trkpt>
      <trkpt lat="45.48249" lon="4.1873">
        <ele>433</ele>
        <time>2025-09-16T12:18:38Z</time>
      </trkpt>
      <trkpt lat="45.48253" lon="4.18728">
        <ele>431</ele>
        <time>2025-09-16T12:18:39Z</time>
      </trkpt>
      <trkpt lat="45.48256" lon="4.18727">
        <ele>433</ele>
        <time>2025-09-16T12:18:40Z</time>
      </trkpt>
      <trkpt lat="45.4826" lon="4.18725">
        <ele>438</ele>
        <time>2025-09-16T12:18:41Z</time>
      </trkpt>
      <trkpt lat="45.48264" lon="4.18724">
        <ele>442</ele>
        <time>2025-09-16T12:18:42Z</time>
      </trkpt>
      <trkpt lat="45.48268" lon="4.18723">
        <ele>439</ele>
        <time>2025-09-16T12:18:43Z</time>
      </trkpt>
      <trkpt lat="45.48272" lon="4.18721">
        <ele>435</ele>
        <time>2025-09-16T12:18:44Z</time>
      </trkpt>
      <trkpt lat="45.48276" lon="4.1872">
        <ele>435</ele>
        <time>2025-09-16T12:18:45Z</time>
      </trkpt>
      <trkpt lat="45.4828" lon="4.18718">
        <ele>438</ele>
        <time>2025-09-16T12:18:46Z</time>
      </trkpt>
      <trkpt lat="45.48284" lon="4.18717">
        <ele>443</ele>
        <time>2025-09-16T12:18:47Z</time>
      </trkpt>
      <trkpt lat="45.48288" lon="4.18716">
        <ele>440</ele>
        <time>2025-09-16T12:18:48Z</time>
      </trkpt>
      <trkpt lat="45.48292" lon="4.18715">
        <ele>439</ele>
        <time>2025-09-16T12:18:49Z</time>
      </trkpt>
      <trkpt lat="45.48297" lon="4.18714">
        <ele>438</ele>
        <time>2025-09-16T12:18:50Z</time>
      </trkpt>
      <trkpt lat="45.48301" lon="4.18713">
        <ele>435</ele>
        <time>2025-09-16T12:18:51Z</time>
      </trkpt>
      <trkpt lat="45.48306" lon="4.18712">
        <ele>441</ele>
        <time>2025-09-16T12:18:52Z</time>
      </trkpt>
      <trkpt lat="45.48311" lon="4.18711">
        <ele>442</ele>
        <time>2025-09-16T12:18:53Z</time>
      </trkpt>
      <trkpt lat="45.48315" lon="4.18709">
        <ele>439</ele>
        <time>2025-09-16T12:18:54Z</time>
      </trkpt>
      <trkpt lat="45.4832" lon="4.18708">
        <ele>441</ele>
        <time>2025-09-16T12:18:55Z</time>
      </trkpt>
      <trkpt lat="45.48325" lon="4.18706">
        <ele>435</ele>
        <time>2025-09-16T12:18:56Z</time>
      </trkpt>
      <trkpt lat="45.4833" lon="4.18704">
        <ele>429</ele>
        <time>2025-09-16T12:18:57Z</time>
      </trkpt>
      <trkpt lat="45.48336" lon="4.18702">
        <ele>433</ele>
        <time>2025-09-16T12:18:58Z</time>
      </trkpt>
      <trkpt lat="45.48341" lon="4.18699">
        <ele>441</ele>
        <time>2025-09-16T12:18:59Z</time>
      </trkpt>
      <trkpt lat="45.48347" lon="4.18697">
        <ele>440</ele>
        <time>2025-09-16T12:19:00Z</time>
      </trkpt>
      <trkpt lat="45.48353" lon="4.18695">
        <ele>439</ele>
        <time>2025-09-16T12:19:01Z</time>
      </trkpt>
      <trkpt lat="45.48358" lon="4.18693">
        <ele>438</ele>
        <time>2025-09-16T12:19:02Z</time>
      </trkpt>
      <trkpt lat="45.48364" lon="4.18691">
        <ele>434</ele>
        <time>2025-09-16T12:19:03Z</time>
      </trkpt>
      <trkpt lat="45.4837" lon="4.18689">
        <ele>432</ele>
        <time>2025-09-16T12:19:04Z</time>
      </trkpt>
      <trkpt lat="45.48375" lon="4.18687">
        <ele>435</ele>
        <time>2025-09-16T12:19:05Z</time>
      </trkpt>
      <trkpt lat="45.48379" lon="4.18684">
        <ele>436</ele>
        <time>2025-09-16T12:19:06Z</time>
      </trkpt>
      <trkpt lat="45.48384" lon="4.18681">
        <ele>437</ele>
        <time>2025-09-16T12:19:07Z</time>
      </trkpt>
      <trkpt lat="45.48388" lon="4.18679">
        <ele>436</ele>
        <time>2025-09-16T12:19:08Z</time>
      </trkpt>
      <trkpt lat="45.48392" lon="4.18677">
        <ele>435</ele>
        <time>2025-09-16T12:19:09Z</time>
      </trkpt>
      <trkpt lat="45.48397" lon="4.18675">
        <ele>435</ele>
        <time>2025-09-16T12:19:10Z</time>
      </trkpt>
      <trkpt lat="45.48401" lon="4.18673">
        <ele>432</ele>
        <time>2025-09-16T12:19:11Z</time>
      </trkpt>
      <trkpt lat="45.48406" lon="4.18671">
        <ele>423</ele>
        <time>2025-09-16T12:19:12Z</time>
      </trkpt>
      <trkpt lat="45.48411" lon="4.18669">
        <ele>435</ele>
        <time>2025-09-16T12:19:13Z</time>
      </trkpt>
      <trkpt lat="45.48416" lon="4.18667">
        <ele>437</ele>
        <time>2025-09-16T12:19:14Z</time>
      </trkpt>
      <trkpt lat="45.48421" lon="4.18664">
        <ele>439</ele>
        <time>2025-09-16T12:19:15Z</time>
      </trkpt>
      <trkpt lat="45.48425" lon="4.18662">
        <ele>434</ele>
        <time>2025-09-16T12:19:16Z</time>
      </trkpt>
      <trkpt lat="45.4843" lon="4.1866">
        <ele>435</ele>
        <time>2025-09-16T12:19:17Z</time>
      </trkpt>
      <trkpt lat="45.48435" lon="4.18658">
        <ele>429</ele>
        <time>2025-09-16T12:19:18Z</time>
      </trkpt>
      <trkpt lat="45.4844" lon="4.18656">
        <ele>432</ele>
        <time>2025-09-16T12:19:19Z</time>
      </trkpt>
      <trkpt lat="45.48445" lon="4.18654">
        <ele>433</ele>
        <time>2025-09-16T12:19:20Z</time>
      </trkpt>
      <trkpt lat="45.4845" lon="4.18651">
        <ele>429</ele>
        <time>2025-09-16T12:19:21Z</time>
      </trkpt>
      <trkpt lat="45.48454" lon="4.18649">
        <ele>432</ele>
        <time>2025-09-16T12:19:22Z</time>
      </trkpt>
      <trkpt lat="45.48459" lon="4.18646">
        <ele>428</ele>
        <time>2025-09-16T12:19:23Z</time>
      </trkpt>
      <trkpt lat="45.48463" lon="4.18643">
        <ele>423</ele>
        <time>2025-09-16T12:19:24Z</time>
      </trkpt>
      <trkpt lat="45.48467" lon="4.18641">
        <ele>421</ele>
        <time>2025-09-16T12:19:25Z</time>
      </trkpt>
      <trkpt lat="45.48472" lon="4.18638">
        <ele>417</ele>
        <time>2025-09-16T12:19:26Z</time>
      </trkpt>
      <trkpt lat="45.48477" lon="4.18635">
        <ele>430</ele>
        <time>2025-09-16T12:19:27Z</time>
      </trkpt>
      <trkpt lat="45.48482" lon="4.18632">
        <ele>435</ele>
        <time>2025-09-16T12:19:28Z</time>
      </trkpt>
      <trkpt lat="45.48486" lon="4.1863">
        <ele>434</ele>
        <time>2025-09-16T12:19:29Z</time>
      </trkpt>
      <trkpt lat="45.48491" lon="4.18627">
        <ele>434</ele>
        <time>2025-09-16T12:19:30Z</time>
      </trkpt>
      <trkpt lat="45.48495" lon="4.18624">
        <ele>431</ele>
        <time>2025-09-16T12:19:31Z</time>
      </trkpt>
      <trkpt lat="45.485" lon="4.18622">
        <ele>427</ele>
        <time>2025-09-16T12:19:32Z</time>
      </trkpt>
      <trkpt lat="45.48505" lon="4.1862">
        <ele>433</ele>
        <time>2025-09-16T12:19:33Z</time>
      </trkpt>
      <trkpt lat="45.4851" lon="4.18618">
        <ele>435</ele>
        <time>2025-09-16T12:19:34Z</time>
      </trkpt>
      <trkpt lat="45.48514" lon="4.18616">
        <ele>428</ele>
        <time>2025-09-16T12:19:35Z</time>
      </trkpt>
      <trkpt lat="45.48519" lon="4.18615">
        <ele>423</ele>
        <time>2025-09-16T12:19:36Z</time>
      </trkpt>
      <trkpt lat="45.48524" lon="4.18614">
        <ele>421</ele>
        <time>2025-09-16T12:19:37Z</time>
      </trkpt>
      <trkpt lat="45.48529" lon="4.18613">
        <ele>433</ele>
        <time>2025-09-16T12:19:38Z</time>
      </trkpt>
      <trkpt lat="45.48533" lon="4.18612">
        <ele>426</ele>
        <time>2025-09-16T12:19:39Z</time>
      </trkpt>
      <trkpt lat="45.48538" lon="4.18611">
        <ele>429</ele>
        <time>2025-09-16T12:19:40Z</time>
      </trkpt>
      <trkpt lat="45.48543" lon="4.18611">
        <ele>432</ele>
        <time>2025-09-16T12:19:41Z</time>
      </trkpt>
      <trkpt lat="45.48548" lon="4.1861">
        <ele>432</ele>
        <time>2025-09-16T12:19:42Z</time>
      </trkpt>
      <trkpt lat="45.48553" lon="4.1861">
        <ele>429</ele>
        <time>2025-09-16T12:19:43Z</time>
      </trkpt>
      <trkpt lat="45.48558" lon="4.18609">
        <ele>429</ele>
        <time>2025-09-16T12:19:44Z</time>
      </trkpt>
      <trkpt lat="45.48564" lon="4.18608">
        <ele>428</ele>
        <time>2025-09-16T12:19:45Z</time>
      </trkpt>
      <trkpt lat="45.48569" lon="4.18607">
        <ele>422</ele>
        <time>2025-09-16T12:19:46Z</time>
      </trkpt>
      <trkpt lat="45.48573" lon="4.18606">
        <ele>429</ele>
        <time>2025-09-16T12:19:47Z</time>
      </trkpt>
      <trkpt lat="45.48577" lon="4.18606">
        <ele>431</ele>
        <time>2025-09-16T12:19:48Z</time>
      </trkpt>
      <trkpt lat="45.4858" lon="4.18607">
        <ele>428</ele>
        <time>2025-09-16T12:19:50Z</time>
      </trkpt>
      <trkpt lat="45.48584" lon="4.18608">
        <ele>430</ele>
        <time>2025-09-16T12:19:53Z</time>
      </trkpt>
      <trkpt lat="45.48588" lon="4.18607">
        <ele>432</ele>
        <time>2025-09-16T12:19:55Z</time>
      </trkpt>
      <trkpt lat="45.48591" lon="4.18606">
        <ele>427</ele>
        <time>2025-09-16T12:19:57Z</time>
      </trkpt>
      <trkpt lat="45.48596" lon="4.18606">
        <ele>429</ele>
        <time>2025-09-16T12:19:59Z</time>
      </trkpt>
      <trkpt lat="45.48599" lon="4.18606">
        <ele>428</ele>
        <time>2025-09-16T12:20:00Z</time>
      </trkpt>
      <trkpt lat="45.48602" lon="4.18605">
        <ele>426</ele>
        <time>2025-09-16T12:20:01Z</time>
      </trkpt>
      <trkpt lat="45.48605" lon="4.18605">
        <ele>431</ele>
        <time>2025-09-16T12:20:02Z</time>
      </trkpt>
      <trkpt lat="45.48608" lon="4.18605">
        <ele>430</ele>
        <time>2025-09-16T12:20:04Z</time>
      </trkpt>
      <trkpt lat="45.48611" lon="4.18606">
        <ele>422</ele>
        <time>2025-09-16T12:20:06Z</time>
      </trkpt>
      <trkpt lat="45.48615" lon="4.18606">
        <ele>428</ele>
        <time>2025-09-16T12:20:08Z</time>
      </trkpt>
      <trkpt lat="45.48619" lon="4.18606">
        <ele>430</ele>
        <time>2025-09-16T12:20:09Z</time>
      </trkpt>
      <trkpt lat="45.48622" lon="4.18607">
        <ele>425</ele>
        <time>2025-09-16T12:20:10Z</time>
      </trkpt>
      <trkpt lat="45.48625" lon="4.18607">
        <ele>428</ele>
        <time>2025-09-16T12:20:11Z</time>
      </trkpt>
      <trkpt lat="45.48629" lon="4.18608">
        <ele>424</ele>
        <time>2025-09-16T12:20:12Z</time>
      </trkpt>
      <trkpt lat="45.48633" lon="4.1861">
        <ele>426</ele>
        <time>2025-09-16T12:20:14Z</time>
      </trkpt>
      <trkpt lat="45.48637" lon="4.18611">
        <ele>428</ele>
        <time>2025-09-16T12:20:15Z</time>
      </trkpt>
      <trkpt lat="45.48641" lon="4.18613">
        <ele>429</ele>
        <time>2025-09-16T12:20:16Z</time>
      </trkpt>
      <trkpt lat="45.48645" lon="4.18615">
        <ele>422</ele>
        <time>2025-09-16T12:20:17Z</time>
      </trkpt>
      <trkpt lat="45.48649" lon="4.18617">
        <ele>422</ele>
        <time>2025-09-16T12:20:18Z</time>
      </trkpt>
      <trkpt lat="45.48653" lon="4.18619">
        <ele>429</ele>
        <time>2025-09-16T12:20:19Z</time>
      </trkpt>
      <trkpt lat="45.48658" lon="4.1862">
        <ele>438</ele>
        <time>2025-09-16T12:20:20Z</time>
      </trkpt>
      <trkpt lat="45.48663" lon="4.18621">
        <ele>429</ele>
        <time>2025-09-16T12:20:21Z</time>
      </trkpt>
      <trkpt lat="45.48669" lon="4.18622">
        <ele>429</ele>
        <time>2025-09-16T12:20:23Z</time>
      </trkpt>
      <trkpt lat="45.48673" lon="4.18623">
        <ele>433</ele>
        <time>2025-09-16T12:20:24Z</time>
      </trkpt>
      <trkpt lat="45.48677" lon="4.18623">
        <ele>431</ele>
        <time>2025-09-16T12:20:25Z</time>
      </trkpt>
      <trkpt lat="45.4868" lon="4.18624">
        <ele>425</ele>
        <time>2025-09-16T12:20:26Z</time>
      </trkpt>
      <trkpt lat="45.48685" lon="4.18625">
        <ele>422</ele>
        <time>2025-09-16T12:20:27Z</time>
      </trkpt>
      <trkpt lat="45.48689" lon="4.18626">
        <ele>414</ele>
        <time>2025-09-16T12:20:28Z</time>
      </trkpt>
      <trkpt lat="45.48693" lon="4.18628">
        <ele>409</ele>
        <time>2025-09-16T12:20:29Z</time>
      </trkpt>
      <trkpt lat="45.48696" lon="4.1863">
        <ele>426</ele>
        <time>2025-09-16T12:20:30Z</time>
      </trkpt>
      <trkpt lat="45.48699" lon="4.18631">
        <ele>424</ele>
        <time>2025-09-16T12:20:31Z</time>
      </trkpt>
      <trkpt lat="45.48702" lon="4.18633">
        <ele>425</ele>
        <time>2025-09-16T12:20:32Z</time>
      </trkpt>
      <trkpt lat="45.48706" lon="4.18634">
        <ele>429</ele>
        <time>2025-09-16T12:20:33Z</time>
      </trkpt>
      <trkpt lat="45.4871" lon="4.18636">
        <ele>424</ele>
        <time>2025-09-16T12:20:34Z</time>
      </trkpt>
      <trkpt lat="45.48714" lon="4.18638">
        <ele>415</ele>
        <time>2025-09-16T12:20:35Z</time>
      </trkpt>
      <trkpt lat="45.48718" lon="4.1864">
        <ele>423</ele>
        <time>2025-09-16T12:20:36Z</time>
      </trkpt>
      <trkpt lat="45.48723" lon="4.18642">
        <ele>421</ele>
        <time>2025-09-16T12:20:37Z</time>
      </trkpt>
      <trkpt lat="45.48727" lon="4.18644">
        <ele>423</ele>
        <time>2025-09-16T12:20:38Z</time>
      </trkpt>
      <trkpt lat="45.48731" lon="4.18646">
        <ele>421</ele>
        <time>2025-09-16T12:20:39Z</time>
      </trkpt>
      <trkpt lat="45.48735" lon="4.18648">
        <ele>420</ele>
        <time>2025-09-16T12:20:40Z</time>
      </trkpt>
      <trkpt lat="45.48739" lon="4.18649">
        <ele>418</ele>
        <time>2025-09-16T12:20:41Z</time>
      </trkpt>
      <trkpt lat="45.48743" lon="4.18651">
        <ele>420</ele>
        <time>2025-09-16T12:20:42Z</time>
      </trkpt>
      <trkpt lat="45.48748" lon="4.18652">
        <ele>416</ele>
        <time>2025-09-16T12:20:44Z</time>
      </trkpt>
      <trkpt lat="45.48753" lon="4.18654">
        <ele>417</ele>
        <time>2025-09-16T12:20:46Z</time>
      </trkpt>
      <trkpt lat="45.48756" lon="4.18655">
        <ele>425</ele>
        <time>2025-09-16T12:20:47Z</time>
      </trkpt>
      <trkpt lat="45.4876" lon="4.18656">
        <ele>425</ele>
        <time>2025-09-16T12:20:48Z</time>
      </trkpt>
      <trkpt lat="45.48763" lon="4.18657">
        <ele>425</ele>
        <time>2025-09-16T12:20:49Z</time>
      </trkpt>
      <trkpt lat="45.48767" lon="4.18658">
        <ele>422</ele>
        <time>2025-09-16T12:20:50Z</time>
      </trkpt>
      <trkpt lat="45.48772" lon="4.1866">
        <ele>419</ele>
        <time>2025-09-16T12:20:51Z</time>
      </trkpt>
      <trkpt lat="45.48776" lon="4.18661">
        <ele>415</ele>
        <time>2025-09-16T12:20:52Z</time>
      </trkpt>
      <trkpt lat="45.48783" lon="4.18662">
        <ele>417</ele>
        <time>2025-09-16T12:20:53Z</time>
      </trkpt>
      <trkpt lat="45.48789" lon="4.18663">
        <ele>418</ele>
        <time>2025-09-16T12:20:54Z</time>
      </trkpt>
      <trkpt lat="45.48796" lon="4.18665">
        <ele>423</ele>
        <time>2025-09-16T12:20:55Z</time>
      </trkpt>
      <trkpt lat="45.48801" lon="4.18665">
        <ele>423</ele>
        <time>2025-09-16T12:20:56Z</time>
      </trkpt>
      <trkpt lat="45.48806" lon="4.18665">
        <ele>423</ele>
        <time>2025-09-16T12:20:57Z</time>
      </trkpt>
      <trkpt lat="45.48811" lon="4.18665">
        <ele>425</ele>
        <time>2025-09-16T12:20:58Z</time>
      </trkpt>
      <trkpt lat="45.48816" lon="4.18664">
        <ele>422</ele>
        <time>2025-09-16T12:20:59Z</time>
      </trkpt>
      <trkpt lat="45.4882" lon="4.18664">
        <ele>417</ele>
        <time>2025-09-16T12:21:00Z</time>
      </trkpt>
      <trkpt lat="45.48825" lon="4.18664">
        <ele>419</ele>
        <time>2025-09-16T12:21:01Z</time>
      </trkpt>
      <trkpt lat="45.48831" lon="4.18663">
        <ele>420</ele>
        <time>2025-09-16T12:21:02Z</time>
      </trkpt>
      <trkpt lat="45.48836" lon="4.18663">
        <ele>419</ele>
        <time>2025-09-16T12:21:03Z</time>
      </trkpt>
      <trkpt lat="45.4884" lon="4.18662">
        <ele>425</ele>
        <time>2025-09-16T12:21:04Z</time>
      </trkpt>
      <trkpt lat="45.48845" lon="4.18662">
        <ele>420</ele>
        <time>2025-09-16T12:21:05Z</time>
      </trkpt>
      <trkpt lat="45.48852" lon="4.1866">
        <ele>420</ele>
        <time>2025-09-16T12:21:07Z</time>
      </trkpt>
      <trkpt lat="45.48857" lon="4.18659">
        <ele>419</ele>
        <time>2025-09-16T12:21:08Z</time>
      </trkpt>
      <trkpt lat="45.48862" lon="4.18658">
        <ele>419</ele>
        <time>2025-09-16T12:21:09Z</time>
      </trkpt>
      <trkpt lat="45.48866" lon="4.18657">
        <ele>413</ele>
        <time>2025-09-16T12:21:10Z</time>
      </trkpt>
      <trkpt lat="45.48869" lon="4.18656">
        <ele>415</ele>
        <time>2025-09-16T12:21:11Z</time>
      </trkpt>
      <trkpt lat="45.48873" lon="4.18655">
        <ele>417</ele>
        <time>2025-09-16T12:21:12Z</time>
      </trkpt>
      <trkpt lat="45.48876" lon="4.18653">
        <ele>416</ele>
        <time>2025-09-16T12:21:13Z</time>
      </trkpt>
      <trkpt lat="45.4888" lon="4.18652">
        <ele>414</ele>
        <time>2025-09-16T12:21:14Z</time>
      </trkpt>
      <trkpt lat="45.48884" lon="4.1865">
        <ele>416</ele>
        <time>2025-09-16T12:21:15Z</time>
      </trkpt>
      <trkpt lat="45.48887" lon="4.18649">
        <ele>414</ele>
        <time>2025-09-16T12:21:16Z</time>
      </trkpt>
      <trkpt lat="45.48891" lon="4.18647">
        <ele>417</ele>
        <time>2025-09-16T12:21:17Z</time>
      </trkpt>
      <trkpt lat="45.48895" lon="4.18646">
        <ele>420</ele>
        <time>2025-09-16T12:21:18Z</time>
      </trkpt>
      <trkpt lat="45.48899" lon="4.18645">
        <ele>419</ele>
        <time>2025-09-16T12:21:19Z</time>
      </trkpt>
      <trkpt lat="45.48903" lon="4.18644">
        <ele>418</ele>
        <time>2025-09-16T12:21:20Z</time>
      </trkpt>
      <trkpt lat="45.48906" lon="4.18642">
        <ele>416</ele>
        <time>2025-09-16T12:21:21Z</time>
      </trkpt>
      <trkpt lat="45.4891" lon="4.1864">
        <ele>419</ele>
        <time>2025-09-16T12:21:22Z</time>
      </trkpt>
      <trkpt lat="45.48915" lon="4.18638">
        <ele>409</ele>
        <time>2025-09-16T12:21:23Z</time>
      </trkpt>
      <trkpt lat="45.48919" lon="4.18637">
        <ele>416</ele>
        <time>2025-09-16T12:21:24Z</time>
      </trkpt>
      <trkpt lat="45.48923" lon="4.18637">
        <ele>417</ele>
        <time>2025-09-16T12:21:26Z</time>
      </trkpt>
      <trkpt lat="45.48926" lon="4.18638">
        <ele>412</ele>
        <time>2025-09-16T12:21:29Z</time>
      </trkpt>
      <trkpt lat="45.4893" lon="4.18637">
        <ele>401</ele>
        <time>2025-09-16T12:21:32Z</time>
      </trkpt>
      <trkpt lat="45.48934" lon="4.18635">
        <ele>407</ele>
        <time>2025-09-16T12:21:34Z</time>
      </trkpt>
      <trkpt lat="45.48938" lon="4.18634">
        <ele>416</ele>
        <time>2025-09-16T12:21:35Z</time>
      </trkpt>
      <trkpt lat="45.48942" lon="4.18633">
        <ele>408</ele>
        <time>2025-09-16T12:21:37Z</time>
      </trkpt>
      <trkpt lat="45.48946" lon="4.18632">
        <ele>414</ele>
        <time>2025-09-16T12:21:39Z</time>
      </trkpt>
      <trkpt lat="45.4895" lon="4.1863">
        <ele>417</ele>
        <time>2025-09-16T12:21:41Z</time>
      </trkpt>
      <trkpt lat="45.48955" lon="4.18628">
        <ele>417</ele>
        <time>2025-09-16T12:21:43Z</time>
      </trkpt>
      <trkpt lat="45.48961" lon="4.18625">
        <ele>419</ele>
        <time>2025-09-16T12:21:45Z</time>
      </trkpt>
      <trkpt lat="45.48964" lon="4.18624">
        <ele>414</ele>
        <time>2025-09-16T12:21:46Z</time>
      </trkpt>
      <trkpt lat="45.48968" lon="4.18624">
        <ele>415</ele>
        <time>2025-09-16T12:21:47Z</time>
      </trkpt>
      <trkpt lat="45.48971" lon="4.18623">
        <ele>415</ele>
        <time>2025-09-16T12:21:48Z</time>
      </trkpt>
      <trkpt lat="45.48973" lon="4.18622">
        <ele>417</ele>
        <time>2025-09-16T12:21:49Z</time>
      </trkpt>
      <trkpt lat="45.48976" lon="4.18621">
        <ele>420</ele>
        <time>2025-09-16T12:21:50Z</time>
      </trkpt>
      <trkpt lat="45.48979" lon="4.1862">
        <ele>419</ele>
        <time>2025-09-16T12:21:51Z</time>
      </trkpt>
      <trkpt lat="45.48983" lon="4.18619">
        <ele>413</ele>
        <time>2025-09-16T12:21:52Z</time>
      </trkpt>
      <trkpt lat="45.48986" lon="4.18617">
        <ele>411</ele>
        <time>2025-09-16T12:21:53Z</time>
      </trkpt>
      <trkpt lat="45.4899" lon="4.18616">
        <ele>406</ele>
        <time>2025-09-16T12:21:54Z</time>
      </trkpt>
      <trkpt lat="45.48993" lon="4.18615">
        <ele>405</ele>
        <time>2025-09-16T12:21:55Z</time>
      </trkpt>
      <trkpt lat="45.48996" lon="4.18615">
        <ele>415</ele>
        <time>2025-09-16T12:21:56Z</time>
      </trkpt>
      <trkpt lat="45.49" lon="4.18613">
        <ele>416</ele>
        <time>2025-09-16T12:21:57Z</time>
      </trkpt>
      <trkpt lat="45.49004" lon="4.18612">
        <ele>419</ele>
        <time>2025-09-16T12:21:58Z</time>
      </trkpt>
      <trkpt lat="45.49008" lon="4.18611">
        <ele>416</ele>
        <time>2025-09-16T12:21:59Z</time>
      </trkpt>
      <trkpt lat="45.49012" lon="4.1861">
        <ele>418</ele>
        <time>2025-09-16T12:22:00Z</time>
      </trkpt>
      <trkpt lat="45.49016" lon="4.18609">
        <ele>420</ele>
        <time>2025-09-16T12:22:01Z</time>
      </trkpt>
      <trkpt lat="45.49019" lon="4.18608">
        <ele>419</ele>
        <time>2025-09-16T12:22:02Z</time>
      </trkpt>
      <trkpt lat="45.49022" lon="4.18607">
        <ele>419</ele>
        <time>2025-09-16T12:22:03Z</time>
      </trkpt>
      <trkpt lat="45.49026" lon="4.18606">
        <ele>420</ele>
        <time>2025-09-16T12:22:04Z</time>
      </trkpt>
      <trkpt lat="45.49029" lon="4.18605">
        <ele>420</ele>
        <time>2025-09-16T12:22:05Z</time>
      </trkpt>
      <trkpt lat="45.49033" lon="4.18604">
        <ele>419</ele>
        <time>2025-09-16T12:22:06Z</time>
      </trkpt>
      <trkpt lat="45.49037" lon="4.18604">
        <ele>420</ele>
        <time>2025-09-16T12:22:07Z</time>
      </trkpt>
      <trkpt lat="45.49041" lon="4.18604">
        <ele>420</ele>
        <time>2025-09-16T12:22:08Z</time>
      </trkpt>
      <trkpt lat="45.49045" lon="4.18604">
        <ele>417</ele>
        <time>2025-09-16T12:22:09Z</time>
      </trkpt>
      <trkpt lat="45.49049" lon="4.18604">
        <ele>421</ele>
        <time>2025-09-16T12:22:10Z</time>
      </trkpt>
      <trkpt lat="45.49053" lon="4.18603">
        <ele>415</ele>
        <time>2025-09-16T12:22:11Z</time>
      </trkpt>
      <trkpt lat="45.49056" lon="4.18602">
        <ele>408</ele>
        <time>2025-09-16T12:22:12Z</time>
      </trkpt>
      <trkpt lat="45.4906" lon="4.18601">
        <ele>414</ele>
        <time>2025-09-16T12:22:13Z</time>
      </trkpt>
      <trkpt lat="45.49063" lon="4.186">
        <ele>420</ele>
        <time>2025-09-16T12:22:14Z</time>
      </trkpt>
      <trkpt lat="45.49067" lon="4.18598">
        <ele>415</ele>
        <time>2025-09-16T12:22:15Z</time>
      </trkpt>
      <trkpt lat="45.49071" lon="4.18597">
        <ele>418</ele>
        <time>2025-09-16T12:22:16Z</time>
      </trkpt>
      <trkpt lat="45.49075" lon="4.18596">
        <ele>417</ele>
        <time>2025-09-16T12:22:17Z</time>
      </trkpt>
      <trkpt lat="45.49078" lon="4.18595">
        <ele>415</ele>
        <time>2025-09-16T12:22:18Z</time>
      </trkpt>
      <trkpt lat="45.49082" lon="4.18594">
        <ele>416</ele>
        <time>2025-09-16T12:22:19Z</time>
      </trkpt>
      <trkpt lat="45.49086" lon="4.18593">
        <ele>406</ele>
        <time>2025-09-16T12:22:20Z</time>
      </trkpt>
      <trkpt lat="45.4909" lon="4.18592">
        <ele>415</ele>
        <time>2025-09-16T12:22:21Z</time>
      </trkpt>
      <trkpt lat="45.49094" lon="4.18591">
        <ele>414</ele>
        <time>2025-09-16T12:22:22Z</time>
      </trkpt>
      <trkpt lat="45.49098" lon="4.18589">
        <ele>418</ele>
        <time>2025-09-16T12:22:23Z</time>
      </trkpt>
      <trkpt lat="45.49101" lon="4.18588">
        <ele>418</ele>
        <time>2025-09-16T12:22:24Z</time>
      </trkpt>
      <trkpt lat="45.49105" lon="4.18588">
        <ele>418</ele>
        <time>2025-09-16T12:22:25Z</time>
      </trkpt>
      <trkpt lat="45.49109" lon="4.18587">
        <ele>421</ele>
        <time>2025-09-16T12:22:26Z</time>
      </trkpt>
      <trkpt lat="45.49112" lon="4.18586">
        <ele>419</ele>
        <time>2025-09-16T12:22:27Z</time>
      </trkpt>
      <trkpt lat="45.49116" lon="4.18586">
        <ele>408</ele>
        <time>2025-09-16T12:22:28Z</time>
      </trkpt>
      <trkpt lat="45.4912" lon="4.18585">
        <ele>407</ele>
        <time>2025-09-16T12:22:29Z</time>
      </trkpt>
      <trkpt lat="45.49123" lon="4.18584">
        <ele>415</ele>
        <time>2025-09-16T12:22:30Z</time>
      </trkpt>
      <trkpt lat="45.49127" lon="4.18584">
        <ele>420</ele>
        <time>2025-09-16T12:22:31Z</time>
      </trkpt>
      <trkpt lat="45.49132" lon="4.18583">
        <ele>418</ele>
        <time>2025-09-16T12:22:32Z</time>
      </trkpt>
      <trkpt lat="45.49136" lon="4.18582">
        <ele>422</ele>
        <time>2025-09-16T12:22:33Z</time>
      </trkpt>
      <trkpt lat="45.4914" lon="4.18581">
        <ele>420</ele>
        <time>2025-09-16T12:22:34Z</time>
      </trkpt>
      <trkpt lat="45.49144" lon="4.18581">
        <ele>411</ele>
        <time>2025-09-16T12:22:35Z</time>
      </trkpt>
      <trkpt lat="45.49147" lon="4.1858">
        <ele>412</ele>
        <time>2025-09-16T12:22:36Z</time>
      </trkpt>
      <trkpt lat="45.49151" lon="4.18579">
        <ele>420</ele>
        <time>2025-09-16T12:22:37Z</time>
      </trkpt>
      <trkpt lat="45.49155" lon="4.18579">
        <ele>421</ele>
        <time>2025-09-16T12:22:38Z</time>
      </trkpt>
      <trkpt lat="45.49159" lon="4.18578">
        <ele>426</ele>
        <time>2025-09-16T12:22:39Z</time>
      </trkpt>
      <trkpt lat="45.49162" lon="4.18577">
        <ele>424</ele>
        <time>2025-09-16T12:22:40Z</time>
      </trkpt>
      <trkpt lat="45.49168" lon="4.18577">
        <ele>416</ele>
        <time>2025-09-16T12:22:42Z</time>
      </trkpt>
      <trkpt lat="45.49172" lon="4.18577">
        <ele>405</ele>
        <time>2025-09-16T12:22:43Z</time>
      </trkpt>
      <trkpt lat="45.49176" lon="4.18575">
        <ele>404</ele>
        <time>2025-09-16T12:22:44Z</time>
      </trkpt>
      <trkpt lat="45.4918" lon="4.18575">
        <ele>410</ele>
        <time>2025-09-16T12:22:45Z</time>
      </trkpt>
      <trkpt lat="45.49184" lon="4.18574">
        <ele>423</ele>
        <time>2025-09-16T12:22:46Z</time>
      </trkpt>
      <trkpt lat="45.49187" lon="4.18573">
        <ele>424</ele>
        <time>2025-09-16T12:22:47Z</time>
      </trkpt>
      <trkpt lat="45.49191" lon="4.18572">
        <ele>422</ele>
        <time>2025-09-16T12:22:48Z</time>
      </trkpt>
      <trkpt lat="45.49194" lon="4.18571">
        <ele>420</ele>
        <time>2025-09-16T12:22:49Z</time>
      </trkpt>
      <trkpt lat="45.49198" lon="4.18571">
        <ele>415</ele>
        <time>2025-09-16T12:22:50Z</time>
      </trkpt>
      <trkpt lat="45.49202" lon="4.1857">
        <ele>410</ele>
        <time>2025-09-16T12:22:51Z</time>
      </trkpt>
      <trkpt lat="45.49205" lon="4.18569">
        <ele>411</ele>
        <time>2025-09-16T12:22:52Z</time>
      </trkpt>
      <trkpt lat="45.49209" lon="4.18568">
        <ele>416</ele>
        <time>2025-09-16T12:22:53Z</time>
      </trkpt>
      <trkpt lat="45.49213" lon="4.18567">
        <ele>420</ele>
        <time>2025-09-16T12:22:54Z</time>
      </trkpt>
      <trkpt lat="45.49217" lon="4.18566">
        <ele>416</ele>
        <time>2025-09-16T12:22:55Z</time>
      </trkpt>
      <trkpt lat="45.49221" lon="4.18566">
        <ele>418</ele>
        <time>2025-09-16T12:22:56Z</time>
      </trkpt>
      <trkpt lat="45.49225" lon="4.18565">
        <ele>404</ele>
        <time>2025-09-16T12:22:57Z</time>
      </trkpt>
      <trkpt lat="45.49229" lon="4.18565">
        <ele>413</ele>
        <time>2025-09-16T12:22:58Z</time>
      </trkpt>
      <trkpt lat="45.49233" lon="4.18564">
        <ele>419</ele>
        <time>2025-09-16T12:22:59Z</time>
      </trkpt>
      <trkpt lat="45.49237" lon="4.18564">
        <ele>419</ele>
        <time>2025-09-16T12:23:00Z</time>
      </trkpt>
      <trkpt lat="45.49241" lon="4.18563">
        <ele>412</ele>
        <time>2025-09-16T12:23:00Z</time>
      </trkpt>
      <trkpt lat="45.49245" lon="4.18563">
        <ele>417</ele>
        <time>2025-09-16T12:23:01Z</time>
      </trkpt>
      <trkpt lat="45.4925" lon="4.18562">
        <ele>420</ele>
        <time>2025-09-16T12:23:02Z</time>
      </trkpt>
      <trkpt lat="45.49254" lon="4.18562">
        <ele>423</ele>
        <time>2025-09-16T12:23:03Z</time>
      </trkpt>
      <trkpt lat="45.49258" lon="4.18562">
        <ele>417</ele>
        <time>2025-09-16T12:23:04Z</time>
      </trkpt>
      <trkpt lat="45.49262" lon="4.18562">
        <ele>404</ele>
        <time>2025-09-16T12:23:05Z</time>
      </trkpt>
      <trkpt lat="45.49266" lon="4.18562">
        <ele>415</ele>
        <time>2025-09-16T12:23:06Z</time>
      </trkpt>
      <trkpt lat="45.49271" lon="4.18562">
        <ele>417</ele>
        <time>2025-09-16T12:23:07Z</time>
      </trkpt>
      <trkpt lat="45.49275" lon="4.18561">
        <ele>420</ele>
        <time>2025-09-16T12:23:08Z</time>
      </trkpt>
      <trkpt lat="45.49279" lon="4.18561">
        <ele>423</ele>
        <time>2025-09-16T12:23:09Z</time>
      </trkpt>
      <trkpt lat="45.49283" lon="4.1856">
        <ele>414</ele>
        <time>2025-09-16T12:23:10Z</time>
      </trkpt>
      <trkpt lat="45.49286" lon="4.18559">
        <ele>418</ele>
        <time>2025-09-16T12:23:11Z</time>
      </trkpt>
      <trkpt lat="45.4929" lon="4.18559">
        <ele>411</ele>
        <time>2025-09-16T12:23:12Z</time>
      </trkpt>
      <trkpt lat="45.49294" lon="4.18558">
        <ele>418</ele>
        <time>2025-09-16T12:23:13Z</time>
      </trkpt>
      <trkpt lat="45.49298" lon="4.18558">
        <ele>410</ele>
        <time>2025-09-16T12:23:14Z</time>
      </trkpt>
      <trkpt lat="45.49303" lon="4.18558">
        <ele>409</ele>
        <time>2025-09-16T12:23:15Z</time>
      </trkpt>
      <trkpt lat="45.49307" lon="4.18557">
        <ele>415</ele>
        <time>2025-09-16T12:23:16Z</time>
      </trkpt>
      <trkpt lat="45.49311" lon="4.18557">
        <ele>419</ele>
        <time>2025-09-16T12:23:17Z</time>
      </trkpt>
      <trkpt lat="45.49316" lon="4.18556">
        <ele>425</ele>
        <time>2025-09-16T12:23:18Z</time>
      </trkpt>
      <trkpt lat="45.4932" lon="4.18556">
        <ele>421</ele>
        <time>2025-09-16T12:23:19Z</time>
      </trkpt>
      <trkpt lat="45.49325" lon="4.18556">
        <ele>414</ele>
        <time>2025-09-16T12:23:20Z</time>
      </trkpt>
      <trkpt lat="45.49329" lon="4.18556">
        <ele>420</ele>
        <time>2025-09-16T12:23:21Z</time>
      </trkpt>
      <trkpt lat="45.49333" lon="4.18556">
        <ele>413</ele>
        <time>2025-09-16T12:23:22Z</time>
      </trkpt>
      <trkpt lat="45.49338" lon="4.18556">
        <ele>411</ele>
        <time>2025-09-16T12:23:23Z</time>
      </trkpt>
      <trkpt lat="45.49342" lon="4.18556">
        <ele>416</ele>
        <time>2025-09-16T12:23:24Z</time>
      </trkpt>
      <trkpt lat="45.49346" lon="4.18556">
        <ele>413</ele>
        <time>2025-09-16T12:23:25Z</time>
      </trkpt>
      <trkpt lat="45.4935" lon="4.18556">
        <ele>414</ele>
        <time>2025-09-16T12:23:26Z</time>
      </trkpt>
      <trkpt lat="45.49353" lon="4.18556">
        <ele>413</ele>
        <time>2025-09-16T12:23:27Z</time>
      </trkpt>
      <trkpt lat="45.49356" lon="4.18557">
        <ele>418</ele>
        <time>2025-09-16T12:23:28Z</time>
      </trkpt>
      <trkpt lat="45.4936" lon="4.18557">
        <ele>414</ele>
        <time>2025-09-16T12:23:30Z</time>
      </trkpt>
      <trkpt lat="45.49363" lon="4.18556">
        <ele>419</ele>
        <time>2025-09-16T12:23:32Z</time>
      </trkpt>
      <trkpt lat="45.49367" lon="4.18553">
        <ele>418</ele>
        <time>2025-09-16T12:23:34Z</time>
      </trkpt>
      <trkpt lat="45.49371" lon="4.18552">
        <ele>420</ele>
        <time>2025-09-16T12:23:36Z</time>
      </trkpt>
      <trkpt lat="45.49375" lon="4.18552">
        <ele>419</ele>
        <time>2025-09-16T12:23:38Z</time>
      </trkpt>
      <trkpt lat="45.49378" lon="4.18554">
        <ele>420</ele>
        <time>2025-09-16T12:23:40Z</time>
      </trkpt>
      <trkpt lat="45.49383" lon="4.18554">
        <ele>419</ele>
        <time>2025-09-16T12:23:42Z</time>
      </trkpt>
      <trkpt lat="45.49386" lon="4.18555">
        <ele>421</ele>
        <time>2025-09-16T12:23:43Z</time>
      </trkpt>
      <trkpt lat="45.49391" lon="4.18555">
        <ele>422</ele>
        <time>2025-09-16T12:23:45Z</time>
      </trkpt>
      <trkpt lat="45.49395" lon="4.18556">
        <ele>422</ele>
        <time>2025-09-16T12:23:46Z</time>
      </trkpt>
      <trkpt lat="45.49399" lon="4.18556">
        <ele>419</ele>
        <time>2025-09-16T12:23:47Z</time>
      </trkpt>
      <trkpt lat="45.49404" lon="4.18556">
        <ele>418</ele>
        <time>2025-09-16T12:23:48Z</time>
      </trkpt>
      <trkpt lat="45.49408" lon="4.18556">
        <ele>416</ele>
        <time>2025-09-16T12:23:49Z</time>
      </trkpt>
      <trkpt lat="45.49412" lon="4.18555">
        <ele>420</ele>
        <time>2025-09-16T12:23:50Z</time>
      </trkpt>
      <trkpt lat="45.49415" lon="4.18555">
        <ele>413</ele>
        <time>2025-09-16T12:23:51Z</time>
      </trkpt>
      <trkpt lat="45.49419" lon="4.18555">
        <ele>415</ele>
        <time>2025-09-16T12:23:52Z</time>
      </trkpt>
      <trkpt lat="45.49423" lon="4.18555">
        <ele>420</ele>
        <time>2025-09-16T12:23:53Z</time>
      </trkpt>
      <trkpt lat="45.49427" lon="4.18555">
        <ele>420</ele>
        <time>2025-09-16T12:23:54Z</time>
      </trkpt>
      <trkpt lat="45.49431" lon="4.18556">
        <ele>414</ele>
        <time>2025-09-16T12:23:55Z</time>
      </trkpt>
      <trkpt lat="45.49435" lon="4.18556">
        <ele>405</ele>
        <time>2025-09-16T12:23:56Z</time>
      </trkpt>
      <trkpt lat="45.49439" lon="4.18556">
        <ele>417</ele>
        <time>2025-09-16T12:23:57Z</time>
      </trkpt>
      <trkpt lat="45.49443" lon="4.18557">
        <ele>419</ele>
        <time>2025-09-16T12:23:58Z</time>
      </trkpt>
      <trkpt lat="45.49447" lon="4.18557">
        <ele>418</ele>
        <time>2025-09-16T12:23:59Z</time>
      </trkpt>
      <trkpt lat="45.49451" lon="4.18558">
        <ele>411</ele>
        <time>2025-09-16T12:24:00Z</time>
      </trkpt>
      <trkpt lat="45.49455" lon="4.18558">
        <ele>416</ele>
        <time>2025-09-16T12:24:01Z</time>
      </trkpt>
      <trkpt lat="45.49459" lon="4.18558">
        <ele>414</ele>
        <time>2025-09-16T12:24:02Z</time>
      </trkpt>
      <trkpt lat="45.49466" lon="4.18558">
        <ele>413</ele>
        <time>2025-09-16T12:24:04Z</time>
      </trkpt>
      <trkpt lat="45.49472" lon="4.18558">
        <ele>417</ele>
        <time>2025-09-16T12:24:05Z</time>
      </trkpt>
      <trkpt lat="45.49476" lon="4.18558">
        <ele>412</ele>
        <time>2025-09-16T12:24:06Z</time>
      </trkpt>
      <trkpt lat="45.49481" lon="4.18558">
        <ele>415</ele>
        <time>2025-09-16T12:24:07Z</time>
      </trkpt>
      <trkpt lat="45.49485" lon="4.18558">
        <ele>414</ele>
        <time>2025-09-16T12:24:08Z</time>
      </trkpt>
      <trkpt lat="45.49489" lon="4.18558">
        <ele>412</ele>
        <time>2025-09-16T12:24:09Z</time>
      </trkpt>
      <trkpt lat="45.49493" lon="4.18558">
        <ele>413</ele>
        <time>2025-09-16T12:24:10Z</time>
      </trkpt>
      <trkpt lat="45.49497" lon="4.18558">
        <ele>420</ele>
        <time>2025-09-16T12:24:11Z</time>
      </trkpt>
      <trkpt lat="45.49502" lon="4.18557">
        <ele>412</ele>
        <time>2025-09-16T12:24:12Z</time>
      </trkpt>
      <trkpt lat="45.49506" lon="4.18557">
        <ele>410</ele>
        <time>2025-09-16T12:24:13Z</time>
      </trkpt>
      <trkpt lat="45.49511" lon="4.18557">
        <ele>420</ele>
        <time>2025-09-16T12:24:14Z</time>
      </trkpt>
      <trkpt lat="45.49514" lon="4.18557">
        <ele>421</ele>
        <time>2025-09-16T12:24:15Z</time>
      </trkpt>
      <trkpt lat="45.49518" lon="4.18557">
        <ele>416</ele>
        <time>2025-09-16T12:24:16Z</time>
      </trkpt>
      <trkpt lat="45.49522" lon="4.18557">
        <ele>413</ele>
        <time>2025-09-16T12:24:17Z</time>
      </trkpt>
      <trkpt lat="45.49526" lon="4.18557">
        <ele>412</ele>
        <time>2025-09-16T12:24:18Z</time>
      </trkpt>
      <trkpt lat="45.4953" lon="4.18557">
        <ele>418</ele>
        <time>2025-09-16T12:24:19Z</time>
      </trkpt>
      <trkpt lat="45.49535" lon="4.18557">
        <ele>419</ele>
        <time>2025-09-16T12:24:20Z</time>
      </trkpt>
      <trkpt lat="45.49539" lon="4.18557">
        <ele>418</ele>
        <time>2025-09-16T12:24:21Z</time>
      </trkpt>
      <trkpt lat="45.49543" lon="4.18557">
        <ele>411</ele>
        <time>2025-09-16T12:24:22Z</time>
      </trkpt>
      <trkpt lat="45.49547" lon="4.18558">
        <ele>417</ele>
        <time>2025-09-16T12:24:23Z</time>
      </trkpt>
      <trkpt lat="45.49552" lon="4.18558">
        <ele>419</ele>
        <time>2025-09-16T12:24:24Z</time>
      </trkpt>
      <trkpt lat="45.49556" lon="4.18559">
        <ele>422</ele>
        <time>2025-09-16T12:24:25Z</time>
      </trkpt>
      <trkpt lat="45.4956" lon="4.18559">
        <ele>408</ele>
        <time>2025-09-16T12:24:26Z</time>
      </trkpt>
      <trkpt lat="45.49565" lon="4.18559">
        <ele>420</ele>
        <time>2025-09-16T12:24:27Z</time>
      </trkpt>
      <trkpt lat="45.4957" lon="4.18559">
        <ele>420</ele>
        <time>2025-09-16T12:24:28Z</time>
      </trkpt>
      <trkpt lat="45.49575" lon="4.18559">
        <ele>424</ele>
        <time>2025-09-16T12:24:29Z</time>
      </trkpt>
      <trkpt lat="45.49579" lon="4.18559">
        <ele>408</ele>
        <time>2025-09-16T12:24:30Z</time>
      </trkpt>
      <trkpt lat="45.49583" lon="4.18559">
        <ele>418</ele>
        <time>2025-09-16T12:24:31Z</time>
      </trkpt>
      <trkpt lat="45.49588" lon="4.1856">
        <ele>414</ele>
        <time>2025-09-16T12:24:32Z</time>
      </trkpt>
      <trkpt lat="45.49592" lon="4.1856">
        <ele>417</ele>
        <time>2025-09-16T12:24:33Z</time>
      </trkpt>
      <trkpt lat="45.49597" lon="4.18561">
        <ele>406</ele>
        <time>2025-09-16T12:24:34Z</time>
      </trkpt>
      <trkpt lat="45.49601" lon="4.18561">
        <ele>412</ele>
        <time>2025-09-16T12:24:35Z</time>
      </trkpt>
      <trkpt lat="45.49605" lon="4.18562">
        <ele>413</ele>
        <time>2025-09-16T12:24:36Z</time>
      </trkpt>
      <trkpt lat="45.49609" lon="4.18562">
        <ele>420</ele>
        <time>2025-09-16T12:24:37Z</time>
      </trkpt>
      <trkpt lat="45.49613" lon="4.18562">
        <ele>417</ele>
        <time>2025-09-16T12:24:38Z</time>
      </trkpt>
      <trkpt lat="45.49616" lon="4.18562">
        <ele>409</ele>
        <time>2025-09-16T12:24:39Z</time>
      </trkpt>
      <trkpt lat="45.4962" lon="4.18562">
        <ele>416</ele>
        <time>2025-09-16T12:24:40Z</time>
      </trkpt>
      <trkpt lat="45.49623" lon="4.18562">
        <ele>420</ele>
        <time>2025-09-16T12:24:41Z</time>
      </trkpt>
      <trkpt lat="45.49627" lon="4.18563">
        <ele>416</ele>
        <time>2025-09-16T12:24:42Z</time>
      </trkpt>
      <trkpt lat="45.4963" lon="4.18563">
        <ele>420</ele>
        <time>2025-09-16T12:24:43Z</time>
      </trkpt>
      <trkpt lat="45.49634" lon="4.18564">
        <ele>407</ele>
        <time>2025-09-16T12:24:44Z</time>
      </trkpt>
      <trkpt lat="45.49638" lon="4.18564">
        <ele>412</ele>
        <time>2025-09-16T12:24:45Z</time>
      </trkpt>
      <trkpt lat="45.49642" lon="4.18565">
        <ele>417</ele>
        <time>2025-09-16T12:24:46Z</time>
      </trkpt>
      <trkpt lat="45.49646" lon="4.18566">
        <ele>417</ele>
        <time>2025-09-16T12:24:47Z</time>
      </trkpt>
      <trkpt lat="45.4965" lon="4.18567">
        <ele>422</ele>
        <time>2025-09-16T12:24:48Z</time>
      </trkpt>
      <trkpt lat="45.49655" lon="4.18568">
        <ele>415</ele>
        <time>2025-09-16T12:24:49Z</time>
      </trkpt>
      <trkpt lat="45.49659" lon="4.18569">
        <ele>410</ele>
        <time>2025-09-16T12:24:50Z</time>
      </trkpt>
      <trkpt lat="45.49664" lon="4.1857">
        <ele>423</ele>
        <time>2025-09-16T12:24:51Z</time>
      </trkpt>
      <trkpt lat="45.49668" lon="4.1857">
        <ele>417</ele>
        <time>2025-09-16T12:24:52Z</time>
      </trkpt>
      <trkpt lat="45.49673" lon="4.1857">
        <ele>414</ele>
        <time>2025-09-16T12:24:53Z</time>
      </trkpt>
      <trkpt lat="45.49677" lon="4.1857">
        <ele>409</ele>
        <time>2025-09-16T12:24:54Z</time>
      </trkpt>
      <trkpt lat="45.49681" lon="4.1857">
        <ele>405</ele>
        <time>2025-09-16T12:24:55Z</time>
      </trkpt>
      <trkpt lat="45.49688" lon="4.18571">
        <ele>411</ele>
        <time>2025-09-16T12:24:57Z</time>
      </trkpt>
      <trkpt lat="45.49694" lon="4.18571">
        <ele>416</ele>
        <time>2025-09-16T12:24:58Z</time>
      </trkpt>
      <trkpt lat="45.49698" lon="4.18571">
        <ele>415</ele>
        <time>2025-09-16T12:24:59Z</time>
      </trkpt>
      <trkpt lat="45.49702" lon="4.18571">
        <ele>410</ele>
        <time>2025-09-16T12:25:00Z</time>
      </trkpt>
      <trkpt lat="45.49706" lon="4.18571">
        <ele>416</ele>
        <time>2025-09-16T12:25:02Z</time>
      </trkpt>
      <trkpt lat="45.4971" lon="4.18572">
        <ele>420</ele>
        <time>2025-09-16T12:25:03Z</time>
      </trkpt>
      <trkpt lat="45.49714" lon="4.18572">
        <ele>417</ele>
        <time>2025-09-16T12:25:04Z</time>
      </trkpt>
      <trkpt lat="45.49717" lon="4.18573">
        <ele>412</ele>
        <time>2025-09-16T12:25:05Z</time>
      </trkpt>
      <trkpt lat="45.49721" lon="4.18573">
        <ele>419</ele>
        <time>2025-09-16T12:25:06Z</time>
      </trkpt>
      <trkpt lat="45.49724" lon="4.18574">
        <ele>419</ele>
        <time>2025-09-16T12:25:07Z</time>
      </trkpt>
      <trkpt lat="45.49728" lon="4.18574">
        <ele>425</ele>
        <time>2025-09-16T12:25:08Z</time>
      </trkpt>
      <trkpt lat="45.49732" lon="4.18575">
        <ele>422</ele>
        <time>2025-09-16T12:25:09Z</time>
      </trkpt>
      <trkpt lat="45.49735" lon="4.18575">
        <ele>408</ele>
        <time>2025-09-16T12:25:10Z</time>
      </trkpt>
      <trkpt lat="45.49739" lon="4.18576">
        <ele>416</ele>
        <time>2025-09-16T12:25:11Z</time>
      </trkpt>
      <trkpt lat="45.49744" lon="4.18577">
        <ele>412</ele>
        <time>2025-09-16T12:25:12Z</time>
      </trkpt>
      <trkpt lat="45.49748" lon="4.18578">
        <ele>420</ele>
        <time>2025-09-16T12:25:13Z</time>
      </trkpt>
      <trkpt lat="45.49752" lon="4.18579">
        <ele>415</ele>
        <time>2025-09-16T12:25:14Z</time>
      </trkpt>
      <trkpt lat="45.49756" lon="4.1858">
        <ele>420</ele>
        <time>2025-09-16T12:25:15Z</time>
      </trkpt>
      <trkpt lat="45.4976" lon="4.18581">
        <ele>414</ele>
        <time>2025-09-16T12:25:16Z</time>
      </trkpt>
      <trkpt lat="45.49765" lon="4.18582">
        <ele>418</ele>
        <time>2025-09-16T12:25:17Z</time>
      </trkpt>
      <trkpt lat="45.49769" lon="4.18582">
        <ele>413</ele>
        <time>2025-09-16T12:25:18Z</time>
      </trkpt>
      <trkpt lat="45.49773" lon="4.18583">
        <ele>416</ele>
        <time>2025-09-16T12:25:19Z</time>
      </trkpt>
      <trkpt lat="45.49777" lon="4.18583">
        <ele>414</ele>
        <time>2025-09-16T12:25:20Z</time>
      </trkpt>
      <trkpt lat="45.49781" lon="4.18584">
        <ele>417</ele>
        <time>2025-09-16T12:25:21Z</time>
      </trkpt>
      <trkpt lat="45.49784" lon="4.18585">
        <ele>418</ele>
        <time>2025-09-16T12:25:22Z</time>
      </trkpt>
      <trkpt lat="45.49787" lon="4.18586">
        <ele>415</ele>
        <time>2025-09-16T12:25:23Z</time>
      </trkpt>
      <trkpt lat="45.49789" lon="4.18589">
        <ele>412</ele>
        <time>2025-09-16T12:25:27Z</time>
      </trkpt>
      <trkpt lat="45.49791" lon="4.18591">
        <ele>418</ele>
        <time>2025-09-16T12:25:29Z</time>
      </trkpt>
      <trkpt lat="45.49794" lon="4.18593">
        <ele>419</ele>
        <time>2025-09-16T12:25:31Z</time>
      </trkpt>
      <trkpt lat="45.49798" lon="4.18595">
        <ele>418</ele>
        <time>2025-09-16T12:25:34Z</time>
      </trkpt>
      <trkpt lat="45.49802" lon="4.18597">
        <ele>416</ele>
        <time>2025-09-16T12:25:36Z</time>
      </trkpt>
      <trkpt lat="45.49806" lon="4.18597">
        <ele>413</ele>
        <time>2025-09-16T12:25:37Z</time>
      </trkpt>
      <trkpt lat="45.4981" lon="4.18596">
        <ele>408</ele>
        <time>2025-09-16T12:25:39Z</time>
      </trkpt>
      <trkpt lat="45.49813" lon="4.18593">
        <ele>416</ele>
        <time>2025-09-16T12:25:41Z</time>
      </trkpt>
      <trkpt lat="45.49816" lon="4.18591">
        <ele>418</ele>
        <time>2025-09-16T12:25:46Z</time>
      </trkpt>
      <trkpt lat="45.49819" lon="4.18592">
        <ele>405</ele>
        <time>2025-09-16T12:26:17Z</time>
      </trkpt>
      <trkpt lat="45.49823" lon="4.18592">
        <ele>405</ele>
        <time>2025-09-16T12:26:20Z</time>
      </trkpt>
      <trkpt lat="45.49826" lon="4.18593">
        <ele>408</ele>
        <time>2025-09-16T12:26:21Z</time>
      </trkpt>
      <trkpt lat="45.49829" lon="4.18594">
        <ele>407</ele>
        <time>2025-09-16T12:26:22Z</time>
      </trkpt>
      <trkpt lat="45.49832" lon="4.18595">
        <ele>409</ele>
        <time>2025-09-16T12:26:23Z</time>
      </trkpt>
      <trkpt lat="45.49837" lon="4.18597">
        <ele>411</ele>
        <time>2025-09-16T12:26:25Z</time>
      </trkpt>
      <trkpt lat="45.49841" lon="4.18598">
        <ele>419</ele>
        <time>2025-09-16T12:26:26Z</time>
      </trkpt>
      <trkpt lat="45.49844" lon="4.18599">
        <ele>424</ele>
        <time>2025-09-16T12:26:27Z</time>
      </trkpt>
      <trkpt lat="45.49848" lon="4.186">
        <ele>425</ele>
        <time>2025-09-16T12:26:28Z</time>
      </trkpt>
      <trkpt lat="45.49853" lon="4.186">
        <ele>423</ele>
        <time>2025-09-16T12:26:29Z</time>
      </trkpt>
      <trkpt lat="45.49857" lon="4.18601">
        <ele>420</ele>
        <time>2025-09-16T12:26:30Z</time>
      </trkpt>
      <trkpt lat="45.49861" lon="4.18602">
        <ele>416</ele>
        <time>2025-09-16T12:26:31Z</time>
      </trkpt>
      <trkpt lat="45.49865" lon="4.18602">
        <ele>412</ele>
        <time>2025-09-16T12:26:32Z</time>
      </trkpt>
      <trkpt lat="45.49869" lon="4.18603">
        <ele>410</ele>
        <time>2025-09-16T12:26:33Z</time>
      </trkpt>
      <trkpt lat="45.49872" lon="4.18603">
        <ele>415</ele>
        <time>2025-09-16T12:26:34Z</time>
      </trkpt>
      <trkpt lat="45.49876" lon="4.18603">
        <ele>413</ele>
        <time>2025-09-16T12:26:35Z</time>
      </trkpt>
      <trkpt lat="45.49879" lon="4.18603">
        <ele>408</ele>
        <time>2025-09-16T12:26:36Z</time>
      </trkpt>
      <trkpt lat="45.49883" lon="4.18604">
        <ele>405</ele>
        <time>2025-09-16T12:26:37Z</time>
      </trkpt>
      <trkpt lat="45.49886" lon="4.18605">
        <ele>411</ele>
        <time>2025-09-16T12:26:38Z</time>
      </trkpt>
      <trkpt lat="45.4989" lon="4.18605">
        <ele>416</ele>
        <time>2025-09-16T12:26:39Z</time>
      </trkpt>
      <trkpt lat="45.49894" lon="4.18606">
        <ele>419</ele>
        <time>2025-09-16T12:26:40Z</time>
      </trkpt>
      <trkpt lat="45.49898" lon="4.18607">
        <ele>414</ele>
        <time>2025-09-16T12:26:41Z</time>
      </trkpt>
      <trkpt lat="45.49903" lon="4.18608">
        <ele>410</ele>
        <time>2025-09-16T12:26:42Z</time>
      </trkpt>
      <trkpt lat="45.49907" lon="4.18609">
        <ele>412</ele>
        <time>2025-09-16T12:26:43Z</time>
      </trkpt>
      <trkpt lat="45.4991" lon="4.1861">
        <ele>418</ele>
        <time>2025-09-16T12:26:44Z</time>
      </trkpt>
      <trkpt lat="45.49914" lon="4.18611">
        <ele>412</ele>
        <time>2025-09-16T12:26:45Z</time>
      </trkpt>
      <trkpt lat="45.49918" lon="4.18613">
        <ele>417</ele>
        <time>2025-09-16T12:26:46Z</time>
      </trkpt>
      <trkpt lat="45.49922" lon="4.18615">
        <ele>421</ele>
        <time>2025-09-16T12:26:47Z</time>
      </trkpt>
      <trkpt lat="45.49926" lon="4.18617">
        <ele>404</ele>
        <time>2025-09-16T12:26:48Z</time>
      </trkpt>
      <trkpt lat="45.49929" lon="4.18618">
        <ele>415</ele>
        <time>2025-09-16T12:26:49Z</time>
      </trkpt>
      <trkpt lat="45.49934" lon="4.18619">
        <ele>415</ele>
        <time>2025-09-16T12:26:50Z</time>
      </trkpt>
      <trkpt lat="45.49939" lon="4.18621">
        <ele>411</ele>
        <time>2025-09-16T12:26:51Z</time>
      </trkpt>
      <trkpt lat="45.49944" lon="4.18623">
        <ele>412</ele>
        <time>2025-09-16T12:26:52Z</time>
      </trkpt>
      <trkpt lat="45.49949" lon="4.18625">
        <ele>417</ele>
        <time>2025-09-16T12:26:53Z</time>
      </trkpt>
      <trkpt lat="45.49954" lon="4.18627">
        <ele>404</ele>
        <time>2025-09-16T12:26:54Z</time>
      </trkpt>
      <trkpt lat="45.49959" lon="4.18628">
        <ele>414</ele>
        <time>2025-09-16T12:26:55Z</time>
      </trkpt>
      <trkpt lat="45.49964" lon="4.1863">
        <ele>401</ele>
        <time>2025-09-16T12:26:56Z</time>
      </trkpt>
      <trkpt lat="45.49969" lon="4.18632">
        <ele>416</ele>
        <time>2025-09-16T12:26:57Z</time>
      </trkpt>
      <trkpt lat="45.49974" lon="4.18634">
        <ele>416</ele>
        <time>2025-09-16T12:26:58Z</time>
      </trkpt>
      <trkpt lat="45.49978" lon="4.18635">
        <ele>407</ele>
        <time>2025-09-16T12:26:59Z</time>
      </trkpt>
      <trkpt lat="45.49982" lon="4.18637">
        <ele>410</ele>
        <time>2025-09-16T12:27:00Z</time>
      </trkpt>
      <trkpt lat="45.49987" lon="4.18638">
        <ele>418</ele>
        <time>2025-09-16T12:27:01Z</time>
      </trkpt>
      <trkpt lat="45.49991" lon="4.18639">
        <ele>416</ele>
        <time>2025-09-16T12:27:02Z</time>
      </trkpt>
      <trkpt lat="45.49995" lon="4.1864">
        <ele>417</ele>
        <time>2025-09-16T12:27:03Z</time>
      </trkpt>
      <trkpt lat="45.49999" lon="4.18642">
        <ele>410</ele>
        <time>2025-09-16T12:27:04Z</time>
      </trkpt>
      <trkpt lat="45.50003" lon="4.18643">
        <ele>409</ele>
        <time>2025-09-16T12:27:05Z</time>
      </trkpt>
      <trkpt lat="45.50007" lon="4.18645">
        <ele>410</ele>
        <time>2025-09-16T12:27:06Z</time>
      </trkpt>
      <trkpt lat="45.50011" lon="4.18647">
        <ele>415</ele>
        <time>2025-09-16T12:27:07Z</time>
      </trkpt>
      <trkpt lat="45.50015" lon="4.18648">
        <ele>414</ele>
        <time>2025-09-16T12:27:08Z</time>
      </trkpt>
      <trkpt lat="45.5002" lon="4.1865">
        <ele>415</ele>
        <time>2025-09-16T12:27:09Z</time>
      </trkpt>
      <trkpt lat="45.50024" lon="4.18652">
        <ele>408</ele>
        <time>2025-09-16T12:27:10Z</time>
      </trkpt>
      <trkpt lat="45.50029" lon="4.18653">
        <ele>409</ele>
        <time>2025-09-16T12:27:11Z</time>
      </trkpt>
      <trkpt lat="45.50033" lon="4.18655">
        <ele>412</ele>
        <time>2025-09-16T12:27:12Z</time>
      </trkpt>
      <trkpt lat="45.50038" lon="4.18656">
        <ele>413</ele>
        <time>2025-09-16T12:27:13Z</time>
      </trkpt>
      <trkpt lat="45.50042" lon="4.18658">
        <ele>415</ele>
        <time>2025-09-16T12:27:14Z</time>
      </trkpt>
      <trkpt lat="45.50047" lon="4.18659">
        <ele>412</ele>
        <time>2025-09-16T12:27:15Z</time>
      </trkpt>
      <trkpt lat="45.50051" lon="4.18661">
        <ele>405</ele>
        <time>2025-09-16T12:27:16Z</time>
      </trkpt>
      <trkpt lat="45.50055" lon="4.18662">
        <ele>408</ele>
        <time>2025-09-16T12:27:17Z</time>
      </trkpt>
      <trkpt lat="45.5006" lon="4.18664">
        <ele>410</ele>
        <time>2025-09-16T12:27:18Z</time>
      </trkpt>
      <trkpt lat="45.50064" lon="4.18666">
        <ele>409</ele>
        <time>2025-09-16T12:27:19Z</time>
      </trkpt>
      <trkpt lat="45.50069" lon="4.18667">
        <ele>412</ele>
        <time>2025-09-16T12:27:20Z</time>
      </trkpt>
      <trkpt lat="45.50073" lon="4.18668">
        <ele>413</ele>
        <time>2025-09-16T12:27:21Z</time>
      </trkpt>
      <trkpt lat="45.50077" lon="4.1867">
        <ele>406</ele>
        <time>2025-09-16T12:27:22Z</time>
      </trkpt>
      <trkpt lat="45.50082" lon="4.18672">
        <ele>408</ele>
        <time>2025-09-16T12:27:23Z</time>
      </trkpt>
      <trkpt lat="45.50087" lon="4.18674">
        <ele>414</ele>
        <time>2025-09-16T12:27:24Z</time>
      </trkpt>
      <trkpt lat="45.50091" lon="4.18676">
        <ele>413</ele>
        <time>2025-09-16T12:27:25Z</time>
      </trkpt>
      <trkpt lat="45.50095" lon="4.18678">
        <ele>409</ele>
        <time>2025-09-16T12:27:26Z</time>
      </trkpt>
      <trkpt lat="45.50099" lon="4.1868">
        <ele>394</ele>
        <time>2025-09-16T12:27:27Z</time>
      </trkpt>
      <trkpt lat="45.50103" lon="4.18681">
        <ele>408</ele>
        <time>2025-09-16T12:27:28Z</time>
      </trkpt>
      <trkpt lat="45.50107" lon="4.18683">
        <ele>413</ele>
        <time>2025-09-16T12:27:29Z</time>
      </trkpt>
      <trkpt lat="45.50112" lon="4.18684">
        <ele>409</ele>
        <time>2025-09-16T12:27:30Z</time>
      </trkpt>
      <trkpt lat="45.50116" lon="4.18686">
        <ele>412</ele>
        <time>2025-09-16T12:27:31Z</time>
      </trkpt>
      <trkpt lat="45.50121" lon="4.18687">
        <ele>416</ele>
        <time>2025-09-16T12:27:32Z</time>
      </trkpt>
      <trkpt lat="45.50126" lon="4.18688">
        <ele>412</ele>
        <time>2025-09-16T12:27:33Z</time>
      </trkpt>
      <trkpt lat="45.5013" lon="4.1869">
        <ele>412</ele>
        <time>2025-09-16T12:27:34Z</time>
      </trkpt>
      <trkpt lat="45.50134" lon="4.18692">
        <ele>411</ele>
        <time>2025-09-16T12:27:35Z</time>
      </trkpt>
      <trkpt lat="45.50138" lon="4.18694">
        <ele>409</ele>
        <time>2025-09-16T12:27:36Z</time>
      </trkpt>
      <trkpt lat="45.50142" lon="4.18696">
        <ele>411</ele>
        <time>2025-09-16T12:27:37Z</time>
      </trkpt>
      <trkpt lat="45.50146" lon="4.18699">
        <ele>409</ele>
        <time>2025-09-16T12:27:38Z</time>
      </trkpt>
      <trkpt lat="45.5015" lon="4.18701">
        <ele>411</ele>
        <time>2025-09-16T12:27:39Z</time>
      </trkpt>
      <trkpt lat="45.50154" lon="4.18703">
        <ele>409</ele>
        <time>2025-09-16T12:27:40Z</time>
      </trkpt>
      <trkpt lat="45.50157" lon="4.18704">
        <ele>408</ele>
        <time>2025-09-16T12:27:41Z</time>
      </trkpt>
      <trkpt lat="45.50161" lon="4.18705">
        <ele>409</ele>
        <time>2025-09-16T12:27:43Z</time>
      </trkpt>
      <trkpt lat="45.50166" lon="4.18707">
        <ele>417</ele>
        <time>2025-09-16T12:27:45Z</time>
      </trkpt>
      <trkpt lat="45.5017" lon="4.18708">
        <ele>417</ele>
        <time>2025-09-16T12:27:47Z</time>
      </trkpt>
      <trkpt lat="45.50174" lon="4.18708">
        <ele>417</ele>
        <time>2025-09-16T12:27:49Z</time>
      </trkpt>
      <trkpt lat="45.50178" lon="4.18708">
        <ele>414</ele>
        <time>2025-09-16T12:27:50Z</time>
      </trkpt>
      <trkpt lat="45.50182" lon="4.18709">
        <ele>414</ele>
        <time>2025-09-16T12:27:51Z</time>
      </trkpt>
      <trkpt lat="45.50185" lon="4.18711">
        <ele>404</ele>
        <time>2025-09-16T12:27:52Z</time>
      </trkpt>
      <trkpt lat="45.50189" lon="4.18712">
        <ele>405</ele>
        <time>2025-09-16T12:27:53Z</time>
      </trkpt>
      <trkpt lat="45.50193" lon="4.18713">
        <ele>411</ele>
        <time>2025-09-16T12:27:54Z</time>
      </trkpt>
      <trkpt lat="45.50196" lon="4.18714">
        <ele>412</ele>
        <time>2025-09-16T12:27:55Z</time>
      </trkpt>
      <trkpt lat="45.50199" lon="4.18715">
        <ele>413</ele>
        <time>2025-09-16T12:27:56Z</time>
      </trkpt>
      <trkpt lat="45.50203" lon="4.18716">
        <ele>402</ele>
        <time>2025-09-16T12:27:57Z</time>
      </trkpt>
      <trkpt lat="45.50207" lon="4.18718">
        <ele>400</ele>
        <time>2025-09-16T12:27:58Z</time>
      </trkpt>
      <trkpt lat="45.5021" lon="4.1872">
        <ele>408</ele>
        <time>2025-09-16T12:27:59Z</time>
      </trkpt>
      <trkpt lat="45.50214" lon="4.18722">
        <ele>412</ele>
        <time>2025-09-16T12:28:00Z</time>
      </trkpt>
      <trkpt lat="45.50218" lon="4.18723">
        <ele>412</ele>
        <time>2025-09-16T12:28:01Z</time>
      </trkpt>
      <trkpt lat="45.50222" lon="4.18724">
        <ele>409</ele>
        <time>2025-09-16T12:28:02Z</time>
      </trkpt>
      <trkpt lat="45.50226" lon="4.18726">
        <ele>393</ele>
        <time>2025-09-16T12:28:03Z</time>
      </trkpt>
      <trkpt lat="45.5023" lon="4.18727">
        <ele>406</ele>
        <time>2025-09-16T12:28:04Z</time>
      </trkpt>
      <trkpt lat="45.50235" lon="4.18728">
        <ele>409</ele>
        <time>2025-09-16T12:28:05Z</time>
      </trkpt>
      <trkpt lat="45.5024" lon="4.1873">
        <ele>414</ele>
        <time>2025-09-16T12:28:06Z</time>
      </trkpt>
      <trkpt lat="45.50244" lon="4.18732">
        <ele>398</ele>
        <time>2025-09-16T12:28:07Z</time>
      </trkpt>
      <trkpt lat="45.50248" lon="4.18734">
        <ele>406</ele>
        <time>2025-09-16T12:28:08Z</time>
      </trkpt>
      <trkpt lat="45.50253" lon="4.18735">
        <ele>409</ele>
        <time>2025-09-16T12:28:09Z</time>
      </trkpt>
      <trkpt lat="45.50257" lon="4.18736">
        <ele>411</ele>
        <time>2025-09-16T12:28:10Z</time>
      </trkpt>
      <trkpt lat="45.5026" lon="4.18737">
        <ele>402</ele>
        <time>2025-09-16T12:28:11Z</time>
      </trkpt>
      <trkpt lat="45.50263" lon="4.18739">
        <ele>398</ele>
        <time>2025-09-16T12:28:12Z</time>
      </trkpt>
      <trkpt lat="45.50267" lon="4.1874">
        <ele>409</ele>
        <time>2025-09-16T12:28:13Z</time>
      </trkpt>
      <trkpt lat="45.5027" lon="4.18742">
        <ele>411</ele>
        <time>2025-09-16T12:28:14Z</time>
      </trkpt>
      <trkpt lat="45.50274" lon="4.18744">
        <ele>410</ele>
        <time>2025-09-16T12:28:15Z</time>
      </trkpt>
      <trkpt lat="45.50278" lon="4.18746">
        <ele>397</ele>
        <time>2025-09-16T12:28:16Z</time>
      </trkpt>
      <trkpt lat="45.50282" lon="4.18747">
        <ele>409</ele>
        <time>2025-09-16T12:28:17Z</time>
      </trkpt>
      <trkpt lat="45.50286" lon="4.18749">
        <ele>413</ele>
        <time>2025-09-16T12:28:18Z</time>
      </trkpt>
      <trkpt lat="45.50291" lon="4.18751">
        <ele>411</ele>
        <time>2025-09-16T12:28:19Z</time>
      </trkpt>
      <trkpt lat="45.50295" lon="4.18752">
        <ele>403</ele>
        <time>2025-09-16T12:28:20Z</time>
      </trkpt>
      <trkpt lat="45.50298" lon="4.18753">
        <ele>401</ele>
        <time>2025-09-16T12:28:21Z</time>
      </trkpt>
      <trkpt lat="45.50302" lon="4.18755">
        <ele>408</ele>
        <time>2025-09-16T12:28:22Z</time>
      </trkpt>
      <trkpt lat="45.50307" lon="4.18757">
        <ele>410</ele>
        <time>2025-09-16T12:28:23Z</time>
      </trkpt>
      <trkpt lat="45.50311" lon="4.18759">
        <ele>406</ele>
        <time>2025-09-16T12:28:24Z</time>
      </trkpt>
      <trkpt lat="45.50316" lon="4.18761">
        <ele>404</ele>
        <time>2025-09-16T12:28:25Z</time>
      </trkpt>
      <trkpt lat="45.5032" lon="4.18763">
        <ele>410</ele>
        <time>2025-09-16T12:28:26Z</time>
      </trkpt>
      <trkpt lat="45.50324" lon="4.18765">
        <ele>410</ele>
        <time>2025-09-16T12:28:27Z</time>
      </trkpt>
      <trkpt lat="45.50328" lon="4.18767">
        <ele>407</ele>
        <time>2025-09-16T12:28:28Z</time>
      </trkpt>
      <trkpt lat="45.50332" lon="4.18769">
        <ele>405</ele>
        <time>2025-09-16T12:28:29Z</time>
      </trkpt>
      <trkpt lat="45.50337" lon="4.18771">
        <ele>410</ele>
        <time>2025-09-16T12:28:30Z</time>
      </trkpt>
      <trkpt lat="45.50341" lon="4.18773">
        <ele>410</ele>
        <time>2025-09-16T12:28:31Z</time>
      </trkpt>
      <trkpt lat="45.50345" lon="4.18776">
        <ele>398</ele>
        <time>2025-09-16T12:28:31Z</time>
      </trkpt>
      <trkpt lat="45.50349" lon="4.18778">
        <ele>403</ele>
        <time>2025-09-16T12:28:32Z</time>
      </trkpt>
      <trkpt lat="45.50353" lon="4.18779">
        <ele>410</ele>
        <time>2025-09-16T12:28:33Z</time>
      </trkpt>
      <trkpt lat="45.50356" lon="4.18781">
        <ele>414</ele>
        <time>2025-09-16T12:28:34Z</time>
      </trkpt>
      <trkpt lat="45.5036" lon="4.18782">
        <ele>398</ele>
        <time>2025-09-16T12:28:35Z</time>
      </trkpt>
      <trkpt lat="45.50364" lon="4.18784">
        <ele>408</ele>
        <time>2025-09-16T12:28:36Z</time>
      </trkpt>
      <trkpt lat="45.50367" lon="4.18786">
        <ele>408</ele>
        <time>2025-09-16T12:28:37Z</time>
      </trkpt>
      <trkpt lat="45.50371" lon="4.18788">
        <ele>410</ele>
        <time>2025-09-16T12:28:38Z</time>
      </trkpt>
      <trkpt lat="45.50376" lon="4.1879">
        <ele>397</ele>
        <time>2025-09-16T12:28:39Z</time>
      </trkpt>
      <trkpt lat="45.5038" lon="4.18792">
        <ele>410</ele>
        <time>2025-09-16T12:28:40Z</time>
      </trkpt>
      <trkpt lat="45.50385" lon="4.18794">
        <ele>414</ele>
        <time>2025-09-16T12:28:41Z</time>
      </trkpt>
      <trkpt lat="45.50389" lon="4.18796">
        <ele>406</ele>
        <time>2025-09-16T12:28:42Z</time>
      </trkpt>
      <trkpt lat="45.50393" lon="4.18798">
        <ele>406</ele>
        <time>2025-09-16T12:28:43Z</time>
      </trkpt>
      <trkpt lat="45.50397" lon="4.18801">
        <ele>409</ele>
        <time>2025-09-16T12:28:44Z</time>
      </trkpt>
      <trkpt lat="45.504" lon="4.18803">
        <ele>409</ele>
        <time>2025-09-16T12:28:45Z</time>
      </trkpt>
      <trkpt lat="45.50404" lon="4.18805">
        <ele>402</ele>
        <time>2025-09-16T12:28:46Z</time>
      </trkpt>
      <trkpt lat="45.50408" lon="4.18808">
        <ele>404</ele>
        <time>2025-09-16T12:28:47Z</time>
      </trkpt>
      <trkpt lat="45.50412" lon="4.1881">
        <ele>412</ele>
        <time>2025-09-16T12:28:48Z</time>
      </trkpt>
      <trkpt lat="45.50416" lon="4.18813">
        <ele>399</ele>
        <time>2025-09-16T12:28:49Z</time>
      </trkpt>
      <trkpt lat="45.50421" lon="4.18815">
        <ele>405</ele>
        <time>2025-09-16T12:28:50Z</time>
      </trkpt>
      <trkpt lat="45.50425" lon="4.18817">
        <ele>409</ele>
        <time>2025-09-16T12:28:51Z</time>
      </trkpt>
      <trkpt lat="45.50429" lon="4.1882">
        <ele>405</ele>
        <time>2025-09-16T12:28:52Z</time>
      </trkpt>
      <trkpt lat="45.50432" lon="4.18822">
        <ele>405</ele>
        <time>2025-09-16T12:28:53Z</time>
      </trkpt>
      <trkpt lat="45.50436" lon="4.18824">
        <ele>407</ele>
        <time>2025-09-16T12:28:54Z</time>
      </trkpt>
      <trkpt lat="45.5044" lon="4.18826">
        <ele>407</ele>
        <time>2025-09-16T12:28:55Z</time>
      </trkpt>
      <trkpt lat="45.50444" lon="4.18828">
        <ele>404</ele>
        <time>2025-09-16T12:28:56Z</time>
      </trkpt>
      <trkpt lat="45.50449" lon="4.1883">
        <ele>406</ele>
        <time>2025-09-16T12:28:57Z</time>
      </trkpt>
      <trkpt lat="45.50453" lon="4.18833">
        <ele>411</ele>
        <time>2025-09-16T12:28:58Z</time>
      </trkpt>
      <trkpt lat="45.50457" lon="4.18835">
        <ele>404</ele>
        <time>2025-09-16T12:28:59Z</time>
      </trkpt>
      <trkpt lat="45.50461" lon="4.18838">
        <ele>405</ele>
        <time>2025-09-16T12:29:00Z</time>
      </trkpt>
      <trkpt lat="45.50465" lon="4.1884">
        <ele>408</ele>
        <time>2025-09-16T12:29:01Z</time>
      </trkpt>
      <trkpt lat="45.5047" lon="4.18843">
        <ele>409</ele>
        <time>2025-09-16T12:29:02Z</time>
      </trkpt>
      <trkpt lat="45.50474" lon="4.18845">
        <ele>398</ele>
        <time>2025-09-16T12:29:03Z</time>
      </trkpt>
      <trkpt lat="45.50479" lon="4.18848">
        <ele>403</ele>
        <time>2025-09-16T12:29:04Z</time>
      </trkpt>
      <trkpt lat="45.50483" lon="4.1885">
        <ele>410</ele>
        <time>2025-09-16T12:29:05Z</time>
      </trkpt>
      <trkpt lat="45.50487" lon="4.18853">
        <ele>400</ele>
        <time>2025-09-16T12:29:06Z</time>
      </trkpt>
      <trkpt lat="45.50491" lon="4.18855">
        <ele>408</ele>
        <time>2025-09-16T12:29:07Z</time>
      </trkpt>
      <trkpt lat="45.50495" lon="4.18858">
        <ele>408</ele>
        <time>2025-09-16T12:29:08Z</time>
      </trkpt>
      <trkpt lat="45.50499" lon="4.18861">
        <ele>406</ele>
        <time>2025-09-16T12:29:09Z</time>
      </trkpt>
      <trkpt lat="45.50503" lon="4.18863">
        <ele>402</ele>
        <time>2025-09-16T12:29:10Z</time>
      </trkpt>
      <trkpt lat="45.50506" lon="4.18865">
        <ele>402</ele>
        <time>2025-09-16T12:29:11Z</time>
      </trkpt>
      <trkpt lat="45.5051" lon="4.18867">
        <ele>408</ele>
        <time>2025-09-16T12:29:12Z</time>
      </trkpt>
      <trkpt lat="45.50514" lon="4.18869">
        <ele>395</ele>
        <time>2025-09-16T12:29:13Z</time>
      </trkpt>
      <trkpt lat="45.50519" lon="4.18872">
        <ele>406</ele>
        <time>2025-09-16T12:29:14Z</time>
      </trkpt>
      <trkpt lat="45.50523" lon="4.18874">
        <ele>406</ele>
        <time>2025-09-16T12:29:15Z</time>
      </trkpt>
      <trkpt lat="45.50527" lon="4.18876">
        <ele>406</ele>
        <time>2025-09-16T12:29:16Z</time>
      </trkpt>
      <trkpt lat="45.50531" lon="4.18878">
        <ele>400</ele>
        <time>2025-09-16T12:29:17Z</time>
      </trkpt>
      <trkpt lat="45.50535" lon="4.18881">
        <ele>404</ele>
        <time>2025-09-16T12:29:18Z</time>
      </trkpt>
      <trkpt lat="45.50539" lon="4.18883">
        <ele>410</ele>
        <time>2025-09-16T12:29:19Z</time>
      </trkpt>
      <trkpt lat="45.50543" lon="4.18885">
        <ele>400</ele>
        <time>2025-09-16T12:29:20Z</time>
      </trkpt>
      <trkpt lat="45.50547" lon="4.18888">
        <ele>407</ele>
        <time>2025-09-16T12:29:21Z</time>
      </trkpt>
      <trkpt lat="45.50551" lon="4.1889">
        <ele>408</ele>
        <time>2025-09-16T12:29:22Z</time>
      </trkpt>
      <trkpt lat="45.50555" lon="4.18893">
        <ele>399</ele>
        <time>2025-09-16T12:29:23Z</time>
      </trkpt>
      <trkpt lat="45.50559" lon="4.18895">
        <ele>409</ele>
        <time>2025-09-16T12:29:24Z</time>
      </trkpt>
      <trkpt lat="45.50564" lon="4.18898">
        <ele>407</ele>
        <time>2025-09-16T12:29:25Z</time>
      </trkpt>
      <trkpt lat="45.50568" lon="4.189">
        <ele>396</ele>
        <time>2025-09-16T12:29:26Z</time>
      </trkpt>
      <trkpt lat="45.50572" lon="4.18903">
        <ele>403</ele>
        <time>2025-09-16T12:29:27Z</time>
      </trkpt>
      <trkpt lat="45.50576" lon="4.18905">
        <ele>407</ele>
        <time>2025-09-16T12:29:28Z</time>
      </trkpt>
      <trkpt lat="45.5058" lon="4.18908">
        <ele>401</ele>
        <time>2025-09-16T12:29:29Z</time>
      </trkpt>
      <trkpt lat="45.50584" lon="4.18911">
        <ele>408</ele>
        <time>2025-09-16T12:29:30Z</time>
      </trkpt>
      <trkpt lat="45.50588" lon="4.18913">
        <ele>406</ele>
        <time>2025-09-16T12:29:31Z</time>
      </trkpt>
      <trkpt lat="45.50591" lon="4.18916">
        <ele>406</ele>
        <time>2025-09-16T12:29:32Z</time>
      </trkpt>
      <trkpt lat="45.50595" lon="4.18918">
        <ele>401</ele>
        <time>2025-09-16T12:29:33Z</time>
      </trkpt>
      <trkpt lat="45.50599" lon="4.18921">
        <ele>406</ele>
        <time>2025-09-16T12:29:34Z</time>
      </trkpt>
      <trkpt lat="45.50602" lon="4.18922">
        <ele>404</ele>
        <time>2025-09-16T12:29:35Z</time>
      </trkpt>
      <trkpt lat="45.50606" lon="4.18924">
        <ele>389</ele>
        <time>2025-09-16T12:29:36Z</time>
      </trkpt>
      <trkpt lat="45.5061" lon="4.18927">
        <ele>403</ele>
        <time>2025-09-16T12:29:37Z</time>
      </trkpt>
      <trkpt lat="45.50614" lon="4.18929">
        <ele>407</ele>
        <time>2025-09-16T12:29:38Z</time>
      </trkpt>
      <trkpt lat="45.50619" lon="4.18931">
        <ele>399</ele>
        <time>2025-09-16T12:29:39Z</time>
      </trkpt>
      <trkpt lat="45.50623" lon="4.18934">
        <ele>401</ele>
        <time>2025-09-16T12:29:40Z</time>
      </trkpt>
      <trkpt lat="45.50627" lon="4.18936">
        <ele>405</ele>
        <time>2025-09-16T12:29:41Z</time>
      </trkpt>
      <trkpt lat="45.50631" lon="4.18938">
        <ele>404</ele>
        <time>2025-09-16T12:29:42Z</time>
      </trkpt>
      <trkpt lat="45.50635" lon="4.1894">
        <ele>399</ele>
        <time>2025-09-16T12:29:43Z</time>
      </trkpt>
      <trkpt lat="45.5064" lon="4.18942">
        <ele>403</ele>
        <time>2025-09-16T12:29:44Z</time>
      </trkpt>
      <trkpt lat="45.50644" lon="4.18945">
        <ele>408</ele>
        <time>2025-09-16T12:29:45Z</time>
      </trkpt>
      <trkpt lat="45.50648" lon="4.18948">
        <ele>400</ele>
        <time>2025-09-16T12:29:46Z</time>
      </trkpt>
      <trkpt lat="45.50652" lon="4.1895">
        <ele>401</ele>
        <time>2025-09-16T12:29:47Z</time>
      </trkpt>
      <trkpt lat="45.50657" lon="4.18953">
        <ele>406</ele>
        <time>2025-09-16T12:29:48Z</time>
      </trkpt>
      <trkpt lat="45.5066" lon="4.18955">
        <ele>404</ele>
        <time>2025-09-16T12:29:49Z</time>
      </trkpt>
      <trkpt lat="45.50665" lon="4.18957">
        <ele>402</ele>
        <time>2025-09-16T12:29:50Z</time>
      </trkpt>
      <trkpt lat="45.50669" lon="4.1896">
        <ele>403</ele>
        <time>2025-09-16T12:29:51Z</time>
      </trkpt>
      <trkpt lat="45.50673" lon="4.18962">
        <ele>406</ele>
        <time>2025-09-16T12:29:52Z</time>
      </trkpt>
      <trkpt lat="45.50676" lon="4.18964">
        <ele>406</ele>
        <time>2025-09-16T12:29:53Z</time>
      </trkpt>
      <trkpt lat="45.5068" lon="4.18966">
        <ele>399</ele>
        <time>2025-09-16T12:29:54Z</time>
      </trkpt>
      <trkpt lat="45.50685" lon="4.18969">
        <ele>403</ele>
        <time>2025-09-16T12:29:55Z</time>
      </trkpt>
      <trkpt lat="45.50689" lon="4.18971">
        <ele>407</ele>
        <time>2025-09-16T12:29:56Z</time>
      </trkpt>
      <trkpt lat="45.50693" lon="4.18974">
        <ele>404</ele>
        <time>2025-09-16T12:29:57Z</time>
      </trkpt>
      <trkpt lat="45.50697" lon="4.18976">
        <ele>397</ele>
        <time>2025-09-16T12:29:58Z</time>
      </trkpt>
      <trkpt lat="45.50701" lon="4.18978">
        <ele>406</ele>
        <time>2025-09-16T12:29:59Z</time>
      </trkpt>
      <trkpt lat="45.50704" lon="4.1898">
        <ele>406</ele>
        <time>2025-09-16T12:30:00Z</time>
      </trkpt>
      <trkpt lat="45.50708" lon="4.18982">
        <ele>403</ele>
        <time>2025-09-16T12:30:01Z</time>
      </trkpt>
      <trkpt lat="45.50712" lon="4.18984">
        <ele>395</ele>
        <time>2025-09-16T12:30:02Z</time>
      </trkpt>
      <trkpt lat="45.50715" lon="4.18986">
        <ele>400</ele>
        <time>2025-09-16T12:30:03Z</time>
      </trkpt>
      <trkpt lat="45.50719" lon="4.18988">
        <ele>405</ele>
        <time>2025-09-16T12:30:04Z</time>
      </trkpt>
      <trkpt lat="45.50723" lon="4.1899">
        <ele>407</ele>
        <time>2025-09-16T12:30:05Z</time>
      </trkpt>
      <trkpt lat="45.50726" lon="4.18991">
        <ele>402</ele>
        <time>2025-09-16T12:30:06Z</time>
      </trkpt>
      <trkpt lat="45.5073" lon="4.18992">
        <ele>399</ele>
        <time>2025-09-16T12:30:07Z</time>
      </trkpt>
      <trkpt lat="45.50733" lon="4.18994">
        <ele>398</ele>
        <time>2025-09-16T12:30:08Z</time>
      </trkpt>
      <trkpt lat="45.50737" lon="4.18995">
        <ele>397</ele>
        <time>2025-09-16T12:30:09Z</time>
      </trkpt>
      <trkpt lat="45.50741" lon="4.18997">
        <ele>396</ele>
        <time>2025-09-16T12:30:10Z</time>
      </trkpt>
      <trkpt lat="45.50745" lon="4.18998">
        <ele>398</ele>
        <time>2025-09-16T12:30:11Z</time>
      </trkpt>
      <trkpt lat="45.50748" lon="4.19">
        <ele>402</ele>
        <time>2025-09-16T12:30:12Z</time>
      </trkpt>
      <trkpt lat="45.50751" lon="4.19">
        <ele>406</ele>
        <time>2025-09-16T12:30:13Z</time>
      </trkpt>
      <trkpt lat="45.50754" lon="4.19001">
        <ele>397</ele>
        <time>2025-09-16T12:30:14Z</time>
      </trkpt>
      <trkpt lat="45.50757" lon="4.19001">
        <ele>390</ele>
        <time>2025-09-16T12:30:15Z</time>
      </trkpt>
      <trkpt lat="45.50761" lon="4.19002">
        <ele>397</ele>
        <time>2025-09-16T12:30:17Z</time>
      </trkpt>
      <trkpt lat="45.50764" lon="4.19003">
        <ele>398</ele>
        <time>2025-09-16T12:30:20Z</time>
      </trkpt>
      <trkpt lat="45.50768" lon="4.19003">
        <ele>402</ele>
        <time>2025-09-16T12:30:23Z</time>
      </trkpt>
      <trkpt lat="45.50771" lon="4.19005">
        <ele>408</ele>
        <time>2025-09-16T12:30:25Z</time>
      </trkpt>
      <trkpt lat="45.50774" lon="4.19008">
        <ele>407</ele>
        <time>2025-09-16T12:30:27Z</time>
      </trkpt>
      <trkpt lat="45.50778" lon="4.1901">
        <ele>401</ele>
        <time>2025-09-16T12:30:29Z</time>
      </trkpt>
      <trkpt lat="45.50782" lon="4.19011">
        <ele>399</ele>
        <time>2025-09-16T12:30:30Z</time>
      </trkpt>
      <trkpt lat="45.50785" lon="4.19012">
        <ele>396</ele>
        <time>2025-09-16T12:30:31Z</time>
      </trkpt>
      <trkpt lat="45.50789" lon="4.19014">
        <ele>398</ele>
        <time>2025-09-16T12:30:32Z</time>
      </trkpt>
      <trkpt lat="45.50792" lon="4.19016">
        <ele>403</ele>
        <time>2025-09-16T12:30:33Z</time>
      </trkpt>
      <trkpt lat="45.50795" lon="4.19017">
        <ele>403</ele>
        <time>2025-09-16T12:30:34Z</time>
      </trkpt>
      <trkpt lat="45.50798" lon="4.19019">
        <ele>406</ele>
        <time>2025-09-16T12:30:35Z</time>
      </trkpt>
      <trkpt lat="45.50802" lon="4.1902">
        <ele>404</ele>
        <time>2025-09-16T12:30:36Z</time>
      </trkpt>
      <trkpt lat="45.50805" lon="4.19022">
        <ele>402</ele>
        <time>2025-09-16T12:30:37Z</time>
      </trkpt>
      <trkpt lat="45.50808" lon="4.19023">
        <ele>401</ele>
        <time>2025-09-16T12:30:38Z</time>
      </trkpt>
      <trkpt lat="45.50812" lon="4.19025">
        <ele>400</ele>
        <time>2025-09-16T12:30:39Z</time>
      </trkpt>
      <trkpt lat="45.50815" lon="4.19026">
        <ele>405</ele>
        <time>2025-09-16T12:30:40Z</time>
      </trkpt>
      <trkpt lat="45.50819" lon="4.19027">
        <ele>390</ele>
        <time>2025-09-16T12:30:41Z</time>
      </trkpt>
      <trkpt lat="45.50822" lon="4.19028">
        <ele>397</ele>
        <time>2025-09-16T12:30:42Z</time>
      </trkpt>
      <trkpt lat="45.50827" lon="4.19028">
        <ele>398</ele>
        <time>2025-09-16T12:30:43Z</time>
      </trkpt>
      <trkpt lat="45.50831" lon="4.19029">
        <ele>405</ele>
        <time>2025-09-16T12:30:44Z</time>
      </trkpt>
      <trkpt lat="45.50835" lon="4.1903">
        <ele>392</ele>
        <time>2025-09-16T12:30:45Z</time>
      </trkpt>
      <trkpt lat="45.5084" lon="4.19032">
        <ele>398</ele>
        <time>2025-09-16T12:30:46Z</time>
      </trkpt>
      <trkpt lat="45.50844" lon="4.19033">
        <ele>395</ele>
        <time>2025-09-16T12:30:47Z</time>
      </trkpt>
      <trkpt lat="45.50848" lon="4.19035">
        <ele>400</ele>
        <time>2025-09-16T12:30:48Z</time>
      </trkpt>
      <trkpt lat="45.50852" lon="4.19036">
        <ele>395</ele>
        <time>2025-09-16T12:30:49Z</time>
      </trkpt>
      <trkpt lat="45.50856" lon="4.19038">
        <ele>398</ele>
        <time>2025-09-16T12:30:50Z</time>
      </trkpt>
      <trkpt lat="45.50861" lon="4.1904">
        <ele>399</ele>
        <time>2025-09-16T12:30:51Z</time>
      </trkpt>
      <trkpt lat="45.50866" lon="4.19041">
        <ele>396</ele>
        <time>2025-09-16T12:30:52Z</time>
      </trkpt>
      <trkpt lat="45.50871" lon="4.19043">
        <ele>391</ele>
        <time>2025-09-16T12:30:53Z</time>
      </trkpt>
      <trkpt lat="45.50875" lon="4.19045">
        <ele>396</ele>
        <time>2025-09-16T12:30:54Z</time>
      </trkpt>
      <trkpt lat="45.5088" lon="4.19046">
        <ele>397</ele>
        <time>2025-09-16T12:30:55Z</time>
      </trkpt>
      <trkpt lat="45.50884" lon="4.19048">
        <ele>397</ele>
        <time>2025-09-16T12:30:56Z</time>
      </trkpt>
      <trkpt lat="45.50889" lon="4.19049">
        <ele>387</ele>
        <time>2025-09-16T12:30:57Z</time>
      </trkpt>
      <trkpt lat="45.50894" lon="4.1905">
        <ele>398</ele>
        <time>2025-09-16T12:30:58Z</time>
      </trkpt>
      <trkpt lat="45.50899" lon="4.19052">
        <ele>404</ele>
        <time>2025-09-16T12:30:59Z</time>
      </trkpt>
      <trkpt lat="45.50904" lon="4.19053">
        <ele>393</ele>
        <time>2025-09-16T12:31:00Z</time>
      </trkpt>
      <trkpt lat="45.50909" lon="4.19054">
        <ele>398</ele>
        <time>2025-09-16T12:31:01Z</time>
      </trkpt>
      <trkpt lat="45.50914" lon="4.19056">
        <ele>401</ele>
        <time>2025-09-16T12:31:02Z</time>
      </trkpt>
      <trkpt lat="45.50918" lon="4.19057">
        <ele>396</ele>
        <time>2025-09-16T12:31:03Z</time>
      </trkpt>
      <trkpt lat="45.50923" lon="4.19059">
        <ele>397</ele>
        <time>2025-09-16T12:31:04Z</time>
      </trkpt>
      <trkpt lat="45.50928" lon="4.1906">
        <ele>401</ele>
        <time>2025-09-16T12:31:05Z</time>
      </trkpt>
      <trkpt lat="45.50933" lon="4.19062">
        <ele>391</ele>
        <time>2025-09-16T12:31:06Z</time>
      </trkpt>
      <trkpt lat="45.50939" lon="4.19064">
        <ele>396</ele>
        <time>2025-09-16T12:31:07Z</time>
      </trkpt>
      <trkpt lat="45.50944" lon="4.19065">
        <ele>398</ele>
        <time>2025-09-16T12:31:08Z</time>
      </trkpt>
      <trkpt lat="45.50949" lon="4.19067">
        <ele>403</ele>
        <time>2025-09-16T12:31:09Z</time>
      </trkpt>
      <trkpt lat="45.50955" lon="4.19068">
        <ele>401</ele>
        <time>2025-09-16T12:31:10Z</time>
      </trkpt>
      <trkpt lat="45.50961" lon="4.1907">
        <ele>397</ele>
        <time>2025-09-16T12:31:11Z</time>
      </trkpt>
      <trkpt lat="45.50966" lon="4.19071">
        <ele>401</ele>
        <time>2025-09-16T12:31:12Z</time>
      </trkpt>
      <trkpt lat="45.50972" lon="4.19071">
        <ele>401</ele>
        <time>2025-09-16T12:31:13Z</time>
      </trkpt>
      <trkpt lat="45.50977" lon="4.19072">
        <ele>392</ele>
        <time>2025-09-16T12:31:15Z</time>
      </trkpt>
      <trkpt lat="45.50982" lon="4.19072">
        <ele>393</ele>
        <time>2025-09-16T12:31:16Z</time>
      </trkpt>
      <trkpt lat="45.50987" lon="4.19073">
        <ele>396</ele>
        <time>2025-09-16T12:31:17Z</time>
      </trkpt>
      <trkpt lat="45.50992" lon="4.19074">
        <ele>396</ele>
        <time>2025-09-16T12:31:18Z</time>
      </trkpt>
      <trkpt lat="45.50996" lon="4.19075">
        <ele>395</ele>
        <time>2025-09-16T12:31:19Z</time>
      </trkpt>
      <trkpt lat="45.51" lon="4.19077">
        <ele>392</ele>
        <time>2025-09-16T12:31:20Z</time>
      </trkpt>
      <trkpt lat="45.51005" lon="4.19079">
        <ele>393</ele>
        <time>2025-09-16T12:31:21Z</time>
      </trkpt>
      <trkpt lat="45.5101" lon="4.1908">
        <ele>395</ele>
        <time>2025-09-16T12:31:22Z</time>
      </trkpt>
      <trkpt lat="45.51014" lon="4.19082">
        <ele>392</ele>
        <time>2025-09-16T12:31:23Z</time>
      </trkpt>
      <trkpt lat="45.51019" lon="4.19083">
        <ele>395</ele>
        <time>2025-09-16T12:31:24Z</time>
      </trkpt>
      <trkpt lat="45.51023" lon="4.19085">
        <ele>397</ele>
        <time>2025-09-16T12:31:25Z</time>
      </trkpt>
      <trkpt lat="45.51027" lon="4.19086">
        <ele>402</ele>
        <time>2025-09-16T12:31:26Z</time>
      </trkpt>
      <trkpt lat="45.51031" lon="4.19088">
        <ele>398</ele>
        <time>2025-09-16T12:31:27Z</time>
      </trkpt>
      <trkpt lat="45.51035" lon="4.19089">
        <ele>397</ele>
        <time>2025-09-16T12:31:28Z</time>
      </trkpt>
      <trkpt lat="45.51038" lon="4.19091">
        <ele>393</ele>
        <time>2025-09-16T12:31:29Z</time>
      </trkpt>
      <trkpt lat="45.51043" lon="4.19093">
        <ele>392</ele>
        <time>2025-09-16T12:31:30Z</time>
      </trkpt>
      <trkpt lat="45.51048" lon="4.19094">
        <ele>396</ele>
        <time>2025-09-16T12:31:31Z</time>
      </trkpt>
      <trkpt lat="45.51052" lon="4.19096">
        <ele>388</ele>
        <time>2025-09-16T12:31:32Z</time>
      </trkpt>
      <trkpt lat="45.51057" lon="4.19097">
        <ele>381</ele>
        <time>2025-09-16T12:31:33Z</time>
      </trkpt>
      <trkpt lat="45.51061" lon="4.19099">
        <ele>389</ele>
        <time>2025-09-16T12:31:34Z</time>
      </trkpt>
      <trkpt lat="45.51065" lon="4.191">
        <ele>393</ele>
        <time>2025-09-16T12:31:35Z</time>
      </trkpt>
      <trkpt lat="45.51069" lon="4.19101">
        <ele>398</ele>
        <time>2025-09-16T12:31:36Z</time>
      </trkpt>
      <trkpt lat="45.51073" lon="4.19102">
        <ele>393</ele>
        <time>2025-09-16T12:31:37Z</time>
      </trkpt>
      <trkpt lat="45.51077" lon="4.19103">
        <ele>390</ele>
        <time>2025-09-16T12:31:39Z</time>
      </trkpt>
      <trkpt lat="45.51081" lon="4.19104">
        <ele>391</ele>
        <time>2025-09-16T12:31:42Z</time>
      </trkpt>
      <trkpt lat="45.51084" lon="4.19106">
        <ele>393</ele>
        <time>2025-09-16T12:31:43Z</time>
      </trkpt>
      <trkpt lat="45.51087" lon="4.19107">
        <ele>396</ele>
        <time>2025-09-16T12:31:44Z</time>
      </trkpt>
      <trkpt lat="45.5109" lon="4.19109">
        <ele>391</ele>
        <time>2025-09-16T12:31:45Z</time>
      </trkpt>
      <trkpt lat="45.51093" lon="4.1911">
        <ele>391</ele>
        <time>2025-09-16T12:31:46Z</time>
      </trkpt>
      <trkpt lat="45.51096" lon="4.19111">
        <ele>391</ele>
        <time>2025-09-16T12:31:47Z</time>
      </trkpt>
      <trkpt lat="45.511" lon="4.19112">
        <ele>389</ele>
        <time>2025-09-16T12:31:48Z</time>
      </trkpt>
      <trkpt lat="45.51103" lon="4.19114">
        <ele>391</ele>
        <time>2025-09-16T12:31:49Z</time>
      </trkpt>
      <trkpt lat="45.51105" lon="4.19118">
        <ele>392</ele>
        <time>2025-09-16T12:31:51Z</time>
      </trkpt>
      <trkpt lat="45.51105" lon="4.19124">
        <ele>393</ele>
        <time>2025-09-16T12:31:53Z</time>
      </trkpt>
      <trkpt lat="45.51104" lon="4.19131">
        <ele>390</ele>
        <time>2025-09-16T12:31:55Z</time>
      </trkpt>
      <trkpt lat="45.51103" lon="4.19136">
        <ele>383</ele>
        <time>2025-09-16T12:31:56Z</time>
      </trkpt>
      <trkpt lat="45.51101" lon="4.1914">
        <ele>376</ele>
        <time>2025-09-16T12:31:57Z</time>
      </trkpt>
      <trkpt lat="45.511" lon="4.19144">
        <ele>380</ele>
        <time>2025-09-16T12:31:58Z</time>
      </trkpt>
      <trkpt lat="45.51098" lon="4.19148">
        <ele>389</ele>
        <time>2025-09-16T12:31:59Z</time>
      </trkpt>
      <trkpt lat="45.51097" lon="4.19153">
        <ele>392</ele>
        <time>2025-09-16T12:32:00Z</time>
      </trkpt>
      <trkpt lat="45.51095" lon="4.19157">
        <ele>389</ele>
        <time>2025-09-16T12:32:01Z</time>
      </trkpt>
      <trkpt lat="45.51094" lon="4.19162">
        <ele>387</ele>
        <time>2025-09-16T12:32:02Z</time>
      </trkpt>
      <trkpt lat="45.51093" lon="4.19167">
        <ele>382</ele>
        <time>2025-09-16T12:32:03Z</time>
      </trkpt>
      <trkpt lat="45.51092" lon="4.19172">
        <ele>387</ele>
        <time>2025-09-16T12:32:04Z</time>
      </trkpt>
      <trkpt lat="45.5109" lon="4.19177">
        <ele>388</ele>
        <time>2025-09-16T12:32:05Z</time>
      </trkpt>
      <trkpt lat="45.51089" lon="4.19182">
        <ele>392</ele>
        <time>2025-09-16T12:32:06Z</time>
      </trkpt>
      <trkpt lat="45.51088" lon="4.19187">
        <ele>395</ele>
        <time>2025-09-16T12:32:07Z</time>
      </trkpt>
      <trkpt lat="45.51087" lon="4.19192">
        <ele>397</ele>
        <time>2025-09-16T12:32:08Z</time>
      </trkpt>
      <trkpt lat="45.51085" lon="4.19196">
        <ele>394</ele>
        <time>2025-09-16T12:32:09Z</time>
      </trkpt>
      <trkpt lat="45.51085" lon="4.19201">
        <ele>394</ele>
        <time>2025-09-16T12:32:10Z</time>
      </trkpt>
      <trkpt lat="45.51084" lon="4.19206">
        <ele>374</ele>
        <time>2025-09-16T12:32:11Z</time>
      </trkpt>
      <trkpt lat="45.51082" lon="4.1921">
        <ele>385</ele>
        <time>2025-09-16T12:32:12Z</time>
      </trkpt>
      <trkpt lat="45.51081" lon="4.19214">
        <ele>391</ele>
        <time>2025-09-16T12:32:13Z</time>
      </trkpt>
      <trkpt lat="45.5108" lon="4.19218">
        <ele>396</ele>
        <time>2025-09-16T12:32:14Z</time>
      </trkpt>
      <trkpt lat="45.51078" lon="4.19222">
        <ele>392</ele>
        <time>2025-09-16T12:32:15Z</time>
      </trkpt>
      <trkpt lat="45.51076" lon="4.19227">
        <ele>394</ele>
        <time>2025-09-16T12:32:16Z</time>
      </trkpt>
      <trkpt lat="45.51074" lon="4.19232">
        <ele>385</ele>
        <time>2025-09-16T12:32:17Z</time>
      </trkpt>
      <trkpt lat="45.51072" lon="4.19237">
        <ele>393</ele>
        <time>2025-09-16T12:32:18Z</time>
      </trkpt>
      <trkpt lat="45.5107" lon="4.19242">
        <ele>392</ele>
        <time>2025-09-16T12:32:19Z</time>
      </trkpt>
      <trkpt lat="45.51068" lon="4.19247">
        <ele>392</ele>
        <time>2025-09-16T12:32:20Z</time>
      </trkpt>
      <trkpt lat="45.51066" lon="4.19252">
        <ele>393</ele>
        <time>2025-09-16T12:32:21Z</time>
      </trkpt>
      <trkpt lat="45.51063" lon="4.19257">
        <ele>391</ele>
        <time>2025-09-16T12:32:22Z</time>
      </trkpt>
      <trkpt lat="45.5106" lon="4.19262">
        <ele>395</ele>
        <time>2025-09-16T12:32:23Z</time>
      </trkpt>
      <trkpt lat="45.51057" lon="4.19267">
        <ele>395</ele>
        <time>2025-09-16T12:32:24Z</time>
      </trkpt>
      <trkpt lat="45.51054" lon="4.19272">
        <ele>396</ele>
        <time>2025-09-16T12:32:25Z</time>
      </trkpt>
      <trkpt lat="45.51051" lon="4.19278">
        <ele>389</ele>
        <time>2025-09-16T12:32:26Z</time>
      </trkpt>
      <trkpt lat="45.51049" lon="4.19283">
        <ele>387</ele>
        <time>2025-09-16T12:32:27Z</time>
      </trkpt>
      <trkpt lat="45.51046" lon="4.19288">
        <ele>393</ele>
        <time>2025-09-16T12:32:28Z</time>
      </trkpt>
      <trkpt lat="45.51044" lon="4.19293">
        <ele>394</ele>
        <time>2025-09-16T12:32:29Z</time>
      </trkpt>
      <trkpt lat="45.51041" lon="4.19298">
        <ele>386</ele>
        <time>2025-09-16T12:32:30Z</time>
      </trkpt>
      <trkpt lat="45.51038" lon="4.19302">
        <ele>387</ele>
        <time>2025-09-16T12:32:31Z</time>
      </trkpt>
      <trkpt lat="45.51035" lon="4.19307">
        <ele>381</ele>
        <time>2025-09-16T12:32:32Z</time>
      </trkpt>
      <trkpt lat="45.51031" lon="4.19311">
        <ele>397</ele>
        <time>2025-09-16T12:32:33Z</time>
      </trkpt>
      <trkpt lat="45.51028" lon="4.19316">
        <ele>396</ele>
        <time>2025-09-16T12:32:34Z</time>
      </trkpt>
      <trkpt lat="45.51025" lon="4.1932">
        <ele>393</ele>
        <time>2025-09-16T12:32:35Z</time>
      </trkpt>
      <trkpt lat="45.51022" lon="4.19324">
        <ele>395</ele>
        <time>2025-09-16T12:32:36Z</time>
      </trkpt>
      <trkpt lat="45.51019" lon="4.19328">
        <ele>396</ele>
        <time>2025-09-16T12:32:37Z</time>
      </trkpt>
      <trkpt lat="45.51015" lon="4.19331">
        <ele>390</ele>
        <time>2025-09-16T12:32:38Z</time>
      </trkpt>
      <trkpt lat="45.51012" lon="4.19335">
        <ele>394</ele>
        <time>2025-09-16T12:32:39Z</time>
      </trkpt>
      <trkpt lat="45.51008" lon="4.19338">
        <ele>396</ele>
        <time>2025-09-16T12:32:40Z</time>
      </trkpt>
      <trkpt lat="45.51005" lon="4.19342">
        <ele>400</ele>
        <time>2025-09-16T12:32:41Z</time>
      </trkpt>
      <trkpt lat="45.51002" lon="4.19345">
        <ele>389</ele>
        <time>2025-09-16T12:32:42Z</time>
      </trkpt>
      <trkpt lat="45.50999" lon="4.19349">
        <ele>388</ele>
        <time>2025-09-16T12:32:43Z</time>
      </trkpt>
      <trkpt lat="45.50997" lon="4.19352">
        <ele>388</ele>
        <time>2025-09-16T12:32:44Z</time>
      </trkpt>
      <trkpt lat="45.50993" lon="4.19356">
        <ele>389</ele>
        <time>2025-09-16T12:32:45Z</time>
      </trkpt>
      <trkpt lat="45.5099" lon="4.19359">
        <ele>393</ele>
        <time>2025-09-16T12:32:46Z</time>
      </trkpt>
      <trkpt lat="45.50986" lon="4.19362">
        <ele>386</ele>
        <time>2025-09-16T12:32:47Z</time>
      </trkpt>
      <trkpt lat="45.50982" lon="4.19365">
        <ele>386</ele>
        <time>2025-09-16T12:32:48Z</time>
      </trkpt>
      <trkpt lat="45.50978" lon="4.19367">
        <ele>389</ele>
        <time>2025-09-16T12:32:49Z</time>
      </trkpt>
      <trkpt lat="45.50974" lon="4.1937">
        <ele>392</ele>
        <time>2025-09-16T12:32:50Z</time>
      </trkpt>
      <trkpt lat="45.5097" lon="4.19372">
        <ele>396</ele>
        <time>2025-09-16T12:32:51Z</time>
      </trkpt>
      <trkpt lat="45.50966" lon="4.19375">
        <ele>388</ele>
        <time>2025-09-16T12:32:52Z</time>
      </trkpt>
      <trkpt lat="45.50962" lon="4.19378">
        <ele>386</ele>
        <time>2025-09-16T12:32:53Z</time>
      </trkpt>
      <trkpt lat="45.50959" lon="4.19381">
        <ele>388</ele>
        <time>2025-09-16T12:32:54Z</time>
      </trkpt>
      <trkpt lat="45.50955" lon="4.19383">
        <ele>392</ele>
        <time>2025-09-16T12:32:55Z</time>
      </trkpt>
      <trkpt lat="45.50951" lon="4.19386">
        <ele>395</ele>
        <time>2025-09-16T12:32:56Z</time>
      </trkpt>
      <trkpt lat="45.50948" lon="4.19388">
        <ele>392</ele>
        <time>2025-09-16T12:32:57Z</time>
      </trkpt>
      <trkpt lat="45.50944" lon="4.1939">
        <ele>391</ele>
        <time>2025-09-16T12:32:58Z</time>
      </trkpt>
      <trkpt lat="45.5094" lon="4.19393">
        <ele>380</ele>
        <time>2025-09-16T12:32:59Z</time>
      </trkpt>
      <trkpt lat="45.50937" lon="4.19395">
        <ele>391</ele>
        <time>2025-09-16T12:33:00Z</time>
      </trkpt>
      <trkpt lat="45.50933" lon="4.19397">
        <ele>391</ele>
        <time>2025-09-16T12:33:01Z</time>
      </trkpt>
      <trkpt lat="45.50929" lon="4.19399">
        <ele>397</ele>
        <time>2025-09-16T12:33:02Z</time>
      </trkpt>
      <trkpt lat="45.50925" lon="4.19401">
        <ele>392</ele>
        <time>2025-09-16T12:33:03Z</time>
      </trkpt>
      <trkpt lat="45.50921" lon="4.19404">
        <ele>378</ele>
        <time>2025-09-16T12:33:04Z</time>
      </trkpt>
      <trkpt lat="45.50917" lon="4.19406">
        <ele>386</ele>
        <time>2025-09-16T12:33:05Z</time>
      </trkpt>
      <trkpt lat="45.50914" lon="4.19408">
        <ele>385</ele>
        <time>2025-09-16T12:33:06Z</time>
      </trkpt>
      <trkpt lat="45.50911" lon="4.19411">
        <ele>375</ele>
        <time>2025-09-16T12:33:07Z</time>
      </trkpt>
      <trkpt lat="45.50908" lon="4.19412">
        <ele>378</ele>
        <time>2025-09-16T12:33:08Z</time>
      </trkpt>
      <trkpt lat="45.50904" lon="4.19414">
        <ele>373</ele>
        <time>2025-09-16T12:33:09Z</time>
      </trkpt>
      <trkpt lat="45.50902" lon="4.19415">
        <ele>383</ele>
        <time>2025-09-16T12:33:10Z</time>
      </trkpt>
      <trkpt lat="45.50898" lon="4.19417">
        <ele>395</ele>
        <time>2025-09-16T12:33:11Z</time>
      </trkpt>
      <trkpt lat="45.50895" lon="4.19419">
        <ele>396</ele>
        <time>2025-09-16T12:33:12Z</time>
      </trkpt>
      <trkpt lat="45.50892" lon="4.19421">
        <ele>391</ele>
        <time>2025-09-16T12:33:13Z</time>
      </trkpt>
      <trkpt lat="45.50889" lon="4.19424">
        <ele>396</ele>
        <time>2025-09-16T12:33:14Z</time>
      </trkpt>
      <trkpt lat="45.50885" lon="4.19427">
        <ele>397</ele>
        <time>2025-09-16T12:33:15Z</time>
      </trkpt>
      <trkpt lat="45.50881" lon="4.19429">
        <ele>390</ele>
        <time>2025-09-16T12:33:16Z</time>
      </trkpt>
      <trkpt lat="45.50878" lon="4.19432">
        <ele>383</ele>
        <time>2025-09-16T12:33:17Z</time>
      </trkpt>
      <trkpt lat="45.50874" lon="4.19434">
        <ele>382</ele>
        <time>2025-09-16T12:33:18Z</time>
      </trkpt>
      <trkpt lat="45.50871" lon="4.19436">
        <ele>392</ele>
        <time>2025-09-16T12:33:19Z</time>
      </trkpt>
      <trkpt lat="45.50867" lon="4.19438">
        <ele>396</ele>
        <time>2025-09-16T12:33:20Z</time>
      </trkpt>
      <trkpt lat="45.50864" lon="4.1944">
        <ele>394</ele>
        <time>2025-09-16T12:33:21Z</time>
      </trkpt>
      <trkpt lat="45.5086" lon="4.19442">
        <ele>394</ele>
        <time>2025-09-16T12:33:22Z</time>
      </trkpt>
      <trkpt lat="45.50856" lon="4.19446">
        <ele>389</ele>
        <time>2025-09-16T12:33:23Z</time>
      </trkpt>
      <trkpt lat="45.50853" lon="4.19448">
        <ele>386</ele>
        <time>2025-09-16T12:33:24Z</time>
      </trkpt>
      <trkpt lat="45.50849" lon="4.19451">
        <ele>388</ele>
        <time>2025-09-16T12:33:25Z</time>
      </trkpt>
      <trkpt lat="45.50845" lon="4.19454">
        <ele>395</ele>
        <time>2025-09-16T12:33:26Z</time>
      </trkpt>
      <trkpt lat="45.50841" lon="4.19456">
        <ele>395</ele>
        <time>2025-09-16T12:33:27Z</time>
      </trkpt>
      <trkpt lat="45.50838" lon="4.19458">
        <ele>395</ele>
        <time>2025-09-16T12:33:28Z</time>
      </trkpt>
      <trkpt lat="45.50834" lon="4.1946">
        <ele>385</ele>
        <time>2025-09-16T12:33:29Z</time>
      </trkpt>
      <trkpt lat="45.50831" lon="4.19462">
        <ele>379</ele>
        <time>2025-09-16T12:33:30Z</time>
      </trkpt>
      <trkpt lat="45.50827" lon="4.19464">
        <ele>386</ele>
        <time>2025-09-16T12:33:31Z</time>
      </trkpt>
      <trkpt lat="45.50823" lon="4.19466">
        <ele>390</ele>
        <time>2025-09-16T12:33:32Z</time>
      </trkpt>
      <trkpt lat="45.5082" lon="4.19468">
        <ele>394</ele>
        <time>2025-09-16T12:33:33Z</time>
      </trkpt>
      <trkpt lat="45.50816" lon="4.1947">
        <ele>393</ele>
        <time>2025-09-16T12:33:34Z</time>
      </trkpt>
      <trkpt lat="45.50813" lon="4.19472">
        <ele>390</ele>
        <time>2025-09-16T12:33:35Z</time>
      </trkpt>
      <trkpt lat="45.50809" lon="4.19475">
        <ele>387</ele>
        <time>2025-09-16T12:33:36Z</time>
      </trkpt>
      <trkpt lat="45.50805" lon="4.19477">
        <ele>381</ele>
        <time>2025-09-16T12:33:37Z</time>
      </trkpt>
      <trkpt lat="45.50802" lon="4.19479">
        <ele>392</ele>
        <time>2025-09-16T12:33:38Z</time>
      </trkpt>
      <trkpt lat="45.50798" lon="4.19481">
        <ele>394</ele>
        <time>2025-09-16T12:33:39Z</time>
      </trkpt>
      <trkpt lat="45.50795" lon="4.19483">
        <ele>394</ele>
        <time>2025-09-16T12:33:40Z</time>
      </trkpt>
      <trkpt lat="45.50792" lon="4.19485">
        <ele>395</ele>
        <time>2025-09-16T12:33:41Z</time>
      </trkpt>
      <trkpt lat="45.50789" lon="4.19487">
        <ele>393</ele>
        <time>2025-09-16T12:33:42Z</time>
      </trkpt>
      <trkpt lat="45.50785" lon="4.19489">
        <ele>391</ele>
        <time>2025-09-16T12:33:43Z</time>
      </trkpt>
      <trkpt lat="45.50782" lon="4.19492">
        <ele>374</ele>
        <time>2025-09-16T12:33:44Z</time>
      </trkpt>
      <trkpt lat="45.50779" lon="4.19494">
        <ele>377</ele>
        <time>2025-09-16T12:33:45Z</time>
      </trkpt>
      <trkpt lat="45.50775" lon="4.19496">
        <ele>388</ele>
        <time>2025-09-16T12:33:46Z</time>
      </trkpt>
      <trkpt lat="45.50772" lon="4.19498">
        <ele>393</ele>
        <time>2025-09-16T12:33:47Z</time>
      </trkpt>
      <trkpt lat="45.50768" lon="4.19501">
        <ele>397</ele>
        <time>2025-09-16T12:33:48Z</time>
      </trkpt>
      <trkpt lat="45.50764" lon="4.19503">
        <ele>394</ele>
        <time>2025-09-16T12:33:49Z</time>
      </trkpt>
      <trkpt lat="45.50761" lon="4.19505">
        <ele>399</ele>
        <time>2025-09-16T12:33:50Z</time>
      </trkpt>
      <trkpt lat="45.50758" lon="4.19507">
        <ele>394</ele>
        <time>2025-09-16T12:33:51Z</time>
      </trkpt>
      <trkpt lat="45.50754" lon="4.19509">
        <ele>387</ele>
        <time>2025-09-16T12:33:52Z</time>
      </trkpt>
      <trkpt lat="45.50751" lon="4.19511">
        <ele>383</ele>
        <time>2025-09-16T12:33:53Z</time>
      </trkpt>
      <trkpt lat="45.50747" lon="4.19513">
        <ele>388</ele>
        <time>2025-09-16T12:33:54Z</time>
      </trkpt>
      <trkpt lat="45.50743" lon="4.19515">
        <ele>394</ele>
        <time>2025-09-16T12:33:55Z</time>
      </trkpt>
      <trkpt lat="45.50739" lon="4.19518">
        <ele>391</ele>
        <time>2025-09-16T12:33:56Z</time>
      </trkpt>
      <trkpt lat="45.50736" lon="4.1952">
        <ele>395</ele>
        <time>2025-09-16T12:33:57Z</time>
      </trkpt>
      <trkpt lat="45.50732" lon="4.19522">
        <ele>390</ele>
        <time>2025-09-16T12:33:58Z</time>
      </trkpt>
      <trkpt lat="45.50729" lon="4.19525">
        <ele>388</ele>
        <time>2025-09-16T12:33:59Z</time>
      </trkpt>
      <trkpt lat="45.50726" lon="4.19527">
        <ele>383</ele>
        <time>2025-09-16T12:34:00Z</time>
      </trkpt>
      <trkpt lat="45.50723" lon="4.19529">
        <ele>387</ele>
        <time>2025-09-16T12:34:01Z</time>
      </trkpt>
      <trkpt lat="45.5072" lon="4.19532">
        <ele>391</ele>
        <time>2025-09-16T12:34:02Z</time>
      </trkpt>
      <trkpt lat="45.50717" lon="4.19534">
        <ele>386</ele>
        <time>2025-09-16T12:34:02Z</time>
      </trkpt>
      <trkpt lat="45.50713" lon="4.19536">
        <ele>388</ele>
        <time>2025-09-16T12:34:03Z</time>
      </trkpt>
      <trkpt lat="45.5071" lon="4.19537">
        <ele>393</ele>
        <time>2025-09-16T12:34:04Z</time>
      </trkpt>
      <trkpt lat="45.50706" lon="4.19539">
        <ele>392</ele>
        <time>2025-09-16T12:34:05Z</time>
      </trkpt>
      <trkpt lat="45.50703" lon="4.19541">
        <ele>394</ele>
        <time>2025-09-16T12:34:06Z</time>
      </trkpt>
      <trkpt lat="45.507" lon="4.19543">
        <ele>398</ele>
        <time>2025-09-16T12:34:07Z</time>
      </trkpt>
      <trkpt lat="45.50697" lon="4.19545">
        <ele>393</ele>
        <time>2025-09-16T12:34:08Z</time>
      </trkpt>
      <trkpt lat="45.50693" lon="4.19547">
        <ele>398</ele>
        <time>2025-09-16T12:34:09Z</time>
      </trkpt>
      <trkpt lat="45.50691" lon="4.19548">
        <ele>395</ele>
        <time>2025-09-16T12:34:10Z</time>
      </trkpt>
      <trkpt lat="45.50688" lon="4.1955">
        <ele>395</ele>
        <time>2025-09-16T12:34:11Z</time>
      </trkpt>
      <trkpt lat="45.50685" lon="4.19552">
        <ele>399</ele>
        <time>2025-09-16T12:34:12Z</time>
      </trkpt>
      <trkpt lat="45.50682" lon="4.19553">
        <ele>399</ele>
        <time>2025-09-16T12:34:13Z</time>
      </trkpt>
      <trkpt lat="45.50678" lon="4.19555">
        <ele>392</ele>
        <time>2025-09-16T12:34:14Z</time>
      </trkpt>
      <trkpt lat="45.50675" lon="4.19558">
        <ele>397</ele>
        <time>2025-09-16T12:34:15Z</time>
      </trkpt>
      <trkpt lat="45.50671" lon="4.19559">
        <ele>392</ele>
        <time>2025-09-16T12:34:16Z</time>
      </trkpt>
      <trkpt lat="45.50668" lon="4.19561">
        <ele>390</ele>
        <time>2025-09-16T12:34:17Z</time>
      </trkpt>
      <trkpt lat="45.50664" lon="4.19563">
        <ele>384</ele>
        <time>2025-09-16T12:34:18Z</time>
      </trkpt>
      <trkpt lat="45.50661" lon="4.19565">
        <ele>390</ele>
        <time>2025-09-16T12:34:19Z</time>
      </trkpt>
      <trkpt lat="45.50657" lon="4.19568">
        <ele>389</ele>
        <time>2025-09-16T12:34:20Z</time>
      </trkpt>
      <trkpt lat="45.50653" lon="4.1957">
        <ele>397</ele>
        <time>2025-09-16T12:34:21Z</time>
      </trkpt>
      <trkpt lat="45.5065" lon="4.19572">
        <ele>392</ele>
        <time>2025-09-16T12:34:22Z</time>
      </trkpt>
      <trkpt lat="45.50646" lon="4.19574">
        <ele>399</ele>
        <time>2025-09-16T12:34:23Z</time>
      </trkpt>
      <trkpt lat="45.50643" lon="4.19576">
        <ele>395</ele>
        <time>2025-09-16T12:34:24Z</time>
      </trkpt>
      <trkpt lat="45.5064" lon="4.19578">
        <ele>394</ele>
        <time>2025-09-16T12:34:25Z</time>
      </trkpt>
      <trkpt lat="45.50637" lon="4.19579">
        <ele>395</ele>
        <time>2025-09-16T12:34:26Z</time>
      </trkpt>
      <trkpt lat="45.50634" lon="4.1958">
        <ele>394</ele>
        <time>2025-09-16T12:34:27Z</time>
      </trkpt>
      <trkpt lat="45.50631" lon="4.19582">
        <ele>395</ele>
        <time>2025-09-16T12:34:28Z</time>
      </trkpt>
      <trkpt lat="45.50627" lon="4.19584">
        <ele>392</ele>
        <time>2025-09-16T12:34:29Z</time>
      </trkpt>
      <trkpt lat="45.50624" lon="4.19586">
        <ele>393</ele>
        <time>2025-09-16T12:34:30Z</time>
      </trkpt>
      <trkpt lat="45.5062" lon="4.19589">
        <ele>393</ele>
        <time>2025-09-16T12:34:31Z</time>
      </trkpt>
      <trkpt lat="45.50617" lon="4.19591">
        <ele>388</ele>
        <time>2025-09-16T12:34:32Z</time>
      </trkpt>
      <trkpt lat="45.50613" lon="4.19594">
        <ele>382</ele>
        <time>2025-09-16T12:34:33Z</time>
      </trkpt>
      <trkpt lat="45.50609" lon="4.19596">
        <ele>388</ele>
        <time>2025-09-16T12:34:34Z</time>
      </trkpt>
      <trkpt lat="45.50605" lon="4.19597">
        <ele>393</ele>
        <time>2025-09-16T12:34:35Z</time>
      </trkpt>
      <trkpt lat="45.50602" lon="4.19599">
        <ele>393</ele>
        <time>2025-09-16T12:34:36Z</time>
      </trkpt>
      <trkpt lat="45.50599" lon="4.19601">
        <ele>390</ele>
        <time>2025-09-16T12:34:37Z</time>
      </trkpt>
      <trkpt lat="45.50595" lon="4.19603">
        <ele>392</ele>
        <time>2025-09-16T12:34:38Z</time>
      </trkpt>
      <trkpt lat="45.50592" lon="4.19606">
        <ele>391</ele>
        <time>2025-09-16T12:34:39Z</time>
      </trkpt>
      <trkpt lat="45.50589" lon="4.19608">
        <ele>393</ele>
        <time>2025-09-16T12:34:40Z</time>
      </trkpt>
      <trkpt lat="45.50585" lon="4.1961">
        <ele>392</ele>
        <time>2025-09-16T12:34:41Z</time>
      </trkpt>
      <trkpt lat="45.50582" lon="4.19613">
        <ele>387</ele>
        <time>2025-09-16T12:34:42Z</time>
      </trkpt>
      <trkpt lat="45.50579" lon="4.19615">
        <ele>384</ele>
        <time>2025-09-16T12:34:43Z</time>
      </trkpt>
      <trkpt lat="45.50576" lon="4.19618">
        <ele>379</ele>
        <time>2025-09-16T12:34:44Z</time>
      </trkpt>
      <trkpt lat="45.50573" lon="4.1962">
        <ele>381</ele>
        <time>2025-09-16T12:34:45Z</time>
      </trkpt>
      <trkpt lat="45.5057" lon="4.19622">
        <ele>382</ele>
        <time>2025-09-16T12:34:46Z</time>
      </trkpt>
      <trkpt lat="45.50567" lon="4.19624">
        <ele>381</ele>
        <time>2025-09-16T12:34:47Z</time>
      </trkpt>
      <trkpt lat="45.50564" lon="4.19626">
        <ele>392</ele>
        <time>2025-09-16T12:34:48Z</time>
      </trkpt>
      <trkpt lat="45.5056" lon="4.19629">
        <ele>390</ele>
        <time>2025-09-16T12:34:49Z</time>
      </trkpt>
      <trkpt lat="45.50557" lon="4.19631">
        <ele>381</ele>
        <time>2025-09-16T12:34:50Z</time>
      </trkpt>
      <trkpt lat="45.50553" lon="4.19632">
        <ele>378</ele>
        <time>2025-09-16T12:34:51Z</time>
      </trkpt>
      <trkpt lat="45.5055" lon="4.19634">
        <ele>374</ele>
        <time>2025-09-16T12:34:52Z</time>
      </trkpt>
      <trkpt lat="45.50547" lon="4.19635">
        <ele>379</ele>
        <time>2025-09-16T12:34:53Z</time>
      </trkpt>
      <trkpt lat="45.50543" lon="4.19637">
        <ele>386</ele>
        <time>2025-09-16T12:34:54Z</time>
      </trkpt>
      <trkpt lat="45.5054" lon="4.19639">
        <ele>387</ele>
        <time>2025-09-16T12:34:55Z</time>
      </trkpt>
      <trkpt lat="45.50537" lon="4.19641">
        <ele>396</ele>
        <time>2025-09-16T12:34:56Z</time>
      </trkpt>
      <trkpt lat="45.50534" lon="4.19643">
        <ele>394</ele>
        <time>2025-09-16T12:34:57Z</time>
      </trkpt>
      <trkpt lat="45.5053" lon="4.19645">
        <ele>394</ele>
        <time>2025-09-16T12:34:58Z</time>
      </trkpt>
      <trkpt lat="45.50527" lon="4.19647">
        <ele>393</ele>
        <time>2025-09-16T12:34:59Z</time>
      </trkpt>
      <trkpt lat="45.50524" lon="4.1965">
        <ele>396</ele>
        <time>2025-09-16T12:35:00Z</time>
      </trkpt>
      <trkpt lat="45.5052" lon="4.19652">
        <ele>385</ele>
        <time>2025-09-16T12:35:01Z</time>
      </trkpt>
      <trkpt lat="45.50517" lon="4.19654">
        <ele>388</ele>
        <time>2025-09-16T12:35:02Z</time>
      </trkpt>
      <trkpt lat="45.50513" lon="4.19657">
        <ele>390</ele>
        <time>2025-09-16T12:35:03Z</time>
      </trkpt>
      <trkpt lat="45.5051" lon="4.19659">
        <ele>394</ele>
        <time>2025-09-16T12:35:04Z</time>
      </trkpt>
      <trkpt lat="45.50506" lon="4.19661">
        <ele>395</ele>
        <time>2025-09-16T12:35:05Z</time>
      </trkpt>
      <trkpt lat="45.50502" lon="4.19663">
        <ele>387</ele>
        <time>2025-09-16T12:35:06Z</time>
      </trkpt>
      <trkpt lat="45.50498" lon="4.19666">
        <ele>389</ele>
        <time>2025-09-16T12:35:07Z</time>
      </trkpt>
      <trkpt lat="45.50494" lon="4.19668">
        <ele>396</ele>
        <time>2025-09-16T12:35:08Z</time>
      </trkpt>
      <trkpt lat="45.50491" lon="4.19671">
        <ele>388</ele>
        <time>2025-09-16T12:35:09Z</time>
      </trkpt>
      <trkpt lat="45.50487" lon="4.19673">
        <ele>394</ele>
        <time>2025-09-16T12:35:10Z</time>
      </trkpt>
      <trkpt lat="45.50483" lon="4.19675">
        <ele>383</ele>
        <time>2025-09-16T12:35:11Z</time>
      </trkpt>
      <trkpt lat="45.5048" lon="4.19676">
        <ele>393</ele>
        <time>2025-09-16T12:35:12Z</time>
      </trkpt>
      <trkpt lat="45.50476" lon="4.19678">
        <ele>392</ele>
        <time>2025-09-16T12:35:13Z</time>
      </trkpt>
      <trkpt lat="45.50473" lon="4.1968">
        <ele>391</ele>
        <time>2025-09-16T12:35:14Z</time>
      </trkpt>
      <trkpt lat="45.5047" lon="4.19683">
        <ele>371</ele>
        <time>2025-09-16T12:35:15Z</time>
      </trkpt>
      <trkpt lat="45.50467" lon="4.19685">
        <ele>384</ele>
        <time>2025-09-16T12:35:16Z</time>
      </trkpt>
      <trkpt lat="45.50463" lon="4.19687">
        <ele>394</ele>
        <time>2025-09-16T12:35:17Z</time>
      </trkpt>
      <trkpt lat="45.5046" lon="4.19689">
        <ele>396</ele>
        <time>2025-09-16T12:35:18Z</time>
      </trkpt>
      <trkpt lat="45.50457" lon="4.19691">
        <ele>395</ele>
        <time>2025-09-16T12:35:19Z</time>
      </trkpt>
      <trkpt lat="45.50453" lon="4.19693">
        <ele>390</ele>
        <time>2025-09-16T12:35:20Z</time>
      </trkpt>
      <trkpt lat="45.5045" lon="4.19696">
        <ele>396</ele>
        <time>2025-09-16T12:35:21Z</time>
      </trkpt>
      <trkpt lat="45.50447" lon="4.19698">
        <ele>393</ele>
        <time>2025-09-16T12:35:22Z</time>
      </trkpt>
      <trkpt lat="45.50443" lon="4.197">
        <ele>393</ele>
        <time>2025-09-16T12:35:23Z</time>
      </trkpt>
      <trkpt lat="45.5044" lon="4.19702">
        <ele>387</ele>
        <time>2025-09-16T12:35:24Z</time>
      </trkpt>
      <trkpt lat="45.50437" lon="4.19704">
        <ele>384</ele>
        <time>2025-09-16T12:35:25Z</time>
      </trkpt>
      <trkpt lat="45.50434" lon="4.19706">
        <ele>386</ele>
        <time>2025-09-16T12:35:26Z</time>
      </trkpt>
      <trkpt lat="45.5043" lon="4.19708">
        <ele>384</ele>
        <time>2025-09-16T12:35:27Z</time>
      </trkpt>
      <trkpt lat="45.50427" lon="4.1971">
        <ele>378</ele>
        <time>2025-09-16T12:35:28Z</time>
      </trkpt>
      <trkpt lat="45.50423" lon="4.19712">
        <ele>384</ele>
        <time>2025-09-16T12:35:29Z</time>
      </trkpt>
      <trkpt lat="45.5042" lon="4.19713">
        <ele>384</ele>
        <time>2025-09-16T12:35:30Z</time>
      </trkpt>
      <trkpt lat="45.50417" lon="4.19715">
        <ele>383</ele>
        <time>2025-09-16T12:35:31Z</time>
      </trkpt>
      <trkpt lat="45.50414" lon="4.19717">
        <ele>382</ele>
        <time>2025-09-16T12:35:32Z</time>
      </trkpt>
      <trkpt lat="45.50411" lon="4.19719">
        <ele>376</ele>
        <time>2025-09-16T12:35:33Z</time>
      </trkpt>
      <trkpt lat="45.50408" lon="4.1972">
        <ele>384</ele>
        <time>2025-09-16T12:35:34Z</time>
      </trkpt>
      <trkpt lat="45.50405" lon="4.19722">
        <ele>387</ele>
        <time>2025-09-16T12:35:35Z</time>
      </trkpt>
      <trkpt lat="45.50401" lon="4.19724">
        <ele>390</ele>
        <time>2025-09-16T12:35:36Z</time>
      </trkpt>
      <trkpt lat="45.50398" lon="4.19725">
        <ele>390</ele>
        <time>2025-09-16T12:35:37Z</time>
      </trkpt>
      <trkpt lat="45.50395" lon="4.19727">
        <ele>397</ele>
        <time>2025-09-16T12:35:38Z</time>
      </trkpt>
      <trkpt lat="45.50392" lon="4.1973">
        <ele>395</ele>
        <time>2025-09-16T12:35:39Z</time>
      </trkpt>
      <trkpt lat="45.50388" lon="4.19732">
        <ele>391</ele>
        <time>2025-09-16T12:35:40Z</time>
      </trkpt>
      <trkpt lat="45.50385" lon="4.19734">
        <ele>393</ele>
        <time>2025-09-16T12:35:41Z</time>
      </trkpt>
      <trkpt lat="45.50382" lon="4.19737">
        <ele>387</ele>
        <time>2025-09-16T12:35:42Z</time>
      </trkpt>
      <trkpt lat="45.50378" lon="4.19739">
        <ele>392</ele>
        <time>2025-09-16T12:35:43Z</time>
      </trkpt>
      <trkpt lat="45.50375" lon="4.19741">
        <ele>392</ele>
        <time>2025-09-16T12:35:44Z</time>
      </trkpt>
      <trkpt lat="45.50372" lon="4.19744">
        <ele>388</ele>
        <time>2025-09-16T12:35:45Z</time>
      </trkpt>
      <trkpt lat="45.50369" lon="4.19746">
        <ele>392</ele>
        <time>2025-09-16T12:35:46Z</time>
      </trkpt>
      <trkpt lat="45.50366" lon="4.19748">
        <ele>386</ele>
        <time>2025-09-16T12:35:47Z</time>
      </trkpt>
      <trkpt lat="45.50362" lon="4.1975">
        <ele>383</ele>
        <time>2025-09-16T12:35:48Z</time>
      </trkpt>
      <trkpt lat="45.50359" lon="4.19752">
        <ele>384</ele>
        <time>2025-09-16T12:35:49Z</time>
      </trkpt>
      <trkpt lat="45.50356" lon="4.19753">
        <ele>385</ele>
        <time>2025-09-16T12:35:50Z</time>
      </trkpt>
      <trkpt lat="45.50352" lon="4.19755">
        <ele>382</ele>
        <time>2025-09-16T12:35:51Z</time>
      </trkpt>
      <trkpt lat="45.50349" lon="4.19756">
        <ele>383</ele>
        <time>2025-09-16T12:35:52Z</time>
      </trkpt>
      <trkpt lat="45.50345" lon="4.19758">
        <ele>388</ele>
        <time>2025-09-16T12:35:53Z</time>
      </trkpt>
      <trkpt lat="45.50342" lon="4.19759">
        <ele>391</ele>
        <time>2025-09-16T12:35:54Z</time>
      </trkpt>
      <trkpt lat="45.50338" lon="4.1976">
        <ele>391</ele>
        <time>2025-09-16T12:35:55Z</time>
      </trkpt>
      <trkpt lat="45.50334" lon="4.19762">
        <ele>397</ele>
        <time>2025-09-16T12:35:56Z</time>
      </trkpt>
      <trkpt lat="45.5033" lon="4.19764">
        <ele>394</ele>
        <time>2025-09-16T12:35:57Z</time>
      </trkpt>
      <trkpt lat="45.50326" lon="4.19766">
        <ele>394</ele>
        <time>2025-09-16T12:35:58Z</time>
      </trkpt>
      <trkpt lat="45.50322" lon="4.19767">
        <ele>389</ele>
        <time>2025-09-16T12:35:59Z</time>
      </trkpt>
      <trkpt lat="45.50318" lon="4.19769">
        <ele>386</ele>
        <time>2025-09-16T12:36:00Z</time>
      </trkpt>
      <trkpt lat="45.50314" lon="4.1977">
        <ele>385</ele>
        <time>2025-09-16T12:36:01Z</time>
      </trkpt>
      <trkpt lat="45.5031" lon="4.19771">
        <ele>389</ele>
        <time>2025-09-16T12:36:02Z</time>
      </trkpt>
      <trkpt lat="45.50306" lon="4.19772">
        <ele>392</ele>
        <time>2025-09-16T12:36:03Z</time>
      </trkpt>
      <trkpt lat="45.50303" lon="4.19774">
        <ele>394</ele>
        <time>2025-09-16T12:36:04Z</time>
      </trkpt>
      <trkpt lat="45.50299" lon="4.19775">
        <ele>393</ele>
        <time>2025-09-16T12:36:05Z</time>
      </trkpt>
      <trkpt lat="45.50296" lon="4.19776">
        <ele>391</ele>
        <time>2025-09-16T12:36:06Z</time>
      </trkpt>
      <trkpt lat="45.50292" lon="4.19777">
        <ele>391</ele>
        <time>2025-09-16T12:36:07Z</time>
      </trkpt>
      <trkpt lat="45.50289" lon="4.19778">
        <ele>385</ele>
        <time>2025-09-16T12:36:08Z</time>
      </trkpt>
      <trkpt lat="45.50285" lon="4.1978">
        <ele>379</ele>
        <time>2025-09-16T12:36:09Z</time>
      </trkpt>
      <trkpt lat="45.50282" lon="4.19781">
        <ele>382</ele>
        <time>2025-09-16T12:36:10Z</time>
      </trkpt>
      <trkpt lat="45.50278" lon="4.19782">
        <ele>387</ele>
        <time>2025-09-16T12:36:11Z</time>
      </trkpt>
      <trkpt lat="45.50274" lon="4.19784">
        <ele>392</ele>
        <time>2025-09-16T12:36:12Z</time>
      </trkpt>
      <trkpt lat="45.50271" lon="4.19785">
        <ele>389</ele>
        <time>2025-09-16T12:36:13Z</time>
      </trkpt>
      <trkpt lat="45.50267" lon="4.19786">
        <ele>388</ele>
        <time>2025-09-16T12:36:14Z</time>
      </trkpt>
      <trkpt lat="45.50264" lon="4.19787">
        <ele>394</ele>
        <time>2025-09-16T12:36:15Z</time>
      </trkpt>
      <trkpt lat="45.50261" lon="4.19787">
        <ele>386</ele>
        <time>2025-09-16T12:36:16Z</time>
      </trkpt>
      <trkpt lat="45.50257" lon="4.19788">
        <ele>389</ele>
        <time>2025-09-16T12:36:17Z</time>
      </trkpt>
      <trkpt lat="45.50254" lon="4.19789">
        <ele>384</ele>
        <time>2025-09-16T12:36:18Z</time>
      </trkpt>
      <trkpt lat="45.50251" lon="4.1979">
        <ele>382</ele>
        <time>2025-09-16T12:36:19Z</time>
      </trkpt>
      <trkpt lat="45.50247" lon="4.19791">
        <ele>389</ele>
        <time>2025-09-16T12:36:20Z</time>
      </trkpt>
      <trkpt lat="45.50243" lon="4.19792">
        <ele>395</ele>
        <time>2025-09-16T12:36:21Z</time>
      </trkpt>
      <trkpt lat="45.50239" lon="4.19793">
        <ele>391</ele>
        <time>2025-09-16T12:36:22Z</time>
      </trkpt>
      <trkpt lat="45.50236" lon="4.19794">
        <ele>396</ele>
        <time>2025-09-16T12:36:23Z</time>
      </trkpt>
      <trkpt lat="45.50232" lon="4.19795">
        <ele>392</ele>
        <time>2025-09-16T12:36:24Z</time>
      </trkpt>
      <trkpt lat="45.50229" lon="4.19795">
        <ele>391</ele>
        <time>2025-09-16T12:36:25Z</time>
      </trkpt>
      <trkpt lat="45.50226" lon="4.19795">
        <ele>385</ele>
        <time>2025-09-16T12:36:26Z</time>
      </trkpt>
      <trkpt lat="45.50222" lon="4.19796">
        <ele>383</ele>
        <time>2025-09-16T12:36:27Z</time>
      </trkpt>
      <trkpt lat="45.50219" lon="4.19796">
        <ele>390</ele>
        <time>2025-09-16T12:36:28Z</time>
      </trkpt>
      <trkpt lat="45.50215" lon="4.19796">
        <ele>389</ele>
        <time>2025-09-16T12:36:29Z</time>
      </trkpt>
      <trkpt lat="45.50212" lon="4.19796">
        <ele>392</ele>
        <time>2025-09-16T12:36:30Z</time>
      </trkpt>
      <trkpt lat="45.50208" lon="4.19797">
        <ele>393</ele>
        <time>2025-09-16T12:36:31Z</time>
      </trkpt>
      <trkpt lat="45.50203" lon="4.19797">
        <ele>390</ele>
        <time>2025-09-16T12:36:32Z</time>
      </trkpt>
      <trkpt lat="45.50199" lon="4.19797">
        <ele>386</ele>
        <time>2025-09-16T12:36:33Z</time>
      </trkpt>
      <trkpt lat="45.50196" lon="4.19797">
        <ele>393</ele>
        <time>2025-09-16T12:36:34Z</time>
      </trkpt>
      <trkpt lat="45.50192" lon="4.19797">
        <ele>393</ele>
        <time>2025-09-16T12:36:35Z</time>
      </trkpt>
      <trkpt lat="45.50188" lon="4.19797">
        <ele>394</ele>
        <time>2025-09-16T12:36:36Z</time>
      </trkpt>
      <trkpt lat="45.50184" lon="4.19797">
        <ele>390</ele>
        <time>2025-09-16T12:36:37Z</time>
      </trkpt>
      <trkpt lat="45.5018" lon="4.19797">
        <ele>383</ele>
        <time>2025-09-16T12:36:38Z</time>
      </trkpt>
      <trkpt lat="45.50176" lon="4.19797">
        <ele>383</ele>
        <time>2025-09-16T12:36:39Z</time>
      </trkpt>
      <trkpt lat="45.50171" lon="4.19797">
        <ele>390</ele>
        <time>2025-09-16T12:36:40Z</time>
      </trkpt>
      <trkpt lat="45.50167" lon="4.19797">
        <ele>387</ele>
        <time>2025-09-16T12:36:41Z</time>
      </trkpt>
      <trkpt lat="45.50163" lon="4.19797">
        <ele>388</ele>
        <time>2025-09-16T12:36:42Z</time>
      </trkpt>
      <trkpt lat="45.50158" lon="4.19796">
        <ele>391</ele>
        <time>2025-09-16T12:36:43Z</time>
      </trkpt>
      <trkpt lat="45.50154" lon="4.19796">
        <ele>387</ele>
        <time>2025-09-16T12:36:44Z</time>
      </trkpt>
      <trkpt lat="45.50149" lon="4.19796">
        <ele>393</ele>
        <time>2025-09-16T12:36:46Z</time>
      </trkpt>
      <trkpt lat="45.50145" lon="4.19796">
        <ele>393</ele>
        <time>2025-09-16T12:36:47Z</time>
      </trkpt>
      <trkpt lat="45.50141" lon="4.19796">
        <ele>391</ele>
        <time>2025-09-16T12:36:48Z</time>
      </trkpt>
      <trkpt lat="45.50137" lon="4.19796">
        <ele>389</ele>
        <time>2025-09-16T12:36:49Z</time>
      </trkpt>
      <trkpt lat="45.50133" lon="4.19796">
        <ele>386</ele>
        <time>2025-09-16T12:36:50Z</time>
      </trkpt>
      <trkpt lat="45.50129" lon="4.19796">
        <ele>387</ele>
        <time>2025-09-16T12:36:51Z</time>
      </trkpt>
      <trkpt lat="45.50125" lon="4.19796">
        <ele>393</ele>
        <time>2025-09-16T12:36:52Z</time>
      </trkpt>
      <trkpt lat="45.50121" lon="4.19797">
        <ele>390</ele>
        <time>2025-09-16T12:36:53Z</time>
      </trkpt>
      <trkpt lat="45.50118" lon="4.19796">
        <ele>392</ele>
        <time>2025-09-16T12:36:54Z</time>
      </trkpt>
      <trkpt lat="45.50114" lon="4.19796">
        <ele>390</ele>
        <time>2025-09-16T12:36:55Z</time>
      </trkpt>
      <trkpt lat="45.50111" lon="4.19796">
        <ele>387</ele>
        <time>2025-09-16T12:36:56Z</time>
      </trkpt>
      <trkpt lat="45.50107" lon="4.19796">
        <ele>390</ele>
        <time>2025-09-16T12:36:57Z</time>
      </trkpt>
      <trkpt lat="45.50103" lon="4.19797">
        <ele>396</ele>
        <time>2025-09-16T12:36:58Z</time>
      </trkpt>
      <trkpt lat="45.50099" lon="4.19797">
        <ele>390</ele>
        <time>2025-09-16T12:36:59Z</time>
      </trkpt>
      <trkpt lat="45.50096" lon="4.19798">
        <ele>392</ele>
        <time>2025-09-16T12:37:00Z</time>
      </trkpt>
      <trkpt lat="45.50092" lon="4.19798">
        <ele>393</ele>
        <time>2025-09-16T12:37:01Z</time>
      </trkpt>
      <trkpt lat="45.50087" lon="4.19799">
        <ele>386</ele>
        <time>2025-09-16T12:37:02Z</time>
      </trkpt>
      <trkpt lat="45.50083" lon="4.19799">
        <ele>388</ele>
        <time>2025-09-16T12:37:03Z</time>
      </trkpt>
      <trkpt lat="45.50079" lon="4.19799">
        <ele>390</ele>
        <time>2025-09-16T12:37:04Z</time>
      </trkpt>
      <trkpt lat="45.50075" lon="4.198">
        <ele>394</ele>
        <time>2025-09-16T12:37:05Z</time>
      </trkpt>
      <trkpt lat="45.5007" lon="4.198">
        <ele>391</ele>
        <time>2025-09-16T12:37:06Z</time>
      </trkpt>
      <trkpt lat="45.50067" lon="4.198">
        <ele>389</ele>
        <time>2025-09-16T12:37:07Z</time>
      </trkpt>
      <trkpt lat="45.50063" lon="4.198">
        <ele>392</ele>
        <time>2025-09-16T12:37:08Z</time>
      </trkpt>
      <trkpt lat="45.5006" lon="4.198">
        <ele>393</ele>
        <time>2025-09-16T12:37:09Z</time>
      </trkpt>
      <trkpt lat="45.50056" lon="4.19801">
        <ele>393</ele>
        <time>2025-09-16T12:37:10Z</time>
      </trkpt>
      <trkpt lat="45.50053" lon="4.19801">
        <ele>389</ele>
        <time>2025-09-16T12:37:11Z</time>
      </trkpt>
      <trkpt lat="45.5005" lon="4.19802">
        <ele>386</ele>
        <time>2025-09-16T12:37:12Z</time>
      </trkpt>
      <trkpt lat="45.50046" lon="4.19804">
        <ele>385</ele>
        <time>2025-09-16T12:37:13Z</time>
      </trkpt>
      <trkpt lat="45.50042" lon="4.19806">
        <ele>393</ele>
        <time>2025-09-16T12:37:14Z</time>
      </trkpt>
      <trkpt lat="45.50039" lon="4.19807">
        <ele>392</ele>
        <time>2025-09-16T12:37:15Z</time>
      </trkpt>
      <trkpt lat="45.50036" lon="4.19809">
        <ele>387</ele>
        <time>2025-09-16T12:37:16Z</time>
      </trkpt>
      <trkpt lat="45.50033" lon="4.1981">
        <ele>398</ele>
        <time>2025-09-16T12:37:18Z</time>
      </trkpt>
      <trkpt lat="45.50029" lon="4.19809">
        <ele>394</ele>
        <time>2025-09-16T12:37:20Z</time>
      </trkpt>
      <trkpt lat="45.50025" lon="4.19809">
        <ele>390</ele>
        <time>2025-09-16T12:37:22Z</time>
      </trkpt>
      <trkpt lat="45.50022" lon="4.19808">
        <ele>391</ele>
        <time>2025-09-16T12:37:23Z</time>
      </trkpt>
      <trkpt lat="45.50018" lon="4.19807">
        <ele>393</ele>
        <time>2025-09-16T12:37:24Z</time>
      </trkpt>
      <trkpt lat="45.50014" lon="4.19807">
        <ele>393</ele>
        <time>2025-09-16T12:37:25Z</time>
      </trkpt>
      <trkpt lat="45.5001" lon="4.19806">
        <ele>393</ele>
        <time>2025-09-16T12:37:26Z</time>
      </trkpt>
      <trkpt lat="45.50007" lon="4.19806">
        <ele>386</ele>
        <time>2025-09-16T12:37:27Z</time>
      </trkpt>
      <trkpt lat="45.50003" lon="4.19805">
        <ele>391</ele>
        <time>2025-09-16T12:37:28Z</time>
      </trkpt>
      <trkpt lat="45.49999" lon="4.19804">
        <ele>393</ele>
        <time>2025-09-16T12:37:30Z</time>
      </trkpt>
      <trkpt lat="45.49996" lon="4.19805">
        <ele>392</ele>
        <time>2025-09-16T12:37:31Z</time>
      </trkpt>
      <trkpt lat="45.49993" lon="4.19805">
        <ele>394</ele>
        <time>2025-09-16T12:37:32Z</time>
      </trkpt>
      <trkpt lat="45.4999" lon="4.19806">
        <ele>402</ele>
        <time>2025-09-16T12:37:33Z</time>
      </trkpt>
      <trkpt lat="45.49986" lon="4.19806">
        <ele>394</ele>
        <time>2025-09-16T12:37:34Z</time>
      </trkpt>
      <trkpt lat="45.49982" lon="4.19806">
        <ele>392</ele>
        <time>2025-09-16T12:37:35Z</time>
      </trkpt>
      <trkpt lat="45.49978" lon="4.19807">
        <ele>395</ele>
        <time>2025-09-16T12:37:36Z</time>
      </trkpt>
      <trkpt lat="45.49975" lon="4.19806">
        <ele>396</ele>
        <time>2025-09-16T12:37:37Z</time>
      </trkpt>
      <trkpt lat="45.49972" lon="4.19806">
        <ele>396</ele>
        <time>2025-09-16T12:37:38Z</time>
      </trkpt>
      <trkpt lat="45.49969" lon="4.19806">
        <ele>393</ele>
        <time>2025-09-16T12:37:39Z</time>
      </trkpt>
      <trkpt lat="45.49966" lon="4.19806">
        <ele>387</ele>
        <time>2025-09-16T12:37:40Z</time>
      </trkpt>
      <trkpt lat="45.49962" lon="4.19806">
        <ele>386</ele>
        <time>2025-09-16T12:37:42Z</time>
      </trkpt>
      <trkpt lat="45.49957" lon="4.19806">
        <ele>393</ele>
        <time>2025-09-16T12:37:44Z</time>
      </trkpt>
      <trkpt lat="45.49953" lon="4.19806">
        <ele>389</ele>
        <time>2025-09-16T12:37:45Z</time>
      </trkpt>
      <trkpt lat="45.4995" lon="4.19807">
        <ele>394</ele>
        <time>2025-09-16T12:37:46Z</time>
      </trkpt>
      <trkpt lat="45.49947" lon="4.19808">
        <ele>396</ele>
        <time>2025-09-16T12:37:47Z</time>
      </trkpt>
      <trkpt lat="45.49943" lon="4.19809">
        <ele>395</ele>
        <time>2025-09-16T12:37:48Z</time>
      </trkpt>
      <trkpt lat="45.4994" lon="4.19809">
        <ele>392</ele>
        <time>2025-09-16T12:37:49Z</time>
      </trkpt>
      <trkpt lat="45.49937" lon="4.1981">
        <ele>396</ele>
        <time>2025-09-16T12:37:50Z</time>
      </trkpt>
      <trkpt lat="45.49933" lon="4.1981">
        <ele>388</ele>
        <time>2025-09-16T12:37:51Z</time>
      </trkpt>
      <trkpt lat="45.4993" lon="4.19811">
        <ele>388</ele>
        <time>2025-09-16T12:37:52Z</time>
      </trkpt>
      <trkpt lat="45.49926" lon="4.19811">
        <ele>393</ele>
        <time>2025-09-16T12:37:53Z</time>
      </trkpt>
      <trkpt lat="45.49923" lon="4.19812">
        <ele>392</ele>
        <time>2025-09-16T12:37:54Z</time>
      </trkpt>
      <trkpt lat="45.4992" lon="4.19813">
        <ele>397</ele>
        <time>2025-09-16T12:37:55Z</time>
      </trkpt>
      <trkpt lat="45.49917" lon="4.19814">
        <ele>397</ele>
        <time>2025-09-16T12:37:56Z</time>
      </trkpt>
      <trkpt lat="45.49914" lon="4.19815">
        <ele>396</ele>
        <time>2025-09-16T12:37:57Z</time>
      </trkpt>
      <trkpt lat="45.49911" lon="4.19816">
        <ele>395</ele>
        <time>2025-09-16T12:37:58Z</time>
      </trkpt>
      <trkpt lat="45.49908" lon="4.19817">
        <ele>393</ele>
        <time>2025-09-16T12:37:59Z</time>
      </trkpt>
      <trkpt lat="45.49904" lon="4.19817">
        <ele>394</ele>
        <time>2025-09-16T12:38:00Z</time>
      </trkpt>
      <trkpt lat="45.49901" lon="4.19818">
        <ele>397</ele>
        <time>2025-09-16T12:38:01Z</time>
      </trkpt>
      <trkpt lat="45.49898" lon="4.19819">
        <ele>395</ele>
        <time>2025-09-16T12:38:02Z</time>
      </trkpt>
      <trkpt lat="45.49895" lon="4.1982">
        <ele>395</ele>
        <time>2025-09-16T12:38:03Z</time>
      </trkpt>
      <trkpt lat="45.49892" lon="4.19821">
        <ele>387</ele>
        <time>2025-09-16T12:38:04Z</time>
      </trkpt>
      <trkpt lat="45.49889" lon="4.19822">
        <ele>391</ele>
        <time>2025-09-16T12:38:05Z</time>
      </trkpt>
      <trkpt lat="45.49886" lon="4.19823">
        <ele>400</ele>
        <time>2025-09-16T12:38:06Z</time>
      </trkpt>
      <trkpt lat="45.49883" lon="4.19825">
        <ele>392</ele>
        <time>2025-09-16T12:38:07Z</time>
      </trkpt>
      <trkpt lat="45.4988" lon="4.19826">
        <ele>391</ele>
        <time>2025-09-16T12:38:08Z</time>
      </trkpt>
      <trkpt lat="45.49876" lon="4.19827">
        <ele>393</ele>
        <time>2025-09-16T12:38:09Z</time>
      </trkpt>
      <trkpt lat="45.49873" lon="4.19828">
        <ele>390</ele>
        <time>2025-09-16T12:38:10Z</time>
      </trkpt>
      <trkpt lat="45.49871" lon="4.19829">
        <ele>386</ele>
        <time>2025-09-16T12:38:11Z</time>
      </trkpt>
      <trkpt lat="45.49868" lon="4.1983">
        <ele>392</ele>
        <time>2025-09-16T12:38:12Z</time>
      </trkpt>
      <trkpt lat="45.49865" lon="4.19831">
        <ele>395</ele>
        <time>2025-09-16T12:38:13Z</time>
      </trkpt>
      <trkpt lat="45.49862" lon="4.19833">
        <ele>398</ele>
        <time>2025-09-16T12:38:14Z</time>
      </trkpt>
      <trkpt lat="45.49859" lon="4.19834">
        <ele>394</ele>
        <time>2025-09-16T12:38:15Z</time>
      </trkpt>
      <trkpt lat="45.49856" lon="4.19836">
        <ele>391</ele>
        <time>2025-09-16T12:38:16Z</time>
      </trkpt>
      <trkpt lat="45.49852" lon="4.19838">
        <ele>394</ele>
        <time>2025-09-16T12:38:17Z</time>
      </trkpt>
      <trkpt lat="45.49849" lon="4.1984">
        <ele>396</ele>
        <time>2025-09-16T12:38:18Z</time>
      </trkpt>
      <trkpt lat="45.49845" lon="4.19843">
        <ele>395</ele>
        <time>2025-09-16T12:38:19Z</time>
      </trkpt>
      <trkpt lat="45.49841" lon="4.19846">
        <ele>389</ele>
        <time>2025-09-16T12:38:20Z</time>
      </trkpt>
      <trkpt lat="45.49837" lon="4.19848">
        <ele>394</ele>
        <time>2025-09-16T12:38:21Z</time>
      </trkpt>
      <trkpt lat="45.49834" lon="4.1985">
        <ele>392</ele>
        <time>2025-09-16T12:38:22Z</time>
      </trkpt>
      <trkpt lat="45.49831" lon="4.19853">
        <ele>394</ele>
        <time>2025-09-16T12:38:23Z</time>
      </trkpt>
      <trkpt lat="45.49829" lon="4.19855">
        <ele>389</ele>
        <time>2025-09-16T12:38:24Z</time>
      </trkpt>
      <trkpt lat="45.49826" lon="4.19858">
        <ele>389</ele>
        <time>2025-09-16T12:38:25Z</time>
      </trkpt>
      <trkpt lat="45.49824" lon="4.19861">
        <ele>390</ele>
        <time>2025-09-16T12:38:26Z</time>
      </trkpt>
      <trkpt lat="45.49821" lon="4.19864">
        <ele>390</ele>
        <time>2025-09-16T12:38:27Z</time>
      </trkpt>
      <trkpt lat="45.49818" lon="4.19867">
        <ele>394</ele>
        <time>2025-09-16T12:38:28Z</time>
      </trkpt>
      <trkpt lat="45.49815" lon="4.19871">
        <ele>400</ele>
        <time>2025-09-16T12:38:29Z</time>
      </trkpt>
      <trkpt lat="45.49812" lon="4.19874">
        <ele>392</ele>
        <time>2025-09-16T12:38:30Z</time>
      </trkpt>
      <trkpt lat="45.4981" lon="4.19878">
        <ele>396</ele>
        <time>2025-09-16T12:38:31Z</time>
      </trkpt>
      <trkpt lat="45.49808" lon="4.19882">
        <ele>395</ele>
        <time>2025-09-16T12:38:32Z</time>
      </trkpt>
      <trkpt lat="45.49805" lon="4.19886">
        <ele>400</ele>
        <time>2025-09-16T12:38:33Z</time>
      </trkpt>
      <trkpt lat="45.49803" lon="4.1989">
        <ele>401</ele>
        <time>2025-09-16T12:38:34Z</time>
      </trkpt>
      <trkpt lat="45.49801" lon="4.19894">
        <ele>393</ele>
        <time>2025-09-16T12:38:35Z</time>
      </trkpt>
      <trkpt lat="45.49799" lon="4.19897">
        <ele>386</ele>
        <time>2025-09-16T12:38:36Z</time>
      </trkpt>
      <trkpt lat="45.49797" lon="4.19901">
        <ele>393</ele>
        <time>2025-09-16T12:38:37Z</time>
      </trkpt>
      <trkpt lat="45.49794" lon="4.19906">
        <ele>392</ele>
        <time>2025-09-16T12:38:38Z</time>
      </trkpt>
      <trkpt lat="45.49792" lon="4.19911">
        <ele>388</ele>
        <time>2025-09-16T12:38:39Z</time>
      </trkpt>
      <trkpt lat="45.49789" lon="4.19916">
        <ele>386</ele>
        <time>2025-09-16T12:38:40Z</time>
      </trkpt>
      <trkpt lat="45.49787" lon="4.19921">
        <ele>385</ele>
        <time>2025-09-16T12:38:41Z</time>
      </trkpt>
      <trkpt lat="45.49785" lon="4.19926">
        <ele>390</ele>
        <time>2025-09-16T12:38:42Z</time>
      </trkpt>
      <trkpt lat="45.49783" lon="4.19931">
        <ele>395</ele>
        <time>2025-09-16T12:38:43Z</time>
      </trkpt>
      <trkpt lat="45.49781" lon="4.19936">
        <ele>390</ele>
        <time>2025-09-16T12:38:44Z</time>
      </trkpt>
      <trkpt lat="45.4978" lon="4.19942">
        <ele>389</ele>
        <time>2025-09-16T12:38:45Z</time>
      </trkpt>
      <trkpt lat="45.49778" lon="4.19948">
        <ele>390</ele>
        <time>2025-09-16T12:38:46Z</time>
      </trkpt>
      <trkpt lat="45.49777" lon="4.19954">
        <ele>391</ele>
        <time>2025-09-16T12:38:47Z</time>
      </trkpt>
      <trkpt lat="45.49776" lon="4.1996">
        <ele>391</ele>
        <time>2025-09-16T12:38:48Z</time>
      </trkpt>
      <trkpt lat="45.49775" lon="4.19967">
        <ele>392</ele>
        <time>2025-09-16T12:38:49Z</time>
      </trkpt>
      <trkpt lat="45.49774" lon="4.19973">
        <ele>387</ele>
        <time>2025-09-16T12:38:50Z</time>
      </trkpt>
      <trkpt lat="45.49773" lon="4.1998">
        <ele>389</ele>
        <time>2025-09-16T12:38:51Z</time>
      </trkpt>
      <trkpt lat="45.49772" lon="4.19986">
        <ele>393</ele>
        <time>2025-09-16T12:38:52Z</time>
      </trkpt>
      <trkpt lat="45.49771" lon="4.19992">
        <ele>393</ele>
        <time>2025-09-16T12:38:53Z</time>
      </trkpt>
      <trkpt lat="45.4977" lon="4.19998">
        <ele>388</ele>
        <time>2025-09-16T12:38:54Z</time>
      </trkpt>
      <trkpt lat="45.49768" lon="4.20004">
        <ele>392</ele>
        <time>2025-09-16T12:38:55Z</time>
      </trkpt>
      <trkpt lat="45.49767" lon="4.2001">
        <ele>392</ele>
        <time>2025-09-16T12:38:56Z</time>
      </trkpt>
      <trkpt lat="45.49765" lon="4.20016">
        <ele>393</ele>
        <time>2025-09-16T12:38:57Z</time>
      </trkpt>
      <trkpt lat="45.49764" lon="4.20022">
        <ele>392</ele>
        <time>2025-09-16T12:38:58Z</time>
      </trkpt>
      <trkpt lat="45.49763" lon="4.20029">
        <ele>389</ele>
        <time>2025-09-16T12:38:59Z</time>
      </trkpt>
      <trkpt lat="45.49762" lon="4.20035">
        <ele>389</ele>
        <time>2025-09-16T12:39:00Z</time>
      </trkpt>
      <trkpt lat="45.49762" lon="4.20042">
        <ele>391</ele>
        <time>2025-09-16T12:39:01Z</time>
      </trkpt>
      <trkpt lat="45.49761" lon="4.20048">
        <ele>397</ele>
        <time>2025-09-16T12:39:02Z</time>
      </trkpt>
      <trkpt lat="45.4976" lon="4.20054">
        <ele>391</ele>
        <time>2025-09-16T12:39:03Z</time>
      </trkpt>
      <trkpt lat="45.4976" lon="4.20061">
        <ele>392</ele>
        <time>2025-09-16T12:39:04Z</time>
      </trkpt>
      <trkpt lat="45.49759" lon="4.20067">
        <ele>391</ele>
        <time>2025-09-16T12:39:05Z</time>
      </trkpt>
      <trkpt lat="45.49759" lon="4.20073">
        <ele>394</ele>
        <time>2025-09-16T12:39:06Z</time>
      </trkpt>
      <trkpt lat="45.49758" lon="4.20079">
        <ele>394</ele>
        <time>2025-09-16T12:39:07Z</time>
      </trkpt>
      <trkpt lat="45.49757" lon="4.20085">
        <ele>390</ele>
        <time>2025-09-16T12:39:08Z</time>
      </trkpt>
      <trkpt lat="45.49757" lon="4.20091">
        <ele>387</ele>
        <time>2025-09-16T12:39:09Z</time>
      </trkpt>
      <trkpt lat="45.49757" lon="4.20097">
        <ele>391</ele>
        <time>2025-09-16T12:39:10Z</time>
      </trkpt>
      <trkpt lat="45.49756" lon="4.20103">
        <ele>393</ele>
        <time>2025-09-16T12:39:11Z</time>
      </trkpt>
      <trkpt lat="45.49757" lon="4.20108">
        <ele>394</ele>
        <time>2025-09-16T12:39:12Z</time>
      </trkpt>
      <trkpt lat="45.49757" lon="4.20113">
        <ele>390</ele>
        <time>2025-09-16T12:39:13Z</time>
      </trkpt>
      <trkpt lat="45.49757" lon="4.20119">
        <ele>392</ele>
        <time>2025-09-16T12:39:14Z</time>
      </trkpt>
      <trkpt lat="45.49757" lon="4.20124">
        <ele>393</ele>
        <time>2025-09-16T12:39:15Z</time>
      </trkpt>
      <trkpt lat="45.49757" lon="4.2013">
        <ele>395</ele>
        <time>2025-09-16T12:39:16Z</time>
      </trkpt>
      <trkpt lat="45.49757" lon="4.20135">
        <ele>394</ele>
        <time>2025-09-16T12:39:17Z</time>
      </trkpt>
      <trkpt lat="45.49757" lon="4.20141">
        <ele>386</ele>
        <time>2025-09-16T12:39:18Z</time>
      </trkpt>
      <trkpt lat="45.49757" lon="4.20147">
        <ele>394</ele>
        <time>2025-09-16T12:39:19Z</time>
      </trkpt>
      <trkpt lat="45.49757" lon="4.20153">
        <ele>390</ele>
        <time>2025-09-16T12:39:20Z</time>
      </trkpt>
      <trkpt lat="45.49756" lon="4.20159">
        <ele>395</ele>
        <time>2025-09-16T12:39:21Z</time>
      </trkpt>
      <trkpt lat="45.49756" lon="4.20164">
        <ele>391</ele>
        <time>2025-09-16T12:39:22Z</time>
      </trkpt>
      <trkpt lat="45.49757" lon="4.20169">
        <ele>388</ele>
        <time>2025-09-16T12:39:23Z</time>
      </trkpt>
      <trkpt lat="45.49757" lon="4.20173">
        <ele>392</ele>
        <time>2025-09-16T12:39:24Z</time>
      </trkpt>
      <trkpt lat="45.49757" lon="4.20178">
        <ele>392</ele>
        <time>2025-09-16T12:39:25Z</time>
      </trkpt>
      <trkpt lat="45.49757" lon="4.20183">
        <ele>391</ele>
        <time>2025-09-16T12:39:26Z</time>
      </trkpt>
      <trkpt lat="45.49757" lon="4.20188">
        <ele>394</ele>
        <time>2025-09-16T12:39:27Z</time>
      </trkpt>
      <trkpt lat="45.49757" lon="4.20192">
        <ele>394</ele>
        <time>2025-09-16T12:39:28Z</time>
      </trkpt>
      <trkpt lat="45.49757" lon="4.20197">
        <ele>388</ele>
        <time>2025-09-16T12:39:29Z</time>
      </trkpt>
      <trkpt lat="45.49757" lon="4.20202">
        <ele>391</ele>
        <time>2025-09-16T12:39:30Z</time>
      </trkpt>
      <trkpt lat="45.49756" lon="4.20207">
        <ele>386</ele>
        <time>2025-09-16T12:39:31Z</time>
      </trkpt>
      <trkpt lat="45.49756" lon="4.20212">
        <ele>393</ele>
        <time>2025-09-16T12:39:32Z</time>
      </trkpt>
      <trkpt lat="45.49756" lon="4.20218">
        <ele>394</ele>
        <time>2025-09-16T12:39:33Z</time>
      </trkpt>
      <trkpt lat="45.49756" lon="4.20223">
        <ele>389</ele>
        <time>2025-09-16T12:39:33Z</time>
      </trkpt>
      <trkpt lat="45.49757" lon="4.20229">
        <ele>393</ele>
        <time>2025-09-16T12:39:34Z</time>
      </trkpt>
      <trkpt lat="45.49757" lon="4.20234">
        <ele>395</ele>
        <time>2025-09-16T12:39:35Z</time>
      </trkpt>
      <trkpt lat="45.49758" lon="4.20239">
        <ele>397</ele>
        <time>2025-09-16T12:39:36Z</time>
      </trkpt>
      <trkpt lat="45.49758" lon="4.20245">
        <ele>393</ele>
        <time>2025-09-16T12:39:37Z</time>
      </trkpt>
      <trkpt lat="45.49759" lon="4.2025">
        <ele>395</ele>
        <time>2025-09-16T12:39:38Z</time>
      </trkpt>
      <trkpt lat="45.49759" lon="4.20256">
        <ele>388</ele>
        <time>2025-09-16T12:39:40Z</time>
      </trkpt>
      <trkpt lat="45.49756" lon="4.20258">
        <ele>391</ele>
        <time>2025-09-16T12:39:42Z</time>
      </trkpt>
      <trkpt lat="45.49752" lon="4.2026">
        <ele>395</ele>
        <time>2025-09-16T12:39:44Z</time>
      </trkpt>
      <trkpt lat="45.49747" lon="4.20259">
        <ele>401</ele>
        <time>2025-09-16T12:39:46Z</time>
      </trkpt>
      <trkpt lat="45.49743" lon="4.20259">
        <ele>397</ele>
        <time>2025-09-16T12:39:48Z</time>
      </trkpt>
      <trkpt lat="45.49738" lon="4.2026">
        <ele>398</ele>
        <time>2025-09-16T12:39:50Z</time>
      </trkpt>
      <trkpt lat="45.49735" lon="4.20263">
        <ele>391</ele>
        <time>2025-09-16T12:39:51Z</time>
      </trkpt>
      <trkpt lat="45.49734" lon="4.20266">
        <ele>394</ele>
        <time>2025-09-16T12:39:52Z</time>
      </trkpt>
      <trkpt lat="45.49733" lon="4.2027">
        <ele>391</ele>
        <time>2025-09-16T12:39:53Z</time>
      </trkpt>
      <trkpt lat="45.49733" lon="4.20275">
        <ele>395</ele>
        <time>2025-09-16T12:39:54Z</time>
      </trkpt>
      <trkpt lat="45.49733" lon="4.20281">
        <ele>392</ele>
        <time>2025-09-16T12:39:55Z</time>
      </trkpt>
      <trkpt lat="45.49734" lon="4.20287">
        <ele>390</ele>
        <time>2025-09-16T12:39:56Z</time>
      </trkpt>
      <trkpt lat="45.49735" lon="4.20293">
        <ele>392</ele>
        <time>2025-09-16T12:39:57Z</time>
      </trkpt>
      <trkpt lat="45.49735" lon="4.203">
        <ele>391</ele>
        <time>2025-09-16T12:39:58Z</time>
      </trkpt>
      <trkpt lat="45.49735" lon="4.20306">
        <ele>394</ele>
        <time>2025-09-16T12:39:59Z</time>
      </trkpt>
      <trkpt lat="45.49735" lon="4.20312">
        <ele>390</ele>
        <time>2025-09-16T12:40:00Z</time>
      </trkpt>
      <trkpt lat="45.49736" lon="4.20317">
        <ele>390</ele>
        <time>2025-09-16T12:40:01Z</time>
      </trkpt>
      <trkpt lat="45.49737" lon="4.20323">
        <ele>388</ele>
        <time>2025-09-16T12:40:02Z</time>
      </trkpt>
      <trkpt lat="45.49738" lon="4.20328">
        <ele>394</ele>
        <time>2025-09-16T12:40:03Z</time>
      </trkpt>
      <trkpt lat="45.49738" lon="4.20333">
        <ele>389</ele>
        <time>2025-09-16T12:40:04Z</time>
      </trkpt>
      <trkpt lat="45.49738" lon="4.20338">
        <ele>393</ele>
        <time>2025-09-16T12:40:05Z</time>
      </trkpt>
      <trkpt lat="45.49738" lon="4.20343">
        <ele>391</ele>
        <time>2025-09-16T12:40:06Z</time>
      </trkpt>
      <trkpt lat="45.49738" lon="4.20348">
        <ele>394</ele>
        <time>2025-09-16T12:40:07Z</time>
      </trkpt>
      <trkpt lat="45.49738" lon="4.20353">
        <ele>395</ele>
        <time>2025-09-16T12:40:08Z</time>
      </trkpt>
      <trkpt lat="45.49737" lon="4.20358">
        <ele>389</ele>
        <time>2025-09-16T12:40:09Z</time>
      </trkpt>
      <trkpt lat="45.49737" lon="4.20363">
        <ele>390</ele>
        <time>2025-09-16T12:40:10Z</time>
      </trkpt>
      <trkpt lat="45.49737" lon="4.20368">
        <ele>399</ele>
        <time>2025-09-16T12:40:11Z</time>
      </trkpt>
      <trkpt lat="45.49737" lon="4.20373">
        <ele>394</ele>
        <time>2025-09-16T12:40:12Z</time>
      </trkpt>
      <trkpt lat="45.49736" lon="4.20378">
        <ele>390</ele>
        <time>2025-09-16T12:40:13Z</time>
      </trkpt>
      <trkpt lat="45.49736" lon="4.20384">
        <ele>388</ele>
        <time>2025-09-16T12:40:14Z</time>
      </trkpt>
      <trkpt lat="45.49735" lon="4.20389">
        <ele>387</ele>
        <time>2025-09-16T12:40:15Z</time>
      </trkpt>
      <trkpt lat="45.49734" lon="4.20395">
        <ele>395</ele>
        <time>2025-09-16T12:40:16Z</time>
      </trkpt>
      <trkpt lat="45.49733" lon="4.204">
        <ele>392</ele>
        <time>2025-09-16T12:40:17Z</time>
      </trkpt>
      <trkpt lat="45.49733" lon="4.20406">
        <ele>396</ele>
        <time>2025-09-16T12:40:18Z</time>
      </trkpt>
      <trkpt lat="45.49732" lon="4.20411">
        <ele>395</ele>
        <time>2025-09-16T12:40:19Z</time>
      </trkpt>
      <trkpt lat="45.49732" lon="4.20417">
        <ele>387</ele>
        <time>2025-09-16T12:40:20Z</time>
      </trkpt>
      <trkpt lat="45.49732" lon="4.20422">
        <ele>393</ele>
        <time>2025-09-16T12:40:21Z</time>
      </trkpt>
      <trkpt lat="45.49731" lon="4.20428">
        <ele>395</ele>
        <time>2025-09-16T12:40:22Z</time>
      </trkpt>
      <trkpt lat="45.49731" lon="4.20434">
        <ele>395</ele>
        <time>2025-09-16T12:40:23Z</time>
      </trkpt>
      <trkpt lat="45.49731" lon="4.20441">
        <ele>392</ele>
        <time>2025-09-16T12:40:24Z</time>
      </trkpt>
      <trkpt lat="45.49731" lon="4.20447">
        <ele>388</ele>
        <time>2025-09-16T12:40:25Z</time>
      </trkpt>
      <trkpt lat="45.49731" lon="4.20454">
        <ele>393</ele>
        <time>2025-09-16T12:40:26Z</time>
      </trkpt>
      <trkpt lat="45.49731" lon="4.2046">
        <ele>394</ele>
        <time>2025-09-16T12:40:27Z</time>
      </trkpt>
      <trkpt lat="45.49731" lon="4.20465">
        <ele>400</ele>
        <time>2025-09-16T12:40:28Z</time>
      </trkpt>
      <trkpt lat="45.49731" lon="4.20471">
        <ele>389</ele>
        <time>2025-09-16T12:40:29Z</time>
      </trkpt>
      <trkpt lat="45.4973" lon="4.20478">
        <ele>390</ele>
        <time>2025-09-16T12:40:30Z</time>
      </trkpt>
      <trkpt lat="45.4973" lon="4.20484">
        <ele>396</ele>
        <time>2025-09-16T12:40:31Z</time>
      </trkpt>
      <trkpt lat="45.49729" lon="4.20491">
        <ele>394</ele>
        <time>2025-09-16T12:40:32Z</time>
      </trkpt>
      <trkpt lat="45.49728" lon="4.20497">
        <ele>387</ele>
        <time>2025-09-16T12:40:33Z</time>
      </trkpt>
      <trkpt lat="45.49728" lon="4.20503">
        <ele>393</ele>
        <time>2025-09-16T12:40:34Z</time>
      </trkpt>
      <trkpt lat="45.49727" lon="4.20509">
        <ele>394</ele>
        <time>2025-09-16T12:40:35Z</time>
      </trkpt>
      <trkpt lat="45.49727" lon="4.20516">
        <ele>388</ele>
        <time>2025-09-16T12:40:36Z</time>
      </trkpt>
      <trkpt lat="45.49726" lon="4.20522">
        <ele>392</ele>
        <time>2025-09-16T12:40:37Z</time>
      </trkpt>
      <trkpt lat="45.49726" lon="4.20528">
        <ele>390</ele>
        <time>2025-09-16T12:40:38Z</time>
      </trkpt>
      <trkpt lat="45.49726" lon="4.20533">
        <ele>398</ele>
        <time>2025-09-16T12:40:39Z</time>
      </trkpt>
      <trkpt lat="45.49726" lon="4.20539">
        <ele>396</ele>
        <time>2025-09-16T12:40:40Z</time>
      </trkpt>
      <trkpt lat="45.49725" lon="4.20544">
        <ele>385</ele>
        <time>2025-09-16T12:40:41Z</time>
      </trkpt>
      <trkpt lat="45.49725" lon="4.2055">
        <ele>392</ele>
        <time>2025-09-16T12:40:42Z</time>
      </trkpt>
      <trkpt lat="45.49725" lon="4.20555">
        <ele>396</ele>
        <time>2025-09-16T12:40:43Z</time>
      </trkpt>
      <trkpt lat="45.49725" lon="4.20561">
        <ele>395</ele>
        <time>2025-09-16T12:40:44Z</time>
      </trkpt>
      <trkpt lat="45.49725" lon="4.20567">
        <ele>394</ele>
        <time>2025-09-16T12:40:45Z</time>
      </trkpt>
      <trkpt lat="45.49725" lon="4.20572">
        <ele>391</ele>
        <time>2025-09-16T12:40:46Z</time>
      </trkpt>
      <trkpt lat="45.49725" lon="4.20578">
        <ele>397</ele>
        <time>2025-09-16T12:40:47Z</time>
      </trkpt>
      <trkpt lat="45.49725" lon="4.20584">
        <ele>394</ele>
        <time>2025-09-16T12:40:48Z</time>
      </trkpt>
      <trkpt lat="45.49725" lon="4.20589">
        <ele>397</ele>
        <time>2025-09-16T12:40:49Z</time>
      </trkpt>
      <trkpt lat="45.49725" lon="4.20595">
        <ele>390</ele>
        <time>2025-09-16T12:40:50Z</time>
      </trkpt>
      <trkpt lat="45.49724" lon="4.20601">
        <ele>390</ele>
        <time>2025-09-16T12:40:51Z</time>
      </trkpt>
      <trkpt lat="45.49724" lon="4.20607">
        <ele>389</ele>
        <time>2025-09-16T12:40:52Z</time>
      </trkpt>
      <trkpt lat="45.49724" lon="4.20612">
        <ele>395</ele>
        <time>2025-09-16T12:40:53Z</time>
      </trkpt>
      <trkpt lat="45.49723" lon="4.20618">
        <ele>391</ele>
        <time>2025-09-16T12:40:54Z</time>
      </trkpt>
      <trkpt lat="45.49723" lon="4.20623">
        <ele>395</ele>
        <time>2025-09-16T12:40:55Z</time>
      </trkpt>
      <trkpt lat="45.49722" lon="4.20629">
        <ele>389</ele>
        <time>2025-09-16T12:40:56Z</time>
      </trkpt>
      <trkpt lat="45.49722" lon="4.20635">
        <ele>392</ele>
        <time>2025-09-16T12:40:57Z</time>
      </trkpt>
      <trkpt lat="45.49721" lon="4.20641">
        <ele>394</ele>
        <time>2025-09-16T12:40:58Z</time>
      </trkpt>
      <trkpt lat="45.49721" lon="4.20647">
        <ele>393</ele>
        <time>2025-09-16T12:40:59Z</time>
      </trkpt>
      <trkpt lat="45.49721" lon="4.20652">
        <ele>395</ele>
        <time>2025-09-16T12:41:00Z</time>
      </trkpt>
      <trkpt lat="45.49721" lon="4.20657">
        <ele>385</ele>
        <time>2025-09-16T12:41:01Z</time>
      </trkpt>
      <trkpt lat="45.49721" lon="4.20663">
        <ele>390</ele>
        <time>2025-09-16T12:41:02Z</time>
      </trkpt>
      <trkpt lat="45.4972" lon="4.20668">
        <ele>393</ele>
        <time>2025-09-16T12:41:03Z</time>
      </trkpt>
      <trkpt lat="45.4972" lon="4.20673">
        <ele>395</ele>
        <time>2025-09-16T12:41:04Z</time>
      </trkpt>
      <trkpt lat="45.4972" lon="4.20679">
        <ele>394</ele>
        <time>2025-09-16T12:41:05Z</time>
      </trkpt>
      <trkpt lat="45.4972" lon="4.20684">
        <ele>388</ele>
        <time>2025-09-16T12:41:06Z</time>
      </trkpt>
      <trkpt lat="45.4972" lon="4.2069">
        <ele>393</ele>
        <time>2025-09-16T12:41:07Z</time>
      </trkpt>
      <trkpt lat="45.4972" lon="4.20696">
        <ele>390</ele>
        <time>2025-09-16T12:41:08Z</time>
      </trkpt>
      <trkpt lat="45.4972" lon="4.20702">
        <ele>397</ele>
        <time>2025-09-16T12:41:09Z</time>
      </trkpt>
      <trkpt lat="45.49719" lon="4.20708">
        <ele>391</ele>
        <time>2025-09-16T12:41:10Z</time>
      </trkpt>
      <trkpt lat="45.49719" lon="4.20714">
        <ele>387</ele>
        <time>2025-09-16T12:41:11Z</time>
      </trkpt>
      <trkpt lat="45.49719" lon="4.2072">
        <ele>392</ele>
        <time>2025-09-16T12:41:12Z</time>
      </trkpt>
      <trkpt lat="45.49718" lon="4.20725">
        <ele>390</ele>
        <time>2025-09-16T12:41:13Z</time>
      </trkpt>
      <trkpt lat="45.49718" lon="4.20731">
        <ele>393</ele>
        <time>2025-09-16T12:41:14Z</time>
      </trkpt>
      <trkpt lat="45.49717" lon="4.20737">
        <ele>390</ele>
        <time>2025-09-16T12:41:15Z</time>
      </trkpt>
      <trkpt lat="45.49716" lon="4.20743">
        <ele>390</ele>
        <time>2025-09-16T12:41:16Z</time>
      </trkpt>
      <trkpt lat="45.49716" lon="4.2075">
        <ele>388</ele>
        <time>2025-09-16T12:41:17Z</time>
      </trkpt>
      <trkpt lat="45.49715" lon="4.20756">
        <ele>393</ele>
        <time>2025-09-16T12:41:18Z</time>
      </trkpt>
      <trkpt lat="45.49714" lon="4.20763">
        <ele>387</ele>
        <time>2025-09-16T12:41:19Z</time>
      </trkpt>
      <trkpt lat="45.49713" lon="4.2077">
        <ele>390</ele>
        <time>2025-09-16T12:41:20Z</time>
      </trkpt>
      <trkpt lat="45.49713" lon="4.20775">
        <ele>393</ele>
        <time>2025-09-16T12:41:21Z</time>
      </trkpt>
      <trkpt lat="45.49712" lon="4.20781">
        <ele>394</ele>
        <time>2025-09-16T12:41:22Z</time>
      </trkpt>
      <trkpt lat="45.49711" lon="4.20786">
        <ele>395</ele>
        <time>2025-09-16T12:41:23Z</time>
      </trkpt>
      <trkpt lat="45.4971" lon="4.20791">
        <ele>396</ele>
        <time>2025-09-16T12:41:24Z</time>
      </trkpt>
      <trkpt lat="45.49708" lon="4.20797">
        <ele>385</ele>
        <time>2025-09-16T12:41:25Z</time>
      </trkpt>
      <trkpt lat="45.49707" lon="4.20803">
        <ele>385</ele>
        <time>2025-09-16T12:41:26Z</time>
      </trkpt>
      <trkpt lat="45.49705" lon="4.20809">
        <ele>389</ele>
        <time>2025-09-16T12:41:27Z</time>
      </trkpt>
      <trkpt lat="45.49703" lon="4.20814">
        <ele>392</ele>
        <time>2025-09-16T12:41:28Z</time>
      </trkpt>
      <trkpt lat="45.49701" lon="4.2082">
        <ele>395</ele>
        <time>2025-09-16T12:41:29Z</time>
      </trkpt>
      <trkpt lat="45.497" lon="4.20825">
        <ele>387</ele>
        <time>2025-09-16T12:41:30Z</time>
      </trkpt>
      <trkpt lat="45.49698" lon="4.2083">
        <ele>388</ele>
        <time>2025-09-16T12:41:31Z</time>
      </trkpt>
      <trkpt lat="45.49696" lon="4.20834">
        <ele>394</ele>
        <time>2025-09-16T12:41:32Z</time>
      </trkpt>
      <trkpt lat="45.49694" lon="4.20838">
        <ele>394</ele>
        <time>2025-09-16T12:41:33Z</time>
      </trkpt>
      <trkpt lat="45.49692" lon="4.20843">
        <ele>395</ele>
        <time>2025-09-16T12:41:34Z</time>
      </trkpt>
      <trkpt lat="45.49689" lon="4.20847">
        <ele>392</ele>
        <time>2025-09-16T12:41:35Z</time>
      </trkpt>
      <trkpt lat="45.49687" lon="4.20851">
        <ele>390</ele>
        <time>2025-09-16T12:41:36Z</time>
      </trkpt>
      <trkpt lat="45.49684" lon="4.20855">
        <ele>385</ele>
        <time>2025-09-16T12:41:37Z</time>
      </trkpt>
      <trkpt lat="45.49682" lon="4.2086">
        <ele>393</ele>
        <time>2025-09-16T12:41:38Z</time>
      </trkpt>
      <trkpt lat="45.49679" lon="4.20864">
        <ele>392</ele>
        <time>2025-09-16T12:41:39Z</time>
      </trkpt>
      <trkpt lat="45.49677" lon="4.20869">
        <ele>394</ele>
        <time>2025-09-16T12:41:40Z</time>
      </trkpt>
      <trkpt lat="45.49674" lon="4.20875">
        <ele>389</ele>
        <time>2025-09-16T12:41:42Z</time>
      </trkpt>
      <trkpt lat="45.49671" lon="4.2088">
        <ele>393</ele>
        <time>2025-09-16T12:41:43Z</time>
      </trkpt>
      <trkpt lat="45.49669" lon="4.20884">
        <ele>395</ele>
        <time>2025-09-16T12:41:44Z</time>
      </trkpt>
      <trkpt lat="45.49666" lon="4.20888">
        <ele>397</ele>
        <time>2025-09-16T12:41:45Z</time>
      </trkpt>
      <trkpt lat="45.49664" lon="4.20892">
        <ele>394</ele>
        <time>2025-09-16T12:41:46Z</time>
      </trkpt>
      <trkpt lat="45.4966" lon="4.20896">
        <ele>395</ele>
        <time>2025-09-16T12:41:47Z</time>
      </trkpt>
      <trkpt lat="45.49658" lon="4.209">
        <ele>393</ele>
        <time>2025-09-16T12:41:48Z</time>
      </trkpt>
      <trkpt lat="45.49655" lon="4.20903">
        <ele>392</ele>
        <time>2025-09-16T12:41:49Z</time>
      </trkpt>
      <trkpt lat="45.49651" lon="4.20908">
        <ele>394</ele>
        <time>2025-09-16T12:41:51Z</time>
      </trkpt>
      <trkpt lat="45.49648" lon="4.20911">
        <ele>393</ele>
        <time>2025-09-16T12:41:52Z</time>
      </trkpt>
      <trkpt lat="45.49645" lon="4.20914">
        <ele>399</ele>
        <time>2025-09-16T12:41:53Z</time>
      </trkpt>
      <trkpt lat="45.49642" lon="4.20918">
        <ele>393</ele>
        <time>2025-09-16T12:41:55Z</time>
      </trkpt>
      <trkpt lat="45.49639" lon="4.20923">
        <ele>391</ele>
        <time>2025-09-16T12:41:57Z</time>
      </trkpt>
      <trkpt lat="45.49636" lon="4.20928">
        <ele>389</ele>
        <time>2025-09-16T12:41:59Z</time>
      </trkpt>
      <trkpt lat="45.49634" lon="4.20932">
        <ele>393</ele>
        <time>2025-09-16T12:42:02Z</time>
      </trkpt>
      <trkpt lat="45.49632" lon="4.20937">
        <ele>398</ele>
        <time>2025-09-16T12:42:05Z</time>
      </trkpt>
      <trkpt lat="45.4963" lon="4.20941">
        <ele>397</ele>
        <time>2025-09-16T12:42:06Z</time>
      </trkpt>
      <trkpt lat="45.49628" lon="4.20943">
        <ele>390</ele>
        <time>2025-09-16T12:42:07Z</time>
      </trkpt>
      <trkpt lat="45.49624" lon="4.20947">
        <ele>387</ele>
        <time>2025-09-16T12:42:09Z</time>
      </trkpt>
      <trkpt lat="45.4962" lon="4.2095">
        <ele>391</ele>
        <time>2025-09-16T12:42:11Z</time>
      </trkpt>
      <trkpt lat="45.49616" lon="4.20954">
        <ele>395</ele>
        <time>2025-09-16T12:42:13Z</time>
      </trkpt>
      <trkpt lat="45.49613" lon="4.20957">
        <ele>395</ele>
        <time>2025-09-16T12:42:14Z</time>
      </trkpt>
      <trkpt lat="45.49609" lon="4.2096">
        <ele>393</ele>
        <time>2025-09-16T12:42:17Z</time>
      </trkpt>
      <trkpt lat="45.49606" lon="4.20959">
        <ele>393</ele>
        <time>2025-09-16T12:42:21Z</time>
      </trkpt>
      <trkpt lat="45.49603" lon="4.20959">
        <ele>391</ele>
        <time>2025-09-16T12:42:24Z</time>
      </trkpt>
      <trkpt lat="45.496" lon="4.20961">
        <ele>391</ele>
        <time>2025-09-16T12:42:26Z</time>
      </trkpt>
      <trkpt lat="45.49597" lon="4.20964">
        <ele>393</ele>
        <time>2025-09-16T12:42:28Z</time>
      </trkpt>
      <trkpt lat="45.49595" lon="4.20967">
        <ele>393</ele>
        <time>2025-09-16T12:42:30Z</time>
      </trkpt>
      <trkpt lat="45.49592" lon="4.20969">
        <ele>393</ele>
        <time>2025-09-16T12:42:32Z</time>
      </trkpt>
      <trkpt lat="45.49588" lon="4.20973">
        <ele>395</ele>
        <time>2025-09-16T12:42:34Z</time>
      </trkpt>
      <trkpt lat="45.49584" lon="4.20977">
        <ele>398</ele>
        <time>2025-09-16T12:42:36Z</time>
      </trkpt>
      <trkpt lat="45.4958" lon="4.2098">
        <ele>392</ele>
        <time>2025-09-16T12:42:37Z</time>
      </trkpt>
      <trkpt lat="45.49577" lon="4.20983">
        <ele>391</ele>
        <time>2025-09-16T12:42:38Z</time>
      </trkpt>
      <trkpt lat="45.49575" lon="4.20986">
        <ele>394</ele>
        <time>2025-09-16T12:42:39Z</time>
      </trkpt>
      <trkpt lat="45.4957" lon="4.20991">
        <ele>394</ele>
        <time>2025-09-16T12:42:41Z</time>
      </trkpt>
      <trkpt lat="45.49567" lon="4.20994">
        <ele>395</ele>
        <time>2025-09-16T12:42:42Z</time>
      </trkpt>
      <trkpt lat="45.49563" lon="4.20998">
        <ele>390</ele>
        <time>2025-09-16T12:42:43Z</time>
      </trkpt>
      <trkpt lat="45.4956" lon="4.21001">
        <ele>390</ele>
        <time>2025-09-16T12:42:44Z</time>
      </trkpt>
      <trkpt lat="45.49557" lon="4.21004">
        <ele>392</ele>
        <time>2025-09-16T12:42:45Z</time>
      </trkpt>
      <trkpt lat="45.49554" lon="4.21007">
        <ele>394</ele>
        <time>2025-09-16T12:42:46Z</time>
      </trkpt>
      <trkpt lat="45.4955" lon="4.21012">
        <ele>389</ele>
        <time>2025-09-16T12:42:48Z</time>
      </trkpt>
      <trkpt lat="45.49547" lon="4.21015">
        <ele>392</ele>
        <time>2025-09-16T12:42:49Z</time>
      </trkpt>
      <trkpt lat="45.49544" lon="4.21019">
        <ele>393</ele>
        <time>2025-09-16T12:42:50Z</time>
      </trkpt>
      <trkpt lat="45.49541" lon="4.21022">
        <ele>388</ele>
        <time>2025-09-16T12:42:51Z</time>
      </trkpt>
      <trkpt lat="45.49538" lon="4.21026">
        <ele>391</ele>
        <time>2025-09-16T12:42:52Z</time>
      </trkpt>
      <trkpt lat="45.49535" lon="4.2103">
        <ele>393</ele>
        <time>2025-09-16T12:42:53Z</time>
      </trkpt>
      <trkpt lat="45.49532" lon="4.21034">
        <ele>393</ele>
        <time>2025-09-16T12:42:54Z</time>
      </trkpt>
      <trkpt lat="45.49529" lon="4.21037">
        <ele>390</ele>
        <time>2025-09-16T12:42:55Z</time>
      </trkpt>
      <trkpt lat="45.49526" lon="4.21041">
        <ele>391</ele>
        <time>2025-09-16T12:42:56Z</time>
      </trkpt>
      <trkpt lat="45.49522" lon="4.21045">
        <ele>393</ele>
        <time>2025-09-16T12:42:57Z</time>
      </trkpt>
      <trkpt lat="45.49519" lon="4.21048">
        <ele>394</ele>
        <time>2025-09-16T12:42:58Z</time>
      </trkpt>
      <trkpt lat="45.49516" lon="4.21052">
        <ele>392</ele>
        <time>2025-09-16T12:42:59Z</time>
      </trkpt>
      <trkpt lat="45.49512" lon="4.21057">
        <ele>394</ele>
        <time>2025-09-16T12:43:00Z</time>
      </trkpt>
      <trkpt lat="45.49508" lon="4.21061">
        <ele>388</ele>
        <time>2025-09-16T12:43:01Z</time>
      </trkpt>
      <trkpt lat="45.49504" lon="4.21065">
        <ele>386</ele>
        <time>2025-09-16T12:43:02Z</time>
      </trkpt>
      <trkpt lat="45.49501" lon="4.21069">
        <ele>390</ele>
        <time>2025-09-16T12:43:03Z</time>
      </trkpt>
      <trkpt lat="45.49497" lon="4.21073">
        <ele>390</ele>
        <time>2025-09-16T12:43:04Z</time>
      </trkpt>
      <trkpt lat="45.49494" lon="4.21077">
        <ele>393</ele>
        <time>2025-09-16T12:43:05Z</time>
      </trkpt>
      <trkpt lat="45.4949" lon="4.2108">
        <ele>394</ele>
        <time>2025-09-16T12:43:06Z</time>
      </trkpt>
      <trkpt lat="45.49487" lon="4.21084">
        <ele>391</ele>
        <time>2025-09-16T12:43:07Z</time>
      </trkpt>
      <trkpt lat="45.49483" lon="4.21088">
        <ele>390</ele>
        <time>2025-09-16T12:43:08Z</time>
      </trkpt>
      <trkpt lat="45.4948" lon="4.21091">
        <ele>381</ele>
        <time>2025-09-16T12:43:09Z</time>
      </trkpt>
      <trkpt lat="45.49476" lon="4.21095">
        <ele>389</ele>
        <time>2025-09-16T12:43:10Z</time>
      </trkpt>
      <trkpt lat="45.49473" lon="4.21098">
        <ele>391</ele>
        <time>2025-09-16T12:43:11Z</time>
      </trkpt>
      <trkpt lat="45.49469" lon="4.211">
        <ele>400</ele>
        <time>2025-09-16T12:43:12Z</time>
      </trkpt>
      <trkpt lat="45.49466" lon="4.21103">
        <ele>396</ele>
        <time>2025-09-16T12:43:13Z</time>
      </trkpt>
      <trkpt lat="45.49463" lon="4.21106">
        <ele>400</ele>
        <time>2025-09-16T12:43:14Z</time>
      </trkpt>
      <trkpt lat="45.4946" lon="4.2111">
        <ele>392</ele>
        <time>2025-09-16T12:43:15Z</time>
      </trkpt>
      <trkpt lat="45.49457" lon="4.21113">
        <ele>385</ele>
        <time>2025-09-16T12:43:16Z</time>
      </trkpt>
      <trkpt lat="45.49454" lon="4.21116">
        <ele>395</ele>
        <time>2025-09-16T12:43:17Z</time>
      </trkpt>
      <trkpt lat="45.49451" lon="4.21119">
        <ele>395</ele>
        <time>2025-09-16T12:43:18Z</time>
      </trkpt>
      <trkpt lat="45.49448" lon="4.21122">
        <ele>392</ele>
        <time>2025-09-16T12:43:19Z</time>
      </trkpt>
      <trkpt lat="45.49445" lon="4.21125">
        <ele>389</ele>
        <time>2025-09-16T12:43:20Z</time>
      </trkpt>
      <trkpt lat="45.49442" lon="4.21128">
        <ele>394</ele>
        <time>2025-09-16T12:43:21Z</time>
      </trkpt>
      <trkpt lat="45.49439" lon="4.21132">
        <ele>396</ele>
        <time>2025-09-16T12:43:22Z</time>
      </trkpt>
      <trkpt lat="45.49436" lon="4.21135">
        <ele>394</ele>
        <time>2025-09-16T12:43:23Z</time>
      </trkpt>
      <trkpt lat="45.49433" lon="4.21139">
        <ele>387</ele>
        <time>2025-09-16T12:43:24Z</time>
      </trkpt>
      <trkpt lat="45.4943" lon="4.21142">
        <ele>390</ele>
        <time>2025-09-16T12:43:25Z</time>
      </trkpt>
      <trkpt lat="45.49426" lon="4.21146">
        <ele>393</ele>
        <time>2025-09-16T12:43:26Z</time>
      </trkpt>
      <trkpt lat="45.49423" lon="4.2115">
        <ele>391</ele>
        <time>2025-09-16T12:43:27Z</time>
      </trkpt>
      <trkpt lat="45.49417" lon="4.21155">
        <ele>398</ele>
        <time>2025-09-16T12:43:29Z</time>
      </trkpt>
      <trkpt lat="45.49413" lon="4.21159">
        <ele>392</ele>
        <time>2025-09-16T12:43:30Z</time>
      </trkpt>
      <trkpt lat="45.4941" lon="4.21163">
        <ele>394</ele>
        <time>2025-09-16T12:43:31Z</time>
      </trkpt>
      <trkpt lat="45.49406" lon="4.21166">
        <ele>387</ele>
        <time>2025-09-16T12:43:32Z</time>
      </trkpt>
      <trkpt lat="45.49403" lon="4.2117">
        <ele>391</ele>
        <time>2025-09-16T12:43:33Z</time>
      </trkpt>
      <trkpt lat="45.494" lon="4.21173">
        <ele>393</ele>
        <time>2025-09-16T12:43:34Z</time>
      </trkpt>
      <trkpt lat="45.49397" lon="4.21175">
        <ele>394</ele>
        <time>2025-09-16T12:43:35Z</time>
      </trkpt>
      <trkpt lat="45.49394" lon="4.21178">
        <ele>392</ele>
        <time>2025-09-16T12:43:36Z</time>
      </trkpt>
      <trkpt lat="45.49391" lon="4.2118">
        <ele>398</ele>
        <time>2025-09-16T12:43:37Z</time>
      </trkpt>
      <trkpt lat="45.49388" lon="4.21183">
        <ele>397</ele>
        <time>2025-09-16T12:43:39Z</time>
      </trkpt>
      <trkpt lat="45.49384" lon="4.21185">
        <ele>393</ele>
        <time>2025-09-16T12:43:41Z</time>
      </trkpt>
      <trkpt lat="45.49385" lon="4.21185">
        <ele>387</ele>
        <time>2025-09-16T12:44:09Z</time>
      </trkpt>
      <trkpt lat="45.49384" lon="4.21188">
        <ele>394</ele>
        <time>2025-09-16T12:44:31Z</time>
      </trkpt>
      <trkpt lat="45.49382" lon="4.21189">
        <ele>396</ele>
        <time>2025-09-16T12:44:32Z</time>
      </trkpt>
      <trkpt lat="45.49377" lon="4.21188">
        <ele>393</ele>
        <time>2025-09-16T12:46:09Z</time>
      </trkpt>
      <trkpt lat="45.49376" lon="4.21186">
        <ele>392</ele>
        <time>2025-09-16T12:46:11Z</time>
      </trkpt>
      <trkpt lat="45.49375" lon="4.21181">
        <ele>392</ele>
        <time>2025-09-16T12:46:13Z</time>
      </trkpt>
      <trkpt lat="45.49375" lon="4.21177">
        <ele>394</ele>
        <time>2025-09-16T12:46:14Z</time>
      </trkpt>
      <trkpt lat="45.49375" lon="4.21171">
        <ele>391</ele>
        <time>2025-09-16T12:46:15Z</time>
      </trkpt>
      <trkpt lat="45.49375" lon="4.21166">
        <ele>392</ele>
        <time>2025-09-16T12:46:16Z</time>
      </trkpt>
      <trkpt lat="45.49375" lon="4.21162">
        <ele>391</ele>
        <time>2025-09-16T12:46:17Z</time>
      </trkpt>
      <trkpt lat="45.49375" lon="4.21156">
        <ele>397</ele>
        <time>2025-09-16T12:46:18Z</time>
      </trkpt>
      <trkpt lat="45.49375" lon="4.21151">
        <ele>393</ele>
        <time>2025-09-16T12:46:19Z</time>
      </trkpt>
      <trkpt lat="45.49375" lon="4.21144">
        <ele>392</ele>
        <time>2025-09-16T12:46:20Z</time>
      </trkpt>
      <trkpt lat="45.49376" lon="4.21137">
        <ele>394</ele>
        <time>2025-09-16T12:46:21Z</time>
      </trkpt>
      <trkpt lat="45.49376" lon="4.21131">
        <ele>393</ele>
        <time>2025-09-16T12:46:22Z</time>
      </trkpt>
      <trkpt lat="45.49376" lon="4.21126">
        <ele>392</ele>
        <time>2025-09-16T12:46:23Z</time>
      </trkpt>
      <trkpt lat="45.49376" lon="4.2112">
        <ele>391</ele>
        <time>2025-09-16T12:46:24Z</time>
      </trkpt>
      <trkpt lat="45.49376" lon="4.21115">
        <ele>388</ele>
        <time>2025-09-16T12:46:25Z</time>
      </trkpt>
      <trkpt lat="45.49373" lon="4.21109">
        <ele>379</ele>
        <time>2025-09-16T12:46:27Z</time>
      </trkpt>
      <trkpt lat="45.4937" lon="4.21105">
        <ele>382</ele>
        <time>2025-09-16T12:46:28Z</time>
      </trkpt>
      <trkpt lat="45.49366" lon="4.21102">
        <ele>389</ele>
        <time>2025-09-16T12:46:29Z</time>
      </trkpt>
      <trkpt lat="45.49361" lon="4.21099">
        <ele>393</ele>
        <time>2025-09-16T12:46:30Z</time>
      </trkpt>
      <trkpt lat="45.49356" lon="4.21099">
        <ele>393</ele>
        <time>2025-09-16T12:46:31Z</time>
      </trkpt>
      <trkpt lat="45.49352" lon="4.21099">
        <ele>391</ele>
        <time>2025-09-16T12:46:32Z</time>
      </trkpt>
      <trkpt lat="45.49348" lon="4.21099">
        <ele>386</ele>
        <time>2025-09-16T12:46:33Z</time>
      </trkpt>
      <trkpt lat="45.49344" lon="4.21099">
        <ele>381</ele>
        <time>2025-09-16T12:46:34Z</time>
      </trkpt>
      <trkpt lat="45.4934" lon="4.211">
        <ele>386</ele>
        <time>2025-09-16T12:46:35Z</time>
      </trkpt>
      <trkpt lat="45.49336" lon="4.211">
        <ele>391</ele>
        <time>2025-09-16T12:46:36Z</time>
      </trkpt>
      <trkpt lat="45.49333" lon="4.21101">
        <ele>392</ele>
        <time>2025-09-16T12:46:37Z</time>
      </trkpt>
      <trkpt lat="45.49329" lon="4.21102">
        <ele>392</ele>
        <time>2025-09-16T12:46:38Z</time>
      </trkpt>
      <trkpt lat="45.49326" lon="4.21102">
        <ele>392</ele>
        <time>2025-09-16T12:46:39Z</time>
      </trkpt>
      <trkpt lat="45.49322" lon="4.21103">
        <ele>394</ele>
        <time>2025-09-16T12:46:40Z</time>
      </trkpt>
      <trkpt lat="45.49319" lon="4.21103">
        <ele>392</ele>
        <time>2025-09-16T12:46:41Z</time>
      </trkpt>
      <trkpt lat="45.49315" lon="4.21104">
        <ele>392</ele>
        <time>2025-09-16T12:46:42Z</time>
      </trkpt>
      <trkpt lat="45.49311" lon="4.21104">
        <ele>391</ele>
        <time>2025-09-16T12:46:43Z</time>
      </trkpt>
      <trkpt lat="45.49308" lon="4.21105">
        <ele>388</ele>
        <time>2025-09-16T12:46:44Z</time>
      </trkpt>
      <trkpt lat="45.49305" lon="4.21106">
        <ele>392</ele>
        <time>2025-09-16T12:46:45Z</time>
      </trkpt>
      <trkpt lat="45.49301" lon="4.21107">
        <ele>389</ele>
        <time>2025-09-16T12:46:46Z</time>
      </trkpt>
      <trkpt lat="45.49298" lon="4.21108">
        <ele>393</ele>
        <time>2025-09-16T12:46:47Z</time>
      </trkpt>
      <trkpt lat="45.49295" lon="4.21109">
        <ele>392</ele>
        <time>2025-09-16T12:46:48Z</time>
      </trkpt>
      <trkpt lat="45.49291" lon="4.2111">
        <ele>392</ele>
        <time>2025-09-16T12:46:49Z</time>
      </trkpt>
      <trkpt lat="45.49288" lon="4.21111">
        <ele>395</ele>
        <time>2025-09-16T12:46:50Z</time>
      </trkpt>
      <trkpt lat="45.49284" lon="4.21112">
        <ele>392</ele>
        <time>2025-09-16T12:46:51Z</time>
      </trkpt>
      <trkpt lat="45.4928" lon="4.21113">
        <ele>389</ele>
        <time>2025-09-16T12:46:52Z</time>
      </trkpt>
      <trkpt lat="45.49277" lon="4.21113">
        <ele>393</ele>
        <time>2025-09-16T12:46:53Z</time>
      </trkpt>
      <trkpt lat="45.49273" lon="4.21114">
        <ele>380</ele>
        <time>2025-09-16T12:46:54Z</time>
      </trkpt>
      <trkpt lat="45.4927" lon="4.21114">
        <ele>383</ele>
        <time>2025-09-16T12:46:55Z</time>
      </trkpt>
      <trkpt lat="45.49266" lon="4.21115">
        <ele>389</ele>
        <time>2025-09-16T12:46:56Z</time>
      </trkpt>
      <trkpt lat="45.49263" lon="4.21115">
        <ele>391</ele>
        <time>2025-09-16T12:46:57Z</time>
      </trkpt>
      <trkpt lat="45.4926" lon="4.21116">
        <ele>391</ele>
        <time>2025-09-16T12:46:58Z</time>
      </trkpt>
      <trkpt lat="45.49257" lon="4.21117">
        <ele>393</ele>
        <time>2025-09-16T12:46:59Z</time>
      </trkpt>
      <trkpt lat="45.49254" lon="4.21118">
        <ele>396</ele>
        <time>2025-09-16T12:47:00Z</time>
      </trkpt>
      <trkpt lat="45.4925" lon="4.21119">
        <ele>398</ele>
        <time>2025-09-16T12:47:01Z</time>
      </trkpt>
      <trkpt lat="45.49247" lon="4.2112">
        <ele>393</ele>
        <time>2025-09-16T12:47:02Z</time>
      </trkpt>
      <trkpt lat="45.49243" lon="4.21121">
        <ele>396</ele>
        <time>2025-09-16T12:47:03Z</time>
      </trkpt>
      <trkpt lat="45.49239" lon="4.21122">
        <ele>396</ele>
        <time>2025-09-16T12:47:04Z</time>
      </trkpt>
      <trkpt lat="45.49235" lon="4.21123">
        <ele>396</ele>
        <time>2025-09-16T12:47:05Z</time>
      </trkpt>
      <trkpt lat="45.49231" lon="4.21124">
        <ele>396</ele>
        <time>2025-09-16T12:47:06Z</time>
      </trkpt>
      <trkpt lat="45.49227" lon="4.21124">
        <ele>396</ele>
        <time>2025-09-16T12:47:07Z</time>
      </trkpt>
      <trkpt lat="45.49223" lon="4.21125">
        <ele>388</ele>
        <time>2025-09-16T12:47:08Z</time>
      </trkpt>
      <trkpt lat="45.49219" lon="4.21126">
        <ele>392</ele>
        <time>2025-09-16T12:47:09Z</time>
      </trkpt>
      <trkpt lat="45.49216" lon="4.21126">
        <ele>390</ele>
        <time>2025-09-16T12:47:10Z</time>
      </trkpt>
      <trkpt lat="45.49212" lon="4.21127">
        <ele>393</ele>
        <time>2025-09-16T12:47:11Z</time>
      </trkpt>
      <trkpt lat="45.49208" lon="4.21128">
        <ele>392</ele>
        <time>2025-09-16T12:47:12Z</time>
      </trkpt>
      <trkpt lat="45.49204" lon="4.21129">
        <ele>396</ele>
        <time>2025-09-16T12:47:13Z</time>
      </trkpt>
      <trkpt lat="45.492" lon="4.2113">
        <ele>394</ele>
        <time>2025-09-16T12:47:14Z</time>
      </trkpt>
      <trkpt lat="45.49197" lon="4.21131">
        <ele>392</ele>
        <time>2025-09-16T12:47:15Z</time>
      </trkpt>
      <trkpt lat="45.49193" lon="4.21132">
        <ele>388</ele>
        <time>2025-09-16T12:47:16Z</time>
      </trkpt>
      <trkpt lat="45.49189" lon="4.21133">
        <ele>389</ele>
        <time>2025-09-16T12:47:17Z</time>
      </trkpt>
      <trkpt lat="45.49186" lon="4.21134">
        <ele>385</ele>
        <time>2025-09-16T12:47:18Z</time>
      </trkpt>
      <trkpt lat="45.49183" lon="4.21135">
        <ele>394</ele>
        <time>2025-09-16T12:47:19Z</time>
      </trkpt>
      <trkpt lat="45.4918" lon="4.21135">
        <ele>391</ele>
        <time>2025-09-16T12:47:20Z</time>
      </trkpt>
      <trkpt lat="45.49175" lon="4.21136">
        <ele>391</ele>
        <time>2025-09-16T12:47:22Z</time>
      </trkpt>
      <trkpt lat="45.49171" lon="4.21136">
        <ele>393</ele>
        <time>2025-09-16T12:47:23Z</time>
      </trkpt>
      <trkpt lat="45.49168" lon="4.21136">
        <ele>397</ele>
        <time>2025-09-16T12:47:24Z</time>
      </trkpt>
      <trkpt lat="45.49164" lon="4.21137">
        <ele>393</ele>
        <time>2025-09-16T12:47:25Z</time>
      </trkpt>
      <trkpt lat="45.4916" lon="4.21137">
        <ele>396</ele>
        <time>2025-09-16T12:47:26Z</time>
      </trkpt>
      <trkpt lat="45.49156" lon="4.21138">
        <ele>396</ele>
        <time>2025-09-16T12:47:27Z</time>
      </trkpt>
      <trkpt lat="45.49153" lon="4.21139">
        <ele>399</ele>
        <time>2025-09-16T12:47:28Z</time>
      </trkpt>
      <trkpt lat="45.49149" lon="4.2114">
        <ele>392</ele>
        <time>2025-09-16T12:47:29Z</time>
      </trkpt>
      <trkpt lat="45.49146" lon="4.2114">
        <ele>394</ele>
        <time>2025-09-16T12:47:30Z</time>
      </trkpt>
      <trkpt lat="45.49142" lon="4.21141">
        <ele>386</ele>
        <time>2025-09-16T12:47:32Z</time>
      </trkpt>
      <trkpt lat="45.49137" lon="4.21141">
        <ele>386</ele>
        <time>2025-09-16T12:47:34Z</time>
      </trkpt>
      <trkpt lat="45.49132" lon="4.21141">
        <ele>393</ele>
        <time>2025-09-16T12:47:36Z</time>
      </trkpt>
      <trkpt lat="45.49128" lon="4.21142">
        <ele>399</ele>
        <time>2025-09-16T12:47:37Z</time>
      </trkpt>
      <trkpt lat="45.49124" lon="4.21142">
        <ele>392</ele>
        <time>2025-09-16T12:47:38Z</time>
      </trkpt>
      <trkpt lat="45.4912" lon="4.21143">
        <ele>389</ele>
        <time>2025-09-16T12:47:39Z</time>
      </trkpt>
      <trkpt lat="45.49116" lon="4.21144">
        <ele>397</ele>
        <time>2025-09-16T12:47:40Z</time>
      </trkpt>
      <trkpt lat="45.49112" lon="4.21145">
        <ele>393</ele>
        <time>2025-09-16T12:47:41Z</time>
      </trkpt>
      <trkpt lat="45.49108" lon="4.21146">
        <ele>392</ele>
        <time>2025-09-16T12:47:42Z</time>
      </trkpt>
      <trkpt lat="45.49105" lon="4.21147">
        <ele>389</ele>
        <time>2025-09-16T12:47:43Z</time>
      </trkpt>
      <trkpt lat="45.49101" lon="4.21149">
        <ele>393</ele>
        <time>2025-09-16T12:47:44Z</time>
      </trkpt>
      <trkpt lat="45.49097" lon="4.2115">
        <ele>395</ele>
        <time>2025-09-16T12:47:45Z</time>
      </trkpt>
      <trkpt lat="45.49094" lon="4.21151">
        <ele>395</ele>
        <time>2025-09-16T12:47:46Z</time>
      </trkpt>
      <trkpt lat="45.4909" lon="4.21152">
        <ele>391</ele>
        <time>2025-09-16T12:47:48Z</time>
      </trkpt>
      <trkpt lat="45.49087" lon="4.21153">
        <ele>394</ele>
        <time>2025-09-16T12:47:49Z</time>
      </trkpt>
      <trkpt lat="45.49083" lon="4.21155">
        <ele>395</ele>
        <time>2025-09-16T12:47:50Z</time>
      </trkpt>
      <trkpt lat="45.49079" lon="4.21156">
        <ele>399</ele>
        <time>2025-09-16T12:47:51Z</time>
      </trkpt>
      <trkpt lat="45.49076" lon="4.21157">
        <ele>392</ele>
        <time>2025-09-16T12:47:52Z</time>
      </trkpt>
      <trkpt lat="45.49072" lon="4.21158">
        <ele>392</ele>
        <time>2025-09-16T12:47:53Z</time>
      </trkpt>
      <trkpt lat="45.49068" lon="4.2116">
        <ele>396</ele>
        <time>2025-09-16T12:47:54Z</time>
      </trkpt>
      <trkpt lat="45.49065" lon="4.21161">
        <ele>393</ele>
        <time>2025-09-16T12:47:55Z</time>
      </trkpt>
      <trkpt lat="45.49061" lon="4.21162">
        <ele>396</ele>
        <time>2025-09-16T12:47:56Z</time>
      </trkpt>
      <trkpt lat="45.49058" lon="4.21165">
        <ele>389</ele>
        <time>2025-09-16T12:47:57Z</time>
      </trkpt>
      <trkpt lat="45.49056" lon="4.21168">
        <ele>390</ele>
        <time>2025-09-16T12:47:58Z</time>
      </trkpt>
      <trkpt lat="45.49055" lon="4.21171">
        <ele>387</ele>
        <time>2025-09-16T12:47:59Z</time>
      </trkpt>
      <trkpt lat="45.49056" lon="4.21176">
        <ele>386</ele>
        <time>2025-09-16T12:48:01Z</time>
      </trkpt>
      <trkpt lat="45.49058" lon="4.21182">
        <ele>394</ele>
        <time>2025-09-16T12:48:03Z</time>
      </trkpt>
      <trkpt lat="45.49061" lon="4.21185">
        <ele>389</ele>
        <time>2025-09-16T12:48:04Z</time>
      </trkpt>
      <trkpt lat="45.49064" lon="4.21189">
        <ele>392</ele>
        <time>2025-09-16T12:48:05Z</time>
      </trkpt>
      <trkpt lat="45.49066" lon="4.21192">
        <ele>395</ele>
        <time>2025-09-16T12:48:06Z</time>
      </trkpt>
      <trkpt lat="45.49069" lon="4.21196">
        <ele>394</ele>
        <time>2025-09-16T12:48:07Z</time>
      </trkpt>
      <trkpt lat="45.49072" lon="4.212">
        <ele>395</ele>
        <time>2025-09-16T12:48:08Z</time>
      </trkpt>
      <trkpt lat="45.49074" lon="4.21204">
        <ele>395</ele>
        <time>2025-09-16T12:48:09Z</time>
      </trkpt>
      <trkpt lat="45.49075" lon="4.21208">
        <ele>397</ele>
        <time>2025-09-16T12:48:10Z</time>
      </trkpt>
      <trkpt lat="45.49075" lon="4.21214">
        <ele>393</ele>
        <time>2025-09-16T12:48:12Z</time>
      </trkpt>
      <trkpt lat="45.49073" lon="4.21217">
        <ele>395</ele>
        <time>2025-09-16T12:48:13Z</time>
      </trkpt>
      <trkpt lat="45.4907" lon="4.21219">
        <ele>386</ele>
        <time>2025-09-16T12:48:14Z</time>
      </trkpt>
      <trkpt lat="45.49066" lon="4.21221">
        <ele>394</ele>
        <time>2025-09-16T12:48:15Z</time>
      </trkpt>
      <trkpt lat="45.49063" lon="4.21222">
        <ele>395</ele>
        <time>2025-09-16T12:48:16Z</time>
      </trkpt>
      <trkpt lat="45.49059" lon="4.21224">
        <ele>393</ele>
        <time>2025-09-16T12:48:17Z</time>
      </trkpt>
      <trkpt lat="45.49055" lon="4.21225">
        <ele>386</ele>
        <time>2025-09-16T12:48:18Z</time>
      </trkpt>
      <trkpt lat="45.49052" lon="4.21227">
        <ele>396</ele>
        <time>2025-09-16T12:48:19Z</time>
      </trkpt>
      <trkpt lat="45.49049" lon="4.21228">
        <ele>392</ele>
        <time>2025-09-16T12:48:20Z</time>
      </trkpt>
      <trkpt lat="45.49045" lon="4.2123">
        <ele>392</ele>
        <time>2025-09-16T12:48:21Z</time>
      </trkpt>
      <trkpt lat="45.49042" lon="4.21231">
        <ele>389</ele>
        <time>2025-09-16T12:48:22Z</time>
      </trkpt>
      <trkpt lat="45.49038" lon="4.21233">
        <ele>397</ele>
        <time>2025-09-16T12:48:23Z</time>
      </trkpt>
      <trkpt lat="45.49035" lon="4.21236">
        <ele>390</ele>
        <time>2025-09-16T12:48:24Z</time>
      </trkpt>
      <trkpt lat="45.49031" lon="4.21238">
        <ele>397</ele>
        <time>2025-09-16T12:48:25Z</time>
      </trkpt>
      <trkpt lat="45.49028" lon="4.21239">
        <ele>399</ele>
        <time>2025-09-16T12:48:26Z</time>
      </trkpt>
      <trkpt lat="45.49024" lon="4.2124">
        <ele>395</ele>
        <time>2025-09-16T12:48:27Z</time>
      </trkpt>
      <trkpt lat="45.49021" lon="4.21242">
        <ele>390</ele>
        <time>2025-09-16T12:48:28Z</time>
      </trkpt>
      <trkpt lat="45.49017" lon="4.21243">
        <ele>387</ele>
        <time>2025-09-16T12:48:29Z</time>
      </trkpt>
      <trkpt lat="45.49014" lon="4.21244">
        <ele>397</ele>
        <time>2025-09-16T12:48:30Z</time>
      </trkpt>
      <trkpt lat="45.49011" lon="4.21245">
        <ele>396</ele>
        <time>2025-09-16T12:48:31Z</time>
      </trkpt>
      <trkpt lat="45.49008" lon="4.21246">
        <ele>395</ele>
        <time>2025-09-16T12:48:32Z</time>
      </trkpt>
      <trkpt lat="45.49005" lon="4.21248">
        <ele>392</ele>
        <time>2025-09-16T12:48:33Z</time>
      </trkpt>
      <trkpt lat="45.49002" lon="4.21249">
        <ele>399</ele>
        <time>2025-09-16T12:48:34Z</time>
      </trkpt>
      <trkpt lat="45.48999" lon="4.21251">
        <ele>396</ele>
        <time>2025-09-16T12:48:35Z</time>
      </trkpt>
      <trkpt lat="45.48995" lon="4.21252">
        <ele>399</ele>
        <time>2025-09-16T12:48:36Z</time>
      </trkpt>
      <trkpt lat="45.48992" lon="4.21254">
        <ele>391</ele>
        <time>2025-09-16T12:48:37Z</time>
      </trkpt>
      <trkpt lat="45.48988" lon="4.21255">
        <ele>398</ele>
        <time>2025-09-16T12:48:38Z</time>
      </trkpt>
      <trkpt lat="45.48985" lon="4.21256">
        <ele>394</ele>
        <time>2025-09-16T12:48:39Z</time>
      </trkpt>
      <trkpt lat="45.48982" lon="4.21257">
        <ele>402</ele>
        <time>2025-09-16T12:48:40Z</time>
      </trkpt>
      <trkpt lat="45.48978" lon="4.21258">
        <ele>397</ele>
        <time>2025-09-16T12:48:41Z</time>
      </trkpt>
      <trkpt lat="45.48975" lon="4.2126">
        <ele>392</ele>
        <time>2025-09-16T12:48:42Z</time>
      </trkpt>
      <trkpt lat="45.48972" lon="4.21261">
        <ele>395</ele>
        <time>2025-09-16T12:48:43Z</time>
      </trkpt>
      <trkpt lat="45.48969" lon="4.21262">
        <ele>400</ele>
        <time>2025-09-16T12:48:44Z</time>
      </trkpt>
      <trkpt lat="45.48966" lon="4.21264">
        <ele>399</ele>
        <time>2025-09-16T12:48:45Z</time>
      </trkpt>
      <trkpt lat="45.48962" lon="4.21266">
        <ele>392</ele>
        <time>2025-09-16T12:48:46Z</time>
      </trkpt>
      <trkpt lat="45.48959" lon="4.21268">
        <ele>397</ele>
        <time>2025-09-16T12:48:47Z</time>
      </trkpt>
      <trkpt lat="45.48955" lon="4.2127">
        <ele>402</ele>
        <time>2025-09-16T12:48:48Z</time>
      </trkpt>
      <trkpt lat="45.48952" lon="4.21272">
        <ele>390</ele>
        <time>2025-09-16T12:48:49Z</time>
      </trkpt>
      <trkpt lat="45.48948" lon="4.21274">
        <ele>398</ele>
        <time>2025-09-16T12:48:50Z</time>
      </trkpt>
      <trkpt lat="45.48945" lon="4.21276">
        <ele>395</ele>
        <time>2025-09-16T12:48:51Z</time>
      </trkpt>
      <trkpt lat="45.48941" lon="4.21278">
        <ele>398</ele>
        <time>2025-09-16T12:48:52Z</time>
      </trkpt>
      <trkpt lat="45.48937" lon="4.21279">
        <ele>397</ele>
        <time>2025-09-16T12:48:53Z</time>
      </trkpt>
      <trkpt lat="45.48933" lon="4.21281">
        <ele>396</ele>
        <time>2025-09-16T12:48:54Z</time>
      </trkpt>
      <trkpt lat="45.48929" lon="4.21282">
        <ele>398</ele>
        <time>2025-09-16T12:48:55Z</time>
      </trkpt>
      <trkpt lat="45.48926" lon="4.21283">
        <ele>388</ele>
        <time>2025-09-16T12:48:56Z</time>
      </trkpt>
      <trkpt lat="45.48922" lon="4.21284">
        <ele>396</ele>
        <time>2025-09-16T12:48:57Z</time>
      </trkpt>
      <trkpt lat="45.48918" lon="4.21286">
        <ele>398</ele>
        <time>2025-09-16T12:48:58Z</time>
      </trkpt>
      <trkpt lat="45.48915" lon="4.21287">
        <ele>399</ele>
        <time>2025-09-16T12:48:59Z</time>
      </trkpt>
      <trkpt lat="45.48911" lon="4.21289">
        <ele>392</ele>
        <time>2025-09-16T12:49:00Z</time>
      </trkpt>
      <trkpt lat="45.48907" lon="4.2129">
        <ele>399</ele>
        <time>2025-09-16T12:49:01Z</time>
      </trkpt>
      <trkpt lat="45.48904" lon="4.21291">
        <ele>394</ele>
        <time>2025-09-16T12:49:02Z</time>
      </trkpt>
      <trkpt lat="45.489" lon="4.21293">
        <ele>397</ele>
        <time>2025-09-16T12:49:03Z</time>
      </trkpt>
      <trkpt lat="45.48896" lon="4.21294">
        <ele>389</ele>
        <time>2025-09-16T12:49:04Z</time>
      </trkpt>
      <trkpt lat="45.48892" lon="4.21295">
        <ele>402</ele>
        <time>2025-09-16T12:49:05Z</time>
      </trkpt>
      <trkpt lat="45.48889" lon="4.21297">
        <ele>397</ele>
        <time>2025-09-16T12:49:06Z</time>
      </trkpt>
      <trkpt lat="45.48885" lon="4.21298">
        <ele>395</ele>
        <time>2025-09-16T12:49:07Z</time>
      </trkpt>
      <trkpt lat="45.48882" lon="4.21299">
        <ele>395</ele>
        <time>2025-09-16T12:49:08Z</time>
      </trkpt>
      <trkpt lat="45.48879" lon="4.213">
        <ele>398</ele>
        <time>2025-09-16T12:49:09Z</time>
      </trkpt>
      <trkpt lat="45.48875" lon="4.213">
        <ele>399</ele>
        <time>2025-09-16T12:49:10Z</time>
      </trkpt>
      <trkpt lat="45.48872" lon="4.21301">
        <ele>393</ele>
        <time>2025-09-16T12:49:11Z</time>
      </trkpt>
      <trkpt lat="45.48868" lon="4.21302">
        <ele>400</ele>
        <time>2025-09-16T12:49:12Z</time>
      </trkpt>
      <trkpt lat="45.48865" lon="4.21302">
        <ele>400</ele>
        <time>2025-09-16T12:49:13Z</time>
      </trkpt>
      <trkpt lat="45.48861" lon="4.21303">
        <ele>404</ele>
        <time>2025-09-16T12:49:14Z</time>
      </trkpt>
      <trkpt lat="45.48858" lon="4.21303">
        <ele>394</ele>
        <time>2025-09-16T12:49:15Z</time>
      </trkpt>
      <trkpt lat="45.48854" lon="4.21304">
        <ele>399</ele>
        <time>2025-09-16T12:49:16Z</time>
      </trkpt>
      <trkpt lat="45.48851" lon="4.21305">
        <ele>397</ele>
        <time>2025-09-16T12:49:17Z</time>
      </trkpt>
      <trkpt lat="45.48847" lon="4.21305">
        <ele>400</ele>
        <time>2025-09-16T12:49:18Z</time>
      </trkpt>
      <trkpt lat="45.48843" lon="4.21306">
        <ele>394</ele>
        <time>2025-09-16T12:49:19Z</time>
      </trkpt>
      <trkpt lat="45.48839" lon="4.21307">
        <ele>400</ele>
        <time>2025-09-16T12:49:20Z</time>
      </trkpt>
      <trkpt lat="45.48836" lon="4.21307">
        <ele>404</ele>
        <time>2025-09-16T12:49:21Z</time>
      </trkpt>
      <trkpt lat="45.48833" lon="4.21308">
        <ele>398</ele>
        <time>2025-09-16T12:49:22Z</time>
      </trkpt>
      <trkpt lat="45.48829" lon="4.21309">
        <ele>398</ele>
        <time>2025-09-16T12:49:23Z</time>
      </trkpt>
      <trkpt lat="45.48826" lon="4.2131">
        <ele>396</ele>
        <time>2025-09-16T12:49:24Z</time>
      </trkpt>
      <trkpt lat="45.48822" lon="4.21311">
        <ele>396</ele>
        <time>2025-09-16T12:49:25Z</time>
      </trkpt>
      <trkpt lat="45.48819" lon="4.21312">
        <ele>402</ele>
        <time>2025-09-16T12:49:26Z</time>
      </trkpt>
      <trkpt lat="45.48815" lon="4.21313">
        <ele>393</ele>
        <time>2025-09-16T12:49:27Z</time>
      </trkpt>
      <trkpt lat="45.48811" lon="4.21314">
        <ele>400</ele>
        <time>2025-09-16T12:49:28Z</time>
      </trkpt>
      <trkpt lat="45.48808" lon="4.21315">
        <ele>398</ele>
        <time>2025-09-16T12:49:29Z</time>
      </trkpt>
      <trkpt lat="45.48803" lon="4.21316">
        <ele>398</ele>
        <time>2025-09-16T12:49:31Z</time>
      </trkpt>
      <trkpt lat="45.488" lon="4.21317">
        <ele>392</ele>
        <time>2025-09-16T12:49:32Z</time>
      </trkpt>
      <trkpt lat="45.48797" lon="4.21317">
        <ele>401</ele>
        <time>2025-09-16T12:49:33Z</time>
      </trkpt>
      <trkpt lat="45.48794" lon="4.21318">
        <ele>400</ele>
        <time>2025-09-16T12:49:34Z</time>
      </trkpt>
      <trkpt lat="45.48791" lon="4.21318">
        <ele>403</ele>
        <time>2025-09-16T12:49:35Z</time>
      </trkpt>
      <trkpt lat="45.48787" lon="4.21319">
        <ele>394</ele>
        <time>2025-09-16T12:49:36Z</time>
      </trkpt>
      <trkpt lat="45.48784" lon="4.2132">
        <ele>395</ele>
        <time>2025-09-16T12:49:37Z</time>
      </trkpt>
      <trkpt lat="45.4878" lon="4.21321">
        <ele>393</ele>
        <time>2025-09-16T12:49:38Z</time>
      </trkpt>
      <trkpt lat="45.48777" lon="4.21321">
        <ele>395</ele>
        <time>2025-09-16T12:49:39Z</time>
      </trkpt>
      <trkpt lat="45.48774" lon="4.21321">
        <ele>402</ele>
        <time>2025-09-16T12:49:40Z</time>
      </trkpt>
      <trkpt lat="45.4877" lon="4.2132">
        <ele>397</ele>
        <time>2025-09-16T12:49:41Z</time>
      </trkpt>
      <trkpt lat="45.48767" lon="4.21319">
        <ele>405</ele>
        <time>2025-09-16T12:49:42Z</time>
      </trkpt>
      <trkpt lat="45.48763" lon="4.21319">
        <ele>397</ele>
        <time>2025-09-16T12:49:43Z</time>
      </trkpt>
      <trkpt lat="45.4876" lon="4.2132">
        <ele>401</ele>
        <time>2025-09-16T12:49:44Z</time>
      </trkpt>
      <trkpt lat="45.48756" lon="4.21321">
        <ele>399</ele>
        <time>2025-09-16T12:49:45Z</time>
      </trkpt>
      <trkpt lat="45.48753" lon="4.21322">
        <ele>398</ele>
        <time>2025-09-16T12:49:46Z</time>
      </trkpt>
      <trkpt lat="45.48749" lon="4.21323">
        <ele>401</ele>
        <time>2025-09-16T12:49:47Z</time>
      </trkpt>
      <trkpt lat="45.48745" lon="4.21324">
        <ele>401</ele>
        <time>2025-09-16T12:49:48Z</time>
      </trkpt>
      <trkpt lat="45.48742" lon="4.21325">
        <ele>396</ele>
        <time>2025-09-16T12:49:49Z</time>
      </trkpt>
      <trkpt lat="45.48738" lon="4.21326">
        <ele>394</ele>
        <time>2025-09-16T12:49:50Z</time>
      </trkpt>
      <trkpt lat="45.48735" lon="4.21327">
        <ele>400</ele>
        <time>2025-09-16T12:49:51Z</time>
      </trkpt>
      <trkpt lat="45.48731" lon="4.21328">
        <ele>398</ele>
        <time>2025-09-16T12:49:52Z</time>
      </trkpt>
      <trkpt lat="45.48728" lon="4.21329">
        <ele>400</ele>
        <time>2025-09-16T12:49:53Z</time>
      </trkpt>
      <trkpt lat="45.48724" lon="4.2133">
        <ele>394</ele>
        <time>2025-09-16T12:49:54Z</time>
      </trkpt>
      <trkpt lat="45.48721" lon="4.21331">
        <ele>403</ele>
        <time>2025-09-16T12:49:55Z</time>
      </trkpt>
      <trkpt lat="45.48717" lon="4.21332">
        <ele>398</ele>
        <time>2025-09-16T12:49:56Z</time>
      </trkpt>
      <trkpt lat="45.48714" lon="4.21334">
        <ele>400</ele>
        <time>2025-09-16T12:49:57Z</time>
      </trkpt>
      <trkpt lat="45.48711" lon="4.21335">
        <ele>397</ele>
        <time>2025-09-16T12:49:58Z</time>
      </trkpt>
      <trkpt lat="45.48708" lon="4.21336">
        <ele>392</ele>
        <time>2025-09-16T12:49:59Z</time>
      </trkpt>
      <trkpt lat="45.48704" lon="4.21338">
        <ele>402</ele>
        <time>2025-09-16T12:50:00Z</time>
      </trkpt>
      <trkpt lat="45.487" lon="4.21339">
        <ele>398</ele>
        <time>2025-09-16T12:50:01Z</time>
      </trkpt>
      <trkpt lat="45.48697" lon="4.21341">
        <ele>406</ele>
        <time>2025-09-16T12:50:02Z</time>
      </trkpt>
      <trkpt lat="45.48693" lon="4.21342">
        <ele>391</ele>
        <time>2025-09-16T12:50:03Z</time>
      </trkpt>
      <trkpt lat="45.4869" lon="4.21344">
        <ele>394</ele>
        <time>2025-09-16T12:50:04Z</time>
      </trkpt>
      <trkpt lat="45.48687" lon="4.21345">
        <ele>395</ele>
        <time>2025-09-16T12:50:05Z</time>
      </trkpt>
      <trkpt lat="45.48683" lon="4.21347">
        <ele>398</ele>
        <time>2025-09-16T12:50:06Z</time>
      </trkpt>
      <trkpt lat="45.4868" lon="4.21348">
        <ele>405</ele>
        <time>2025-09-16T12:50:07Z</time>
      </trkpt>
      <trkpt lat="45.48677" lon="4.21349">
        <ele>401</ele>
        <time>2025-09-16T12:50:08Z</time>
      </trkpt>
      <trkpt lat="45.48673" lon="4.2135">
        <ele>404</ele>
        <time>2025-09-16T12:50:09Z</time>
      </trkpt>
      <trkpt lat="45.4867" lon="4.21351">
        <ele>399</ele>
        <time>2025-09-16T12:50:10Z</time>
      </trkpt>
      <trkpt lat="45.48666" lon="4.21352">
        <ele>398</ele>
        <time>2025-09-16T12:50:11Z</time>
      </trkpt>
      <trkpt lat="45.48663" lon="4.21352">
        <ele>400</ele>
        <time>2025-09-16T12:50:12Z</time>
      </trkpt>
      <trkpt lat="45.4866" lon="4.21353">
        <ele>398</ele>
        <time>2025-09-16T12:50:13Z</time>
      </trkpt>
      <trkpt lat="45.48657" lon="4.21354">
        <ele>403</ele>
        <time>2025-09-16T12:50:14Z</time>
      </trkpt>
      <trkpt lat="45.48654" lon="4.21355">
        <ele>386</ele>
        <time>2025-09-16T12:50:15Z</time>
      </trkpt>
      <trkpt lat="45.48651" lon="4.21356">
        <ele>395</ele>
        <time>2025-09-16T12:50:16Z</time>
      </trkpt>
      <trkpt lat="45.48647" lon="4.21356">
        <ele>397</ele>
        <time>2025-09-16T12:50:17Z</time>
      </trkpt>
      <trkpt lat="45.48644" lon="4.21357">
        <ele>400</ele>
        <time>2025-09-16T12:50:18Z</time>
      </trkpt>
      <trkpt lat="45.48641" lon="4.21357">
        <ele>401</ele>
        <time>2025-09-16T12:50:19Z</time>
      </trkpt>
      <trkpt lat="45.48638" lon="4.21358">
        <ele>405</ele>
        <time>2025-09-16T12:50:20Z</time>
      </trkpt>
      <trkpt lat="45.48635" lon="4.21359">
        <ele>390</ele>
        <time>2025-09-16T12:50:21Z</time>
      </trkpt>
      <trkpt lat="45.48631" lon="4.21359">
        <ele>401</ele>
        <time>2025-09-16T12:50:22Z</time>
      </trkpt>
      <trkpt lat="45.48628" lon="4.2136">
        <ele>400</ele>
        <time>2025-09-16T12:50:23Z</time>
      </trkpt>
      <trkpt lat="45.48624" lon="4.21361">
        <ele>400</ele>
        <time>2025-09-16T12:50:24Z</time>
      </trkpt>
      <trkpt lat="45.48621" lon="4.21363">
        <ele>405</ele>
        <time>2025-09-16T12:50:25Z</time>
      </trkpt>
      <trkpt lat="45.48617" lon="4.21364">
        <ele>399</ele>
        <time>2025-09-16T12:50:26Z</time>
      </trkpt>
      <trkpt lat="45.48614" lon="4.21366">
        <ele>397</ele>
        <time>2025-09-16T12:50:27Z</time>
      </trkpt>
      <trkpt lat="45.4861" lon="4.21367">
        <ele>393</ele>
        <time>2025-09-16T12:50:28Z</time>
      </trkpt>
      <trkpt lat="45.48607" lon="4.2137">
        <ele>405</ele>
        <time>2025-09-16T12:50:30Z</time>
      </trkpt>
      <trkpt lat="45.48605" lon="4.21373">
        <ele>398</ele>
        <time>2025-09-16T12:50:32Z</time>
      </trkpt>
      <trkpt lat="45.48604" lon="4.21379">
        <ele>397</ele>
        <time>2025-09-16T12:50:34Z</time>
      </trkpt>
      <trkpt lat="45.48604" lon="4.21385">
        <ele>400</ele>
        <time>2025-09-16T12:50:35Z</time>
      </trkpt>
      <trkpt lat="45.48604" lon="4.2139">
        <ele>401</ele>
        <time>2025-09-16T12:50:36Z</time>
      </trkpt>
      <trkpt lat="45.48605" lon="4.21394">
        <ele>397</ele>
        <time>2025-09-16T12:50:37Z</time>
      </trkpt>
      <trkpt lat="45.48606" lon="4.21401">
        <ele>397</ele>
        <time>2025-09-16T12:50:39Z</time>
      </trkpt>
      <trkpt lat="45.48606" lon="4.21408">
        <ele>403</ele>
        <time>2025-09-16T12:50:40Z</time>
      </trkpt>
      <trkpt lat="45.48607" lon="4.21414">
        <ele>401</ele>
        <time>2025-09-16T12:50:41Z</time>
      </trkpt>
      <trkpt lat="45.48607" lon="4.21419">
        <ele>400</ele>
        <time>2025-09-16T12:50:42Z</time>
      </trkpt>
      <trkpt lat="45.48608" lon="4.21426">
        <ele>402</ele>
        <time>2025-09-16T12:50:43Z</time>
      </trkpt>
      <trkpt lat="45.4861" lon="4.21432">
        <ele>404</ele>
        <time>2025-09-16T12:50:44Z</time>
      </trkpt>
      <trkpt lat="45.48611" lon="4.21438">
        <ele>401</ele>
        <time>2025-09-16T12:50:45Z</time>
      </trkpt>
      <trkpt lat="45.48613" lon="4.21442">
        <ele>404</ele>
        <time>2025-09-16T12:50:46Z</time>
      </trkpt>
      <trkpt lat="45.48615" lon="4.21447">
        <ele>401</ele>
        <time>2025-09-16T12:50:47Z</time>
      </trkpt>
      <trkpt lat="45.48617" lon="4.21452">
        <ele>396</ele>
        <time>2025-09-16T12:50:48Z</time>
      </trkpt>
      <trkpt lat="45.48618" lon="4.21456">
        <ele>396</ele>
        <time>2025-09-16T12:50:49Z</time>
      </trkpt>
      <trkpt lat="45.4862" lon="4.2146">
        <ele>404</ele>
        <time>2025-09-16T12:50:50Z</time>
      </trkpt>
      <trkpt lat="45.48622" lon="4.21465">
        <ele>402</ele>
        <time>2025-09-16T12:50:51Z</time>
      </trkpt>
      <trkpt lat="45.48624" lon="4.21469">
        <ele>403</ele>
        <time>2025-09-16T12:50:52Z</time>
      </trkpt>
      <trkpt lat="45.48626" lon="4.21473">
        <ele>408</ele>
        <time>2025-09-16T12:50:53Z</time>
      </trkpt>
      <trkpt lat="45.48628" lon="4.21477">
        <ele>407</ele>
        <time>2025-09-16T12:50:54Z</time>
      </trkpt>
      <trkpt lat="45.48629" lon="4.21482">
        <ele>405</ele>
        <time>2025-09-16T12:50:55Z</time>
      </trkpt>
      <trkpt lat="45.48631" lon="4.21486">
        <ele>392</ele>
        <time>2025-09-16T12:50:56Z</time>
      </trkpt>
      <trkpt lat="45.48633" lon="4.21491">
        <ele>393</ele>
        <time>2025-09-16T12:50:57Z</time>
      </trkpt>
      <trkpt lat="45.48635" lon="4.21496">
        <ele>397</ele>
        <time>2025-09-16T12:50:58Z</time>
      </trkpt>
      <trkpt lat="45.48637" lon="4.21501">
        <ele>404</ele>
        <time>2025-09-16T12:50:59Z</time>
      </trkpt>
      <trkpt lat="45.48639" lon="4.21505">
        <ele>405</ele>
        <time>2025-09-16T12:51:00Z</time>
      </trkpt>
      <trkpt lat="45.48641" lon="4.2151">
        <ele>401</ele>
        <time>2025-09-16T12:51:01Z</time>
      </trkpt>
      <trkpt lat="45.48642" lon="4.21514">
        <ele>403</ele>
        <time>2025-09-16T12:51:02Z</time>
      </trkpt>
      <trkpt lat="45.48644" lon="4.21518">
        <ele>398</ele>
        <time>2025-09-16T12:51:03Z</time>
      </trkpt>
      <trkpt lat="45.48645" lon="4.21522">
        <ele>400</ele>
        <time>2025-09-16T12:51:04Z</time>
      </trkpt>
      <trkpt lat="45.48647" lon="4.21526">
        <ele>401</ele>
        <time>2025-09-16T12:51:05Z</time>
      </trkpt>
      <trkpt lat="45.48649" lon="4.21531">
        <ele>401</ele>
        <time>2025-09-16T12:51:06Z</time>
      </trkpt>
      <trkpt lat="45.48651" lon="4.21535">
        <ele>398</ele>
        <time>2025-09-16T12:51:07Z</time>
      </trkpt>
      <trkpt lat="45.48653" lon="4.21539">
        <ele>399</ele>
        <time>2025-09-16T12:51:08Z</time>
      </trkpt>
      <trkpt lat="45.48655" lon="4.21544">
        <ele>398</ele>
        <time>2025-09-16T12:51:09Z</time>
      </trkpt>
      <trkpt lat="45.48656" lon="4.21548">
        <ele>401</ele>
        <time>2025-09-16T12:51:10Z</time>
      </trkpt>
      <trkpt lat="45.48659" lon="4.21553">
        <ele>403</ele>
        <time>2025-09-16T12:51:11Z</time>
      </trkpt>
      <trkpt lat="45.48661" lon="4.21559">
        <ele>402</ele>
        <time>2025-09-16T12:51:12Z</time>
      </trkpt>
      <trkpt lat="45.48663" lon="4.21564">
        <ele>400</ele>
        <time>2025-09-16T12:51:13Z</time>
      </trkpt>
      <trkpt lat="45.48665" lon="4.2157">
        <ele>395</ele>
        <time>2025-09-16T12:51:14Z</time>
      </trkpt>
      <trkpt lat="45.48667" lon="4.21576">
        <ele>400</ele>
        <time>2025-09-16T12:51:15Z</time>
      </trkpt>
      <trkpt lat="45.48669" lon="4.21582">
        <ele>400</ele>
        <time>2025-09-16T12:51:16Z</time>
      </trkpt>
      <trkpt lat="45.48669" lon="4.21587">
        <ele>407</ele>
        <time>2025-09-16T12:51:17Z</time>
      </trkpt>
      <trkpt lat="45.48668" lon="4.21591">
        <ele>403</ele>
        <time>2025-09-16T12:51:18Z</time>
      </trkpt>
      <trkpt lat="45.48666" lon="4.21594">
        <ele>401</ele>
        <time>2025-09-16T12:51:19Z</time>
      </trkpt>
      <trkpt lat="45.48663" lon="4.21595">
        <ele>404</ele>
        <time>2025-09-16T12:51:20Z</time>
      </trkpt>
      <trkpt lat="45.4866" lon="4.21596">
        <ele>400</ele>
        <time>2025-09-16T12:51:21Z</time>
      </trkpt>
      <trkpt lat="45.48656" lon="4.21596">
        <ele>405</ele>
        <time>2025-09-16T12:51:22Z</time>
      </trkpt>
      <trkpt lat="45.48653" lon="4.21596">
        <ele>401</ele>
        <time>2025-09-16T12:51:23Z</time>
      </trkpt>
      <trkpt lat="45.4865" lon="4.21596">
        <ele>402</ele>
        <time>2025-09-16T12:51:24Z</time>
      </trkpt>
      <trkpt lat="45.48647" lon="4.21596">
        <ele>402</ele>
        <time>2025-09-16T12:51:25Z</time>
      </trkpt>
      <trkpt lat="45.48644" lon="4.21596">
        <ele>399</ele>
        <time>2025-09-16T12:51:26Z</time>
      </trkpt>
      <trkpt lat="45.48641" lon="4.21597">
        <ele>395</ele>
        <time>2025-09-16T12:51:27Z</time>
      </trkpt>
      <trkpt lat="45.48637" lon="4.21598">
        <ele>393</ele>
        <time>2025-09-16T12:51:29Z</time>
      </trkpt>
      <trkpt lat="45.48632" lon="4.216">
        <ele>396</ele>
        <time>2025-09-16T12:51:31Z</time>
      </trkpt>
      <trkpt lat="45.48628" lon="4.21601">
        <ele>401</ele>
        <time>2025-09-16T12:51:32Z</time>
      </trkpt>
      <trkpt lat="45.48625" lon="4.21602">
        <ele>404</ele>
        <time>2025-09-16T12:51:33Z</time>
      </trkpt>
      <trkpt lat="45.48622" lon="4.21603">
        <ele>400</ele>
        <time>2025-09-16T12:51:34Z</time>
      </trkpt>
      <trkpt lat="45.48618" lon="4.21605">
        <ele>402</ele>
        <time>2025-09-16T12:51:36Z</time>
      </trkpt>
      <trkpt lat="45.48614" lon="4.21606">
        <ele>403</ele>
        <time>2025-09-16T12:51:37Z</time>
      </trkpt>
      <trkpt lat="45.4861" lon="4.21608">
        <ele>405</ele>
        <time>2025-09-16T12:51:39Z</time>
      </trkpt>
      <trkpt lat="45.48606" lon="4.21609">
        <ele>406</ele>
        <time>2025-09-16T12:51:40Z</time>
      </trkpt>
      <trkpt lat="45.48601" lon="4.2161">
        <ele>406</ele>
        <time>2025-09-16T12:51:42Z</time>
      </trkpt>
      <trkpt lat="45.48598" lon="4.21611">
        <ele>404</ele>
        <time>2025-09-16T12:51:43Z</time>
      </trkpt>
      <trkpt lat="45.48594" lon="4.21612">
        <ele>391</ele>
        <time>2025-09-16T12:51:44Z</time>
      </trkpt>
      <trkpt lat="45.48591" lon="4.21613">
        <ele>405</ele>
        <time>2025-09-16T12:51:45Z</time>
      </trkpt>
      <trkpt lat="45.48588" lon="4.21614">
        <ele>401</ele>
        <time>2025-09-16T12:51:46Z</time>
      </trkpt>
      <trkpt lat="45.48585" lon="4.21614">
        <ele>406</ele>
        <time>2025-09-16T12:51:47Z</time>
      </trkpt>
      <trkpt lat="45.48582" lon="4.21614">
        <ele>405</ele>
        <time>2025-09-16T12:51:48Z</time>
      </trkpt>
      <trkpt lat="45.48578" lon="4.21615">
        <ele>398</ele>
        <time>2025-09-16T12:51:49Z</time>
      </trkpt>
      <trkpt lat="45.48575" lon="4.21615">
        <ele>404</ele>
        <time>2025-09-16T12:51:50Z</time>
      </trkpt>
      <trkpt lat="45.48572" lon="4.21615">
        <ele>409</ele>
        <time>2025-09-16T12:51:51Z</time>
      </trkpt>
      <trkpt lat="45.48569" lon="4.21615">
        <ele>404</ele>
        <time>2025-09-16T12:51:52Z</time>
      </trkpt>
      <trkpt lat="45.48565" lon="4.21615">
        <ele>405</ele>
        <time>2025-09-16T12:51:53Z</time>
      </trkpt>
      <trkpt lat="45.48562" lon="4.21616">
        <ele>407</ele>
        <time>2025-09-16T12:51:54Z</time>
      </trkpt>
      <trkpt lat="45.48558" lon="4.21616">
        <ele>405</ele>
        <time>2025-09-16T12:51:55Z</time>
      </trkpt>
      <trkpt lat="45.48554" lon="4.21616">
        <ele>410</ele>
        <time>2025-09-16T12:51:56Z</time>
      </trkpt>
      <trkpt lat="45.4855" lon="4.21616">
        <ele>404</ele>
        <time>2025-09-16T12:51:57Z</time>
      </trkpt>
      <trkpt lat="45.48546" lon="4.21617">
        <ele>410</ele>
        <time>2025-09-16T12:51:58Z</time>
      </trkpt>
      <trkpt lat="45.48542" lon="4.21618">
        <ele>408</ele>
        <time>2025-09-16T12:51:59Z</time>
      </trkpt>
      <trkpt lat="45.48539" lon="4.2162">
        <ele>406</ele>
        <time>2025-09-16T12:52:00Z</time>
      </trkpt>
      <trkpt lat="45.48535" lon="4.21622">
        <ele>405</ele>
        <time>2025-09-16T12:52:02Z</time>
      </trkpt>
      <trkpt lat="45.48531" lon="4.21624">
        <ele>408</ele>
        <time>2025-09-16T12:52:03Z</time>
      </trkpt>
      <trkpt lat="45.48528" lon="4.21625">
        <ele>405</ele>
        <time>2025-09-16T12:52:04Z</time>
      </trkpt>
      <trkpt lat="45.48525" lon="4.21627">
        <ele>398</ele>
        <time>2025-09-16T12:52:05Z</time>
      </trkpt>
      <trkpt lat="45.48522" lon="4.21629">
        <ele>401</ele>
        <time>2025-09-16T12:52:06Z</time>
      </trkpt>
      <trkpt lat="45.48519" lon="4.21631">
        <ele>402</ele>
        <time>2025-09-16T12:52:07Z</time>
      </trkpt>
      <trkpt lat="45.48516" lon="4.21632">
        <ele>399</ele>
        <time>2025-09-16T12:52:08Z</time>
      </trkpt>
      <trkpt lat="45.48513" lon="4.21634">
        <ele>400</ele>
        <time>2025-09-16T12:52:09Z</time>
      </trkpt>
      <trkpt lat="45.4851" lon="4.21636">
        <ele>404</ele>
        <time>2025-09-16T12:52:10Z</time>
      </trkpt>
      <trkpt lat="45.48507" lon="4.21638">
        <ele>410</ele>
        <time>2025-09-16T12:52:11Z</time>
      </trkpt>
      <trkpt lat="45.48504" lon="4.2164">
        <ele>398</ele>
        <time>2025-09-16T12:52:12Z</time>
      </trkpt>
      <trkpt lat="45.48501" lon="4.21643">
        <ele>399</ele>
        <time>2025-09-16T12:52:13Z</time>
      </trkpt>
      <trkpt lat="45.48498" lon="4.21645">
        <ele>394</ele>
        <time>2025-09-16T12:52:14Z</time>
      </trkpt>
      <trkpt lat="45.48495" lon="4.21646">
        <ele>405</ele>
        <time>2025-09-16T12:52:15Z</time>
      </trkpt>
      <trkpt lat="45.48492" lon="4.21649">
        <ele>405</ele>
        <time>2025-09-16T12:52:16Z</time>
      </trkpt>
      <trkpt lat="45.4849" lon="4.21651">
        <ele>412</ele>
        <time>2025-09-16T12:52:17Z</time>
      </trkpt>
      <trkpt lat="45.48487" lon="4.21654">
        <ele>406</ele>
        <time>2025-09-16T12:52:18Z</time>
      </trkpt>
      <trkpt lat="45.48484" lon="4.21656">
        <ele>407</ele>
        <time>2025-09-16T12:52:19Z</time>
      </trkpt>
      <trkpt lat="45.48482" lon="4.21659">
        <ele>413</ele>
        <time>2025-09-16T12:52:20Z</time>
      </trkpt>
      <trkpt lat="45.48479" lon="4.21661">
        <ele>403</ele>
        <time>2025-09-16T12:52:21Z</time>
      </trkpt>
      <trkpt lat="45.48476" lon="4.21663">
        <ele>409</ele>
        <time>2025-09-16T12:52:22Z</time>
      </trkpt>
      <trkpt lat="45.48474" lon="4.21665">
        <ele>402</ele>
        <time>2025-09-16T12:52:23Z</time>
      </trkpt>
      <trkpt lat="45.48471" lon="4.21667">
        <ele>397</ele>
        <time>2025-09-16T12:52:24Z</time>
      </trkpt>
      <trkpt lat="45.48468" lon="4.21669">
        <ele>407</ele>
        <time>2025-09-16T12:52:25Z</time>
      </trkpt>
      <trkpt lat="45.48465" lon="4.2167">
        <ele>403</ele>
        <time>2025-09-16T12:52:26Z</time>
      </trkpt>
      <trkpt lat="45.48463" lon="4.21672">
        <ele>402</ele>
        <time>2025-09-16T12:52:27Z</time>
      </trkpt>
      <trkpt lat="45.4846" lon="4.21674">
        <ele>407</ele>
        <time>2025-09-16T12:52:28Z</time>
      </trkpt>
      <trkpt lat="45.48457" lon="4.21677">
        <ele>414</ele>
        <time>2025-09-16T12:52:29Z</time>
      </trkpt>
      <trkpt lat="45.48455" lon="4.21679">
        <ele>404</ele>
        <time>2025-09-16T12:52:30Z</time>
      </trkpt>
      <trkpt lat="45.48451" lon="4.21682">
        <ele>397</ele>
        <time>2025-09-16T12:52:32Z</time>
      </trkpt>
      <trkpt lat="45.48447" lon="4.21684">
        <ele>407</ele>
        <time>2025-09-16T12:52:33Z</time>
      </trkpt>
      <trkpt lat="45.48444" lon="4.21686">
        <ele>408</ele>
        <time>2025-09-16T12:52:34Z</time>
      </trkpt>
      <trkpt lat="45.48441" lon="4.21688">
        <ele>412</ele>
        <time>2025-09-16T12:52:35Z</time>
      </trkpt>
      <trkpt lat="45.48438" lon="4.21689">
        <ele>412</ele>
        <time>2025-09-16T12:52:36Z</time>
      </trkpt>
      <trkpt lat="45.48436" lon="4.2169">
        <ele>413</ele>
        <time>2025-09-16T12:52:37Z</time>
      </trkpt>
      <trkpt lat="45.48432" lon="4.21692">
        <ele>399</ele>
        <time>2025-09-16T12:52:38Z</time>
      </trkpt>
      <trkpt lat="45.48429" lon="4.21692">
        <ele>401</ele>
        <time>2025-09-16T12:52:39Z</time>
      </trkpt>
      <trkpt lat="45.48426" lon="4.21693">
        <ele>408</ele>
        <time>2025-09-16T12:52:40Z</time>
      </trkpt>
      <trkpt lat="45.48422" lon="4.21694">
        <ele>402</ele>
        <time>2025-09-16T12:52:41Z</time>
      </trkpt>
      <trkpt lat="45.48419" lon="4.21693">
        <ele>412</ele>
        <time>2025-09-16T12:52:42Z</time>
      </trkpt>
      <trkpt lat="45.48415" lon="4.21693">
        <ele>412</ele>
        <time>2025-09-16T12:52:43Z</time>
      </trkpt>
      <trkpt lat="45.48412" lon="4.21694">
        <ele>415</ele>
        <time>2025-09-16T12:52:44Z</time>
      </trkpt>
      <trkpt lat="45.48408" lon="4.21694">
        <ele>414</ele>
        <time>2025-09-16T12:52:45Z</time>
      </trkpt>
      <trkpt lat="45.48405" lon="4.21694">
        <ele>414</ele>
        <time>2025-09-16T12:52:46Z</time>
      </trkpt>
      <trkpt lat="45.48402" lon="4.21694">
        <ele>406</ele>
        <time>2025-09-16T12:52:47Z</time>
      </trkpt>
      <trkpt lat="45.48398" lon="4.21694">
        <ele>401</ele>
        <time>2025-09-16T12:52:48Z</time>
      </trkpt>
      <trkpt lat="45.48395" lon="4.21694">
        <ele>403</ele>
        <time>2025-09-16T12:52:49Z</time>
      </trkpt>
      <trkpt lat="45.48392" lon="4.21694">
        <ele>409</ele>
        <time>2025-09-16T12:52:50Z</time>
      </trkpt>
      <trkpt lat="45.48389" lon="4.21695">
        <ele>411</ele>
        <time>2025-09-16T12:52:51Z</time>
      </trkpt>
      <trkpt lat="45.48386" lon="4.21695">
        <ele>407</ele>
        <time>2025-09-16T12:52:52Z</time>
      </trkpt>
      <trkpt lat="45.48383" lon="4.21695">
        <ele>407</ele>
        <time>2025-09-16T12:52:53Z</time>
      </trkpt>
      <trkpt lat="45.4838" lon="4.21696">
        <ele>410</ele>
        <time>2025-09-16T12:52:54Z</time>
      </trkpt>
      <trkpt lat="45.48377" lon="4.21696">
        <ele>400</ele>
        <time>2025-09-16T12:52:55Z</time>
      </trkpt>
      <trkpt lat="45.48375" lon="4.21698">
        <ele>406</ele>
        <time>2025-09-16T12:52:56Z</time>
      </trkpt>
      <trkpt lat="45.48372" lon="4.21699">
        <ele>401</ele>
        <time>2025-09-16T12:52:57Z</time>
      </trkpt>
      <trkpt lat="45.48369" lon="4.217">
        <ele>409</ele>
        <time>2025-09-16T12:52:58Z</time>
      </trkpt>
      <trkpt lat="45.48365" lon="4.21701">
        <ele>416</ele>
        <time>2025-09-16T12:53:00Z</time>
      </trkpt>
      <trkpt lat="45.48362" lon="4.21702">
        <ele>405</ele>
        <time>2025-09-16T12:53:01Z</time>
      </trkpt>
      <trkpt lat="45.48359" lon="4.21704">
        <ele>409</ele>
        <time>2025-09-16T12:53:02Z</time>
      </trkpt>
      <trkpt lat="45.48356" lon="4.21705">
        <ele>414</ele>
        <time>2025-09-16T12:53:03Z</time>
      </trkpt>
      <trkpt lat="45.48352" lon="4.21707">
        <ele>408</ele>
        <time>2025-09-16T12:53:05Z</time>
      </trkpt>
      <trkpt lat="45.48349" lon="4.21708">
        <ele>401</ele>
        <time>2025-09-16T12:53:07Z</time>
      </trkpt>
      <trkpt lat="45.48344" lon="4.21711">
        <ele>407</ele>
        <time>2025-09-16T12:53:09Z</time>
      </trkpt>
      <trkpt lat="45.48339" lon="4.21713">
        <ele>404</ele>
        <time>2025-09-16T12:53:11Z</time>
      </trkpt>
      <trkpt lat="45.48336" lon="4.21715">
        <ele>408</ele>
        <time>2025-09-16T12:53:12Z</time>
      </trkpt>
      <trkpt lat="45.48332" lon="4.21716">
        <ele>412</ele>
        <time>2025-09-16T12:53:14Z</time>
      </trkpt>
      <trkpt lat="45.48327" lon="4.21718">
        <ele>412</ele>
        <time>2025-09-16T12:53:16Z</time>
      </trkpt>
      <trkpt lat="45.48322" lon="4.2172">
        <ele>406</ele>
        <time>2025-09-16T12:53:19Z</time>
      </trkpt>
      <trkpt lat="45.48318" lon="4.21722">
        <ele>406</ele>
        <time>2025-09-16T12:53:21Z</time>
      </trkpt>
      <trkpt lat="45.48313" lon="4.21724">
        <ele>403</ele>
        <time>2025-09-16T12:53:23Z</time>
      </trkpt>
      <trkpt lat="45.48309" lon="4.21727">
        <ele>410</ele>
        <time>2025-09-16T12:53:25Z</time>
      </trkpt>
      <trkpt lat="45.48304" lon="4.2173">
        <ele>416</ele>
        <time>2025-09-16T12:53:27Z</time>
      </trkpt>
      <trkpt lat="45.48301" lon="4.21732">
        <ele>410</ele>
        <time>2025-09-16T12:53:28Z</time>
      </trkpt>
      <trkpt lat="45.48298" lon="4.21735">
        <ele>407</ele>
        <time>2025-09-16T12:53:29Z</time>
      </trkpt>
      <trkpt lat="45.48295" lon="4.21737">
        <ele>412</ele>
        <time>2025-09-16T12:53:30Z</time>
      </trkpt>
      <trkpt lat="45.48293" lon="4.2174">
        <ele>408</ele>
        <time>2025-09-16T12:53:31Z</time>
      </trkpt>
      <trkpt lat="45.48289" lon="4.21743">
        <ele>413</ele>
        <time>2025-09-16T12:53:33Z</time>
      </trkpt>
      <trkpt lat="45.48286" lon="4.21748">
        <ele>414</ele>
        <time>2025-09-16T12:53:35Z</time>
      </trkpt>
      <trkpt lat="45.48283" lon="4.21752">
        <ele>416</ele>
        <time>2025-09-16T12:53:37Z</time>
      </trkpt>
      <trkpt lat="45.48282" lon="4.21757">
        <ele>415</ele>
        <time>2025-09-16T12:53:39Z</time>
      </trkpt>
      <trkpt lat="45.48281" lon="4.21763">
        <ele>410</ele>
        <time>2025-09-16T12:53:42Z</time>
      </trkpt>
      <trkpt lat="45.4828" lon="4.21767">
        <ele>411</ele>
        <time>2025-09-16T12:53:43Z</time>
      </trkpt>
      <trkpt lat="45.48277" lon="4.21772">
        <ele>412</ele>
        <time>2025-09-16T12:53:45Z</time>
      </trkpt>
      <trkpt lat="45.48274" lon="4.21774">
        <ele>415</ele>
        <time>2025-09-16T12:53:46Z</time>
      </trkpt>
      <trkpt lat="45.48271" lon="4.21776">
        <ele>412</ele>
        <time>2025-09-16T12:53:47Z</time>
      </trkpt>
      <trkpt lat="45.48268" lon="4.21776">
        <ele>412</ele>
        <time>2025-09-16T12:53:48Z</time>
      </trkpt>
      <trkpt lat="45.48265" lon="4.21777">
        <ele>410</ele>
        <time>2025-09-16T12:53:49Z</time>
      </trkpt>
      <trkpt lat="45.48262" lon="4.21777">
        <ele>407</ele>
        <time>2025-09-16T12:53:50Z</time>
      </trkpt>
      <trkpt lat="45.48259" lon="4.21777">
        <ele>415</ele>
        <time>2025-09-16T12:53:51Z</time>
      </trkpt>
      <trkpt lat="45.48257" lon="4.21777">
        <ele>411</ele>
        <time>2025-09-16T12:53:52Z</time>
      </trkpt>
      <trkpt lat="45.48252" lon="4.21777">
        <ele>415</ele>
        <time>2025-09-16T12:53:54Z</time>
      </trkpt>
      <trkpt lat="45.48249" lon="4.21777">
        <ele>408</ele>
        <time>2025-09-16T12:53:55Z</time>
      </trkpt>
      <trkpt lat="45.48246" lon="4.21777">
        <ele>413</ele>
        <time>2025-09-16T12:53:56Z</time>
      </trkpt>
      <trkpt lat="45.48242" lon="4.21777">
        <ele>409</ele>
        <time>2025-09-16T12:53:58Z</time>
      </trkpt>
      <trkpt lat="45.48238" lon="4.21778">
        <ele>416</ele>
        <time>2025-09-16T12:53:59Z</time>
      </trkpt>
      <trkpt lat="45.48235" lon="4.21778">
        <ele>416</ele>
        <time>2025-09-16T12:54:00Z</time>
      </trkpt>
      <trkpt lat="45.48231" lon="4.21779">
        <ele>418</ele>
        <time>2025-09-16T12:54:02Z</time>
      </trkpt>
      <trkpt lat="45.48228" lon="4.21779">
        <ele>410</ele>
        <time>2025-09-16T12:54:03Z</time>
      </trkpt>
      <trkpt lat="45.48223" lon="4.2178">
        <ele>404</ele>
        <time>2025-09-16T12:54:05Z</time>
      </trkpt>
      <trkpt lat="45.4822" lon="4.2178">
        <ele>411</ele>
        <time>2025-09-16T12:54:06Z</time>
      </trkpt>
      <trkpt lat="45.48217" lon="4.2178">
        <ele>411</ele>
        <time>2025-09-16T12:54:07Z</time>
      </trkpt>
      <trkpt lat="45.48214" lon="4.21781">
        <ele>413</ele>
        <time>2025-09-16T12:54:08Z</time>
      </trkpt>
      <trkpt lat="45.48211" lon="4.21782">
        <ele>415</ele>
        <time>2025-09-16T12:54:09Z</time>
      </trkpt>
      <trkpt lat="45.48208" lon="4.21783">
        <ele>410</ele>
        <time>2025-09-16T12:54:10Z</time>
      </trkpt>
      <trkpt lat="45.48205" lon="4.21784">
        <ele>408</ele>
        <time>2025-09-16T12:54:11Z</time>
      </trkpt>
      <trkpt lat="45.48202" lon="4.21785">
        <ele>412</ele>
        <time>2025-09-16T12:54:12Z</time>
      </trkpt>
      <trkpt lat="45.48198" lon="4.21786">
        <ele>415</ele>
        <time>2025-09-16T12:54:14Z</time>
      </trkpt>
      <trkpt lat="45.48194" lon="4.21787">
        <ele>406</ele>
        <time>2025-09-16T12:54:15Z</time>
      </trkpt>
      <trkpt lat="45.48191" lon="4.21787">
        <ele>410</ele>
        <time>2025-09-16T12:54:16Z</time>
      </trkpt>
      <trkpt lat="45.48187" lon="4.21788">
        <ele>414</ele>
        <time>2025-09-16T12:54:18Z</time>
      </trkpt>
      <trkpt lat="45.48182" lon="4.21788">
        <ele>411</ele>
        <time>2025-09-16T12:54:20Z</time>
      </trkpt>
      <trkpt lat="45.48177" lon="4.2179">
        <ele>417</ele>
        <time>2025-09-16T12:54:22Z</time>
      </trkpt>
      <trkpt lat="45.48173" lon="4.21792">
        <ele>420</ele>
        <time>2025-09-16T12:54:24Z</time>
      </trkpt>
      <trkpt lat="45.48169" lon="4.21795">
        <ele>420</ele>
        <time>2025-09-16T12:54:26Z</time>
      </trkpt>
      <trkpt lat="45.48166" lon="4.21798">
        <ele>405</ele>
        <time>2025-09-16T12:54:28Z</time>
      </trkpt>
      <trkpt lat="45.48162" lon="4.21802">
        <ele>410</ele>
        <time>2025-09-16T12:54:30Z</time>
      </trkpt>
      <trkpt lat="45.48157" lon="4.21805">
        <ele>409</ele>
        <time>2025-09-16T12:54:32Z</time>
      </trkpt>
      <trkpt lat="45.48153" lon="4.21806">
        <ele>415</ele>
        <time>2025-09-16T12:54:33Z</time>
      </trkpt>
      <trkpt lat="45.4815" lon="4.21807">
        <ele>414</ele>
        <time>2025-09-16T12:54:34Z</time>
      </trkpt>
      <trkpt lat="45.48147" lon="4.21808">
        <ele>410</ele>
        <time>2025-09-16T12:54:35Z</time>
      </trkpt>
      <trkpt lat="45.48144" lon="4.21809">
        <ele>418</ele>
        <time>2025-09-16T12:54:36Z</time>
      </trkpt>
      <trkpt lat="45.48141" lon="4.21809">
        <ele>414</ele>
        <time>2025-09-16T12:54:37Z</time>
      </trkpt>
      <trkpt lat="45.48138" lon="4.2181">
        <ele>410</ele>
        <time>2025-09-16T12:54:38Z</time>
      </trkpt>
      <trkpt lat="45.48135" lon="4.2181">
        <ele>413</ele>
        <time>2025-09-16T12:54:39Z</time>
      </trkpt>
      <trkpt lat="45.48132" lon="4.21811">
        <ele>417</ele>
        <time>2025-09-16T12:54:40Z</time>
      </trkpt>
      <trkpt lat="45.48129" lon="4.21812">
        <ele>411</ele>
        <time>2025-09-16T12:54:41Z</time>
      </trkpt>
      <trkpt lat="45.48126" lon="4.21813">
        <ele>403</ele>
        <time>2025-09-16T12:54:42Z</time>
      </trkpt>
      <trkpt lat="45.48123" lon="4.21813">
        <ele>412</ele>
        <time>2025-09-16T12:54:43Z</time>
      </trkpt>
      <trkpt lat="45.4812" lon="4.21814">
        <ele>409</ele>
        <time>2025-09-16T12:54:44Z</time>
      </trkpt>
      <trkpt lat="45.48117" lon="4.21815">
        <ele>412</ele>
        <time>2025-09-16T12:54:45Z</time>
      </trkpt>
      <trkpt lat="45.48113" lon="4.21816">
        <ele>415</ele>
        <time>2025-09-16T12:54:47Z</time>
      </trkpt>
      <trkpt lat="45.48109" lon="4.21819">
        <ele>415</ele>
        <time>2025-09-16T12:54:49Z</time>
      </trkpt>
      <trkpt lat="45.48105" lon="4.21822">
        <ele>417</ele>
        <time>2025-09-16T12:54:51Z</time>
      </trkpt>
      <trkpt lat="45.48101" lon="4.21826">
        <ele>418</ele>
        <time>2025-09-16T12:54:53Z</time>
      </trkpt>
      <trkpt lat="45.48098" lon="4.21829">
        <ele>419</ele>
        <time>2025-09-16T12:54:55Z</time>
      </trkpt>
      <trkpt lat="45.48095" lon="4.21835">
        <ele>409</ele>
        <time>2025-09-16T12:54:57Z</time>
      </trkpt>
      <trkpt lat="45.48094" lon="4.2184">
        <ele>415</ele>
        <time>2025-09-16T12:54:58Z</time>
      </trkpt>
      <trkpt lat="45.48094" lon="4.21846">
        <ele>419</ele>
        <time>2025-09-16T12:55:00Z</time>
      </trkpt>
      <trkpt lat="45.48094" lon="4.21852">
        <ele>415</ele>
        <time>2025-09-16T12:55:02Z</time>
      </trkpt>
      <trkpt lat="45.48095" lon="4.2186">
        <ele>419</ele>
        <time>2025-09-16T12:55:04Z</time>
      </trkpt>
      <trkpt lat="45.48096" lon="4.21865">
        <ele>411</ele>
        <time>2025-09-16T12:55:05Z</time>
      </trkpt>
      <trkpt lat="45.48097" lon="4.2187">
        <ele>411</ele>
        <time>2025-09-16T12:55:06Z</time>
      </trkpt>
      <trkpt lat="45.48097" lon="4.21874">
        <ele>415</ele>
        <time>2025-09-16T12:55:07Z</time>
      </trkpt>
      <trkpt lat="45.48098" lon="4.21878">
        <ele>411</ele>
        <time>2025-09-16T12:55:08Z</time>
      </trkpt>
      <trkpt lat="45.48099" lon="4.21883">
        <ele>415</ele>
        <time>2025-09-16T12:55:09Z</time>
      </trkpt>
      <trkpt lat="45.48099" lon="4.21887">
        <ele>414</ele>
        <time>2025-09-16T12:55:10Z</time>
      </trkpt>
      <trkpt lat="45.481" lon="4.21892">
        <ele>416</ele>
        <time>2025-09-16T12:55:11Z</time>
      </trkpt>
      <trkpt lat="45.481" lon="4.21896">
        <ele>415</ele>
        <time>2025-09-16T12:55:12Z</time>
      </trkpt>
      <trkpt lat="45.481" lon="4.21901">
        <ele>417</ele>
        <time>2025-09-16T12:55:13Z</time>
      </trkpt>
      <trkpt lat="45.481" lon="4.21906">
        <ele>412</ele>
        <time>2025-09-16T12:55:14Z</time>
      </trkpt>
      <trkpt lat="45.481" lon="4.21911">
        <ele>413</ele>
        <time>2025-09-16T12:55:15Z</time>
      </trkpt>
      <trkpt lat="45.481" lon="4.21916">
        <ele>412</ele>
        <time>2025-09-16T12:55:16Z</time>
      </trkpt>
      <trkpt lat="45.48101" lon="4.21921">
        <ele>414</ele>
        <time>2025-09-16T12:55:17Z</time>
      </trkpt>
      <trkpt lat="45.48101" lon="4.21926">
        <ele>402</ele>
        <time>2025-09-16T12:55:18Z</time>
      </trkpt>
      <trkpt lat="45.48101" lon="4.21931">
        <ele>412</ele>
        <time>2025-09-16T12:55:19Z</time>
      </trkpt>
      <trkpt lat="45.48101" lon="4.21936">
        <ele>410</ele>
        <time>2025-09-16T12:55:20Z</time>
      </trkpt>
      <trkpt lat="45.48101" lon="4.21941">
        <ele>411</ele>
        <time>2025-09-16T12:55:21Z</time>
      </trkpt>
      <trkpt lat="45.48101" lon="4.21946">
        <ele>411</ele>
        <time>2025-09-16T12:55:22Z</time>
      </trkpt>
      <trkpt lat="45.48101" lon="4.21952">
        <ele>410</ele>
        <time>2025-09-16T12:55:23Z</time>
      </trkpt>
      <trkpt lat="45.48101" lon="4.21957">
        <ele>411</ele>
        <time>2025-09-16T12:55:24Z</time>
      </trkpt>
      <trkpt lat="45.48101" lon="4.21962">
        <ele>412</ele>
        <time>2025-09-16T12:55:25Z</time>
      </trkpt>
      <trkpt lat="45.48102" lon="4.21967">
        <ele>412</ele>
        <time>2025-09-16T12:55:26Z</time>
      </trkpt>
      <trkpt lat="45.48102" lon="4.21972">
        <ele>415</ele>
        <time>2025-09-16T12:55:27Z</time>
      </trkpt>
      <trkpt lat="45.48101" lon="4.21976">
        <ele>417</ele>
        <time>2025-09-16T12:55:28Z</time>
      </trkpt>
      <trkpt lat="45.48101" lon="4.21981">
        <ele>413</ele>
        <time>2025-09-16T12:55:29Z</time>
      </trkpt>
      <trkpt lat="45.481" lon="4.21984">
        <ele>418</ele>
        <time>2025-09-16T12:55:30Z</time>
      </trkpt>
      <trkpt lat="45.48098" lon="4.21987">
        <ele>410</ele>
        <time>2025-09-16T12:55:31Z</time>
      </trkpt>
      <trkpt lat="45.48094" lon="4.21988">
        <ele>415</ele>
        <time>2025-09-16T12:55:33Z</time>
      </trkpt>
      <trkpt lat="45.48091" lon="4.21987">
        <ele>418</ele>
        <time>2025-09-16T12:55:34Z</time>
      </trkpt>
      <trkpt lat="45.48088" lon="4.21986">
        <ele>414</ele>
        <time>2025-09-16T12:55:35Z</time>
      </trkpt>
      <trkpt lat="45.48085" lon="4.21983">
        <ele>420</ele>
        <time>2025-09-16T12:55:36Z</time>
      </trkpt>
      <trkpt lat="45.48082" lon="4.2198">
        <ele>413</ele>
        <time>2025-09-16T12:55:37Z</time>
      </trkpt>
      <trkpt lat="45.4808" lon="4.21978">
        <ele>417</ele>
        <time>2025-09-16T12:55:38Z</time>
      </trkpt>
      <trkpt lat="45.48078" lon="4.21975">
        <ele>413</ele>
        <time>2025-09-16T12:55:39Z</time>
      </trkpt>
      <trkpt lat="45.48075" lon="4.21972">
        <ele>415</ele>
        <time>2025-09-16T12:55:40Z</time>
      </trkpt>
      <trkpt lat="45.48073" lon="4.2197">
        <ele>412</ele>
        <time>2025-09-16T12:55:41Z</time>
      </trkpt>
      <trkpt lat="45.48069" lon="4.21966">
        <ele>412</ele>
        <time>2025-09-16T12:55:43Z</time>
      </trkpt>
      <trkpt lat="45.48066" lon="4.21964">
        <ele>416</ele>
        <time>2025-09-16T12:55:44Z</time>
      </trkpt>
      <trkpt lat="45.48064" lon="4.21961">
        <ele>415</ele>
        <time>2025-09-16T12:55:45Z</time>
      </trkpt>
      <trkpt lat="45.48061" lon="4.21959">
        <ele>410</ele>
        <time>2025-09-16T12:55:46Z</time>
      </trkpt>
      <trkpt lat="45.48058" lon="4.21957">
        <ele>413</ele>
        <time>2025-09-16T12:55:47Z</time>
      </trkpt>
      <trkpt lat="45.48056" lon="4.21955">
        <ele>409</ele>
        <time>2025-09-16T12:55:48Z</time>
      </trkpt>
      <trkpt lat="45.48052" lon="4.21951">
        <ele>413</ele>
        <time>2025-09-16T12:55:50Z</time>
      </trkpt>
      <trkpt lat="45.48049" lon="4.21948">
        <ele>422</ele>
        <time>2025-09-16T12:55:51Z</time>
      </trkpt>
      <trkpt lat="45.48046" lon="4.21946">
        <ele>413</ele>
        <time>2025-09-16T12:55:52Z</time>
      </trkpt>
      <trkpt lat="45.48044" lon="4.21945">
        <ele>418</ele>
        <time>2025-09-16T12:55:53Z</time>
      </trkpt>
      <trkpt lat="45.48041" lon="4.21943">
        <ele>414</ele>
        <time>2025-09-16T12:55:54Z</time>
      </trkpt>
      <trkpt lat="45.48038" lon="4.21941">
        <ele>420</ele>
        <time>2025-09-16T12:55:55Z</time>
      </trkpt>
      <trkpt lat="45.48034" lon="4.21938">
        <ele>421</ele>
        <time>2025-09-16T12:55:57Z</time>
      </trkpt>
      <trkpt lat="45.48031" lon="4.21936">
        <ele>418</ele>
        <time>2025-09-16T12:55:58Z</time>
      </trkpt>
      <trkpt lat="45.48028" lon="4.21934">
        <ele>420</ele>
        <time>2025-09-16T12:55:59Z</time>
      </trkpt>
      <trkpt lat="45.48025" lon="4.21931">
        <ele>420</ele>
        <time>2025-09-16T12:56:01Z</time>
      </trkpt>
      <trkpt lat="45.48021" lon="4.21929">
        <ele>411</ele>
        <time>2025-09-16T12:56:03Z</time>
      </trkpt>
      <trkpt lat="45.48017" lon="4.21927">
        <ele>411</ele>
        <time>2025-09-16T12:56:05Z</time>
      </trkpt>
      <trkpt lat="45.48012" lon="4.21924">
        <ele>415</ele>
        <time>2025-09-16T12:56:06Z</time>
      </trkpt>
      <trkpt lat="45.48008" lon="4.21922">
        <ele>421</ele>
        <time>2025-09-16T12:56:08Z</time>
      </trkpt>
      <trkpt lat="45.48003" lon="4.2192">
        <ele>421</ele>
        <time>2025-09-16T12:56:10Z</time>
      </trkpt>
      <trkpt lat="45.47999" lon="4.21919">
        <ele>423</ele>
        <time>2025-09-16T12:56:12Z</time>
      </trkpt>
      <trkpt lat="45.47995" lon="4.21918">
        <ele>421</ele>
        <time>2025-09-16T12:56:13Z</time>
      </trkpt>
      <trkpt lat="45.47991" lon="4.21917">
        <ele>416</ele>
        <time>2025-09-16T12:56:15Z</time>
      </trkpt>
      <trkpt lat="45.47986" lon="4.21916">
        <ele>421</ele>
        <time>2025-09-16T12:56:17Z</time>
      </trkpt>
      <trkpt lat="45.47982" lon="4.21915">
        <ele>422</ele>
        <time>2025-09-16T12:56:19Z</time>
      </trkpt>
      <trkpt lat="45.47977" lon="4.21914">
        <ele>423</ele>
        <time>2025-09-16T12:56:21Z</time>
      </trkpt>
      <trkpt lat="45.47972" lon="4.21914">
        <ele>419</ele>
        <time>2025-09-16T12:56:23Z</time>
      </trkpt>
      <trkpt lat="45.47968" lon="4.21914">
        <ele>418</ele>
        <time>2025-09-16T12:56:25Z</time>
      </trkpt>
      <trkpt lat="45.47964" lon="4.21913">
        <ele>419</ele>
        <time>2025-09-16T12:56:27Z</time>
      </trkpt>
      <trkpt lat="45.47961" lon="4.21913">
        <ele>420</ele>
        <time>2025-09-16T12:56:29Z</time>
      </trkpt>
      <trkpt lat="45.47957" lon="4.21913">
        <ele>422</ele>
        <time>2025-09-16T12:56:31Z</time>
      </trkpt>
      <trkpt lat="45.47954" lon="4.21913">
        <ele>418</ele>
        <time>2025-09-16T12:56:33Z</time>
      </trkpt>
      <trkpt lat="45.47951" lon="4.21913">
        <ele>419</ele>
        <time>2025-09-16T12:56:35Z</time>
      </trkpt>
      <trkpt lat="45.47948" lon="4.21912">
        <ele>416</ele>
        <time>2025-09-16T12:56:37Z</time>
      </trkpt>
      <trkpt lat="45.47944" lon="4.21911">
        <ele>411</ele>
        <time>2025-09-16T12:56:40Z</time>
      </trkpt>
      <trkpt lat="45.47941" lon="4.21909">
        <ele>415</ele>
        <time>2025-09-16T12:56:43Z</time>
      </trkpt>
      <trkpt lat="45.47938" lon="4.21907">
        <ele>421</ele>
        <time>2025-09-16T12:56:46Z</time>
      </trkpt>
      <trkpt lat="45.47935" lon="4.21906">
        <ele>417</ele>
        <time>2025-09-16T12:56:48Z</time>
      </trkpt>
      <trkpt lat="45.47932" lon="4.21905">
        <ele>417</ele>
        <time>2025-09-16T12:56:50Z</time>
      </trkpt>
      <trkpt lat="45.47928" lon="4.21905">
        <ele>418</ele>
        <time>2025-09-16T12:56:52Z</time>
      </trkpt>
      <trkpt lat="45.47925" lon="4.21905">
        <ele>416</ele>
        <time>2025-09-16T12:56:54Z</time>
      </trkpt>
      <trkpt lat="45.47922" lon="4.21904">
        <ele>419</ele>
        <time>2025-09-16T12:56:56Z</time>
      </trkpt>
      <trkpt lat="45.4792" lon="4.21904">
        <ele>421</ele>
        <time>2025-09-16T12:56:58Z</time>
      </trkpt>
      <trkpt lat="45.47917" lon="4.21904">
        <ele>418</ele>
        <time>2025-09-16T12:57:01Z</time>
      </trkpt>
      <trkpt lat="45.47913" lon="4.21904">
        <ele>424</ele>
        <time>2025-09-16T12:57:03Z</time>
      </trkpt>
      <trkpt lat="45.4791" lon="4.21905">
        <ele>419</ele>
        <time>2025-09-16T12:57:05Z</time>
      </trkpt>
      <trkpt lat="45.47906" lon="4.21906">
        <ele>428</ele>
        <time>2025-09-16T12:57:07Z</time>
      </trkpt>
      <trkpt lat="45.47903" lon="4.21907">
        <ele>433</ele>
        <time>2025-09-16T12:57:10Z</time>
      </trkpt>
      <trkpt lat="45.47899" lon="4.21908">
        <ele>433</ele>
        <time>2025-09-16T12:57:12Z</time>
      </trkpt>
      <trkpt lat="45.47896" lon="4.21907">
        <ele>424</ele>
        <time>2025-09-16T12:57:14Z</time>
      </trkpt>
      <trkpt lat="45.47893" lon="4.21906">
        <ele>427</ele>
        <time>2025-09-16T12:57:16Z</time>
      </trkpt>
      <trkpt lat="45.47889" lon="4.21906">
        <ele>422</ele>
        <time>2025-09-16T12:57:19Z</time>
      </trkpt>
      <trkpt lat="45.47886" lon="4.21906">
        <ele>421</ele>
        <time>2025-09-16T12:57:22Z</time>
      </trkpt>
      <trkpt lat="45.47882" lon="4.21906">
        <ele>426</ele>
        <time>2025-09-16T12:57:25Z</time>
      </trkpt>
      <trkpt lat="45.47879" lon="4.21907">
        <ele>424</ele>
        <time>2025-09-16T12:57:28Z</time>
      </trkpt>
      <trkpt lat="45.47876" lon="4.21909">
        <ele>423</ele>
        <time>2025-09-16T12:57:30Z</time>
      </trkpt>
      <trkpt lat="45.47873" lon="4.21911">
        <ele>424</ele>
        <time>2025-09-16T12:57:33Z</time>
      </trkpt>
      <trkpt lat="45.4787" lon="4.21914">
        <ele>431</ele>
        <time>2025-09-16T12:57:35Z</time>
      </trkpt>
      <trkpt lat="45.47867" lon="4.21916">
        <ele>431</ele>
        <time>2025-09-16T12:57:37Z</time>
      </trkpt>
      <trkpt lat="45.47866" lon="4.21919">
        <ele>434</ele>
        <time>2025-09-16T12:57:39Z</time>
      </trkpt>
      <trkpt lat="45.47864" lon="4.21923">
        <ele>433</ele>
        <time>2025-09-16T12:57:41Z</time>
      </trkpt>
      <trkpt lat="45.47863" lon="4.21927">
        <ele>429</ele>
        <time>2025-09-16T12:57:43Z</time>
      </trkpt>
      <trkpt lat="45.47862" lon="4.21931">
        <ele>427</ele>
        <time>2025-09-16T12:57:45Z</time>
      </trkpt>
      <trkpt lat="45.4786" lon="4.21935">
        <ele>425</ele>
        <time>2025-09-16T12:57:47Z</time>
      </trkpt>
      <trkpt lat="45.47858" lon="4.21939">
        <ele>427</ele>
        <time>2025-09-16T12:57:49Z</time>
      </trkpt>
      <trkpt lat="45.47856" lon="4.21943">
        <ele>435</ele>
        <time>2025-09-16T12:57:51Z</time>
      </trkpt>
      <trkpt lat="45.47855" lon="4.21947">
        <ele>438</ele>
        <time>2025-09-16T12:57:53Z</time>
      </trkpt>
      <trkpt lat="45.47853" lon="4.21951">
        <ele>440</ele>
        <time>2025-09-16T12:57:55Z</time>
      </trkpt>
      <trkpt lat="45.47852" lon="4.21954">
        <ele>440</ele>
        <time>2025-09-16T12:57:57Z</time>
      </trkpt>
      <trkpt lat="45.47851" lon="4.21958">
        <ele>440</ele>
        <time>2025-09-16T12:57:59Z</time>
      </trkpt>
      <trkpt lat="45.4785" lon="4.21963">
        <ele>437</ele>
        <time>2025-09-16T12:58:01Z</time>
      </trkpt>
      <trkpt lat="45.47849" lon="4.21968">
        <ele>430</ele>
        <time>2025-09-16T12:58:03Z</time>
      </trkpt>
      <trkpt lat="45.47848" lon="4.21972">
        <ele>427</ele>
        <time>2025-09-16T12:58:05Z</time>
      </trkpt>
      <trkpt lat="45.47847" lon="4.21977">
        <ele>427</ele>
        <time>2025-09-16T12:58:07Z</time>
      </trkpt>
      <trkpt lat="45.47846" lon="4.21982">
        <ele>429</ele>
        <time>2025-09-16T12:58:09Z</time>
      </trkpt>
      <trkpt lat="45.47845" lon="4.21987">
        <ele>435</ele>
        <time>2025-09-16T12:58:11Z</time>
      </trkpt>
      <trkpt lat="45.47844" lon="4.21992">
        <ele>434</ele>
        <time>2025-09-16T12:58:13Z</time>
      </trkpt>
      <trkpt lat="45.47842" lon="4.21997">
        <ele>439</ele>
        <time>2025-09-16T12:58:15Z</time>
      </trkpt>
      <trkpt lat="45.47841" lon="4.22002">
        <ele>440</ele>
        <time>2025-09-16T12:58:17Z</time>
      </trkpt>
      <trkpt lat="45.4784" lon="4.22007">
        <ele>440</ele>
        <time>2025-09-16T12:58:19Z</time>
      </trkpt>
      <trkpt lat="45.47839" lon="4.22013">
        <ele>437</ele>
        <time>2025-09-16T12:58:21Z</time>
      </trkpt>
      <trkpt lat="45.47837" lon="4.22018">
        <ele>430</ele>
        <time>2025-09-16T12:58:23Z</time>
      </trkpt>
      <trkpt lat="45.47836" lon="4.22022">
        <ele>427</ele>
        <time>2025-09-16T12:58:25Z</time>
      </trkpt>
      <trkpt lat="45.47834" lon="4.22026">
        <ele>437</ele>
        <time>2025-09-16T12:58:27Z</time>
      </trkpt>
      <trkpt lat="45.47832" lon="4.2203">
        <ele>433</ele>
        <time>2025-09-16T12:58:30Z</time>
      </trkpt>
      <trkpt lat="45.47829" lon="4.22031">
        <ele>428</ele>
        <time>2025-09-16T12:58:33Z</time>
      </trkpt>
      <trkpt lat="45.47826" lon="4.22034">
        <ele>436</ele>
        <time>2025-09-16T12:58:36Z</time>
      </trkpt>
      <trkpt lat="45.47824" lon="4.22037">
        <ele>432</ele>
        <time>2025-09-16T12:58:38Z</time>
      </trkpt>
      <trkpt lat="45.47821" lon="4.2204">
        <ele>432</ele>
        <time>2025-09-16T12:58:40Z</time>
      </trkpt>
      <trkpt lat="45.47818" lon="4.22043">
        <ele>430</ele>
        <time>2025-09-16T12:58:42Z</time>
      </trkpt>
      <trkpt lat="45.47817" lon="4.22046">
        <ele>434</ele>
        <time>2025-09-16T12:58:44Z</time>
      </trkpt>
      <trkpt lat="45.47815" lon="4.2205">
        <ele>440</ele>
        <time>2025-09-16T12:58:47Z</time>
      </trkpt>
      <trkpt lat="45.47814" lon="4.22054">
        <ele>436</ele>
        <time>2025-09-16T12:58:50Z</time>
      </trkpt>
      <trkpt lat="45.47811" lon="4.22058">
        <ele>442</ele>
        <time>2025-09-16T12:58:53Z</time>
      </trkpt>
      <trkpt lat="45.47809" lon="4.22062">
        <ele>443</ele>
        <time>2025-09-16T12:58:55Z</time>
      </trkpt>
      <trkpt lat="45.47806" lon="4.22061">
        <ele>440</ele>
        <time>2025-09-16T12:59:56Z</time>
      </trkpt>
      <trkpt lat="45.47804" lon="4.22063">
        <ele>440</ele>
        <time>2025-09-16T12:59:59Z</time>
      </trkpt>
      <trkpt lat="45.47801" lon="4.22065">
        <ele>437</ele>
        <time>2025-09-16T13:00:01Z</time>
      </trkpt>
      <trkpt lat="45.47798" lon="4.22066">
        <ele>437</ele>
        <time>2025-09-16T13:00:04Z</time>
      </trkpt>
      <trkpt lat="45.47794" lon="4.22067">
        <ele>436</ele>
        <time>2025-09-16T13:00:06Z</time>
      </trkpt>
      <trkpt lat="45.47791" lon="4.22068">
        <ele>436</ele>
        <time>2025-09-16T13:00:08Z</time>
      </trkpt>
      <trkpt lat="45.47788" lon="4.22068">
        <ele>434</ele>
        <time>2025-09-16T13:00:10Z</time>
      </trkpt>
      <trkpt lat="45.47785" lon="4.22068">
        <ele>435</ele>
        <time>2025-09-16T13:00:12Z</time>
      </trkpt>
      <trkpt lat="45.47782" lon="4.22068">
        <ele>433</ele>
        <time>2025-09-16T13:00:14Z</time>
      </trkpt>
      <trkpt lat="45.47779" lon="4.22068">
        <ele>438</ele>
        <time>2025-09-16T13:00:16Z</time>
      </trkpt>
      <trkpt lat="45.47775" lon="4.22067">
        <ele>441</ele>
        <time>2025-09-16T13:00:18Z</time>
      </trkpt>
      <trkpt lat="45.47772" lon="4.22066">
        <ele>440</ele>
        <time>2025-09-16T13:00:20Z</time>
      </trkpt>
      <trkpt lat="45.47769" lon="4.22066">
        <ele>442</ele>
        <time>2025-09-16T13:00:22Z</time>
      </trkpt>
      <trkpt lat="45.47765" lon="4.22066">
        <ele>440</ele>
        <time>2025-09-16T13:00:24Z</time>
      </trkpt>
      <trkpt lat="45.47762" lon="4.22066">
        <ele>442</ele>
        <time>2025-09-16T13:00:26Z</time>
      </trkpt>
      <trkpt lat="45.47759" lon="4.22066">
        <ele>439</ele>
        <time>2025-09-16T13:00:28Z</time>
      </trkpt>
      <trkpt lat="45.47756" lon="4.22065">
        <ele>445</ele>
        <time>2025-09-16T13:00:30Z</time>
      </trkpt>
      <trkpt lat="45.47753" lon="4.22064">
        <ele>449</ele>
        <time>2025-09-16T13:00:32Z</time>
      </trkpt>
      <trkpt lat="45.4775" lon="4.22064">
        <ele>447</ele>
        <time>2025-09-16T13:00:34Z</time>
      </trkpt>
      <trkpt lat="45.47747" lon="4.22064">
        <ele>442</ele>
        <time>2025-09-16T13:00:36Z</time>
      </trkpt>
      <trkpt lat="45.47743" lon="4.22062">
        <ele>447</ele>
        <time>2025-09-16T13:00:39Z</time>
      </trkpt>
      <trkpt lat="45.4774" lon="4.22061">
        <ele>452</ele>
        <time>2025-09-16T13:00:41Z</time>
      </trkpt>
      <trkpt lat="45.47737" lon="4.22061">
        <ele>448</ele>
        <time>2025-09-16T13:00:43Z</time>
      </trkpt>
      <trkpt lat="45.47733" lon="4.2206">
        <ele>449</ele>
        <time>2025-09-16T13:00:45Z</time>
      </trkpt>
      <trkpt lat="45.4773" lon="4.22059">
        <ele>453</ele>
        <time>2025-09-16T13:00:47Z</time>
      </trkpt>
      <trkpt lat="45.47727" lon="4.22058">
        <ele>451</ele>
        <time>2025-09-16T13:00:49Z</time>
      </trkpt>
      <trkpt lat="45.47724" lon="4.22057">
        <ele>448</ele>
        <time>2025-09-16T13:00:51Z</time>
      </trkpt>
      <trkpt lat="45.4772" lon="4.22056">
        <ele>445</ele>
        <time>2025-09-16T13:00:54Z</time>
      </trkpt>
      <trkpt lat="45.47717" lon="4.22054">
        <ele>444</ele>
        <time>2025-09-16T13:00:56Z</time>
      </trkpt>
      <trkpt lat="45.47713" lon="4.22051">
        <ele>448</ele>
        <time>2025-09-16T13:00:58Z</time>
      </trkpt>
      <trkpt lat="45.4771" lon="4.2205">
        <ele>451</ele>
        <time>2025-09-16T13:01:00Z</time>
      </trkpt>
      <trkpt lat="45.47706" lon="4.22048">
        <ele>449</ele>
        <time>2025-09-16T13:01:03Z</time>
      </trkpt>
      <trkpt lat="45.47703" lon="4.22047">
        <ele>454</ele>
        <time>2025-09-16T13:01:06Z</time>
      </trkpt>
      <trkpt lat="45.477" lon="4.22047">
        <ele>453</ele>
        <time>2025-09-16T13:01:08Z</time>
      </trkpt>
      <trkpt lat="45.47696" lon="4.22048">
        <ele>447</ele>
        <time>2025-09-16T13:01:10Z</time>
      </trkpt>
      <trkpt lat="45.47693" lon="4.22048">
        <ele>447</ele>
        <time>2025-09-16T13:01:12Z</time>
      </trkpt>
      <trkpt lat="45.47689" lon="4.22048">
        <ele>449</ele>
        <time>2025-09-16T13:01:14Z</time>
      </trkpt>
      <trkpt lat="45.47686" lon="4.22048">
        <ele>448</ele>
        <time>2025-09-16T13:01:16Z</time>
      </trkpt>
      <trkpt lat="45.47682" lon="4.22048">
        <ele>449</ele>
        <time>2025-09-16T13:01:18Z</time>
      </trkpt>
      <trkpt lat="45.47679" lon="4.22048">
        <ele>454</ele>
        <time>2025-09-16T13:01:20Z</time>
      </trkpt>
      <trkpt lat="45.47675" lon="4.22048">
        <ele>456</ele>
        <time>2025-09-16T13:01:22Z</time>
      </trkpt>
      <trkpt lat="45.47672" lon="4.22048">
        <ele>453</ele>
        <time>2025-09-16T13:01:24Z</time>
      </trkpt>
      <trkpt lat="45.47668" lon="4.22048">
        <ele>451</ele>
        <time>2025-09-16T13:01:26Z</time>
      </trkpt>
      <trkpt lat="45.47665" lon="4.22048">
        <ele>449</ele>
        <time>2025-09-16T13:01:28Z</time>
      </trkpt>
      <trkpt lat="45.47662" lon="4.22048">
        <ele>448</ele>
        <time>2025-09-16T13:01:30Z</time>
      </trkpt>
      <trkpt lat="45.47659" lon="4.22047">
        <ele>456</ele>
        <time>2025-09-16T13:01:32Z</time>
      </trkpt>
      <trkpt lat="45.47655" lon="4.22047">
        <ele>456</ele>
        <time>2025-09-16T13:01:35Z</time>
      </trkpt>
      <trkpt lat="45.47652" lon="4.22046">
        <ele>453</ele>
        <time>2025-09-16T13:01:37Z</time>
      </trkpt>
      <trkpt lat="45.47648" lon="4.22046">
        <ele>454</ele>
        <time>2025-09-16T13:01:39Z</time>
      </trkpt>
      <trkpt lat="45.47644" lon="4.22046">
        <ele>458</ele>
        <time>2025-09-16T13:01:41Z</time>
      </trkpt>
      <trkpt lat="45.47641" lon="4.22047">
        <ele>459</ele>
        <time>2025-09-16T13:01:43Z</time>
      </trkpt>
      <trkpt lat="45.47637" lon="4.22048">
        <ele>457</ele>
        <time>2025-09-16T13:01:45Z</time>
      </trkpt>
      <trkpt lat="45.47634" lon="4.22048">
        <ele>453</ele>
        <time>2025-09-16T13:01:47Z</time>
      </trkpt>
      <trkpt lat="45.47631" lon="4.22048">
        <ele>453</ele>
        <time>2025-09-16T13:01:49Z</time>
      </trkpt>
      <trkpt lat="45.47628" lon="4.22049">
        <ele>453</ele>
        <time>2025-09-16T13:01:51Z</time>
      </trkpt>
      <trkpt lat="45.47624" lon="4.2205">
        <ele>456</ele>
        <time>2025-09-16T13:01:53Z</time>
      </trkpt>
      <trkpt lat="45.47621" lon="4.22051">
        <ele>456</ele>
        <time>2025-09-16T13:01:55Z</time>
      </trkpt>
      <trkpt lat="45.47617" lon="4.22052">
        <ele>455</ele>
        <time>2025-09-16T13:01:57Z</time>
      </trkpt>
      <trkpt lat="45.47614" lon="4.22053">
        <ele>454</ele>
        <time>2025-09-16T13:01:59Z</time>
      </trkpt>
      <trkpt lat="45.47611" lon="4.22052">
        <ele>454</ele>
        <time>2025-09-16T13:02:01Z</time>
      </trkpt>
      <trkpt lat="45.47608" lon="4.22052">
        <ele>455</ele>
        <time>2025-09-16T13:02:03Z</time>
      </trkpt>
      <trkpt lat="45.47604" lon="4.22052">
        <ele>451</ele>
        <time>2025-09-16T13:02:05Z</time>
      </trkpt>
      <trkpt lat="45.47601" lon="4.22052">
        <ele>451</ele>
        <time>2025-09-16T13:02:07Z</time>
      </trkpt>
      <trkpt lat="45.47598" lon="4.22052">
        <ele>459</ele>
        <time>2025-09-16T13:02:10Z</time>
      </trkpt>
      <trkpt lat="45.47594" lon="4.22052">
        <ele>460</ele>
        <time>2025-09-16T13:02:13Z</time>
      </trkpt>
      <trkpt lat="45.47591" lon="4.2205">
        <ele>456</ele>
        <time>2025-09-16T13:02:16Z</time>
      </trkpt>
      <trkpt lat="45.47588" lon="4.22049">
        <ele>452</ele>
        <time>2025-09-16T13:02:19Z</time>
      </trkpt>
      <trkpt lat="45.47584" lon="4.22047">
        <ele>460</ele>
        <time>2025-09-16T13:02:22Z</time>
      </trkpt>
      <trkpt lat="45.47581" lon="4.22046">
        <ele>456</ele>
        <time>2025-09-16T13:02:24Z</time>
      </trkpt>
      <trkpt lat="45.47577" lon="4.22044">
        <ele>450</ele>
        <time>2025-09-16T13:02:26Z</time>
      </trkpt>
      <trkpt lat="45.47574" lon="4.22043">
        <ele>453</ele>
        <time>2025-09-16T13:02:28Z</time>
      </trkpt>
      <trkpt lat="45.47571" lon="4.22042">
        <ele>455</ele>
        <time>2025-09-16T13:02:30Z</time>
      </trkpt>
      <trkpt lat="45.47568" lon="4.2204">
        <ele>463</ele>
        <time>2025-09-16T13:02:32Z</time>
      </trkpt>
      <trkpt lat="45.47565" lon="4.2204">
        <ele>469</ele>
        <time>2025-09-16T13:02:34Z</time>
      </trkpt>
      <trkpt lat="45.47561" lon="4.22039">
        <ele>465</ele>
        <time>2025-09-16T13:02:36Z</time>
      </trkpt>
      <trkpt lat="45.47558" lon="4.22038">
        <ele>457</ele>
        <time>2025-09-16T13:02:38Z</time>
      </trkpt>
      <trkpt lat="45.47555" lon="4.22038">
        <ele>457</ele>
        <time>2025-09-16T13:02:41Z</time>
      </trkpt>
      <trkpt lat="45.47552" lon="4.22037">
        <ele>457</ele>
        <time>2025-09-16T13:02:43Z</time>
      </trkpt>
      <trkpt lat="45.47548" lon="4.22037">
        <ele>453</ele>
        <time>2025-09-16T13:02:45Z</time>
      </trkpt>
      <trkpt lat="45.47545" lon="4.22036">
        <ele>456</ele>
        <time>2025-09-16T13:02:47Z</time>
      </trkpt>
      <trkpt lat="45.47542" lon="4.22037">
        <ele>459</ele>
        <time>2025-09-16T13:02:50Z</time>
      </trkpt>
      <trkpt lat="45.47539" lon="4.22038">
        <ele>466</ele>
        <time>2025-09-16T13:02:52Z</time>
      </trkpt>
      <trkpt lat="45.47535" lon="4.22039">
        <ele>469</ele>
        <time>2025-09-16T13:02:54Z</time>
      </trkpt>
      <trkpt lat="45.47532" lon="4.2204">
        <ele>470</ele>
        <time>2025-09-16T13:02:56Z</time>
      </trkpt>
      <trkpt lat="45.47529" lon="4.2204">
        <ele>463</ele>
        <time>2025-09-16T13:02:58Z</time>
      </trkpt>
      <trkpt lat="45.47526" lon="4.22041">
        <ele>465</ele>
        <time>2025-09-16T13:03:00Z</time>
      </trkpt>
      <trkpt lat="45.47522" lon="4.22041">
        <ele>458</ele>
        <time>2025-09-16T13:03:02Z</time>
      </trkpt>
      <trkpt lat="45.47519" lon="4.22041">
        <ele>461</ele>
        <time>2025-09-16T13:03:04Z</time>
      </trkpt>
      <trkpt lat="45.47516" lon="4.22041">
        <ele>459</ele>
        <time>2025-09-16T13:03:07Z</time>
      </trkpt>
      <trkpt lat="45.47512" lon="4.22041">
        <ele>462</ele>
        <time>2025-09-16T13:03:10Z</time>
      </trkpt>
      <trkpt lat="45.47508" lon="4.22042">
        <ele>465</ele>
        <time>2025-09-16T13:03:13Z</time>
      </trkpt>
      <trkpt lat="45.47505" lon="4.22042">
        <ele>464</ele>
        <time>2025-09-16T13:03:16Z</time>
      </trkpt>
      <trkpt lat="45.47501" lon="4.22043">
        <ele>459</ele>
        <time>2025-09-16T13:03:19Z</time>
      </trkpt>
      <trkpt lat="45.47497" lon="4.22043">
        <ele>460</ele>
        <time>2025-09-16T13:03:21Z</time>
      </trkpt>
      <trkpt lat="45.47494" lon="4.22043">
        <ele>464</ele>
        <time>2025-09-16T13:03:23Z</time>
      </trkpt>
      <trkpt lat="45.47491" lon="4.22043">
        <ele>468</ele>
        <time>2025-09-16T13:03:25Z</time>
      </trkpt>
      <trkpt lat="45.47487" lon="4.22042">
        <ele>463</ele>
        <time>2025-09-16T13:03:28Z</time>
      </trkpt>
      <trkpt lat="45.47484" lon="4.22041">
        <ele>466</ele>
        <time>2025-09-16T13:03:30Z</time>
      </trkpt>
      <trkpt lat="45.4748" lon="4.2204">
        <ele>468</ele>
        <time>2025-09-16T13:03:33Z</time>
      </trkpt>
      <trkpt lat="45.47477" lon="4.22041">
        <ele>470</ele>
        <time>2025-09-16T13:03:36Z</time>
      </trkpt>
      <trkpt lat="45.47474" lon="4.22041">
        <ele>471</ele>
        <time>2025-09-16T13:03:38Z</time>
      </trkpt>
      <trkpt lat="45.47471" lon="4.2204">
        <ele>469</ele>
        <time>2025-09-16T13:03:40Z</time>
      </trkpt>
      <trkpt lat="45.47468" lon="4.22039">
        <ele>472</ele>
        <time>2025-09-16T13:03:43Z</time>
      </trkpt>
      <trkpt lat="45.47464" lon="4.22039">
        <ele>477</ele>
        <time>2025-09-16T13:03:45Z</time>
      </trkpt>
      <trkpt lat="45.47461" lon="4.2204">
        <ele>479</ele>
        <time>2025-09-16T13:03:47Z</time>
      </trkpt>
      <trkpt lat="45.47457" lon="4.22041">
        <ele>472</ele>
        <time>2025-09-16T13:03:49Z</time>
      </trkpt>
      <trkpt lat="45.47454" lon="4.22041">
        <ele>468</ele>
        <time>2025-09-16T13:03:51Z</time>
      </trkpt>
      <trkpt lat="45.47451" lon="4.22043">
        <ele>474</ele>
        <time>2025-09-16T13:03:54Z</time>
      </trkpt>
      <trkpt lat="45.47448" lon="4.22044">
        <ele>465</ele>
        <time>2025-09-16T13:03:56Z</time>
      </trkpt>
      <trkpt lat="45.47444" lon="4.22046">
        <ele>466</ele>
        <time>2025-09-16T13:03:59Z</time>
      </trkpt>
      <trkpt lat="45.47442" lon="4.22047">
        <ele>471</ele>
        <time>2025-09-16T13:04:01Z</time>
      </trkpt>
      <trkpt lat="45.47438" lon="4.2205">
        <ele>473</ele>
        <time>2025-09-16T13:04:04Z</time>
      </trkpt>
      <trkpt lat="45.47435" lon="4.22051">
        <ele>473</ele>
        <time>2025-09-16T13:04:07Z</time>
      </trkpt>
      <trkpt lat="45.47431" lon="4.22052">
        <ele>465</ele>
        <time>2025-09-16T13:04:10Z</time>
      </trkpt>
      <trkpt lat="45.47428" lon="4.22052">
        <ele>463</ele>
        <time>2025-09-16T13:04:13Z</time>
      </trkpt>
      <trkpt lat="45.47425" lon="4.22052">
        <ele>470</ele>
        <time>2025-09-16T13:04:15Z</time>
      </trkpt>
      <trkpt lat="45.47422" lon="4.22053">
        <ele>468</ele>
        <time>2025-09-16T13:04:18Z</time>
      </trkpt>
      <trkpt lat="45.47419" lon="4.22053">
        <ele>466</ele>
        <time>2025-09-16T13:04:22Z</time>
      </trkpt>
      <trkpt lat="45.47415" lon="4.22053">
        <ele>471</ele>
        <time>2025-09-16T13:04:25Z</time>
      </trkpt>
      <trkpt lat="45.47411" lon="4.22052">
        <ele>479</ele>
        <time>2025-09-16T13:04:28Z</time>
      </trkpt>
      <trkpt lat="45.47408" lon="4.22053">
        <ele>482</ele>
        <time>2025-09-16T13:04:30Z</time>
      </trkpt>
      <trkpt lat="45.47404" lon="4.22053">
        <ele>485</ele>
        <time>2025-09-16T13:04:33Z</time>
      </trkpt>
      <trkpt lat="45.474" lon="4.22053">
        <ele>476</ele>
        <time>2025-09-16T13:04:36Z</time>
      </trkpt>
      <trkpt lat="45.47397" lon="4.22054">
        <ele>479</ele>
        <time>2025-09-16T13:04:38Z</time>
      </trkpt>
      <trkpt lat="45.47394" lon="4.22056">
        <ele>479</ele>
        <time>2025-09-16T13:04:40Z</time>
      </trkpt>
      <trkpt lat="45.47391" lon="4.22056">
        <ele>474</ele>
        <time>2025-09-16T13:04:43Z</time>
      </trkpt>
      <trkpt lat="45.47387" lon="4.22057">
        <ele>472</ele>
        <time>2025-09-16T13:04:46Z</time>
      </trkpt>
      <trkpt lat="45.47384" lon="4.22059">
        <ele>469</ele>
        <time>2025-09-16T13:04:48Z</time>
      </trkpt>
      <trkpt lat="45.47381" lon="4.22061">
        <ele>475</ele>
        <time>2025-09-16T13:04:50Z</time>
      </trkpt>
      <trkpt lat="45.47377" lon="4.22065">
        <ele>475</ele>
        <time>2025-09-16T13:04:52Z</time>
      </trkpt>
      <trkpt lat="45.47375" lon="4.22068">
        <ele>480</ele>
        <time>2025-09-16T13:04:54Z</time>
      </trkpt>
      <trkpt lat="45.47371" lon="4.2207">
        <ele>477</ele>
        <time>2025-09-16T13:04:57Z</time>
      </trkpt>
      <trkpt lat="45.47368" lon="4.22072">
        <ele>482</ele>
        <time>2025-09-16T13:04:59Z</time>
      </trkpt>
      <trkpt lat="45.47365" lon="4.22074">
        <ele>482</ele>
        <time>2025-09-16T13:05:01Z</time>
      </trkpt>
      <trkpt lat="45.47362" lon="4.22076">
        <ele>484</ele>
        <time>2025-09-16T13:05:03Z</time>
      </trkpt>
      <trkpt lat="45.47359" lon="4.22077">
        <ele>480</ele>
        <time>2025-09-16T13:05:05Z</time>
      </trkpt>
      <trkpt lat="45.47356" lon="4.22079">
        <ele>478</ele>
        <time>2025-09-16T13:05:07Z</time>
      </trkpt>
      <trkpt lat="45.47354" lon="4.22082">
        <ele>477</ele>
        <time>2025-09-16T13:05:10Z</time>
      </trkpt>
      <trkpt lat="45.47351" lon="4.22084">
        <ele>482</ele>
        <time>2025-09-16T13:05:12Z</time>
      </trkpt>
      <trkpt lat="45.47348" lon="4.22085">
        <ele>488</ele>
        <time>2025-09-16T13:05:14Z</time>
      </trkpt>
      <trkpt lat="45.47345" lon="4.22086">
        <ele>482</ele>
        <time>2025-09-16T13:05:17Z</time>
      </trkpt>
      <trkpt lat="45.47341" lon="4.22087">
        <ele>480</ele>
        <time>2025-09-16T13:05:20Z</time>
      </trkpt>
      <trkpt lat="45.47338" lon="4.22089">
        <ele>474</ele>
        <time>2025-09-16T13:05:22Z</time>
      </trkpt>
      <trkpt lat="45.47335" lon="4.2209">
        <ele>484</ele>
        <time>2025-09-16T13:05:24Z</time>
      </trkpt>
      <trkpt lat="45.47332" lon="4.22092">
        <ele>480</ele>
        <time>2025-09-16T13:05:27Z</time>
      </trkpt>
      <trkpt lat="45.47328" lon="4.22093">
        <ele>477</ele>
        <time>2025-09-16T13:05:30Z</time>
      </trkpt>
      <trkpt lat="45.47325" lon="4.22095">
        <ele>487</ele>
        <time>2025-09-16T13:05:32Z</time>
      </trkpt>
      <trkpt lat="45.47322" lon="4.22096">
        <ele>484</ele>
        <time>2025-09-16T13:05:35Z</time>
      </trkpt>
      <trkpt lat="45.47319" lon="4.22097">
        <ele>486</ele>
        <time>2025-09-16T13:05:38Z</time>
      </trkpt>
      <trkpt lat="45.47316" lon="4.22098">
        <ele>491</ele>
        <time>2025-09-16T13:05:42Z</time>
      </trkpt>
      <trkpt lat="45.47313" lon="4.22098">
        <ele>489</ele>
        <time>2025-09-16T13:05:44Z</time>
      </trkpt>
      <trkpt lat="45.47309" lon="4.22098">
        <ele>489</ele>
        <time>2025-09-16T13:05:47Z</time>
      </trkpt>
      <trkpt lat="45.47305" lon="4.22098">
        <ele>484</ele>
        <time>2025-09-16T13:05:50Z</time>
      </trkpt>
      <trkpt lat="45.47302" lon="4.22098">
        <ele>482</ele>
        <time>2025-09-16T13:05:53Z</time>
      </trkpt>
      <trkpt lat="45.47298" lon="4.22099">
        <ele>482</ele>
        <time>2025-09-16T13:05:56Z</time>
      </trkpt>
      <trkpt lat="45.47295" lon="4.22101">
        <ele>491</ele>
        <time>2025-09-16T13:05:58Z</time>
      </trkpt>
      <trkpt lat="45.47293" lon="4.22103">
        <ele>494</ele>
        <time>2025-09-16T13:06:00Z</time>
      </trkpt>
      <trkpt lat="45.4729" lon="4.22106">
        <ele>494</ele>
        <time>2025-09-16T13:06:02Z</time>
      </trkpt>
      <trkpt lat="45.47289" lon="4.22109">
        <ele>488</ele>
        <time>2025-09-16T13:06:11Z</time>
      </trkpt>
      <trkpt lat="45.47287" lon="4.22111">
        <ele>490</ele>
        <time>2025-09-16T13:10:05Z</time>
      </trkpt>
      <trkpt lat="45.47284" lon="4.22112">
        <ele>489</ele>
        <time>2025-09-16T13:10:10Z</time>
      </trkpt>
      <trkpt lat="45.47281" lon="4.22114">
        <ele>489</ele>
        <time>2025-09-16T13:10:13Z</time>
      </trkpt>
      <trkpt lat="45.47276" lon="4.22118">
        <ele>488</ele>
        <time>2025-09-16T13:10:16Z</time>
      </trkpt>
      <trkpt lat="45.47273" lon="4.22121">
        <ele>490</ele>
        <time>2025-09-16T13:10:18Z</time>
      </trkpt>
      <trkpt lat="45.47269" lon="4.22123">
        <ele>488</ele>
        <time>2025-09-16T13:10:20Z</time>
      </trkpt>
      <trkpt lat="45.47266" lon="4.22124">
        <ele>485</ele>
        <time>2025-09-16T13:10:22Z</time>
      </trkpt>
      <trkpt lat="45.47262" lon="4.22125">
        <ele>492</ele>
        <time>2025-09-16T13:10:24Z</time>
      </trkpt>
      <trkpt lat="45.47258" lon="4.22125">
        <ele>489</ele>
        <time>2025-09-16T13:10:26Z</time>
      </trkpt>
      <trkpt lat="45.47254" lon="4.22126">
        <ele>491</ele>
        <time>2025-09-16T13:10:28Z</time>
      </trkpt>
      <trkpt lat="45.4725" lon="4.22127">
        <ele>487</ele>
        <time>2025-09-16T13:10:31Z</time>
      </trkpt>
      <trkpt lat="45.47247" lon="4.22126">
        <ele>487</ele>
        <time>2025-09-16T13:10:33Z</time>
      </trkpt>
      <trkpt lat="45.47243" lon="4.22126">
        <ele>495</ele>
        <time>2025-09-16T13:10:36Z</time>
      </trkpt>
      <trkpt lat="45.4724" lon="4.22124">
        <ele>492</ele>
        <time>2025-09-16T13:10:38Z</time>
      </trkpt>
      <trkpt lat="45.47237" lon="4.22124">
        <ele>490</ele>
        <time>2025-09-16T13:10:40Z</time>
      </trkpt>
      <trkpt lat="45.47233" lon="4.22124">
        <ele>492</ele>
        <time>2025-09-16T13:10:42Z</time>
      </trkpt>
      <trkpt lat="45.4723" lon="4.22125">
        <ele>495</ele>
        <time>2025-09-16T13:10:44Z</time>
      </trkpt>
      <trkpt lat="45.47227" lon="4.22126">
        <ele>495</ele>
        <time>2025-09-16T13:10:46Z</time>
      </trkpt>
      <trkpt lat="45.47224" lon="4.22128">
        <ele>495</ele>
        <time>2025-09-16T13:10:48Z</time>
      </trkpt>
      <trkpt lat="45.47219" lon="4.22131">
        <ele>492</ele>
        <time>2025-09-16T13:10:50Z</time>
      </trkpt>
      <trkpt lat="45.47215" lon="4.22134">
        <ele>495</ele>
        <time>2025-09-16T13:10:52Z</time>
      </trkpt>
      <trkpt lat="45.47211" lon="4.22136">
        <ele>490</ele>
        <time>2025-09-16T13:10:54Z</time>
      </trkpt>
      <trkpt lat="45.47206" lon="4.22136">
        <ele>486</ele>
        <time>2025-09-16T13:10:56Z</time>
      </trkpt>
      <trkpt lat="45.47203" lon="4.22137">
        <ele>495</ele>
        <time>2025-09-16T13:10:57Z</time>
      </trkpt>
      <trkpt lat="45.47198" lon="4.22138">
        <ele>494</ele>
        <time>2025-09-16T13:10:59Z</time>
      </trkpt>
      <trkpt lat="45.47194" lon="4.22141">
        <ele>496</ele>
        <time>2025-09-16T13:11:01Z</time>
      </trkpt>
      <trkpt lat="45.4719" lon="4.22145">
        <ele>490</ele>
        <time>2025-09-16T13:11:04Z</time>
      </trkpt>
      <trkpt lat="45.47187" lon="4.22149">
        <ele>489</ele>
        <time>2025-09-16T13:11:06Z</time>
      </trkpt>
      <trkpt lat="45.47184" lon="4.22152">
        <ele>492</ele>
        <time>2025-09-16T13:11:07Z</time>
      </trkpt>
      <trkpt lat="45.47181" lon="4.22154">
        <ele>491</ele>
        <time>2025-09-16T13:11:08Z</time>
      </trkpt>
      <trkpt lat="45.47178" lon="4.22157">
        <ele>493</ele>
        <time>2025-09-16T13:11:09Z</time>
      </trkpt>
      <trkpt lat="45.47175" lon="4.2216">
        <ele>491</ele>
        <time>2025-09-16T13:11:10Z</time>
      </trkpt>
      <trkpt lat="45.47173" lon="4.22164">
        <ele>489</ele>
        <time>2025-09-16T13:11:11Z</time>
      </trkpt>
      <trkpt lat="45.47172" lon="4.22167">
        <ele>491</ele>
        <time>2025-09-16T13:11:12Z</time>
      </trkpt>
      <trkpt lat="45.4717" lon="4.22171">
        <ele>493</ele>
        <time>2025-09-16T13:11:13Z</time>
      </trkpt>
      <trkpt lat="45.47169" lon="4.22175">
        <ele>490</ele>
        <time>2025-09-16T13:11:14Z</time>
      </trkpt>
      <trkpt lat="45.47167" lon="4.2218">
        <ele>487</ele>
        <time>2025-09-16T13:11:16Z</time>
      </trkpt>
      <trkpt lat="45.47165" lon="4.22184">
        <ele>488</ele>
        <time>2025-09-16T13:11:17Z</time>
      </trkpt>
      <trkpt lat="45.47162" lon="4.22188">
        <ele>489</ele>
        <time>2025-09-16T13:11:18Z</time>
      </trkpt>
      <trkpt lat="45.47159" lon="4.22192">
        <ele>489</ele>
        <time>2025-09-16T13:11:19Z</time>
      </trkpt>
      <trkpt lat="45.47155" lon="4.22195">
        <ele>488</ele>
        <time>2025-09-16T13:11:20Z</time>
      </trkpt>
      <trkpt lat="45.47151" lon="4.22197">
        <ele>490</ele>
        <time>2025-09-16T13:11:21Z</time>
      </trkpt>
      <trkpt lat="45.47146" lon="4.22199">
        <ele>488</ele>
        <time>2025-09-16T13:11:22Z</time>
      </trkpt>
      <trkpt lat="45.47141" lon="4.22201">
        <ele>489</ele>
        <time>2025-09-16T13:11:23Z</time>
      </trkpt>
      <trkpt lat="45.47136" lon="4.22203">
        <ele>486</ele>
        <time>2025-09-16T13:11:24Z</time>
      </trkpt>
      <trkpt lat="45.47131" lon="4.22204">
        <ele>484</ele>
        <time>2025-09-16T13:11:25Z</time>
      </trkpt>
      <trkpt lat="45.47126" lon="4.22206">
        <ele>485</ele>
        <time>2025-09-16T13:11:26Z</time>
      </trkpt>
      <trkpt lat="45.47121" lon="4.22207">
        <ele>487</ele>
        <time>2025-09-16T13:11:27Z</time>
      </trkpt>
      <trkpt lat="45.47116" lon="4.22208">
        <ele>482</ele>
        <time>2025-09-16T13:11:28Z</time>
      </trkpt>
      <trkpt lat="45.47112" lon="4.2221">
        <ele>486</ele>
        <time>2025-09-16T13:11:29Z</time>
      </trkpt>
      <trkpt lat="45.47107" lon="4.22211">
        <ele>478</ele>
        <time>2025-09-16T13:11:30Z</time>
      </trkpt>
      <trkpt lat="45.47103" lon="4.22212">
        <ele>487</ele>
        <time>2025-09-16T13:11:31Z</time>
      </trkpt>
      <trkpt lat="45.47098" lon="4.22212">
        <ele>489</ele>
        <time>2025-09-16T13:11:32Z</time>
      </trkpt>
      <trkpt lat="45.47094" lon="4.22213">
        <ele>489</ele>
        <time>2025-09-16T13:11:33Z</time>
      </trkpt>
      <trkpt lat="45.4709" lon="4.22213">
        <ele>486</ele>
        <time>2025-09-16T13:11:34Z</time>
      </trkpt>
      <trkpt lat="45.47086" lon="4.22214">
        <ele>487</ele>
        <time>2025-09-16T13:11:35Z</time>
      </trkpt>
      <trkpt lat="45.47081" lon="4.22215">
        <ele>488</ele>
        <time>2025-09-16T13:11:36Z</time>
      </trkpt>
      <trkpt lat="45.47077" lon="4.22216">
        <ele>483</ele>
        <time>2025-09-16T13:11:37Z</time>
      </trkpt>
      <trkpt lat="45.47072" lon="4.22216">
        <ele>483</ele>
        <time>2025-09-16T13:11:38Z</time>
      </trkpt>
      <trkpt lat="45.47068" lon="4.22217">
        <ele>486</ele>
        <time>2025-09-16T13:11:39Z</time>
      </trkpt>
      <trkpt lat="45.47063" lon="4.22217">
        <ele>489</ele>
        <time>2025-09-16T13:11:40Z</time>
      </trkpt>
      <trkpt lat="45.47059" lon="4.22217">
        <ele>486</ele>
        <time>2025-09-16T13:11:41Z</time>
      </trkpt>
      <trkpt lat="45.47055" lon="4.22216">
        <ele>485</ele>
        <time>2025-09-16T13:11:42Z</time>
      </trkpt>
      <trkpt lat="45.47051" lon="4.22216">
        <ele>492</ele>
        <time>2025-09-16T13:11:43Z</time>
      </trkpt>
      <trkpt lat="45.47047" lon="4.22216">
        <ele>489</ele>
        <time>2025-09-16T13:11:44Z</time>
      </trkpt>
      <trkpt lat="45.47044" lon="4.22215">
        <ele>491</ele>
        <time>2025-09-16T13:11:45Z</time>
      </trkpt>
      <trkpt lat="45.47041" lon="4.22215">
        <ele>483</ele>
        <time>2025-09-16T13:11:46Z</time>
      </trkpt>
      <trkpt lat="45.47038" lon="4.22215">
        <ele>485</ele>
        <time>2025-09-16T13:11:47Z</time>
      </trkpt>
      <trkpt lat="45.47035" lon="4.22215">
        <ele>485</ele>
        <time>2025-09-16T13:11:48Z</time>
      </trkpt>
      <trkpt lat="45.47032" lon="4.22214">
        <ele>480</ele>
        <time>2025-09-16T13:11:49Z</time>
      </trkpt>
      <trkpt lat="45.47029" lon="4.22213">
        <ele>488</ele>
        <time>2025-09-16T13:11:50Z</time>
      </trkpt>
      <trkpt lat="45.47026" lon="4.22213">
        <ele>493</ele>
        <time>2025-09-16T13:11:51Z</time>
      </trkpt>
      <trkpt lat="45.47023" lon="4.22212">
        <ele>495</ele>
        <time>2025-09-16T13:11:52Z</time>
      </trkpt>
      <trkpt lat="45.4702" lon="4.2221">
        <ele>484</ele>
        <time>2025-09-16T13:11:54Z</time>
      </trkpt>
      <trkpt lat="45.47015" lon="4.22209">
        <ele>490</ele>
        <time>2025-09-16T13:11:56Z</time>
      </trkpt>
      <trkpt lat="45.47012" lon="4.22208">
        <ele>483</ele>
        <time>2025-09-16T13:11:58Z</time>
      </trkpt>
      <trkpt lat="45.47008" lon="4.22209">
        <ele>486</ele>
        <time>2025-09-16T13:12:00Z</time>
      </trkpt>
      <trkpt lat="45.47003" lon="4.22211">
        <ele>487</ele>
        <time>2025-09-16T13:12:02Z</time>
      </trkpt>
      <trkpt lat="45.46999" lon="4.22212">
        <ele>491</ele>
        <time>2025-09-16T13:12:03Z</time>
      </trkpt>
      <trkpt lat="45.46995" lon="4.22214">
        <ele>489</ele>
        <time>2025-09-16T13:12:04Z</time>
      </trkpt>
      <trkpt lat="45.46992" lon="4.22216">
        <ele>491</ele>
        <time>2025-09-16T13:12:05Z</time>
      </trkpt>
      <trkpt lat="45.46989" lon="4.22218">
        <ele>480</ele>
        <time>2025-09-16T13:12:06Z</time>
      </trkpt>
      <trkpt lat="45.46987" lon="4.2222">
        <ele>484</ele>
        <time>2025-09-16T13:12:07Z</time>
      </trkpt>
      <trkpt lat="45.46984" lon="4.22222">
        <ele>487</ele>
        <time>2025-09-16T13:12:08Z</time>
      </trkpt>
      <trkpt lat="45.46981" lon="4.22223">
        <ele>490</ele>
        <time>2025-09-16T13:12:09Z</time>
      </trkpt>
      <trkpt lat="45.46978" lon="4.22226">
        <ele>486</ele>
        <time>2025-09-16T13:12:11Z</time>
      </trkpt>
      <trkpt lat="45.46974" lon="4.22228">
        <ele>491</ele>
        <time>2025-09-16T13:12:13Z</time>
      </trkpt>
      <trkpt lat="45.46971" lon="4.22231">
        <ele>491</ele>
        <time>2025-09-16T13:12:15Z</time>
      </trkpt>
      <trkpt lat="45.46968" lon="4.22233">
        <ele>490</ele>
        <time>2025-09-16T13:12:17Z</time>
      </trkpt>
      <trkpt lat="45.46964" lon="4.22235">
        <ele>493</ele>
        <time>2025-09-16T13:12:19Z</time>
      </trkpt>
      <trkpt lat="45.4696" lon="4.22237">
        <ele>486</ele>
        <time>2025-09-16T13:12:21Z</time>
      </trkpt>
      <trkpt lat="45.46957" lon="4.22239">
        <ele>485</ele>
        <time>2025-09-16T13:12:23Z</time>
      </trkpt>
      <trkpt lat="45.46954" lon="4.22242">
        <ele>487</ele>
        <time>2025-09-16T13:12:25Z</time>
      </trkpt>
      <trkpt lat="45.4695" lon="4.22243">
        <ele>495</ele>
        <time>2025-09-16T13:12:27Z</time>
      </trkpt>
      <trkpt lat="45.46946" lon="4.22244">
        <ele>497</ele>
        <time>2025-09-16T13:12:29Z</time>
      </trkpt>
      <trkpt lat="45.46943" lon="4.22246">
        <ele>501</ele>
        <time>2025-09-16T13:12:31Z</time>
      </trkpt>
      <trkpt lat="45.4694" lon="4.22249">
        <ele>501</ele>
        <time>2025-09-16T13:12:33Z</time>
      </trkpt>
      <trkpt lat="45.46937" lon="4.22252">
        <ele>492</ele>
        <time>2025-09-16T13:12:35Z</time>
      </trkpt>
      <trkpt lat="45.46934" lon="4.22254">
        <ele>497</ele>
        <time>2025-09-16T13:12:37Z</time>
      </trkpt>
      <trkpt lat="45.4693" lon="4.22257">
        <ele>501</ele>
        <time>2025-09-16T13:12:39Z</time>
      </trkpt>
      <trkpt lat="45.46927" lon="4.22259">
        <ele>499</ele>
        <time>2025-09-16T13:12:41Z</time>
      </trkpt>
      <trkpt lat="45.46924" lon="4.22261">
        <ele>495</ele>
        <time>2025-09-16T13:12:43Z</time>
      </trkpt>
      <trkpt lat="45.46921" lon="4.22263">
        <ele>491</ele>
        <time>2025-09-16T13:12:45Z</time>
      </trkpt>
      <trkpt lat="45.46917" lon="4.22265">
        <ele>497</ele>
        <time>2025-09-16T13:12:47Z</time>
      </trkpt>
      <trkpt lat="45.46913" lon="4.22268">
        <ele>498</ele>
        <time>2025-09-16T13:12:49Z</time>
      </trkpt>
      <trkpt lat="45.46908" lon="4.2227">
        <ele>500</ele>
        <time>2025-09-16T13:12:51Z</time>
      </trkpt>
      <trkpt lat="45.46903" lon="4.22273">
        <ele>497</ele>
        <time>2025-09-16T13:12:53Z</time>
      </trkpt>
      <trkpt lat="45.46899" lon="4.22276">
        <ele>493</ele>
        <time>2025-09-16T13:12:55Z</time>
      </trkpt>
      <trkpt lat="45.46894" lon="4.22279">
        <ele>493</ele>
        <time>2025-09-16T13:12:57Z</time>
      </trkpt>
      <trkpt lat="45.46889" lon="4.22281">
        <ele>492</ele>
        <time>2025-09-16T13:12:59Z</time>
      </trkpt>
      <trkpt lat="45.46885" lon="4.22283">
        <ele>493</ele>
        <time>2025-09-16T13:13:01Z</time>
      </trkpt>
      <trkpt lat="45.46881" lon="4.22285">
        <ele>494</ele>
        <time>2025-09-16T13:13:03Z</time>
      </trkpt>
      <trkpt lat="45.46877" lon="4.22288">
        <ele>501</ele>
        <time>2025-09-16T13:13:05Z</time>
      </trkpt>
      <trkpt lat="45.46873" lon="4.2229">
        <ele>500</ele>
        <time>2025-09-16T13:13:07Z</time>
      </trkpt>
      <trkpt lat="45.4687" lon="4.22291">
        <ele>495</ele>
        <time>2025-09-16T13:13:09Z</time>
      </trkpt>
      <trkpt lat="45.46867" lon="4.22292">
        <ele>491</ele>
        <time>2025-09-16T13:13:11Z</time>
      </trkpt>
      <trkpt lat="45.46863" lon="4.22292">
        <ele>496</ele>
        <time>2025-09-16T13:13:13Z</time>
      </trkpt>
      <trkpt lat="45.46859" lon="4.22293">
        <ele>494</ele>
        <time>2025-09-16T13:13:15Z</time>
      </trkpt>
      <trkpt lat="45.46856" lon="4.22295">
        <ele>495</ele>
        <time>2025-09-16T13:13:17Z</time>
      </trkpt>
      <trkpt lat="45.46852" lon="4.22297">
        <ele>499</ele>
        <time>2025-09-16T13:13:19Z</time>
      </trkpt>
      <trkpt lat="45.46848" lon="4.22299">
        <ele>500</ele>
        <time>2025-09-16T13:13:21Z</time>
      </trkpt>
      <trkpt lat="45.46844" lon="4.22302">
        <ele>496</ele>
        <time>2025-09-16T13:13:23Z</time>
      </trkpt>
      <trkpt lat="45.46841" lon="4.22305">
        <ele>491</ele>
        <time>2025-09-16T13:13:25Z</time>
      </trkpt>
      <trkpt lat="45.46838" lon="4.22308">
        <ele>499</ele>
        <time>2025-09-16T13:13:27Z</time>
      </trkpt>
      <trkpt lat="45.46835" lon="4.22311">
        <ele>504</ele>
        <time>2025-09-16T13:13:29Z</time>
      </trkpt>
      <trkpt lat="45.46832" lon="4.22315">
        <ele>504</ele>
        <time>2025-09-16T13:13:31Z</time>
      </trkpt>
      <trkpt lat="45.4683" lon="4.22317">
        <ele>498</ele>
        <time>2025-09-16T13:13:33Z</time>
      </trkpt>
      <trkpt lat="45.46827" lon="4.2232">
        <ele>492</ele>
        <time>2025-09-16T13:13:36Z</time>
      </trkpt>
      <trkpt lat="45.46824" lon="4.22323">
        <ele>500</ele>
        <time>2025-09-16T13:13:38Z</time>
      </trkpt>
      <trkpt lat="45.46821" lon="4.22326">
        <ele>505</ele>
        <time>2025-09-16T13:13:40Z</time>
      </trkpt>
      <trkpt lat="45.46818" lon="4.22328">
        <ele>508</ele>
        <time>2025-09-16T13:13:43Z</time>
      </trkpt>
      <trkpt lat="45.46814" lon="4.22331">
        <ele>508</ele>
        <time>2025-09-16T13:13:46Z</time>
      </trkpt>
      <trkpt lat="45.46811" lon="4.22334">
        <ele>509</ele>
        <time>2025-09-16T13:13:48Z</time>
      </trkpt>
      <trkpt lat="45.46809" lon="4.22337">
        <ele>503</ele>
        <time>2025-09-16T13:13:50Z</time>
      </trkpt>
      <trkpt lat="45.46806" lon="4.2234">
        <ele>505</ele>
        <time>2025-09-16T13:13:53Z</time>
      </trkpt>
      <trkpt lat="45.46803" lon="4.22343">
        <ele>504</ele>
        <time>2025-09-16T13:13:55Z</time>
      </trkpt>
      <trkpt lat="45.468" lon="4.22346">
        <ele>501</ele>
        <time>2025-09-16T13:13:57Z</time>
      </trkpt>
      <trkpt lat="45.46797" lon="4.22348">
        <ele>503</ele>
        <time>2025-09-16T13:13:59Z</time>
      </trkpt>
      <trkpt lat="45.46794" lon="4.2235">
        <ele>499</ele>
        <time>2025-09-16T13:14:01Z</time>
      </trkpt>
      <trkpt lat="45.4679" lon="4.22352">
        <ele>498</ele>
        <time>2025-09-16T13:14:03Z</time>
      </trkpt>
      <trkpt lat="45.46787" lon="4.22353">
        <ele>497</ele>
        <time>2025-09-16T13:14:05Z</time>
      </trkpt>
      <trkpt lat="45.46783" lon="4.22355">
        <ele>499</ele>
        <time>2025-09-16T13:14:07Z</time>
      </trkpt>
      <trkpt lat="45.4678" lon="4.22356">
        <ele>503</ele>
        <time>2025-09-16T13:14:09Z</time>
      </trkpt>
      <trkpt lat="45.46777" lon="4.22358">
        <ele>509</ele>
        <time>2025-09-16T13:14:11Z</time>
      </trkpt>
      <trkpt lat="45.46774" lon="4.2236">
        <ele>508</ele>
        <time>2025-09-16T13:14:13Z</time>
      </trkpt>
      <trkpt lat="45.46771" lon="4.22363">
        <ele>509</ele>
        <time>2025-09-16T13:14:15Z</time>
      </trkpt>
      <trkpt lat="45.46768" lon="4.22366">
        <ele>513</ele>
        <time>2025-09-16T13:14:18Z</time>
      </trkpt>
      <trkpt lat="45.46766" lon="4.2237">
        <ele>504</ele>
        <time>2025-09-16T13:14:20Z</time>
      </trkpt>
      <trkpt lat="45.46765" lon="4.22374">
        <ele>502</ele>
        <time>2025-09-16T13:14:22Z</time>
      </trkpt>
      <trkpt lat="45.46764" lon="4.22378">
        <ele>502</ele>
        <time>2025-09-16T13:14:24Z</time>
      </trkpt>
      <trkpt lat="45.46764" lon="4.22382">
        <ele>501</ele>
        <time>2025-09-16T13:14:27Z</time>
      </trkpt>
      <trkpt lat="45.46765" lon="4.22387">
        <ele>504</ele>
        <time>2025-09-16T13:14:29Z</time>
      </trkpt>
      <trkpt lat="45.46766" lon="4.22392">
        <ele>502</ele>
        <time>2025-09-16T13:14:32Z</time>
      </trkpt>
      <trkpt lat="45.46767" lon="4.22397">
        <ele>504</ele>
        <time>2025-09-16T13:14:34Z</time>
      </trkpt>
      <trkpt lat="45.46768" lon="4.22401">
        <ele>511</ele>
        <time>2025-09-16T13:14:36Z</time>
      </trkpt>
      <trkpt lat="45.46769" lon="4.22406">
        <ele>510</ele>
        <time>2025-09-16T13:14:38Z</time>
      </trkpt>
      <trkpt lat="45.4677" lon="4.22411">
        <ele>509</ele>
        <time>2025-09-16T13:14:41Z</time>
      </trkpt>
      <trkpt lat="45.46771" lon="4.22415">
        <ele>506</ele>
        <time>2025-09-16T13:14:43Z</time>
      </trkpt>
      <trkpt lat="45.46772" lon="4.2242">
        <ele>506</ele>
        <time>2025-09-16T13:14:45Z</time>
      </trkpt>
      <trkpt lat="45.46774" lon="4.22424">
        <ele>507</ele>
        <time>2025-09-16T13:14:47Z</time>
      </trkpt>
      <trkpt lat="45.46775" lon="4.2243">
        <ele>507</ele>
        <time>2025-09-16T13:14:49Z</time>
      </trkpt>
      <trkpt lat="45.46777" lon="4.22435">
        <ele>509</ele>
        <time>2025-09-16T13:14:50Z</time>
      </trkpt>
      <trkpt lat="45.46778" lon="4.22439">
        <ele>511</ele>
        <time>2025-09-16T13:14:51Z</time>
      </trkpt>
      <trkpt lat="45.46779" lon="4.22444">
        <ele>505</ele>
        <time>2025-09-16T13:14:52Z</time>
      </trkpt>
      <trkpt lat="45.4678" lon="4.22448">
        <ele>508</ele>
        <time>2025-09-16T13:14:53Z</time>
      </trkpt>
      <trkpt lat="45.46781" lon="4.22452">
        <ele>507</ele>
        <time>2025-09-16T13:14:54Z</time>
      </trkpt>
      <trkpt lat="45.46782" lon="4.22457">
        <ele>511</ele>
        <time>2025-09-16T13:14:55Z</time>
      </trkpt>
      <trkpt lat="45.46784" lon="4.22463">
        <ele>508</ele>
        <time>2025-09-16T13:14:57Z</time>
      </trkpt>
      <trkpt lat="45.46785" lon="4.22468">
        <ele>511</ele>
        <time>2025-09-16T13:14:58Z</time>
      </trkpt>
      <trkpt lat="45.46786" lon="4.22473">
        <ele>509</ele>
        <time>2025-09-16T13:14:59Z</time>
      </trkpt>
      <trkpt lat="45.46787" lon="4.22479">
        <ele>508</ele>
        <time>2025-09-16T13:15:00Z</time>
      </trkpt>
      <trkpt lat="45.46788" lon="4.22484">
        <ele>505</ele>
        <time>2025-09-16T13:15:01Z</time>
      </trkpt>
      <trkpt lat="45.46789" lon="4.2249">
        <ele>509</ele>
        <time>2025-09-16T13:15:02Z</time>
      </trkpt>
      <trkpt lat="45.46789" lon="4.22495">
        <ele>504</ele>
        <time>2025-09-16T13:15:03Z</time>
      </trkpt>
      <trkpt lat="45.4679" lon="4.22499">
        <ele>507</ele>
        <time>2025-09-16T13:15:04Z</time>
      </trkpt>
      <trkpt lat="45.46792" lon="4.22505">
        <ele>504</ele>
        <time>2025-09-16T13:15:06Z</time>
      </trkpt>
      <trkpt lat="45.46793" lon="4.22512">
        <ele>501</ele>
        <time>2025-09-16T13:15:08Z</time>
      </trkpt>
      <trkpt lat="45.46794" lon="4.22517">
        <ele>502</ele>
        <time>2025-09-16T13:15:09Z</time>
      </trkpt>
      <trkpt lat="45.46794" lon="4.22522">
        <ele>506</ele>
        <time>2025-09-16T13:15:10Z</time>
      </trkpt>
      <trkpt lat="45.46795" lon="4.22526">
        <ele>501</ele>
        <time>2025-09-16T13:15:11Z</time>
      </trkpt>
      <trkpt lat="45.46795" lon="4.22531">
        <ele>504</ele>
        <time>2025-09-16T13:15:12Z</time>
      </trkpt>
      <trkpt lat="45.46796" lon="4.22536">
        <ele>506</ele>
        <time>2025-09-16T13:15:13Z</time>
      </trkpt>
      <trkpt lat="45.46798" lon="4.22542">
        <ele>504</ele>
        <time>2025-09-16T13:15:14Z</time>
      </trkpt>
      <trkpt lat="45.46799" lon="4.22547">
        <ele>503</ele>
        <time>2025-09-16T13:15:15Z</time>
      </trkpt>
      <trkpt lat="45.468" lon="4.22552">
        <ele>498</ele>
        <time>2025-09-16T13:15:16Z</time>
      </trkpt>
      <trkpt lat="45.46801" lon="4.22558">
        <ele>506</ele>
        <time>2025-09-16T13:15:17Z</time>
      </trkpt>
      <trkpt lat="45.46802" lon="4.22564">
        <ele>506</ele>
        <time>2025-09-16T13:15:18Z</time>
      </trkpt>
      <trkpt lat="45.46804" lon="4.22568">
        <ele>509</ele>
        <time>2025-09-16T13:15:19Z</time>
      </trkpt>
      <trkpt lat="45.46806" lon="4.22573">
        <ele>510</ele>
        <time>2025-09-16T13:15:20Z</time>
      </trkpt>
      <trkpt lat="45.46808" lon="4.22578">
        <ele>508</ele>
        <time>2025-09-16T13:15:21Z</time>
      </trkpt>
      <trkpt lat="45.4681" lon="4.22582">
        <ele>504</ele>
        <time>2025-09-16T13:15:23Z</time>
      </trkpt>
      <trkpt lat="45.46812" lon="4.22586">
        <ele>504</ele>
        <time>2025-09-16T13:15:24Z</time>
      </trkpt>
      <trkpt lat="45.46814" lon="4.2259">
        <ele>509</ele>
        <time>2025-09-16T13:15:25Z</time>
      </trkpt>
      <trkpt lat="45.46816" lon="4.22594">
        <ele>508</ele>
        <time>2025-09-16T13:15:26Z</time>
      </trkpt>
      <trkpt lat="45.46818" lon="4.22598">
        <ele>503</ele>
        <time>2025-09-16T13:15:27Z</time>
      </trkpt>
      <trkpt lat="45.4682" lon="4.22603">
        <ele>504</ele>
        <time>2025-09-16T13:15:28Z</time>
      </trkpt>
      <trkpt lat="45.46822" lon="4.22607">
        <ele>507</ele>
        <time>2025-09-16T13:15:29Z</time>
      </trkpt>
      <trkpt lat="45.46823" lon="4.22612">
        <ele>504</ele>
        <time>2025-09-16T13:15:30Z</time>
      </trkpt>
      <trkpt lat="45.46825" lon="4.22617">
        <ele>510</ele>
        <time>2025-09-16T13:15:31Z</time>
      </trkpt>
      <trkpt lat="45.46827" lon="4.22622">
        <ele>501</ele>
        <time>2025-09-16T13:15:32Z</time>
      </trkpt>
      <trkpt lat="45.46828" lon="4.22626">
        <ele>505</ele>
        <time>2025-09-16T13:15:33Z</time>
      </trkpt>
      <trkpt lat="45.46829" lon="4.22631">
        <ele>501</ele>
        <time>2025-09-16T13:15:34Z</time>
      </trkpt>
      <trkpt lat="45.4683" lon="4.22635">
        <ele>498</ele>
        <time>2025-09-16T13:15:35Z</time>
      </trkpt>
      <trkpt lat="45.46831" lon="4.2264">
        <ele>509</ele>
        <time>2025-09-16T13:15:36Z</time>
      </trkpt>
      <trkpt lat="45.46832" lon="4.22645">
        <ele>509</ele>
        <time>2025-09-16T13:15:37Z</time>
      </trkpt>
      <trkpt lat="45.46833" lon="4.2265">
        <ele>508</ele>
        <time>2025-09-16T13:15:38Z</time>
      </trkpt>
      <trkpt lat="45.46834" lon="4.22655">
        <ele>505</ele>
        <time>2025-09-16T13:15:39Z</time>
      </trkpt>
      <trkpt lat="45.46836" lon="4.22659">
        <ele>504</ele>
        <time>2025-09-16T13:15:40Z</time>
      </trkpt>
      <trkpt lat="45.46837" lon="4.22664">
        <ele>505</ele>
        <time>2025-09-16T13:15:41Z</time>
      </trkpt>
      <trkpt lat="45.46838" lon="4.22669">
        <ele>500</ele>
        <time>2025-09-16T13:15:42Z</time>
      </trkpt>
      <trkpt lat="45.46839" lon="4.22674">
        <ele>505</ele>
        <time>2025-09-16T13:15:43Z</time>
      </trkpt>
      <trkpt lat="45.46839" lon="4.22679">
        <ele>505</ele>
        <time>2025-09-16T13:15:44Z</time>
      </trkpt>
      <trkpt lat="45.4684" lon="4.22683">
        <ele>507</ele>
        <time>2025-09-16T13:15:45Z</time>
      </trkpt>
      <trkpt lat="45.4684" lon="4.22688">
        <ele>505</ele>
        <time>2025-09-16T13:15:46Z</time>
      </trkpt>
      <trkpt lat="45.46841" lon="4.22693">
        <ele>507</ele>
        <time>2025-09-16T13:15:47Z</time>
      </trkpt>
      <trkpt lat="45.46842" lon="4.22697">
        <ele>504</ele>
        <time>2025-09-16T13:15:48Z</time>
      </trkpt>
      <trkpt lat="45.46842" lon="4.22704">
        <ele>509</ele>
        <time>2025-09-16T13:15:50Z</time>
      </trkpt>
      <trkpt lat="45.46843" lon="4.22709">
        <ele>507</ele>
        <time>2025-09-16T13:15:51Z</time>
      </trkpt>
      <trkpt lat="45.46843" lon="4.22714">
        <ele>509</ele>
        <time>2025-09-16T13:15:52Z</time>
      </trkpt>
      <trkpt lat="45.46844" lon="4.22718">
        <ele>512</ele>
        <time>2025-09-16T13:15:53Z</time>
      </trkpt>
      <trkpt lat="45.46844" lon="4.22723">
        <ele>507</ele>
        <time>2025-09-16T13:15:54Z</time>
      </trkpt>
      <trkpt lat="45.46844" lon="4.22727">
        <ele>512</ele>
        <time>2025-09-16T13:15:55Z</time>
      </trkpt>
      <trkpt lat="45.46845" lon="4.22733">
        <ele>507</ele>
        <time>2025-09-16T13:15:57Z</time>
      </trkpt>
      <trkpt lat="45.46845" lon="4.2274">
        <ele>508</ele>
        <time>2025-09-16T13:15:59Z</time>
      </trkpt>
      <trkpt lat="45.46845" lon="4.22746">
        <ele>507</ele>
        <time>2025-09-16T13:16:01Z</time>
      </trkpt>
      <trkpt lat="45.46845" lon="4.22752">
        <ele>504</ele>
        <time>2025-09-16T13:16:03Z</time>
      </trkpt>
      <trkpt lat="45.46844" lon="4.22757">
        <ele>502</ele>
        <time>2025-09-16T13:16:05Z</time>
      </trkpt>
      <trkpt lat="45.46844" lon="4.22762">
        <ele>509</ele>
        <time>2025-09-16T13:16:07Z</time>
      </trkpt>
      <trkpt lat="45.46844" lon="4.22766">
        <ele>507</ele>
        <time>2025-09-16T13:16:09Z</time>
      </trkpt>
      <trkpt lat="45.46843" lon="4.22771">
        <ele>509</ele>
        <time>2025-09-16T13:16:11Z</time>
      </trkpt>
      <trkpt lat="45.46842" lon="4.22775">
        <ele>510</ele>
        <time>2025-09-16T13:16:13Z</time>
      </trkpt>
      <trkpt lat="45.46841" lon="4.22781">
        <ele>512</ele>
        <time>2025-09-16T13:16:15Z</time>
      </trkpt>
      <trkpt lat="45.46839" lon="4.22786">
        <ele>511</ele>
        <time>2025-09-16T13:16:17Z</time>
      </trkpt>
      <trkpt lat="45.46838" lon="4.22791">
        <ele>510</ele>
        <time>2025-09-16T13:16:19Z</time>
      </trkpt>
      <trkpt lat="45.46836" lon="4.22797">
        <ele>513</ele>
        <time>2025-09-16T13:16:21Z</time>
      </trkpt>
      <trkpt lat="45.46834" lon="4.22803">
        <ele>511</ele>
        <time>2025-09-16T13:16:23Z</time>
      </trkpt>
      <trkpt lat="45.46833" lon="4.22809">
        <ele>512</ele>
        <time>2025-09-16T13:16:25Z</time>
      </trkpt>
      <trkpt lat="45.46832" lon="4.22815">
        <ele>510</ele>
        <time>2025-09-16T13:16:27Z</time>
      </trkpt>
      <trkpt lat="45.46831" lon="4.2282">
        <ele>506</ele>
        <time>2025-09-16T13:16:29Z</time>
      </trkpt>
      <trkpt lat="45.4683" lon="4.22825">
        <ele>508</ele>
        <time>2025-09-16T13:16:31Z</time>
      </trkpt>
      <trkpt lat="45.4683" lon="4.22831">
        <ele>506</ele>
        <time>2025-09-16T13:16:33Z</time>
      </trkpt>
      <trkpt lat="45.46829" lon="4.22836">
        <ele>510</ele>
        <time>2025-09-16T13:16:35Z</time>
      </trkpt>
      <trkpt lat="45.46828" lon="4.22841">
        <ele>508</ele>
        <time>2025-09-16T13:16:37Z</time>
      </trkpt>
      <trkpt lat="45.46826" lon="4.22846">
        <ele>514</ele>
        <time>2025-09-16T13:16:39Z</time>
      </trkpt>
      <trkpt lat="45.46825" lon="4.2285">
        <ele>509</ele>
        <time>2025-09-16T13:16:41Z</time>
      </trkpt>
      <trkpt lat="45.46825" lon="4.22855">
        <ele>511</ele>
        <time>2025-09-16T13:16:43Z</time>
      </trkpt>
      <trkpt lat="45.46823" lon="4.22859">
        <ele>509</ele>
        <time>2025-09-16T13:16:45Z</time>
      </trkpt>
      <trkpt lat="45.46822" lon="4.22863">
        <ele>507</ele>
        <time>2025-09-16T13:16:47Z</time>
      </trkpt>
      <trkpt lat="45.46821" lon="4.22867">
        <ele>506</ele>
        <time>2025-09-16T13:16:49Z</time>
      </trkpt>
      <trkpt lat="45.46821" lon="4.22872">
        <ele>507</ele>
        <time>2025-09-16T13:16:51Z</time>
      </trkpt>
      <trkpt lat="45.46821" lon="4.22877">
        <ele>511</ele>
        <time>2025-09-16T13:16:53Z</time>
      </trkpt>
      <trkpt lat="45.4682" lon="4.22883">
        <ele>513</ele>
        <time>2025-09-16T13:16:55Z</time>
      </trkpt>
      <trkpt lat="45.46818" lon="4.22889">
        <ele>515</ele>
        <time>2025-09-16T13:16:57Z</time>
      </trkpt>
      <trkpt lat="45.46817" lon="4.22895">
        <ele>513</ele>
        <time>2025-09-16T13:16:59Z</time>
      </trkpt>
      <trkpt lat="45.46815" lon="4.229">
        <ele>505</ele>
        <time>2025-09-16T13:17:00Z</time>
      </trkpt>
      <trkpt lat="45.46814" lon="4.22904">
        <ele>508</ele>
        <time>2025-09-16T13:17:01Z</time>
      </trkpt>
      <trkpt lat="45.46812" lon="4.22909">
        <ele>509</ele>
        <time>2025-09-16T13:17:02Z</time>
      </trkpt>
      <trkpt lat="45.46811" lon="4.22914">
        <ele>511</ele>
        <time>2025-09-16T13:17:03Z</time>
      </trkpt>
      <trkpt lat="45.46809" lon="4.22919">
        <ele>510</ele>
        <time>2025-09-16T13:17:04Z</time>
      </trkpt>
      <trkpt lat="45.46807" lon="4.22924">
        <ele>509</ele>
        <time>2025-09-16T13:17:05Z</time>
      </trkpt>
      <trkpt lat="45.46806" lon="4.22928">
        <ele>503</ele>
        <time>2025-09-16T13:17:06Z</time>
      </trkpt>
      <trkpt lat="45.46804" lon="4.22932">
        <ele>506</ele>
        <time>2025-09-16T13:17:07Z</time>
      </trkpt>
      <trkpt lat="45.46803" lon="4.22936">
        <ele>508</ele>
        <time>2025-09-16T13:17:08Z</time>
      </trkpt>
      <trkpt lat="45.46801" lon="4.22941">
        <ele>504</ele>
        <time>2025-09-16T13:17:09Z</time>
      </trkpt>
      <trkpt lat="45.468" lon="4.22945">
        <ele>508</ele>
        <time>2025-09-16T13:17:10Z</time>
      </trkpt>
      <trkpt lat="45.46799" lon="4.22949">
        <ele>505</ele>
        <time>2025-09-16T13:17:11Z</time>
      </trkpt>
      <trkpt lat="45.46797" lon="4.22954">
        <ele>506</ele>
        <time>2025-09-16T13:17:12Z</time>
      </trkpt>
      <trkpt lat="45.46796" lon="4.22957">
        <ele>506</ele>
        <time>2025-09-16T13:17:13Z</time>
      </trkpt>
      <trkpt lat="45.46794" lon="4.22961">
        <ele>508</ele>
        <time>2025-09-16T13:17:14Z</time>
      </trkpt>
      <trkpt lat="45.46792" lon="4.22965">
        <ele>508</ele>
        <time>2025-09-16T13:17:15Z</time>
      </trkpt>
      <trkpt lat="45.4679" lon="4.22969">
        <ele>506</ele>
        <time>2025-09-16T13:17:16Z</time>
      </trkpt>
      <trkpt lat="45.46788" lon="4.22973">
        <ele>508</ele>
        <time>2025-09-16T13:17:17Z</time>
      </trkpt>
      <trkpt lat="45.46786" lon="4.22977">
        <ele>502</ele>
        <time>2025-09-16T13:17:18Z</time>
      </trkpt>
      <trkpt lat="45.46784" lon="4.22982">
        <ele>507</ele>
        <time>2025-09-16T13:17:19Z</time>
      </trkpt>
      <trkpt lat="45.46782" lon="4.22986">
        <ele>508</ele>
        <time>2025-09-16T13:17:20Z</time>
      </trkpt>
      <trkpt lat="45.4678" lon="4.2299">
        <ele>507</ele>
        <time>2025-09-16T13:17:21Z</time>
      </trkpt>
      <trkpt lat="45.46778" lon="4.22993">
        <ele>505</ele>
        <time>2025-09-16T13:17:22Z</time>
      </trkpt>
      <trkpt lat="45.46776" lon="4.22998">
        <ele>507</ele>
        <time>2025-09-16T13:17:23Z</time>
      </trkpt>
      <trkpt lat="45.46773" lon="4.23002">
        <ele>503</ele>
        <time>2025-09-16T13:17:24Z</time>
      </trkpt>
      <trkpt lat="45.46771" lon="4.23006">
        <ele>505</ele>
        <time>2025-09-16T13:17:25Z</time>
      </trkpt>
      <trkpt lat="45.46769" lon="4.2301">
        <ele>503</ele>
        <time>2025-09-16T13:17:26Z</time>
      </trkpt>
      <trkpt lat="45.46767" lon="4.23014">
        <ele>505</ele>
        <time>2025-09-16T13:17:27Z</time>
      </trkpt>
      <trkpt lat="45.46764" lon="4.23018">
        <ele>505</ele>
        <time>2025-09-16T13:17:28Z</time>
      </trkpt>
      <trkpt lat="45.46762" lon="4.23023">
        <ele>504</ele>
        <time>2025-09-16T13:17:29Z</time>
      </trkpt>
      <trkpt lat="45.4676" lon="4.23026">
        <ele>503</ele>
        <time>2025-09-16T13:17:30Z</time>
      </trkpt>
      <trkpt lat="45.46757" lon="4.2303">
        <ele>503</ele>
        <time>2025-09-16T13:17:31Z</time>
      </trkpt>
      <trkpt lat="45.46754" lon="4.23035">
        <ele>508</ele>
        <time>2025-09-16T13:17:32Z</time>
      </trkpt>
      <trkpt lat="45.46752" lon="4.2304">
        <ele>505</ele>
        <time>2025-09-16T13:17:33Z</time>
      </trkpt>
      <trkpt lat="45.46749" lon="4.23044">
        <ele>505</ele>
        <time>2025-09-16T13:17:34Z</time>
      </trkpt>
      <trkpt lat="45.46747" lon="4.23049">
        <ele>501</ele>
        <time>2025-09-16T13:17:35Z</time>
      </trkpt>
      <trkpt lat="45.46744" lon="4.23053">
        <ele>501</ele>
        <time>2025-09-16T13:17:36Z</time>
      </trkpt>
      <trkpt lat="45.46742" lon="4.23058">
        <ele>503</ele>
        <time>2025-09-16T13:17:37Z</time>
      </trkpt>
      <trkpt lat="45.4674" lon="4.23063">
        <ele>500</ele>
        <time>2025-09-16T13:17:38Z</time>
      </trkpt>
      <trkpt lat="45.46739" lon="4.23068">
        <ele>501</ele>
        <time>2025-09-16T13:17:39Z</time>
      </trkpt>
      <trkpt lat="45.46738" lon="4.23074">
        <ele>499</ele>
        <time>2025-09-16T13:17:40Z</time>
      </trkpt>
      <trkpt lat="45.46738" lon="4.23082">
        <ele>500</ele>
        <time>2025-09-16T13:17:41Z</time>
      </trkpt>
      <trkpt lat="45.46738" lon="4.23089">
        <ele>498</ele>
        <time>2025-09-16T13:17:42Z</time>
      </trkpt>
      <trkpt lat="45.46739" lon="4.23097">
        <ele>500</ele>
        <time>2025-09-16T13:17:43Z</time>
      </trkpt>
      <trkpt lat="45.46741" lon="4.23106">
        <ele>496</ele>
        <time>2025-09-16T13:17:44Z</time>
      </trkpt>
      <trkpt lat="45.46742" lon="4.23117">
        <ele>494</ele>
        <time>2025-09-16T13:17:45Z</time>
      </trkpt>
      <trkpt lat="45.46744" lon="4.23127">
        <ele>493</ele>
        <time>2025-09-16T13:17:46Z</time>
      </trkpt>
      <trkpt lat="45.46746" lon="4.23136">
        <ele>496</ele>
        <time>2025-09-16T13:17:47Z</time>
      </trkpt>
      <trkpt lat="45.46749" lon="4.23146">
        <ele>492</ele>
        <time>2025-09-16T13:17:48Z</time>
      </trkpt>
      <trkpt lat="45.46752" lon="4.23156">
        <ele>494</ele>
        <time>2025-09-16T13:17:49Z</time>
      </trkpt>
      <trkpt lat="45.46755" lon="4.23166">
        <ele>496</ele>
        <time>2025-09-16T13:17:50Z</time>
      </trkpt>
      <trkpt lat="45.46758" lon="4.23176">
        <ele>495</ele>
        <time>2025-09-16T13:17:51Z</time>
      </trkpt>
      <trkpt lat="45.46762" lon="4.23188">
        <ele>493</ele>
        <time>2025-09-16T13:17:52Z</time>
      </trkpt>
      <trkpt lat="45.46767" lon="4.23199">
        <ele>493</ele>
        <time>2025-09-16T13:17:53Z</time>
      </trkpt>
      <trkpt lat="45.46772" lon="4.2321">
        <ele>496</ele>
        <time>2025-09-16T13:17:54Z</time>
      </trkpt>
      <trkpt lat="45.46778" lon="4.2322">
        <ele>495</ele>
        <time>2025-09-16T13:17:55Z</time>
      </trkpt>
      <trkpt lat="45.46784" lon="4.23231">
        <ele>495</ele>
        <time>2025-09-16T13:17:56Z</time>
      </trkpt>
      <trkpt lat="45.46789" lon="4.23239">
        <ele>494</ele>
        <time>2025-09-16T13:17:57Z</time>
      </trkpt>
      <trkpt lat="45.46794" lon="4.23245">
        <ele>491</ele>
        <time>2025-09-16T13:17:58Z</time>
      </trkpt>
      <trkpt lat="45.46798" lon="4.23251">
        <ele>490</ele>
        <time>2025-09-16T13:17:59Z</time>
      </trkpt>
      <trkpt lat="45.46802" lon="4.23256">
        <ele>493</ele>
        <time>2025-09-16T13:18:01Z</time>
      </trkpt>
      <trkpt lat="45.46806" lon="4.23259">
        <ele>493</ele>
        <time>2025-09-16T13:18:02Z</time>
      </trkpt>
      <trkpt lat="45.46809" lon="4.23262">
        <ele>489</ele>
        <time>2025-09-16T13:18:03Z</time>
      </trkpt>
      <trkpt lat="45.46812" lon="4.23266">
        <ele>492</ele>
        <time>2025-09-16T13:18:04Z</time>
      </trkpt>
      <trkpt lat="45.46816" lon="4.23271">
        <ele>492</ele>
        <time>2025-09-16T13:18:05Z</time>
      </trkpt>
      <trkpt lat="45.46819" lon="4.23274">
        <ele>491</ele>
        <time>2025-09-16T13:18:06Z</time>
      </trkpt>
      <trkpt lat="45.46821" lon="4.23278">
        <ele>486</ele>
        <time>2025-09-16T13:18:07Z</time>
      </trkpt>
      <trkpt lat="45.46823" lon="4.23282">
        <ele>489</ele>
        <time>2025-09-16T13:18:08Z</time>
      </trkpt>
      <trkpt lat="45.46826" lon="4.23287">
        <ele>487</ele>
        <time>2025-09-16T13:18:09Z</time>
      </trkpt>
      <trkpt lat="45.46828" lon="4.23291">
        <ele>488</ele>
        <time>2025-09-16T13:18:10Z</time>
      </trkpt>
      <trkpt lat="45.46831" lon="4.23296">
        <ele>489</ele>
        <time>2025-09-16T13:18:10Z</time>
      </trkpt>
      <trkpt lat="45.46835" lon="4.23301">
        <ele>491</ele>
        <time>2025-09-16T13:18:11Z</time>
      </trkpt>
      <trkpt lat="45.46838" lon="4.23305">
        <ele>490</ele>
        <time>2025-09-16T13:18:12Z</time>
      </trkpt>
      <trkpt lat="45.46842" lon="4.23309">
        <ele>485</ele>
        <time>2025-09-16T13:18:13Z</time>
      </trkpt>
      <trkpt lat="45.46845" lon="4.23312">
        <ele>488</ele>
        <time>2025-09-16T13:18:14Z</time>
      </trkpt>
      <trkpt lat="45.46849" lon="4.23315">
        <ele>489</ele>
        <time>2025-09-16T13:18:15Z</time>
      </trkpt>
      <trkpt lat="45.46853" lon="4.23318">
        <ele>489</ele>
        <time>2025-09-16T13:18:16Z</time>
      </trkpt>
      <trkpt lat="45.46857" lon="4.23321">
        <ele>489</ele>
        <time>2025-09-16T13:18:17Z</time>
      </trkpt>
      <trkpt lat="45.4686" lon="4.23324">
        <ele>490</ele>
        <time>2025-09-16T13:18:18Z</time>
      </trkpt>
      <trkpt lat="45.46863" lon="4.23327">
        <ele>491</ele>
        <time>2025-09-16T13:18:19Z</time>
      </trkpt>
      <trkpt lat="45.46865" lon="4.2333">
        <ele>491</ele>
        <time>2025-09-16T13:18:20Z</time>
      </trkpt>
      <trkpt lat="45.46865" lon="4.23334">
        <ele>491</ele>
        <time>2025-09-16T13:18:21Z</time>
      </trkpt>
      <trkpt lat="45.46866" lon="4.23338">
        <ele>487</ele>
        <time>2025-09-16T13:18:22Z</time>
      </trkpt>
      <trkpt lat="45.46864" lon="4.2334">
        <ele>488</ele>
        <time>2025-09-16T13:18:23Z</time>
      </trkpt>
      <trkpt lat="45.4686" lon="4.2334">
        <ele>487</ele>
        <time>2025-09-16T13:18:24Z</time>
      </trkpt>
      <trkpt lat="45.46856" lon="4.23339">
        <ele>482</ele>
        <time>2025-09-16T13:18:25Z</time>
      </trkpt>
      <trkpt lat="45.46852" lon="4.2334">
        <ele>485</ele>
        <time>2025-09-16T13:18:26Z</time>
      </trkpt>
      <trkpt lat="45.46849" lon="4.2334">
        <ele>486</ele>
        <time>2025-09-16T13:18:27Z</time>
      </trkpt>
      <trkpt lat="45.46845" lon="4.23339">
        <ele>484</ele>
        <time>2025-09-16T13:18:28Z</time>
      </trkpt>
      <trkpt lat="45.46841" lon="4.23339">
        <ele>482</ele>
        <time>2025-09-16T13:18:29Z</time>
      </trkpt>
      <trkpt lat="45.46837" lon="4.23338">
        <ele>483</ele>
        <time>2025-09-16T13:18:30Z</time>
      </trkpt>
      <trkpt lat="45.46833" lon="4.23336">
        <ele>485</ele>
        <time>2025-09-16T13:18:31Z</time>
      </trkpt>
      <trkpt lat="45.46827" lon="4.23335">
        <ele>485</ele>
        <time>2025-09-16T13:18:32Z</time>
      </trkpt>
      <trkpt lat="45.46822" lon="4.23333">
        <ele>487</ele>
        <time>2025-09-16T13:18:33Z</time>
      </trkpt>
      <trkpt lat="45.46817" lon="4.23331">
        <ele>486</ele>
        <time>2025-09-16T13:18:34Z</time>
      </trkpt>
      <trkpt lat="45.46812" lon="4.23329">
        <ele>487</ele>
        <time>2025-09-16T13:18:35Z</time>
      </trkpt>
      <trkpt lat="45.46807" lon="4.23327">
        <ele>489</ele>
        <time>2025-09-16T13:18:36Z</time>
      </trkpt>
      <trkpt lat="45.46802" lon="4.23325">
        <ele>489</ele>
        <time>2025-09-16T13:18:37Z</time>
      </trkpt>
      <trkpt lat="45.46796" lon="4.23323">
        <ele>484</ele>
        <time>2025-09-16T13:18:38Z</time>
      </trkpt>
      <trkpt lat="45.46792" lon="4.23321">
        <ele>485</ele>
        <time>2025-09-16T13:18:39Z</time>
      </trkpt>
      <trkpt lat="45.46783" lon="4.23317">
        <ele>485</ele>
        <time>2025-09-16T13:18:41Z</time>
      </trkpt>
      <trkpt lat="45.46777" lon="4.23315">
        <ele>486</ele>
        <time>2025-09-16T13:18:42Z</time>
      </trkpt>
      <trkpt lat="45.46771" lon="4.23314">
        <ele>480</ele>
        <time>2025-09-16T13:18:43Z</time>
      </trkpt>
      <trkpt lat="45.46766" lon="4.23313">
        <ele>481</ele>
        <time>2025-09-16T13:18:44Z</time>
      </trkpt>
      <trkpt lat="45.4676" lon="4.23312">
        <ele>481</ele>
        <time>2025-09-16T13:18:45Z</time>
      </trkpt>
      <trkpt lat="45.46754" lon="4.23312">
        <ele>481</ele>
        <time>2025-09-16T13:18:46Z</time>
      </trkpt>
      <trkpt lat="45.46748" lon="4.23312">
        <ele>485</ele>
        <time>2025-09-16T13:18:47Z</time>
      </trkpt>
      <trkpt lat="45.46742" lon="4.23312">
        <ele>482</ele>
        <time>2025-09-16T13:18:48Z</time>
      </trkpt>
      <trkpt lat="45.46737" lon="4.23312">
        <ele>483</ele>
        <time>2025-09-16T13:18:49Z</time>
      </trkpt>
      <trkpt lat="45.46732" lon="4.23312">
        <ele>480</ele>
        <time>2025-09-16T13:18:50Z</time>
      </trkpt>
      <trkpt lat="45.46727" lon="4.23313">
        <ele>478</ele>
        <time>2025-09-16T13:18:51Z</time>
      </trkpt>
      <trkpt lat="45.46722" lon="4.23313">
        <ele>482</ele>
        <time>2025-09-16T13:18:52Z</time>
      </trkpt>
      <trkpt lat="45.46717" lon="4.23314">
        <ele>486</ele>
        <time>2025-09-16T13:18:53Z</time>
      </trkpt>
      <trkpt lat="45.46712" lon="4.23315">
        <ele>488</ele>
        <time>2025-09-16T13:18:54Z</time>
      </trkpt>
      <trkpt lat="45.46707" lon="4.23316">
        <ele>490</ele>
        <time>2025-09-16T13:18:55Z</time>
      </trkpt>
      <trkpt lat="45.46703" lon="4.23317">
        <ele>489</ele>
        <time>2025-09-16T13:18:56Z</time>
      </trkpt>
      <trkpt lat="45.46699" lon="4.23318">
        <ele>487</ele>
        <time>2025-09-16T13:18:57Z</time>
      </trkpt>
      <trkpt lat="45.46696" lon="4.2332">
        <ele>485</ele>
        <time>2025-09-16T13:18:58Z</time>
      </trkpt>
      <trkpt lat="45.46693" lon="4.23321">
        <ele>484</ele>
        <time>2025-09-16T13:18:59Z</time>
      </trkpt>
      <trkpt lat="45.46689" lon="4.23324">
        <ele>484</ele>
        <time>2025-09-16T13:19:00Z</time>
      </trkpt>
      <trkpt lat="45.46686" lon="4.23325">
        <ele>483</ele>
        <time>2025-09-16T13:19:01Z</time>
      </trkpt>
      <trkpt lat="45.46682" lon="4.23327">
        <ele>481</ele>
        <time>2025-09-16T13:19:02Z</time>
      </trkpt>
      <trkpt lat="45.46678" lon="4.23327">
        <ele>481</ele>
        <time>2025-09-16T13:19:03Z</time>
      </trkpt>
      <trkpt lat="45.46674" lon="4.23327">
        <ele>484</ele>
        <time>2025-09-16T13:19:04Z</time>
      </trkpt>
      <trkpt lat="45.4667" lon="4.23326">
        <ele>484</ele>
        <time>2025-09-16T13:19:05Z</time>
      </trkpt>
      <trkpt lat="45.46667" lon="4.23325">
        <ele>477</ele>
        <time>2025-09-16T13:19:06Z</time>
      </trkpt>
      <trkpt lat="45.46664" lon="4.23324">
        <ele>476</ele>
        <time>2025-09-16T13:19:07Z</time>
      </trkpt>
      <trkpt lat="45.46661" lon="4.23323">
        <ele>478</ele>
        <time>2025-09-16T13:19:08Z</time>
      </trkpt>
      <trkpt lat="45.46658" lon="4.23321">
        <ele>481</ele>
        <time>2025-09-16T13:19:09Z</time>
      </trkpt>
      <trkpt lat="45.46655" lon="4.23318">
        <ele>482</ele>
        <time>2025-09-16T13:19:10Z</time>
      </trkpt>
      <trkpt lat="45.46652" lon="4.23316">
        <ele>479</ele>
        <time>2025-09-16T13:19:11Z</time>
      </trkpt>
      <trkpt lat="45.46648" lon="4.23312">
        <ele>483</ele>
        <time>2025-09-16T13:19:12Z</time>
      </trkpt>
      <trkpt lat="45.46645" lon="4.23307">
        <ele>483</ele>
        <time>2025-09-16T13:19:13Z</time>
      </trkpt>
      <trkpt lat="45.46641" lon="4.23303">
        <ele>483</ele>
        <time>2025-09-16T13:19:14Z</time>
      </trkpt>
      <trkpt lat="45.46637" lon="4.23299">
        <ele>481</ele>
        <time>2025-09-16T13:19:15Z</time>
      </trkpt>
      <trkpt lat="45.46633" lon="4.23296">
        <ele>481</ele>
        <time>2025-09-16T13:19:16Z</time>
      </trkpt>
      <trkpt lat="45.46628" lon="4.23293">
        <ele>482</ele>
        <time>2025-09-16T13:19:17Z</time>
      </trkpt>
      <trkpt lat="45.46623" lon="4.2329">
        <ele>478</ele>
        <time>2025-09-16T13:19:18Z</time>
      </trkpt>
      <trkpt lat="45.46619" lon="4.23288">
        <ele>479</ele>
        <time>2025-09-16T13:19:19Z</time>
      </trkpt>
      <trkpt lat="45.46615" lon="4.23288">
        <ele>473</ele>
        <time>2025-09-16T13:19:20Z</time>
      </trkpt>
      <trkpt lat="45.46612" lon="4.23288">
        <ele>476</ele>
        <time>2025-09-16T13:19:21Z</time>
      </trkpt>
      <trkpt lat="45.46608" lon="4.23288">
        <ele>477</ele>
        <time>2025-09-16T13:19:22Z</time>
      </trkpt>
      <trkpt lat="45.46605" lon="4.23288">
        <ele>480</ele>
        <time>2025-09-16T13:19:23Z</time>
      </trkpt>
      <trkpt lat="45.46602" lon="4.23289">
        <ele>479</ele>
        <time>2025-09-16T13:19:24Z</time>
      </trkpt>
      <trkpt lat="45.46598" lon="4.2329">
        <ele>479</ele>
        <time>2025-09-16T13:19:25Z</time>
      </trkpt>
      <trkpt lat="45.46595" lon="4.23291">
        <ele>471</ele>
        <time>2025-09-16T13:19:26Z</time>
      </trkpt>
      <trkpt lat="45.46591" lon="4.23292">
        <ele>474</ele>
        <time>2025-09-16T13:19:27Z</time>
      </trkpt>
      <trkpt lat="45.46588" lon="4.23293">
        <ele>475</ele>
        <time>2025-09-16T13:19:28Z</time>
      </trkpt>
      <trkpt lat="45.46585" lon="4.23294">
        <ele>479</ele>
        <time>2025-09-16T13:19:29Z</time>
      </trkpt>
      <trkpt lat="45.46581" lon="4.23296">
        <ele>477</ele>
        <time>2025-09-16T13:19:30Z</time>
      </trkpt>
      <trkpt lat="45.46575" lon="4.23298">
        <ele>476</ele>
        <time>2025-09-16T13:19:32Z</time>
      </trkpt>
      <trkpt lat="45.46571" lon="4.23299">
        <ele>480</ele>
        <time>2025-09-16T13:19:33Z</time>
      </trkpt>
      <trkpt lat="45.46566" lon="4.23299">
        <ele>474</ele>
        <time>2025-09-16T13:19:34Z</time>
      </trkpt>
      <trkpt lat="45.46562" lon="4.233">
        <ele>472</ele>
        <time>2025-09-16T13:19:35Z</time>
      </trkpt>
      <trkpt lat="45.46557" lon="4.23301">
        <ele>476</ele>
        <time>2025-09-16T13:19:36Z</time>
      </trkpt>
      <trkpt lat="45.46552" lon="4.23302">
        <ele>481</ele>
        <time>2025-09-16T13:19:37Z</time>
      </trkpt>
      <trkpt lat="45.46547" lon="4.23304">
        <ele>482</ele>
        <time>2025-09-16T13:19:38Z</time>
      </trkpt>
      <trkpt lat="45.46543" lon="4.23306">
        <ele>482</ele>
        <time>2025-09-16T13:19:39Z</time>
      </trkpt>
      <trkpt lat="45.4654" lon="4.23309">
        <ele>485</ele>
        <time>2025-09-16T13:19:40Z</time>
      </trkpt>
      <trkpt lat="45.46536" lon="4.23313">
        <ele>478</ele>
        <time>2025-09-16T13:19:41Z</time>
      </trkpt>
      <trkpt lat="45.46534" lon="4.23316">
        <ele>478</ele>
        <time>2025-09-16T13:19:42Z</time>
      </trkpt>
      <trkpt lat="45.46531" lon="4.23319">
        <ele>479</ele>
        <time>2025-09-16T13:19:43Z</time>
      </trkpt>
      <trkpt lat="45.46529" lon="4.23323">
        <ele>482</ele>
        <time>2025-09-16T13:19:44Z</time>
      </trkpt>
      <trkpt lat="45.46527" lon="4.2333">
        <ele>482</ele>
        <time>2025-09-16T13:19:46Z</time>
      </trkpt>
      <trkpt lat="45.46525" lon="4.23335">
        <ele>479</ele>
        <time>2025-09-16T13:19:47Z</time>
      </trkpt>
      <trkpt lat="45.46525" lon="4.23342">
        <ele>476</ele>
        <time>2025-09-16T13:19:49Z</time>
      </trkpt>
      <trkpt lat="45.46525" lon="4.23347">
        <ele>478</ele>
        <time>2025-09-16T13:19:50Z</time>
      </trkpt>
      <trkpt lat="45.46525" lon="4.23352">
        <ele>481</ele>
        <time>2025-09-16T13:19:51Z</time>
      </trkpt>
      <trkpt lat="45.46526" lon="4.23357">
        <ele>482</ele>
        <time>2025-09-16T13:19:52Z</time>
      </trkpt>
      <trkpt lat="45.46527" lon="4.23362">
        <ele>480</ele>
        <time>2025-09-16T13:19:54Z</time>
      </trkpt>
      <trkpt lat="45.46528" lon="4.23369">
        <ele>479</ele>
        <time>2025-09-16T13:19:56Z</time>
      </trkpt>
      <trkpt lat="45.46529" lon="4.23375">
        <ele>482</ele>
        <time>2025-09-16T13:19:58Z</time>
      </trkpt>
      <trkpt lat="45.4653" lon="4.2338">
        <ele>485</ele>
        <time>2025-09-16T13:19:59Z</time>
      </trkpt>
      <trkpt lat="45.46531" lon="4.23384">
        <ele>484</ele>
        <time>2025-09-16T13:20:00Z</time>
      </trkpt>
      <trkpt lat="45.46532" lon="4.2339">
        <ele>486</ele>
        <time>2025-09-16T13:20:01Z</time>
      </trkpt>
      <trkpt lat="45.46534" lon="4.23394">
        <ele>478</ele>
        <time>2025-09-16T13:20:02Z</time>
      </trkpt>
      <trkpt lat="45.46537" lon="4.23398">
        <ele>484</ele>
        <time>2025-09-16T13:20:03Z</time>
      </trkpt>
      <trkpt lat="45.46539" lon="4.23402">
        <ele>483</ele>
        <time>2025-09-16T13:20:05Z</time>
      </trkpt>
      <trkpt lat="45.46542" lon="4.23407">
        <ele>486</ele>
        <time>2025-09-16T13:20:07Z</time>
      </trkpt>
      <trkpt lat="45.46544" lon="4.23411">
        <ele>484</ele>
        <time>2025-09-16T13:20:09Z</time>
      </trkpt>
      <trkpt lat="45.46546" lon="4.23415">
        <ele>488</ele>
        <time>2025-09-16T13:20:11Z</time>
      </trkpt>
      <trkpt lat="45.46547" lon="4.2342">
        <ele>491</ele>
        <time>2025-09-16T13:20:13Z</time>
      </trkpt>
      <trkpt lat="45.46548" lon="4.23424">
        <ele>492</ele>
        <time>2025-09-16T13:20:15Z</time>
      </trkpt>
      <trkpt lat="45.4655" lon="4.23429">
        <ele>489</ele>
        <time>2025-09-16T13:20:17Z</time>
      </trkpt>
      <trkpt lat="45.46552" lon="4.23433">
        <ele>491</ele>
        <time>2025-09-16T13:20:19Z</time>
      </trkpt>
      <trkpt lat="45.46553" lon="4.23437">
        <ele>490</ele>
        <time>2025-09-16T13:20:21Z</time>
      </trkpt>
      <trkpt lat="45.46553" lon="4.23441">
        <ele>487</ele>
        <time>2025-09-16T13:20:25Z</time>
      </trkpt>
      <trkpt lat="45.46552" lon="4.23445">
        <ele>481</ele>
        <time>2025-09-16T13:20:29Z</time>
      </trkpt>
      <trkpt lat="45.46549" lon="4.23447">
        <ele>490</ele>
        <time>2025-09-16T13:20:32Z</time>
      </trkpt>
      <trkpt lat="45.46546" lon="4.2345">
        <ele>490</ele>
        <time>2025-09-16T13:20:34Z</time>
      </trkpt>
      <trkpt lat="45.46543" lon="4.23454">
        <ele>490</ele>
        <time>2025-09-16T13:20:36Z</time>
      </trkpt>
      <trkpt lat="45.46541" lon="4.23456">
        <ele>486</ele>
        <time>2025-09-16T13:20:38Z</time>
      </trkpt>
      <trkpt lat="45.46538" lon="4.23456">
        <ele>485</ele>
        <time>2025-09-16T13:20:40Z</time>
      </trkpt>
      <trkpt lat="45.46535" lon="4.23455">
        <ele>483</ele>
        <time>2025-09-16T13:20:43Z</time>
      </trkpt>
      <trkpt lat="45.46531" lon="4.23456">
        <ele>479</ele>
        <time>2025-09-16T13:20:45Z</time>
      </trkpt>
      <trkpt lat="45.46528" lon="4.23457">
        <ele>487</ele>
        <time>2025-09-16T13:20:46Z</time>
      </trkpt>
      <trkpt lat="45.46525" lon="4.23458">
        <ele>488</ele>
        <time>2025-09-16T13:20:47Z</time>
      </trkpt>
      <trkpt lat="45.46522" lon="4.2346">
        <ele>494</ele>
        <time>2025-09-16T13:20:48Z</time>
      </trkpt>
      <trkpt lat="45.46519" lon="4.23461">
        <ele>486</ele>
        <time>2025-09-16T13:20:50Z</time>
      </trkpt>
      <trkpt lat="45.46515" lon="4.23462">
        <ele>494</ele>
        <time>2025-09-16T13:20:54Z</time>
      </trkpt>
      <trkpt lat="45.46511" lon="4.23463">
        <ele>487</ele>
        <time>2025-09-16T13:20:57Z</time>
      </trkpt>
      <trkpt lat="45.46508" lon="4.23463">
        <ele>484</ele>
        <time>2025-09-16T13:20:59Z</time>
      </trkpt>
      <trkpt lat="45.46505" lon="4.23463">
        <ele>484</ele>
        <time>2025-09-16T13:21:04Z</time>
      </trkpt>
      <trkpt lat="45.46502" lon="4.23462">
        <ele>493</ele>
        <time>2025-09-16T13:21:07Z</time>
      </trkpt>
      <trkpt lat="45.46498" lon="4.2346">
        <ele>489</ele>
        <time>2025-09-16T13:21:10Z</time>
      </trkpt>
      <trkpt lat="45.46495" lon="4.23459">
        <ele>489</ele>
        <time>2025-09-16T13:21:12Z</time>
      </trkpt>
      <trkpt lat="45.46492" lon="4.23457">
        <ele>495</ele>
        <time>2025-09-16T13:21:14Z</time>
      </trkpt>
      <trkpt lat="45.46489" lon="4.23455">
        <ele>495</ele>
        <time>2025-09-16T13:21:16Z</time>
      </trkpt>
      <trkpt lat="45.46486" lon="4.23452">
        <ele>497</ele>
        <time>2025-09-16T13:21:18Z</time>
      </trkpt>
      <trkpt lat="45.46482" lon="4.23449">
        <ele>500</ele>
        <time>2025-09-16T13:21:20Z</time>
      </trkpt>
      <trkpt lat="45.46479" lon="4.23445">
        <ele>495</ele>
        <time>2025-09-16T13:21:22Z</time>
      </trkpt>
      <trkpt lat="45.46476" lon="4.23443">
        <ele>492</ele>
        <time>2025-09-16T13:21:24Z</time>
      </trkpt>
      <trkpt lat="45.46473" lon="4.2344">
        <ele>494</ele>
        <time>2025-09-16T13:21:27Z</time>
      </trkpt>
      <trkpt lat="45.46469" lon="4.23438">
        <ele>500</ele>
        <time>2025-09-16T13:21:29Z</time>
      </trkpt>
      <trkpt lat="45.46465" lon="4.23437">
        <ele>495</ele>
        <time>2025-09-16T13:21:31Z</time>
      </trkpt>
      <trkpt lat="45.46462" lon="4.23436">
        <ele>488</ele>
        <time>2025-09-16T13:21:33Z</time>
      </trkpt>
      <trkpt lat="45.46457" lon="4.23434">
        <ele>499</ele>
        <time>2025-09-16T13:21:36Z</time>
      </trkpt>
      <trkpt lat="45.46454" lon="4.23433">
        <ele>490</ele>
        <time>2025-09-16T13:21:38Z</time>
      </trkpt>
      <trkpt lat="45.4645" lon="4.23433">
        <ele>500</ele>
        <time>2025-09-16T13:21:40Z</time>
      </trkpt>
      <trkpt lat="45.46447" lon="4.23433">
        <ele>496</ele>
        <time>2025-09-16T13:21:42Z</time>
      </trkpt>
      <trkpt lat="45.46444" lon="4.23433">
        <ele>503</ele>
        <time>2025-09-16T13:21:45Z</time>
      </trkpt>
      <trkpt lat="45.4644" lon="4.23433">
        <ele>504</ele>
        <time>2025-09-16T13:21:48Z</time>
      </trkpt>
      <trkpt lat="45.46437" lon="4.23434">
        <ele>506</ele>
        <time>2025-09-16T13:21:54Z</time>
      </trkpt>
      <trkpt lat="45.46434" lon="4.23434">
        <ele>496</ele>
        <time>2025-09-16T13:21:56Z</time>
      </trkpt>
      <trkpt lat="45.4643" lon="4.23433">
        <ele>497</ele>
        <time>2025-09-16T13:21:58Z</time>
      </trkpt>
      <trkpt lat="45.46427" lon="4.23432">
        <ele>494</ele>
        <time>2025-09-16T13:22:00Z</time>
      </trkpt>
      <trkpt lat="45.46424" lon="4.23431">
        <ele>487</ele>
        <time>2025-09-16T13:22:03Z</time>
      </trkpt>
      <trkpt lat="45.4642" lon="4.2343">
        <ele>493</ele>
        <time>2025-09-16T13:22:07Z</time>
      </trkpt>
      <trkpt lat="45.46416" lon="4.23429">
        <ele>497</ele>
        <time>2025-09-16T13:22:10Z</time>
      </trkpt>
      <trkpt lat="45.46412" lon="4.23428">
        <ele>504</ele>
        <time>2025-09-16T13:22:13Z</time>
      </trkpt>
      <trkpt lat="45.46409" lon="4.23426">
        <ele>508</ele>
        <time>2025-09-16T13:22:15Z</time>
      </trkpt>
      <trkpt lat="45.46406" lon="4.23424">
        <ele>504</ele>
        <time>2025-09-16T13:22:17Z</time>
      </trkpt>
      <trkpt lat="45.46403" lon="4.23422">
        <ele>494</ele>
        <time>2025-09-16T13:22:20Z</time>
      </trkpt>
      <trkpt lat="45.46399" lon="4.2342">
        <ele>493</ele>
        <time>2025-09-16T13:22:22Z</time>
      </trkpt>
      <trkpt lat="45.46396" lon="4.23418">
        <ele>497</ele>
        <time>2025-09-16T13:22:25Z</time>
      </trkpt>
      <trkpt lat="45.46393" lon="4.23416">
        <ele>503</ele>
        <time>2025-09-16T13:22:27Z</time>
      </trkpt>
      <trkpt lat="45.4639" lon="4.23414">
        <ele>508</ele>
        <time>2025-09-16T13:22:29Z</time>
      </trkpt>
      <trkpt lat="45.46387" lon="4.23413">
        <ele>511</ele>
        <time>2025-09-16T13:22:32Z</time>
      </trkpt>
      <trkpt lat="45.46384" lon="4.23413">
        <ele>510</ele>
        <time>2025-09-16T13:22:34Z</time>
      </trkpt>
      <trkpt lat="45.46381" lon="4.23413">
        <ele>499</ele>
        <time>2025-09-16T13:22:36Z</time>
      </trkpt>
      <trkpt lat="45.46377" lon="4.23412">
        <ele>496</ele>
        <time>2025-09-16T13:22:38Z</time>
      </trkpt>
      <trkpt lat="45.46374" lon="4.2341">
        <ele>495</ele>
        <time>2025-09-16T13:22:41Z</time>
      </trkpt>
      <trkpt lat="45.4637" lon="4.23408">
        <ele>506</ele>
        <time>2025-09-16T13:22:44Z</time>
      </trkpt>
      <trkpt lat="45.46367" lon="4.23406">
        <ele>507</ele>
        <time>2025-09-16T13:22:49Z</time>
      </trkpt>
      <trkpt lat="45.46364" lon="4.23403">
        <ele>500</ele>
        <time>2025-09-16T13:22:51Z</time>
      </trkpt>
      <trkpt lat="45.46361" lon="4.23401">
        <ele>510</ele>
        <time>2025-09-16T13:22:53Z</time>
      </trkpt>
      <trkpt lat="45.46358" lon="4.234">
        <ele>513</ele>
        <time>2025-09-16T13:22:55Z</time>
      </trkpt>
      <trkpt lat="45.46356" lon="4.23397">
        <ele>508</ele>
        <time>2025-09-16T13:22:57Z</time>
      </trkpt>
      <trkpt lat="45.46353" lon="4.23395">
        <ele>504</ele>
        <time>2025-09-16T13:23:01Z</time>
      </trkpt>
      <trkpt lat="45.4635" lon="4.23393">
        <ele>504</ele>
        <time>2025-09-16T13:23:03Z</time>
      </trkpt>
      <trkpt lat="45.46347" lon="4.23392">
        <ele>498</ele>
        <time>2025-09-16T13:23:05Z</time>
      </trkpt>
      <trkpt lat="45.46344" lon="4.2339">
        <ele>509</ele>
        <time>2025-09-16T13:23:07Z</time>
      </trkpt>
      <trkpt lat="45.46341" lon="4.23389">
        <ele>506</ele>
        <time>2025-09-16T13:23:09Z</time>
      </trkpt>
      <trkpt lat="45.46337" lon="4.2339">
        <ele>508</ele>
        <time>2025-09-16T13:23:11Z</time>
      </trkpt>
      <trkpt lat="45.46334" lon="4.2339">
        <ele>508</ele>
        <time>2025-09-16T13:23:13Z</time>
      </trkpt>
      <trkpt lat="45.46331" lon="4.23391">
        <ele>505</ele>
        <time>2025-09-16T13:23:15Z</time>
      </trkpt>
      <trkpt lat="45.46328" lon="4.23391">
        <ele>506</ele>
        <time>2025-09-16T13:23:17Z</time>
      </trkpt>
      <trkpt lat="45.46326" lon="4.23393">
        <ele>506</ele>
        <time>2025-09-16T13:23:19Z</time>
      </trkpt>
      <trkpt lat="45.46324" lon="4.23395">
        <ele>508</ele>
        <time>2025-09-16T13:23:22Z</time>
      </trkpt>
      <trkpt lat="45.46321" lon="4.23399">
        <ele>514</ele>
        <time>2025-09-16T13:23:25Z</time>
      </trkpt>
      <trkpt lat="45.4632" lon="4.23402">
        <ele>508</ele>
        <time>2025-09-16T13:23:27Z</time>
      </trkpt>
      <trkpt lat="45.46317" lon="4.23406">
        <ele>509</ele>
        <time>2025-09-16T13:23:29Z</time>
      </trkpt>
      <trkpt lat="45.46315" lon="4.23409">
        <ele>509</ele>
        <time>2025-09-16T13:23:31Z</time>
      </trkpt>
      <trkpt lat="45.46313" lon="4.23412">
        <ele>502</ele>
        <time>2025-09-16T13:23:34Z</time>
      </trkpt>
      <trkpt lat="45.46309" lon="4.23415">
        <ele>510</ele>
        <time>2025-09-16T13:23:37Z</time>
      </trkpt>
      <trkpt lat="45.46307" lon="4.23418">
        <ele>517</ele>
        <time>2025-09-16T13:23:40Z</time>
      </trkpt>
      <trkpt lat="45.46304" lon="4.23421">
        <ele>518</ele>
        <time>2025-09-16T13:23:43Z</time>
      </trkpt>
      <trkpt lat="45.46301" lon="4.23423">
        <ele>517</ele>
        <time>2025-09-16T13:23:46Z</time>
      </trkpt>
      <trkpt lat="45.46299" lon="4.23426">
        <ele>514</ele>
        <time>2025-09-16T13:23:49Z</time>
      </trkpt>
      <trkpt lat="45.46296" lon="4.23429">
        <ele>513</ele>
        <time>2025-09-16T13:23:52Z</time>
      </trkpt>
      <trkpt lat="45.46294" lon="4.23431">
        <ele>511</ele>
        <time>2025-09-16T13:23:54Z</time>
      </trkpt>
      <trkpt lat="45.4629" lon="4.23434">
        <ele>513</ele>
        <time>2025-09-16T13:23:57Z</time>
      </trkpt>
      <trkpt lat="45.46287" lon="4.23436">
        <ele>516</ele>
        <time>2025-09-16T13:23:59Z</time>
      </trkpt>
      <trkpt lat="45.46283" lon="4.23436">
        <ele>512</ele>
        <time>2025-09-16T13:24:01Z</time>
      </trkpt>
      <trkpt lat="45.4628" lon="4.23437">
        <ele>518</ele>
        <time>2025-09-16T13:24:03Z</time>
      </trkpt>
      <trkpt lat="45.46277" lon="4.23437">
        <ele>514</ele>
        <time>2025-09-16T13:24:06Z</time>
      </trkpt>
      <trkpt lat="45.46273" lon="4.23437">
        <ele>520</ele>
        <time>2025-09-16T13:24:09Z</time>
      </trkpt>
      <trkpt lat="45.4627" lon="4.23437">
        <ele>513</ele>
        <time>2025-09-16T13:24:12Z</time>
      </trkpt>
      <trkpt lat="45.46267" lon="4.2344">
        <ele>518</ele>
        <time>2025-09-16T13:24:15Z</time>
      </trkpt>
      <trkpt lat="45.46265" lon="4.23442">
        <ele>523</ele>
        <time>2025-09-16T13:24:17Z</time>
      </trkpt>
      <trkpt lat="45.46262" lon="4.23444">
        <ele>520</ele>
        <time>2025-09-16T13:24:19Z</time>
      </trkpt>
      <trkpt lat="45.46259" lon="4.23447">
        <ele>519</ele>
        <time>2025-09-16T13:24:21Z</time>
      </trkpt>
      <trkpt lat="45.46255" lon="4.23449">
        <ele>518</ele>
        <time>2025-09-16T13:24:23Z</time>
      </trkpt>
      <trkpt lat="45.46252" lon="4.23453">
        <ele>514</ele>
        <time>2025-09-16T13:24:25Z</time>
      </trkpt>
      <trkpt lat="45.46249" lon="4.23457">
        <ele>513</ele>
        <time>2025-09-16T13:24:26Z</time>
      </trkpt>
      <trkpt lat="45.46244" lon="4.23465">
        <ele>513</ele>
        <time>2025-09-16T13:24:28Z</time>
      </trkpt>
      <trkpt lat="45.46241" lon="4.23471">
        <ele>507</ele>
        <time>2025-09-16T13:24:29Z</time>
      </trkpt>
      <trkpt lat="45.46238" lon="4.23476">
        <ele>511</ele>
        <time>2025-09-16T13:24:30Z</time>
      </trkpt>
      <trkpt lat="45.46234" lon="4.23481">
        <ele>509</ele>
        <time>2025-09-16T13:24:31Z</time>
      </trkpt>
      <trkpt lat="45.4623" lon="4.23486">
        <ele>508</ele>
        <time>2025-09-16T13:24:32Z</time>
      </trkpt>
      <trkpt lat="45.46226" lon="4.2349">
        <ele>511</ele>
        <time>2025-09-16T13:24:33Z</time>
      </trkpt>
      <trkpt lat="45.46222" lon="4.23494">
        <ele>507</ele>
        <time>2025-09-16T13:24:34Z</time>
      </trkpt>
      <trkpt lat="45.46218" lon="4.23497">
        <ele>511</ele>
        <time>2025-09-16T13:24:35Z</time>
      </trkpt>
      <trkpt lat="45.46213" lon="4.23499">
        <ele>512</ele>
        <time>2025-09-16T13:24:36Z</time>
      </trkpt>
      <trkpt lat="45.46209" lon="4.235">
        <ele>511</ele>
        <time>2025-09-16T13:24:37Z</time>
      </trkpt>
      <trkpt lat="45.46205" lon="4.23501">
        <ele>513</ele>
        <time>2025-09-16T13:24:38Z</time>
      </trkpt>
      <trkpt lat="45.46201" lon="4.23502">
        <ele>509</ele>
        <time>2025-09-16T13:24:39Z</time>
      </trkpt>
      <trkpt lat="45.46198" lon="4.23502">
        <ele>510</ele>
        <time>2025-09-16T13:24:40Z</time>
      </trkpt>
      <trkpt lat="45.46194" lon="4.23503">
        <ele>509</ele>
        <time>2025-09-16T13:24:41Z</time>
      </trkpt>
      <trkpt lat="45.46189" lon="4.23503">
        <ele>509</ele>
        <time>2025-09-16T13:24:42Z</time>
      </trkpt>
      <trkpt lat="45.46186" lon="4.23504">
        <ele>510</ele>
        <time>2025-09-16T13:24:43Z</time>
      </trkpt>
      <trkpt lat="45.46182" lon="4.23504">
        <ele>511</ele>
        <time>2025-09-16T13:24:44Z</time>
      </trkpt>
      <trkpt lat="45.46179" lon="4.23504">
        <ele>509</ele>
        <time>2025-09-16T13:24:46Z</time>
      </trkpt>
      <trkpt lat="45.46175" lon="4.23504">
        <ele>502</ele>
        <time>2025-09-16T13:24:47Z</time>
      </trkpt>
      <trkpt lat="45.46171" lon="4.23503">
        <ele>507</ele>
        <time>2025-09-16T13:24:48Z</time>
      </trkpt>
      <trkpt lat="45.46166" lon="4.23503">
        <ele>508</ele>
        <time>2025-09-16T13:24:49Z</time>
      </trkpt>
      <trkpt lat="45.46162" lon="4.23502">
        <ele>506</ele>
        <time>2025-09-16T13:24:50Z</time>
      </trkpt>
      <trkpt lat="45.46157" lon="4.23502">
        <ele>504</ele>
        <time>2025-09-16T13:24:51Z</time>
      </trkpt>
      <trkpt lat="45.46152" lon="4.23502">
        <ele>503</ele>
        <time>2025-09-16T13:24:52Z</time>
      </trkpt>
      <trkpt lat="45.46147" lon="4.23503">
        <ele>499</ele>
        <time>2025-09-16T13:24:53Z</time>
      </trkpt>
      <trkpt lat="45.46141" lon="4.23505">
        <ele>499</ele>
        <time>2025-09-16T13:24:54Z</time>
      </trkpt>
      <trkpt lat="45.46132" lon="4.23506">
        <ele>502</ele>
        <time>2025-09-16T13:24:56Z</time>
      </trkpt>
      <trkpt lat="45.46125" lon="4.23507">
        <ele>500</ele>
        <time>2025-09-16T13:24:57Z</time>
      </trkpt>
      <trkpt lat="45.46119" lon="4.23506">
        <ele>496</ele>
        <time>2025-09-16T13:24:58Z</time>
      </trkpt>
      <trkpt lat="45.46113" lon="4.23505">
        <ele>504</ele>
        <time>2025-09-16T13:24:59Z</time>
      </trkpt>
      <trkpt lat="45.46108" lon="4.23504">
        <ele>498</ele>
        <time>2025-09-16T13:25:00Z</time>
      </trkpt>
      <trkpt lat="45.46103" lon="4.23504">
        <ele>500</ele>
        <time>2025-09-16T13:25:01Z</time>
      </trkpt>
      <trkpt lat="45.46099" lon="4.23503">
        <ele>504</ele>
        <time>2025-09-16T13:25:02Z</time>
      </trkpt>
      <trkpt lat="45.46094" lon="4.23503">
        <ele>498</ele>
        <time>2025-09-16T13:25:03Z</time>
      </trkpt>
      <trkpt lat="45.4609" lon="4.23502">
        <ele>498</ele>
        <time>2025-09-16T13:25:04Z</time>
      </trkpt>
      <trkpt lat="45.46086" lon="4.23502">
        <ele>502</ele>
        <time>2025-09-16T13:25:05Z</time>
      </trkpt>
      <trkpt lat="45.46082" lon="4.23501">
        <ele>497</ele>
        <time>2025-09-16T13:25:06Z</time>
      </trkpt>
      <trkpt lat="45.46078" lon="4.235">
        <ele>501</ele>
        <time>2025-09-16T13:25:07Z</time>
      </trkpt>
      <trkpt lat="45.46075" lon="4.235">
        <ele>502</ele>
        <time>2025-09-16T13:25:08Z</time>
      </trkpt>
      <trkpt lat="45.4607" lon="4.235">
        <ele>502</ele>
        <time>2025-09-16T13:25:10Z</time>
      </trkpt>
      <trkpt lat="45.46066" lon="4.235">
        <ele>503</ele>
        <time>2025-09-16T13:25:11Z</time>
      </trkpt>
      <trkpt lat="45.46062" lon="4.235">
        <ele>498</ele>
        <time>2025-09-16T13:25:12Z</time>
      </trkpt>
      <trkpt lat="45.46058" lon="4.235">
        <ele>500</ele>
        <time>2025-09-16T13:25:13Z</time>
      </trkpt>
      <trkpt lat="45.46054" lon="4.23501">
        <ele>503</ele>
        <time>2025-09-16T13:25:14Z</time>
      </trkpt>
      <trkpt lat="45.46051" lon="4.23501">
        <ele>499</ele>
        <time>2025-09-16T13:25:15Z</time>
      </trkpt>
      <trkpt lat="45.46046" lon="4.23502">
        <ele>500</ele>
        <time>2025-09-16T13:25:17Z</time>
      </trkpt>
      <trkpt lat="45.46042" lon="4.23502">
        <ele>499</ele>
        <time>2025-09-16T13:25:18Z</time>
      </trkpt>
      <trkpt lat="45.46037" lon="4.23502">
        <ele>499</ele>
        <time>2025-09-16T13:25:19Z</time>
      </trkpt>
      <trkpt lat="45.46033" lon="4.23503">
        <ele>499</ele>
        <time>2025-09-16T13:25:20Z</time>
      </trkpt>
      <trkpt lat="45.46028" lon="4.23503">
        <ele>494</ele>
        <time>2025-09-16T13:25:21Z</time>
      </trkpt>
      <trkpt lat="45.46023" lon="4.23503">
        <ele>498</ele>
        <time>2025-09-16T13:25:22Z</time>
      </trkpt>
      <trkpt lat="45.46016" lon="4.23503">
        <ele>502</ele>
        <time>2025-09-16T13:25:23Z</time>
      </trkpt>
      <trkpt lat="45.46009" lon="4.23502">
        <ele>501</ele>
        <time>2025-09-16T13:25:24Z</time>
      </trkpt>
      <trkpt lat="45.46003" lon="4.23502">
        <ele>499</ele>
        <time>2025-09-16T13:25:25Z</time>
      </trkpt>
      <trkpt lat="45.45997" lon="4.23502">
        <ele>500</ele>
        <time>2025-09-16T13:25:26Z</time>
      </trkpt>
      <trkpt lat="45.45992" lon="4.23502">
        <ele>496</ele>
        <time>2025-09-16T13:25:27Z</time>
      </trkpt>
      <trkpt lat="45.45988" lon="4.23502">
        <ele>496</ele>
        <time>2025-09-16T13:25:28Z</time>
      </trkpt>
      <trkpt lat="45.45983" lon="4.23502">
        <ele>501</ele>
        <time>2025-09-16T13:25:29Z</time>
      </trkpt>
      <trkpt lat="45.45979" lon="4.23502">
        <ele>502</ele>
        <time>2025-09-16T13:25:30Z</time>
      </trkpt>
      <trkpt lat="45.45975" lon="4.23502">
        <ele>503</ele>
        <time>2025-09-16T13:25:32Z</time>
      </trkpt>
      <trkpt lat="45.45971" lon="4.23502">
        <ele>500</ele>
        <time>2025-09-16T13:25:33Z</time>
      </trkpt>
      <trkpt lat="45.45968" lon="4.23502">
        <ele>499</ele>
        <time>2025-09-16T13:25:34Z</time>
      </trkpt>
      <trkpt lat="45.45964" lon="4.23502">
        <ele>497</ele>
        <time>2025-09-16T13:25:35Z</time>
      </trkpt>
      <trkpt lat="45.45959" lon="4.23503">
        <ele>498</ele>
        <time>2025-09-16T13:25:36Z</time>
      </trkpt>
      <trkpt lat="45.45955" lon="4.23503">
        <ele>499</ele>
        <time>2025-09-16T13:25:37Z</time>
      </trkpt>
      <trkpt lat="45.45951" lon="4.23504">
        <ele>500</ele>
        <time>2025-09-16T13:25:38Z</time>
      </trkpt>
      <trkpt lat="45.45948" lon="4.23508">
        <ele>500</ele>
        <time>2025-09-16T13:25:40Z</time>
      </trkpt>
      <trkpt lat="45.45947" lon="4.23513">
        <ele>498</ele>
        <time>2025-09-16T13:25:41Z</time>
      </trkpt>
      <trkpt lat="45.45946" lon="4.23522">
        <ele>501</ele>
        <time>2025-09-16T13:25:43Z</time>
      </trkpt>
      <trkpt lat="45.45945" lon="4.23528">
        <ele>499</ele>
        <time>2025-09-16T13:25:44Z</time>
      </trkpt>
      <trkpt lat="45.45945" lon="4.23536">
        <ele>497</ele>
        <time>2025-09-16T13:25:45Z</time>
      </trkpt>
      <trkpt lat="45.45944" lon="4.23543">
        <ele>497</ele>
        <time>2025-09-16T13:25:46Z</time>
      </trkpt>
      <trkpt lat="45.45943" lon="4.2355">
        <ele>498</ele>
        <time>2025-09-16T13:25:47Z</time>
      </trkpt>
      <trkpt lat="45.45943" lon="4.23556">
        <ele>495</ele>
        <time>2025-09-16T13:25:48Z</time>
      </trkpt>
      <trkpt lat="45.45944" lon="4.2356">
        <ele>491</ele>
        <time>2025-09-16T13:25:50Z</time>
      </trkpt>
      <trkpt lat="45.45946" lon="4.23565">
        <ele>492</ele>
        <time>2025-09-16T13:25:52Z</time>
      </trkpt>
      <trkpt lat="45.45947" lon="4.23569">
        <ele>500</ele>
        <time>2025-09-16T13:25:54Z</time>
      </trkpt>
      <trkpt lat="45.45949" lon="4.23574">
        <ele>495</ele>
        <time>2025-09-16T13:25:56Z</time>
      </trkpt>
      <trkpt lat="45.45951" lon="4.2358">
        <ele>499</ele>
        <time>2025-09-16T13:25:58Z</time>
      </trkpt>
      <trkpt lat="45.45953" lon="4.23584">
        <ele>496</ele>
        <time>2025-09-16T13:25:59Z</time>
      </trkpt>
      <trkpt lat="45.45954" lon="4.23589">
        <ele>504</ele>
        <time>2025-09-16T13:26:01Z</time>
      </trkpt>
      <trkpt lat="45.45956" lon="4.23594">
        <ele>504</ele>
        <time>2025-09-16T13:26:04Z</time>
      </trkpt>
      <trkpt lat="45.45958" lon="4.23599">
        <ele>505</ele>
        <time>2025-09-16T13:26:07Z</time>
      </trkpt>
      <trkpt lat="45.4596" lon="4.23603">
        <ele>504</ele>
        <time>2025-09-16T13:26:10Z</time>
      </trkpt>
      <trkpt lat="45.45965" lon="4.23608">
        <ele>506</ele>
        <time>2025-09-16T13:26:14Z</time>
      </trkpt>
      <trkpt lat="45.45969" lon="4.23611">
        <ele>498</ele>
        <time>2025-09-16T13:26:15Z</time>
      </trkpt>
      <trkpt lat="45.45974" lon="4.23616">
        <ele>495</ele>
        <time>2025-09-16T13:26:17Z</time>
      </trkpt>
      <trkpt lat="45.45978" lon="4.23619">
        <ele>492</ele>
        <time>2025-09-16T13:26:18Z</time>
      </trkpt>
      <trkpt lat="45.45981" lon="4.23621">
        <ele>500</ele>
        <time>2025-09-16T13:26:19Z</time>
      </trkpt>
      <trkpt lat="45.45984" lon="4.23623">
        <ele>498</ele>
        <time>2025-09-16T13:26:20Z</time>
      </trkpt>
      <trkpt lat="45.45988" lon="4.23625">
        <ele>501</ele>
        <time>2025-09-16T13:26:21Z</time>
      </trkpt>
      <trkpt lat="45.45991" lon="4.23626">
        <ele>502</ele>
        <time>2025-09-16T13:26:22Z</time>
      </trkpt>
      <trkpt lat="45.45994" lon="4.23628">
        <ele>503</ele>
        <time>2025-09-16T13:26:23Z</time>
      </trkpt>
      <trkpt lat="45.45996" lon="4.23631">
        <ele>496</ele>
        <time>2025-09-16T13:26:25Z</time>
      </trkpt>
      <trkpt lat="45.45999" lon="4.23634">
        <ele>500</ele>
        <time>2025-09-16T13:26:27Z</time>
      </trkpt>
      <trkpt lat="45.46003" lon="4.23637">
        <ele>500</ele>
        <time>2025-09-16T13:26:29Z</time>
      </trkpt>
      <trkpt lat="45.46006" lon="4.23639">
        <ele>506</ele>
        <time>2025-09-16T13:26:30Z</time>
      </trkpt>
      <trkpt lat="45.46009" lon="4.23641">
        <ele>498</ele>
        <time>2025-09-16T13:26:31Z</time>
      </trkpt>
      <trkpt lat="45.46013" lon="4.23643">
        <ele>500</ele>
        <time>2025-09-16T13:26:33Z</time>
      </trkpt>
      <trkpt lat="45.46017" lon="4.23646">
        <ele>508</ele>
        <time>2025-09-16T13:26:35Z</time>
      </trkpt>
      <trkpt lat="45.46022" lon="4.23648">
        <ele>507</ele>
        <time>2025-09-16T13:26:37Z</time>
      </trkpt>
      <trkpt lat="45.46026" lon="4.2365">
        <ele>508</ele>
        <time>2025-09-16T13:26:38Z</time>
      </trkpt>
      <trkpt lat="45.46029" lon="4.23653">
        <ele>506</ele>
        <time>2025-09-16T13:26:40Z</time>
      </trkpt>
      <trkpt lat="45.46029" lon="4.23656">
        <ele>507</ele>
        <time>2025-09-16T13:26:43Z</time>
      </trkpt>
      <trkpt lat="45.46028" lon="4.2366">
        <ele>508</ele>
        <time>2025-09-16T13:26:45Z</time>
      </trkpt>
      <trkpt lat="45.46027" lon="4.23664">
        <ele>511</ele>
        <time>2025-09-16T13:26:48Z</time>
      </trkpt>
      <trkpt lat="45.46026" lon="4.23668">
        <ele>508</ele>
        <time>2025-09-16T13:26:50Z</time>
      </trkpt>
      <trkpt lat="45.46024" lon="4.23673">
        <ele>505</ele>
        <time>2025-09-16T13:26:52Z</time>
      </trkpt>
      <trkpt lat="45.46022" lon="4.23677">
        <ele>506</ele>
        <time>2025-09-16T13:26:55Z</time>
      </trkpt>
      <trkpt lat="45.46021" lon="4.23683">
        <ele>503</ele>
        <time>2025-09-16T13:27:02Z</time>
      </trkpt>
      <trkpt lat="45.4602" lon="4.23688">
        <ele>507</ele>
        <time>2025-09-16T13:27:04Z</time>
      </trkpt>
      <trkpt lat="45.46021" lon="4.23692">
        <ele>503</ele>
        <time>2025-09-16T13:27:07Z</time>
      </trkpt>
      <trkpt lat="45.4602" lon="4.23699">
        <ele>507</ele>
        <time>2025-09-16T13:27:11Z</time>
      </trkpt>
      <trkpt lat="45.46023" lon="4.23708">
        <ele>510</ele>
        <time>2025-09-16T13:27:27Z</time>
      </trkpt>
      <trkpt lat="45.46025" lon="4.23714">
        <ele>508</ele>
        <time>2025-09-16T13:27:28Z</time>
      </trkpt>
      <trkpt lat="45.46028" lon="4.23717">
        <ele>510</ele>
        <time>2025-09-16T13:27:29Z</time>
      </trkpt>
      <trkpt lat="45.46031" lon="4.2372">
        <ele>505</ele>
        <time>2025-09-16T13:27:31Z</time>
      </trkpt>
      <trkpt lat="45.46035" lon="4.23723">
        <ele>512</ele>
        <time>2025-09-16T13:27:32Z</time>
      </trkpt>
      <trkpt lat="45.46037" lon="4.23725">
        <ele>512</ele>
        <time>2025-09-16T13:27:33Z</time>
      </trkpt>
      <trkpt lat="45.4604" lon="4.23727">
        <ele>505</ele>
        <time>2025-09-16T13:27:34Z</time>
      </trkpt>
      <trkpt lat="45.46045" lon="4.2373">
        <ele>510</ele>
        <time>2025-09-16T13:27:36Z</time>
      </trkpt>
      <trkpt lat="45.46049" lon="4.23732">
        <ele>508</ele>
        <time>2025-09-16T13:27:37Z</time>
      </trkpt>
      <trkpt lat="45.46053" lon="4.23735">
        <ele>506</ele>
        <time>2025-09-16T13:27:38Z</time>
      </trkpt>
      <trkpt lat="45.46057" lon="4.23738">
        <ele>514</ele>
        <time>2025-09-16T13:27:40Z</time>
      </trkpt>
      <trkpt lat="45.46062" lon="4.23741">
        <ele>516</ele>
        <time>2025-09-16T13:27:41Z</time>
      </trkpt>
      <trkpt lat="45.46065" lon="4.23743">
        <ele>511</ele>
        <time>2025-09-16T13:27:42Z</time>
      </trkpt>
      <trkpt lat="45.46068" lon="4.23746">
        <ele>501</ele>
        <time>2025-09-16T13:27:44Z</time>
      </trkpt>
      <trkpt lat="45.46071" lon="4.23749">
        <ele>510</ele>
        <time>2025-09-16T13:27:46Z</time>
      </trkpt>
      <trkpt lat="45.46074" lon="4.23752">
        <ele>511</ele>
        <time>2025-09-16T13:27:48Z</time>
      </trkpt>
      <trkpt lat="45.46076" lon="4.23755">
        <ele>513</ele>
        <time>2025-09-16T13:27:50Z</time>
      </trkpt>
      <trkpt lat="45.46079" lon="4.23759">
        <ele>515</ele>
        <time>2025-09-16T13:27:53Z</time>
      </trkpt>
      <trkpt lat="45.46081" lon="4.23762">
        <ele>517</ele>
        <time>2025-09-16T13:27:55Z</time>
      </trkpt>
      <trkpt lat="45.46082" lon="4.23766">
        <ele>513</ele>
        <time>2025-09-16T13:27:57Z</time>
      </trkpt>
      <trkpt lat="45.46084" lon="4.23769">
        <ele>509</ele>
        <time>2025-09-16T13:27:59Z</time>
      </trkpt>
      <trkpt lat="45.46085" lon="4.23774">
        <ele>513</ele>
        <time>2025-09-16T13:28:02Z</time>
      </trkpt>
      <trkpt lat="45.46084" lon="4.23778">
        <ele>515</ele>
        <time>2025-09-16T13:28:04Z</time>
      </trkpt>
      <trkpt lat="45.46082" lon="4.23781">
        <ele>517</ele>
        <time>2025-09-16T13:28:06Z</time>
      </trkpt>
      <trkpt lat="45.46079" lon="4.23785">
        <ele>511</ele>
        <time>2025-09-16T13:28:09Z</time>
      </trkpt>
      <trkpt lat="45.46076" lon="4.23786">
        <ele>512</ele>
        <time>2025-09-16T13:28:12Z</time>
      </trkpt>
      <trkpt lat="45.46073" lon="4.23787">
        <ele>508</ele>
        <time>2025-09-16T13:28:15Z</time>
      </trkpt>
      <trkpt lat="45.46069" lon="4.23787">
        <ele>515</ele>
        <time>2025-09-16T13:28:17Z</time>
      </trkpt>
      <trkpt lat="45.46066" lon="4.23787">
        <ele>517</ele>
        <time>2025-09-16T13:28:19Z</time>
      </trkpt>
      <trkpt lat="45.46063" lon="4.23788">
        <ele>515</ele>
        <time>2025-09-16T13:28:21Z</time>
      </trkpt>
      <trkpt lat="45.4606" lon="4.23791">
        <ele>509</ele>
        <time>2025-09-16T13:28:23Z</time>
      </trkpt>
      <trkpt lat="45.46058" lon="4.23794">
        <ele>512</ele>
        <time>2025-09-16T13:28:25Z</time>
      </trkpt>
      <trkpt lat="45.46055" lon="4.23797">
        <ele>509</ele>
        <time>2025-09-16T13:28:27Z</time>
      </trkpt>
      <trkpt lat="45.46053" lon="4.238">
        <ele>515</ele>
        <time>2025-09-16T13:28:29Z</time>
      </trkpt>
      <trkpt lat="45.46049" lon="4.23803">
        <ele>510</ele>
        <time>2025-09-16T13:28:31Z</time>
      </trkpt>
      <trkpt lat="45.46045" lon="4.23806">
        <ele>509</ele>
        <time>2025-09-16T13:28:33Z</time>
      </trkpt>
      <trkpt lat="45.46043" lon="4.23809">
        <ele>514</ele>
        <time>2025-09-16T13:28:36Z</time>
      </trkpt>
      <trkpt lat="45.4604" lon="4.23813">
        <ele>521</ele>
        <time>2025-09-16T13:28:38Z</time>
      </trkpt>
      <trkpt lat="45.46037" lon="4.23818">
        <ele>514</ele>
        <time>2025-09-16T13:28:41Z</time>
      </trkpt>
      <trkpt lat="45.46035" lon="4.23823">
        <ele>521</ele>
        <time>2025-09-16T13:28:43Z</time>
      </trkpt>
      <trkpt lat="45.46034" lon="4.23828">
        <ele>522</ele>
        <time>2025-09-16T13:28:45Z</time>
      </trkpt>
      <trkpt lat="45.46033" lon="4.23834">
        <ele>519</ele>
        <time>2025-09-16T13:28:47Z</time>
      </trkpt>
      <trkpt lat="45.46033" lon="4.23838">
        <ele>516</ele>
        <time>2025-09-16T13:28:48Z</time>
      </trkpt>
      <trkpt lat="45.46032" lon="4.23843">
        <ele>521</ele>
        <time>2025-09-16T13:28:49Z</time>
      </trkpt>
      <trkpt lat="45.46032" lon="4.23847">
        <ele>516</ele>
        <time>2025-09-16T13:28:50Z</time>
      </trkpt>
      <trkpt lat="45.46033" lon="4.23853">
        <ele>518</ele>
        <time>2025-09-16T13:28:52Z</time>
      </trkpt>
      <trkpt lat="45.46036" lon="4.23857">
        <ele>514</ele>
        <time>2025-09-16T13:28:54Z</time>
      </trkpt>
      <trkpt lat="45.46039" lon="4.23859">
        <ele>511</ele>
        <time>2025-09-16T13:28:56Z</time>
      </trkpt>
      <trkpt lat="45.46044" lon="4.23861">
        <ele>513</ele>
        <time>2025-09-16T13:28:58Z</time>
      </trkpt>
      <trkpt lat="45.46048" lon="4.23862">
        <ele>521</ele>
        <time>2025-09-16T13:29:00Z</time>
      </trkpt>
      <trkpt lat="45.46051" lon="4.23863">
        <ele>521</ele>
        <time>2025-09-16T13:29:02Z</time>
      </trkpt>
      <trkpt lat="45.46054" lon="4.23864">
        <ele>519</ele>
        <time>2025-09-16T13:29:04Z</time>
      </trkpt>
      <trkpt lat="45.46058" lon="4.23865">
        <ele>523</ele>
        <time>2025-09-16T13:29:06Z</time>
      </trkpt>
      <trkpt lat="45.46062" lon="4.23866">
        <ele>517</ele>
        <time>2025-09-16T13:29:08Z</time>
      </trkpt>
      <trkpt lat="45.46066" lon="4.23866">
        <ele>521</ele>
        <time>2025-09-16T13:29:10Z</time>
      </trkpt>
      <trkpt lat="45.4607" lon="4.23867">
        <ele>514</ele>
        <time>2025-09-16T13:29:12Z</time>
      </trkpt>
      <trkpt lat="45.46073" lon="4.23869">
        <ele>518</ele>
        <time>2025-09-16T13:29:15Z</time>
      </trkpt>
      <trkpt lat="45.46077" lon="4.23871">
        <ele>516</ele>
        <time>2025-09-16T13:29:18Z</time>
      </trkpt>
      <trkpt lat="45.4608" lon="4.23873">
        <ele>523</ele>
        <time>2025-09-16T13:29:21Z</time>
      </trkpt>
      <trkpt lat="45.46084" lon="4.23875">
        <ele>510</ele>
        <time>2025-09-16T13:29:23Z</time>
      </trkpt>
      <trkpt lat="45.46087" lon="4.23877">
        <ele>514</ele>
        <time>2025-09-16T13:29:25Z</time>
      </trkpt>
      <trkpt lat="45.4609" lon="4.2388">
        <ele>514</ele>
        <time>2025-09-16T13:29:28Z</time>
      </trkpt>
      <trkpt lat="45.46094" lon="4.23882">
        <ele>519</ele>
        <time>2025-09-16T13:29:30Z</time>
      </trkpt>
      <trkpt lat="45.46097" lon="4.23884">
        <ele>516</ele>
        <time>2025-09-16T13:29:32Z</time>
      </trkpt>
      <trkpt lat="45.461" lon="4.23885">
        <ele>514</ele>
        <time>2025-09-16T13:29:33Z</time>
      </trkpt>
      <trkpt lat="45.46104" lon="4.23886">
        <ele>518</ele>
        <time>2025-09-16T13:29:35Z</time>
      </trkpt>
      <trkpt lat="45.46107" lon="4.23887">
        <ele>520</ele>
        <time>2025-09-16T13:29:36Z</time>
      </trkpt>
      <trkpt lat="45.4611" lon="4.2389">
        <ele>516</ele>
        <time>2025-09-16T13:29:38Z</time>
      </trkpt>
      <trkpt lat="45.46114" lon="4.23892">
        <ele>517</ele>
        <time>2025-09-16T13:29:40Z</time>
      </trkpt>
      <trkpt lat="45.46117" lon="4.23894">
        <ele>515</ele>
        <time>2025-09-16T13:29:42Z</time>
      </trkpt>
      <trkpt lat="45.4612" lon="4.23896">
        <ele>514</ele>
        <time>2025-09-16T13:29:45Z</time>
      </trkpt>
      <trkpt lat="45.46122" lon="4.23898">
        <ele>514</ele>
        <time>2025-09-16T13:29:48Z</time>
      </trkpt>
      <trkpt lat="45.46125" lon="4.23901">
        <ele>515</ele>
        <time>2025-09-16T13:29:50Z</time>
      </trkpt>
      <trkpt lat="45.46128" lon="4.23903">
        <ele>520</ele>
        <time>2025-09-16T13:29:52Z</time>
      </trkpt>
      <trkpt lat="45.46131" lon="4.23906">
        <ele>519</ele>
        <time>2025-09-16T13:29:55Z</time>
      </trkpt>
      <trkpt lat="45.46134" lon="4.23908">
        <ele>522</ele>
        <time>2025-09-16T13:29:57Z</time>
      </trkpt>
      <trkpt lat="45.46137" lon="4.23911">
        <ele>517</ele>
        <time>2025-09-16T13:29:59Z</time>
      </trkpt>
      <trkpt lat="45.46139" lon="4.23915">
        <ele>523</ele>
        <time>2025-09-16T13:30:01Z</time>
      </trkpt>
      <trkpt lat="45.46141" lon="4.23918">
        <ele>528</ele>
        <time>2025-09-16T13:30:04Z</time>
      </trkpt>
      <trkpt lat="45.46143" lon="4.23921">
        <ele>527</ele>
        <time>2025-09-16T13:30:07Z</time>
      </trkpt>
      <trkpt lat="45.46145" lon="4.23924">
        <ele>519</ele>
        <time>2025-09-16T13:30:11Z</time>
      </trkpt>
      <trkpt lat="45.46148" lon="4.23927">
        <ele>520</ele>
        <time>2025-09-16T13:30:14Z</time>
      </trkpt>
      <trkpt lat="45.46151" lon="4.2393">
        <ele>525</ele>
        <time>2025-09-16T13:30:15Z</time>
      </trkpt>
      <trkpt lat="45.46154" lon="4.23933">
        <ele>528</ele>
        <time>2025-09-16T13:30:17Z</time>
      </trkpt>
      <trkpt lat="45.46156" lon="4.23935">
        <ele>530</ele>
        <time>2025-09-16T13:30:18Z</time>
      </trkpt>
      <trkpt lat="45.46159" lon="4.23937">
        <ele>528</ele>
        <time>2025-09-16T13:30:20Z</time>
      </trkpt>
      <trkpt lat="45.46162" lon="4.23939">
        <ele>528</ele>
        <time>2025-09-16T13:30:22Z</time>
      </trkpt>
      <trkpt lat="45.46165" lon="4.23943">
        <ele>530</ele>
        <time>2025-09-16T13:30:24Z</time>
      </trkpt>
      <trkpt lat="45.46167" lon="4.23947">
        <ele>528</ele>
        <time>2025-09-16T13:30:27Z</time>
      </trkpt>
      <trkpt lat="45.46169" lon="4.23951">
        <ele>532</ele>
        <time>2025-09-16T13:30:30Z</time>
      </trkpt>
      <trkpt lat="45.46172" lon="4.23953">
        <ele>529</ele>
        <time>2025-09-16T13:30:32Z</time>
      </trkpt>
      <trkpt lat="45.46174" lon="4.23956">
        <ele>527</ele>
        <time>2025-09-16T13:30:34Z</time>
      </trkpt>
      <trkpt lat="45.46177" lon="4.23958">
        <ele>531</ele>
        <time>2025-09-16T13:30:35Z</time>
      </trkpt>
      <trkpt lat="45.46181" lon="4.2396">
        <ele>527</ele>
        <time>2025-09-16T13:30:37Z</time>
      </trkpt>
      <trkpt lat="45.46183" lon="4.23963">
        <ele>532</ele>
        <time>2025-09-16T13:30:40Z</time>
      </trkpt>
      <trkpt lat="45.46186" lon="4.23965">
        <ele>533</ele>
        <time>2025-09-16T13:30:42Z</time>
      </trkpt>
      <trkpt lat="45.46188" lon="4.23969">
        <ele>529</ele>
        <time>2025-09-16T13:30:44Z</time>
      </trkpt>
      <trkpt lat="45.46189" lon="4.23973">
        <ele>532</ele>
        <time>2025-09-16T13:30:46Z</time>
      </trkpt>
      <trkpt lat="45.4619" lon="4.23977">
        <ele>528</ele>
        <time>2025-09-16T13:30:48Z</time>
      </trkpt>
      <trkpt lat="45.46192" lon="4.23981">
        <ele>531</ele>
        <time>2025-09-16T13:30:50Z</time>
      </trkpt>
      <trkpt lat="45.46193" lon="4.23986">
        <ele>527</ele>
        <time>2025-09-16T13:30:53Z</time>
      </trkpt>
      <trkpt lat="45.46196" lon="4.23989">
        <ele>522</ele>
        <time>2025-09-16T13:30:55Z</time>
      </trkpt>
      <trkpt lat="45.46198" lon="4.23993">
        <ele>530</ele>
        <time>2025-09-16T13:30:57Z</time>
      </trkpt>
      <trkpt lat="45.462" lon="4.23996">
        <ele>534</ele>
        <time>2025-09-16T13:30:59Z</time>
      </trkpt>
      <trkpt lat="45.46203" lon="4.23999">
        <ele>536</ele>
        <time>2025-09-16T13:31:01Z</time>
      </trkpt>
      <trkpt lat="45.46204" lon="4.24002">
        <ele>529</ele>
        <time>2025-09-16T13:31:03Z</time>
      </trkpt>
      <trkpt lat="45.46206" lon="4.24005">
        <ele>536</ele>
        <time>2025-09-16T13:31:05Z</time>
      </trkpt>
      <trkpt lat="45.46208" lon="4.24009">
        <ele>531</ele>
        <time>2025-09-16T13:31:09Z</time>
      </trkpt>
      <trkpt lat="45.46209" lon="4.24014">
        <ele>529</ele>
        <time>2025-09-16T13:31:14Z</time>
      </trkpt>
      <trkpt lat="45.46209" lon="4.24018">
        <ele>534</ele>
        <time>2025-09-16T13:31:17Z</time>
      </trkpt>
      <trkpt lat="45.46209" lon="4.24023">
        <ele>524</ele>
        <time>2025-09-16T13:31:20Z</time>
      </trkpt>
      <trkpt lat="45.46209" lon="4.24027">
        <ele>529</ele>
        <time>2025-09-16T13:31:23Z</time>
      </trkpt>
      <trkpt lat="45.46208" lon="4.24032">
        <ele>535</ele>
        <time>2025-09-16T13:31:26Z</time>
      </trkpt>
      <trkpt lat="45.46207" lon="4.24036">
        <ele>530</ele>
        <time>2025-09-16T13:31:29Z</time>
      </trkpt>
      <trkpt lat="45.46205" lon="4.24039">
        <ele>534</ele>
        <time>2025-09-16T13:31:31Z</time>
      </trkpt>
      <trkpt lat="45.46204" lon="4.24043">
        <ele>533</ele>
        <time>2025-09-16T13:31:33Z</time>
      </trkpt>
      <trkpt lat="45.46202" lon="4.24047">
        <ele>537</ele>
        <time>2025-09-16T13:31:36Z</time>
      </trkpt>
      <trkpt lat="45.46201" lon="4.24052">
        <ele>537</ele>
        <time>2025-09-16T13:31:39Z</time>
      </trkpt>
      <trkpt lat="45.462" lon="4.24057">
        <ele>536</ele>
        <time>2025-09-16T13:31:41Z</time>
      </trkpt>
      <trkpt lat="45.46199" lon="4.24062">
        <ele>538</ele>
        <time>2025-09-16T13:31:44Z</time>
      </trkpt>
      <trkpt lat="45.46197" lon="4.24067">
        <ele>539</ele>
        <time>2025-09-16T13:31:47Z</time>
      </trkpt>
      <trkpt lat="45.46196" lon="4.24072">
        <ele>537</ele>
        <time>2025-09-16T13:31:48Z</time>
      </trkpt>
      <trkpt lat="45.46196" lon="4.24076">
        <ele>534</ele>
        <time>2025-09-16T13:31:51Z</time>
      </trkpt>
      <trkpt lat="45.46196" lon="4.24081">
        <ele>540</ele>
        <time>2025-09-16T13:31:54Z</time>
      </trkpt>
      <trkpt lat="45.46196" lon="4.24085">
        <ele>540</ele>
        <time>2025-09-16T13:31:58Z</time>
      </trkpt>
      <trkpt lat="45.46197" lon="4.24089">
        <ele>534</ele>
        <time>2025-09-16T13:32:00Z</time>
      </trkpt>
      <trkpt lat="45.46198" lon="4.24093">
        <ele>540</ele>
        <time>2025-09-16T13:32:02Z</time>
      </trkpt>
      <trkpt lat="45.462" lon="4.24097">
        <ele>536</ele>
        <time>2025-09-16T13:32:05Z</time>
      </trkpt>
      <trkpt lat="45.46202" lon="4.241">
        <ele>535</ele>
        <time>2025-09-16T13:32:08Z</time>
      </trkpt>
      <trkpt lat="45.46204" lon="4.24103">
        <ele>537</ele>
        <time>2025-09-16T13:32:10Z</time>
      </trkpt>
      <trkpt lat="45.46205" lon="4.24109">
        <ele>541</ele>
        <time>2025-09-16T13:32:12Z</time>
      </trkpt>
      <trkpt lat="45.46206" lon="4.24114">
        <ele>539</ele>
        <time>2025-09-16T13:32:15Z</time>
      </trkpt>
      <trkpt lat="45.46208" lon="4.24118">
        <ele>539</ele>
        <time>2025-09-16T13:32:18Z</time>
      </trkpt>
      <trkpt lat="45.4621" lon="4.24122">
        <ele>545</ele>
        <time>2025-09-16T13:32:20Z</time>
      </trkpt>
      <trkpt lat="45.46214" lon="4.24126">
        <ele>541</ele>
        <time>2025-09-16T13:32:22Z</time>
      </trkpt>
      <trkpt lat="45.46217" lon="4.24128">
        <ele>544</ele>
        <time>2025-09-16T13:32:23Z</time>
      </trkpt>
      <trkpt lat="45.4622" lon="4.24132">
        <ele>547</ele>
        <time>2025-09-16T13:32:25Z</time>
      </trkpt>
      <trkpt lat="45.46219" lon="4.24136">
        <ele>549</ele>
        <time>2025-09-16T13:32:28Z</time>
      </trkpt>
      <trkpt lat="45.46217" lon="4.24138">
        <ele>542</ele>
        <time>2025-09-16T13:32:33Z</time>
      </trkpt>
      <trkpt lat="45.46214" lon="4.24138">
        <ele>535</ele>
        <time>2025-09-16T13:32:36Z</time>
      </trkpt>
      <trkpt lat="45.46211" lon="4.24137">
        <ele>536</ele>
        <time>2025-09-16T13:32:40Z</time>
      </trkpt>
      <trkpt lat="45.46208" lon="4.24135">
        <ele>538</ele>
        <time>2025-09-16T13:32:45Z</time>
      </trkpt>
      <trkpt lat="45.46205" lon="4.24134">
        <ele>534</ele>
        <time>2025-09-16T13:32:49Z</time>
      </trkpt>
      <trkpt lat="45.46201" lon="4.24133">
        <ele>540</ele>
        <time>2025-09-16T13:32:52Z</time>
      </trkpt>
      <trkpt lat="45.46198" lon="4.2413">
        <ele>541</ele>
        <time>2025-09-16T13:32:55Z</time>
      </trkpt>
      <trkpt lat="45.46196" lon="4.24127">
        <ele>549</ele>
        <time>2025-09-16T13:32:58Z</time>
      </trkpt>
      <trkpt lat="45.46193" lon="4.24124">
        <ele>547</ele>
        <time>2025-09-16T13:33:01Z</time>
      </trkpt>
      <trkpt lat="45.4619" lon="4.24122">
        <ele>542</ele>
        <time>2025-09-16T13:33:03Z</time>
      </trkpt>
      <trkpt lat="45.46187" lon="4.24118">
        <ele>548</ele>
        <time>2025-09-16T13:33:07Z</time>
      </trkpt>
      <trkpt lat="45.46185" lon="4.24114">
        <ele>545</ele>
        <time>2025-09-16T13:33:11Z</time>
      </trkpt>
      <trkpt lat="45.46183" lon="4.2411">
        <ele>551</ele>
        <time>2025-09-16T13:33:15Z</time>
      </trkpt>
      <trkpt lat="45.46182" lon="4.24105">
        <ele>547</ele>
        <time>2025-09-16T13:33:18Z</time>
      </trkpt>
      <trkpt lat="45.4618" lon="4.24101">
        <ele>550</ele>
        <time>2025-09-16T13:33:19Z</time>
      </trkpt>
      <trkpt lat="45.46177" lon="4.24097">
        <ele>546</ele>
        <time>2025-09-16T13:33:20Z</time>
      </trkpt>
      <trkpt lat="45.46176" lon="4.24092">
        <ele>545</ele>
        <time>2025-09-16T13:33:22Z</time>
      </trkpt>
      <trkpt lat="45.46175" lon="4.24087">
        <ele>545</ele>
        <time>2025-09-16T13:33:25Z</time>
      </trkpt>
      <trkpt lat="45.46173" lon="4.24082">
        <ele>547</ele>
        <time>2025-09-16T13:33:27Z</time>
      </trkpt>
      <trkpt lat="45.4617" lon="4.24078">
        <ele>552</ele>
        <time>2025-09-16T13:33:30Z</time>
      </trkpt>
      <trkpt lat="45.46167" lon="4.24071">
        <ele>554</ele>
        <time>2025-09-16T13:33:32Z</time>
      </trkpt>
      <trkpt lat="45.46164" lon="4.24067">
        <ele>550</ele>
        <time>2025-09-16T13:33:36Z</time>
      </trkpt>
      <trkpt lat="45.46161" lon="4.24068">
        <ele>553</ele>
        <time>2025-09-16T13:33:40Z</time>
      </trkpt>
      <trkpt lat="45.46159" lon="4.24071">
        <ele>547</ele>
        <time>2025-09-16T13:33:44Z</time>
      </trkpt>
      <trkpt lat="45.46157" lon="4.24075">
        <ele>549</ele>
        <time>2025-09-16T13:33:47Z</time>
      </trkpt>
      <trkpt lat="45.46155" lon="4.24079">
        <ele>548</ele>
        <time>2025-09-16T13:33:49Z</time>
      </trkpt>
      <trkpt lat="45.46154" lon="4.24083">
        <ele>555</ele>
        <time>2025-09-16T13:33:51Z</time>
      </trkpt>
      <trkpt lat="45.46154" lon="4.24088">
        <ele>549</ele>
        <time>2025-09-16T13:33:53Z</time>
      </trkpt>
      <trkpt lat="45.46154" lon="4.24092">
        <ele>550</ele>
        <time>2025-09-16T13:33:55Z</time>
      </trkpt>
      <trkpt lat="45.46155" lon="4.24096">
        <ele>555</ele>
        <time>2025-09-16T13:33:57Z</time>
      </trkpt>
      <trkpt lat="45.46156" lon="4.241">
        <ele>557</ele>
        <time>2025-09-16T13:33:59Z</time>
      </trkpt>
      <trkpt lat="45.46158" lon="4.24105">
        <ele>548</ele>
        <time>2025-09-16T13:34:01Z</time>
      </trkpt>
      <trkpt lat="45.46159" lon="4.24109">
        <ele>550</ele>
        <time>2025-09-16T13:34:03Z</time>
      </trkpt>
      <trkpt lat="45.46161" lon="4.24113">
        <ele>552</ele>
        <time>2025-09-16T13:34:05Z</time>
      </trkpt>
      <trkpt lat="45.46163" lon="4.24117">
        <ele>551</ele>
        <time>2025-09-16T13:34:07Z</time>
      </trkpt>
      <trkpt lat="45.46163" lon="4.24121">
        <ele>557</ele>
        <time>2025-09-16T13:34:09Z</time>
      </trkpt>
      <trkpt lat="45.46164" lon="4.24126">
        <ele>555</ele>
        <time>2025-09-16T13:34:12Z</time>
      </trkpt>
      <trkpt lat="45.46165" lon="4.2413">
        <ele>551</ele>
        <time>2025-09-16T13:34:14Z</time>
      </trkpt>
      <trkpt lat="45.46167" lon="4.24134">
        <ele>554</ele>
        <time>2025-09-16T13:34:17Z</time>
      </trkpt>
      <trkpt lat="45.46167" lon="4.24139">
        <ele>559</ele>
        <time>2025-09-16T13:34:20Z</time>
      </trkpt>
      <trkpt lat="45.46168" lon="4.24143">
        <ele>558</ele>
        <time>2025-09-16T13:34:22Z</time>
      </trkpt>
      <trkpt lat="45.46169" lon="4.24146">
        <ele>552</ele>
        <time>2025-09-16T13:34:27Z</time>
      </trkpt>
      <trkpt lat="45.46171" lon="4.24151">
        <ele>552</ele>
        <time>2025-09-16T13:34:31Z</time>
      </trkpt>
      <trkpt lat="45.46172" lon="4.24156">
        <ele>556</ele>
        <time>2025-09-16T13:34:34Z</time>
      </trkpt>
      <trkpt lat="45.46173" lon="4.2416">
        <ele>558</ele>
        <time>2025-09-16T13:34:37Z</time>
      </trkpt>
      <trkpt lat="45.46174" lon="4.24165">
        <ele>552</ele>
        <time>2025-09-16T13:34:39Z</time>
      </trkpt>
      <trkpt lat="45.46174" lon="4.24169">
        <ele>550</ele>
        <time>2025-09-16T13:34:42Z</time>
      </trkpt>
      <trkpt lat="45.46174" lon="4.24173">
        <ele>549</ele>
        <time>2025-09-16T13:34:43Z</time>
      </trkpt>
      <trkpt lat="45.46175" lon="4.24178">
        <ele>561</ele>
        <time>2025-09-16T13:34:45Z</time>
      </trkpt>
      <trkpt lat="45.46176" lon="4.24184">
        <ele>562</ele>
        <time>2025-09-16T13:34:47Z</time>
      </trkpt>
      <trkpt lat="45.46177" lon="4.2419">
        <ele>556</ele>
        <time>2025-09-16T13:34:49Z</time>
      </trkpt>
      <trkpt lat="45.46178" lon="4.24195">
        <ele>561</ele>
        <time>2025-09-16T13:34:51Z</time>
      </trkpt>
      <trkpt lat="45.46178" lon="4.242">
        <ele>564</ele>
        <time>2025-09-16T13:34:53Z</time>
      </trkpt>
      <trkpt lat="45.46178" lon="4.24205">
        <ele>565</ele>
        <time>2025-09-16T13:34:56Z</time>
      </trkpt>
      <trkpt lat="45.4618" lon="4.24208">
        <ele>561</ele>
        <time>2025-09-16T13:34:58Z</time>
      </trkpt>
      <trkpt lat="45.46181" lon="4.24212">
        <ele>555</ele>
        <time>2025-09-16T13:35:01Z</time>
      </trkpt>
      <trkpt lat="45.46181" lon="4.24218">
        <ele>560</ele>
        <time>2025-09-16T13:35:04Z</time>
      </trkpt>
      <trkpt lat="45.46181" lon="4.24223">
        <ele>555</ele>
        <time>2025-09-16T13:35:07Z</time>
      </trkpt>
      <trkpt lat="45.46182" lon="4.24228">
        <ele>559</ele>
        <time>2025-09-16T13:35:09Z</time>
      </trkpt>
      <trkpt lat="45.46181" lon="4.24233">
        <ele>563</ele>
        <time>2025-09-16T13:35:11Z</time>
      </trkpt>
      <trkpt lat="45.4618" lon="4.24238">
        <ele>559</ele>
        <time>2025-09-16T13:35:13Z</time>
      </trkpt>
      <trkpt lat="45.4618" lon="4.24244">
        <ele>563</ele>
        <time>2025-09-16T13:35:15Z</time>
      </trkpt>
      <trkpt lat="45.46179" lon="4.24249">
        <ele>560</ele>
        <time>2025-09-16T13:35:17Z</time>
      </trkpt>
      <trkpt lat="45.46179" lon="4.24254">
        <ele>559</ele>
        <time>2025-09-16T13:35:19Z</time>
      </trkpt>
      <trkpt lat="45.46179" lon="4.2426">
        <ele>563</ele>
        <time>2025-09-16T13:35:21Z</time>
      </trkpt>
      <trkpt lat="45.46178" lon="4.24264">
        <ele>561</ele>
        <time>2025-09-16T13:35:23Z</time>
      </trkpt>
      <trkpt lat="45.46177" lon="4.24268">
        <ele>560</ele>
        <time>2025-09-16T13:35:25Z</time>
      </trkpt>
      <trkpt lat="45.46177" lon="4.24273">
        <ele>563</ele>
        <time>2025-09-16T13:35:28Z</time>
      </trkpt>
      <trkpt lat="45.46177" lon="4.24277">
        <ele>567</ele>
        <time>2025-09-16T13:35:31Z</time>
      </trkpt>
      <trkpt lat="45.46177" lon="4.24282">
        <ele>563</ele>
        <time>2025-09-16T13:35:34Z</time>
      </trkpt>
      <trkpt lat="45.46177" lon="4.24287">
        <ele>566</ele>
        <time>2025-09-16T13:35:36Z</time>
      </trkpt>
      <trkpt lat="45.46178" lon="4.24292">
        <ele>566</ele>
        <time>2025-09-16T13:35:39Z</time>
      </trkpt>
      <trkpt lat="45.4618" lon="4.24297">
        <ele>565</ele>
        <time>2025-09-16T13:35:42Z</time>
      </trkpt>
      <trkpt lat="45.46182" lon="4.24302">
        <ele>566</ele>
        <time>2025-09-16T13:35:44Z</time>
      </trkpt>
      <trkpt lat="45.46184" lon="4.24307">
        <ele>567</ele>
        <time>2025-09-16T13:35:46Z</time>
      </trkpt>
      <trkpt lat="45.46186" lon="4.24313">
        <ele>566</ele>
        <time>2025-09-16T13:35:48Z</time>
      </trkpt>
      <trkpt lat="45.46187" lon="4.24319">
        <ele>562</ele>
        <time>2025-09-16T13:35:50Z</time>
      </trkpt>
      <trkpt lat="45.46187" lon="4.24325">
        <ele>563</ele>
        <time>2025-09-16T13:35:52Z</time>
      </trkpt>
      <trkpt lat="45.46188" lon="4.24332">
        <ele>558</ele>
        <time>2025-09-16T13:35:54Z</time>
      </trkpt>
      <trkpt lat="45.46187" lon="4.24338">
        <ele>559</ele>
        <time>2025-09-16T13:35:56Z</time>
      </trkpt>
      <trkpt lat="45.46186" lon="4.24344">
        <ele>562</ele>
        <time>2025-09-16T13:35:58Z</time>
      </trkpt>
      <trkpt lat="45.46185" lon="4.2435">
        <ele>559</ele>
        <time>2025-09-16T13:36:00Z</time>
      </trkpt>
      <trkpt lat="45.46184" lon="4.24356">
        <ele>563</ele>
        <time>2025-09-16T13:36:02Z</time>
      </trkpt>
      <trkpt lat="45.46184" lon="4.24361">
        <ele>561</ele>
        <time>2025-09-16T13:36:05Z</time>
      </trkpt>
      <trkpt lat="45.46184" lon="4.24365">
        <ele>565</ele>
        <time>2025-09-16T13:36:07Z</time>
      </trkpt>
      <trkpt lat="45.46185" lon="4.2437">
        <ele>562</ele>
        <time>2025-09-16T13:36:09Z</time>
      </trkpt>
      <trkpt lat="45.46186" lon="4.24375">
        <ele>566</ele>
        <time>2025-09-16T13:36:11Z</time>
      </trkpt>
      <trkpt lat="45.46186" lon="4.2438">
        <ele>560</ele>
        <time>2025-09-16T13:36:13Z</time>
      </trkpt>
      <trkpt lat="45.46187" lon="4.24384">
        <ele>559</ele>
        <time>2025-09-16T13:36:15Z</time>
      </trkpt>
      <trkpt lat="45.46187" lon="4.2439">
        <ele>566</ele>
        <time>2025-09-16T13:36:17Z</time>
      </trkpt>
      <trkpt lat="45.46188" lon="4.24396">
        <ele>564</ele>
        <time>2025-09-16T13:36:19Z</time>
      </trkpt>
      <trkpt lat="45.46188" lon="4.24402">
        <ele>566</ele>
        <time>2025-09-16T13:36:21Z</time>
      </trkpt>
      <trkpt lat="45.46189" lon="4.24408">
        <ele>568</ele>
        <time>2025-09-16T13:36:23Z</time>
      </trkpt>
      <trkpt lat="45.46189" lon="4.24413">
        <ele>568</ele>
        <time>2025-09-16T13:36:25Z</time>
      </trkpt>
      <trkpt lat="45.4619" lon="4.24419">
        <ele>563</ele>
        <time>2025-09-16T13:36:27Z</time>
      </trkpt>
      <trkpt lat="45.4619" lon="4.24425">
        <ele>567</ele>
        <time>2025-09-16T13:36:29Z</time>
      </trkpt>
      <trkpt lat="45.46191" lon="4.24432">
        <ele>567</ele>
        <time>2025-09-16T13:36:31Z</time>
      </trkpt>
      <trkpt lat="45.46191" lon="4.24437">
        <ele>564</ele>
        <time>2025-09-16T13:36:32Z</time>
      </trkpt>
      <trkpt lat="45.46191" lon="4.24441">
        <ele>564</ele>
        <time>2025-09-16T13:36:33Z</time>
      </trkpt>
      <trkpt lat="45.46191" lon="4.24447">
        <ele>561</ele>
        <time>2025-09-16T13:36:35Z</time>
      </trkpt>
      <trkpt lat="45.46191" lon="4.24452">
        <ele>562</ele>
        <time>2025-09-16T13:36:36Z</time>
      </trkpt>
      <trkpt lat="45.46192" lon="4.24459">
        <ele>565</ele>
        <time>2025-09-16T13:36:38Z</time>
      </trkpt>
      <trkpt lat="45.46194" lon="4.24465">
        <ele>563</ele>
        <time>2025-09-16T13:36:40Z</time>
      </trkpt>
      <trkpt lat="45.46196" lon="4.2447">
        <ele>565</ele>
        <time>2025-09-16T13:36:42Z</time>
      </trkpt>
      <trkpt lat="45.46199" lon="4.24475">
        <ele>565</ele>
        <time>2025-09-16T13:36:44Z</time>
      </trkpt>
      <trkpt lat="45.46202" lon="4.24481">
        <ele>566</ele>
        <time>2025-09-16T13:36:46Z</time>
      </trkpt>
      <trkpt lat="45.46204" lon="4.24486">
        <ele>564</ele>
        <time>2025-09-16T13:36:48Z</time>
      </trkpt>
      <trkpt lat="45.46206" lon="4.24491">
        <ele>564</ele>
        <time>2025-09-16T13:36:50Z</time>
      </trkpt>
      <trkpt lat="45.46208" lon="4.24496">
        <ele>567</ele>
        <time>2025-09-16T13:36:52Z</time>
      </trkpt>
      <trkpt lat="45.46211" lon="4.24501">
        <ele>563</ele>
        <time>2025-09-16T13:36:54Z</time>
      </trkpt>
      <trkpt lat="45.46213" lon="4.24508">
        <ele>567</ele>
        <time>2025-09-16T13:36:56Z</time>
      </trkpt>
      <trkpt lat="45.46215" lon="4.24513">
        <ele>568</ele>
        <time>2025-09-16T13:36:57Z</time>
      </trkpt>
      <trkpt lat="45.46217" lon="4.24518">
        <ele>570</ele>
        <time>2025-09-16T13:36:59Z</time>
      </trkpt>
      <trkpt lat="45.46217" lon="4.24524">
        <ele>571</ele>
        <time>2025-09-16T13:37:01Z</time>
      </trkpt>
      <trkpt lat="45.46217" lon="4.24529">
        <ele>568</ele>
        <time>2025-09-16T13:37:03Z</time>
      </trkpt>
      <trkpt lat="45.46215" lon="4.24533">
        <ele>568</ele>
        <time>2025-09-16T13:37:05Z</time>
      </trkpt>
      <trkpt lat="45.46214" lon="4.24537">
        <ele>570</ele>
        <time>2025-09-16T13:37:07Z</time>
      </trkpt>
      <trkpt lat="45.46211" lon="4.24541">
        <ele>570</ele>
        <time>2025-09-16T13:37:10Z</time>
      </trkpt>
      <trkpt lat="45.46209" lon="4.24544">
        <ele>571</ele>
        <time>2025-09-16T13:37:12Z</time>
      </trkpt>
      <trkpt lat="45.46206" lon="4.24547">
        <ele>573</ele>
        <time>2025-09-16T13:37:14Z</time>
      </trkpt>
      <trkpt lat="45.46203" lon="4.24551">
        <ele>569</ele>
        <time>2025-09-16T13:37:16Z</time>
      </trkpt>
      <trkpt lat="45.46201" lon="4.24554">
        <ele>564</ele>
        <time>2025-09-16T13:37:18Z</time>
      </trkpt>
      <trkpt lat="45.46198" lon="4.24557">
        <ele>571</ele>
        <time>2025-09-16T13:37:20Z</time>
      </trkpt>
      <trkpt lat="45.46195" lon="4.24559">
        <ele>567</ele>
        <time>2025-09-16T13:37:22Z</time>
      </trkpt>
      <trkpt lat="45.46192" lon="4.24561">
        <ele>569</ele>
        <time>2025-09-16T13:37:24Z</time>
      </trkpt>
      <trkpt lat="45.46189" lon="4.24564">
        <ele>573</ele>
        <time>2025-09-16T13:37:27Z</time>
      </trkpt>
      <trkpt lat="45.46186" lon="4.24567">
        <ele>572</ele>
        <time>2025-09-16T13:37:29Z</time>
      </trkpt>
      <trkpt lat="45.46183" lon="4.2457">
        <ele>565</ele>
        <time>2025-09-16T13:37:31Z</time>
      </trkpt>
      <trkpt lat="45.46179" lon="4.24573">
        <ele>565</ele>
        <time>2025-09-16T13:37:33Z</time>
      </trkpt>
      <trkpt lat="45.46175" lon="4.24575">
        <ele>565</ele>
        <time>2025-09-16T13:37:35Z</time>
      </trkpt>
      <trkpt lat="45.46171" lon="4.24578">
        <ele>567</ele>
        <time>2025-09-16T13:37:37Z</time>
      </trkpt>
      <trkpt lat="45.46167" lon="4.2458">
        <ele>569</ele>
        <time>2025-09-16T13:37:39Z</time>
      </trkpt>
      <trkpt lat="45.46164" lon="4.24582">
        <ele>565</ele>
        <time>2025-09-16T13:37:41Z</time>
      </trkpt>
      <trkpt lat="45.4616" lon="4.24583">
        <ele>565</ele>
        <time>2025-09-16T13:37:43Z</time>
      </trkpt>
      <trkpt lat="45.46156" lon="4.24584">
        <ele>568</ele>
        <time>2025-09-16T13:37:45Z</time>
      </trkpt>
      <trkpt lat="45.46153" lon="4.24586">
        <ele>568</ele>
        <time>2025-09-16T13:37:47Z</time>
      </trkpt>
      <trkpt lat="45.4615" lon="4.24586">
        <ele>568</ele>
        <time>2025-09-16T13:37:49Z</time>
      </trkpt>
      <trkpt lat="45.46146" lon="4.24587">
        <ele>572</ele>
        <time>2025-09-16T13:37:52Z</time>
      </trkpt>
      <trkpt lat="45.46144" lon="4.24585">
        <ele>572</ele>
        <time>2025-09-16T13:38:40Z</time>
      </trkpt>
    </trkseg>
  </trk>
</gpx>